<?xml version="1.0" encoding="UTF-8" standalone="no" ?>
<gpx xmlns="http://www.topografix.com/GPX/1/1" xmlns:xsi="http://www.w3.org/2001/XMLSchema-instance" xsi:schemaLocation="http://www.topografix.com/GPX/1/1 http://www.topografix.com/GPX/1/1/gpx.xsd" version="1.1" creator="VisuGPX - https://www.visugpx.com">
  <metadata>
    <name>SORTIE DU 21 MAI 2010</name>
    <desc><![CDATA[foret de chaux-gendrey-serre les mouilleres-authume]]></desc>
  </metadata>
  <wpt lat="47.09263" lon="5.48543">
    <ele>-48</ele>
  </wpt>
  <wpt lat="47.09259" lon="5.48529">
    <ele>-48</ele>
  </wpt>
  <wpt lat="47.08989" lon="5.48473">
    <ele>-48</ele>
  </wpt>
  <trk>
    <name><![CDATA[SORTIE DU 21 MAI 2010_1]]></name>
    <trkseg>
      <trkpt lat="47.09263" lon="5.48543">
        <ele>-48</ele>
        <time>2010-05-21T11:24:45Z</time>
      </trkpt>
      <trkpt lat="47.09273" lon="5.48538">
        <ele>-48</ele>
        <time>2010-05-21T11:24:47Z</time>
      </trkpt>
      <trkpt lat="47.09259" lon="5.48529">
        <ele>-48</ele>
        <time>2010-05-21T11:24:54Z</time>
      </trkpt>
      <trkpt lat="47.08989" lon="5.48473">
        <ele>-48</ele>
        <time>2010-05-21T11:25:04Z</time>
      </trkpt>
      <trkpt lat="47.08989" lon="5.48473">
        <ele>231</ele>
        <time>2010-05-21T11:25:04Z</time>
      </trkpt>
      <trkpt lat="47.09002" lon="5.48478">
        <ele>218</ele>
        <time>2010-05-21T11:25:05Z</time>
      </trkpt>
      <trkpt lat="47.09015" lon="5.48481">
        <ele>206</ele>
        <time>2010-05-21T11:25:05Z</time>
      </trkpt>
      <trkpt lat="47.09025" lon="5.4848">
        <ele>196</ele>
        <time>2010-05-21T11:25:08Z</time>
      </trkpt>
      <trkpt lat="47.09042" lon="5.48487">
        <ele>181</ele>
        <time>2010-05-21T11:25:11Z</time>
      </trkpt>
      <trkpt lat="47.09053" lon="5.48491">
        <ele>172</ele>
        <time>2010-05-21T11:25:13Z</time>
      </trkpt>
      <trkpt lat="47.09061" lon="5.485">
        <ele>162</ele>
        <time>2010-05-21T11:25:19Z</time>
      </trkpt>
      <trkpt lat="47.09065" lon="5.48511">
        <ele>162</ele>
        <time>2010-05-21T11:25:27Z</time>
      </trkpt>
      <trkpt lat="47.09064" lon="5.48526">
        <ele>155</ele>
        <time>2010-05-21T11:25:31Z</time>
      </trkpt>
      <trkpt lat="47.09055" lon="5.48516">
        <ele>155</ele>
        <time>2010-05-21T11:25:36Z</time>
      </trkpt>
      <trkpt lat="47.09051" lon="5.48503">
        <ele>155</ele>
        <time>2010-05-21T11:25:38Z</time>
      </trkpt>
      <trkpt lat="47.09046" lon="5.48492">
        <ele>155</ele>
        <time>2010-05-21T11:25:40Z</time>
      </trkpt>
      <trkpt lat="47.09037" lon="5.48485">
        <ele>155</ele>
        <time>2010-05-21T11:25:42Z</time>
      </trkpt>
      <trkpt lat="47.09028" lon="5.48478">
        <ele>155</ele>
        <time>2010-05-21T11:25:44Z</time>
      </trkpt>
      <trkpt lat="47.09018" lon="5.48473">
        <ele>155</ele>
        <time>2010-05-21T11:25:46Z</time>
      </trkpt>
      <trkpt lat="47.09009" lon="5.48466">
        <ele>155</ele>
        <time>2010-05-21T11:25:48Z</time>
      </trkpt>
      <trkpt lat="47.09001" lon="5.48452">
        <ele>155</ele>
        <time>2010-05-21T11:25:51Z</time>
      </trkpt>
      <trkpt lat="47.08992" lon="5.48438">
        <ele>155</ele>
        <time>2010-05-21T11:25:54Z</time>
      </trkpt>
      <trkpt lat="47.08988" lon="5.48425">
        <ele>155</ele>
        <time>2010-05-21T11:25:56Z</time>
      </trkpt>
      <trkpt lat="47.08969" lon="5.48343">
        <ele>155</ele>
        <time>2010-05-21T11:26:07Z</time>
      </trkpt>
      <trkpt lat="47.0896" lon="5.48334">
        <ele>149</ele>
        <time>2010-05-21T11:26:09Z</time>
      </trkpt>
      <trkpt lat="47.08949" lon="5.48327">
        <ele>149</ele>
        <time>2010-05-21T11:26:11Z</time>
      </trkpt>
      <trkpt lat="47.08941" lon="5.48319">
        <ele>149</ele>
        <time>2010-05-21T11:26:13Z</time>
      </trkpt>
      <trkpt lat="47.08938" lon="5.48301">
        <ele>149</ele>
        <time>2010-05-21T11:26:17Z</time>
      </trkpt>
      <trkpt lat="47.08934" lon="5.48289">
        <ele>149</ele>
        <time>2010-05-21T11:26:19Z</time>
      </trkpt>
      <trkpt lat="47.08931" lon="5.48274">
        <ele>149</ele>
        <time>2010-05-21T11:26:21Z</time>
      </trkpt>
      <trkpt lat="47.08926" lon="5.48261">
        <ele>149</ele>
        <time>2010-05-21T11:26:23Z</time>
      </trkpt>
      <trkpt lat="47.08914" lon="5.48254">
        <ele>149</ele>
        <time>2010-05-21T11:26:25Z</time>
      </trkpt>
      <trkpt lat="47.08899" lon="5.48259">
        <ele>149</ele>
        <time>2010-05-21T11:26:27Z</time>
      </trkpt>
      <trkpt lat="47.08888" lon="5.48272">
        <ele>144</ele>
        <time>2010-05-21T11:26:29Z</time>
      </trkpt>
      <trkpt lat="47.08877" lon="5.48288">
        <ele>144</ele>
        <time>2010-05-21T11:26:31Z</time>
      </trkpt>
      <trkpt lat="47.08868" lon="5.48307">
        <ele>144</ele>
        <time>2010-05-21T11:26:33Z</time>
      </trkpt>
      <trkpt lat="47.08856" lon="5.48325">
        <ele>144</ele>
        <time>2010-05-21T11:26:35Z</time>
      </trkpt>
      <trkpt lat="47.08842" lon="5.4834">
        <ele>144</ele>
        <time>2010-05-21T11:26:37Z</time>
      </trkpt>
      <trkpt lat="47.08829" lon="5.48356">
        <ele>138</ele>
        <time>2010-05-21T11:26:39Z</time>
      </trkpt>
      <trkpt lat="47.08822" lon="5.48365">
        <ele>138</ele>
        <time>2010-05-21T11:26:40Z</time>
      </trkpt>
      <trkpt lat="47.08809" lon="5.4838">
        <ele>138</ele>
        <time>2010-05-21T11:26:42Z</time>
      </trkpt>
      <trkpt lat="47.08799" lon="5.48394">
        <ele>138</ele>
        <time>2010-05-21T11:26:44Z</time>
      </trkpt>
      <trkpt lat="47.08791" lon="5.48404">
        <ele>138</ele>
        <time>2010-05-21T11:26:46Z</time>
      </trkpt>
      <trkpt lat="47.08786" lon="5.48418">
        <ele>130</ele>
        <time>2010-05-21T11:26:51Z</time>
      </trkpt>
      <trkpt lat="47.08795" lon="5.48424">
        <ele>130</ele>
        <time>2010-05-21T11:26:58Z</time>
      </trkpt>
      <trkpt lat="47.08805" lon="5.4843">
        <ele>121</ele>
        <time>2010-05-21T11:27:06Z</time>
      </trkpt>
      <trkpt lat="47.08809" lon="5.48446">
        <ele>121</ele>
        <time>2010-05-21T11:27:12Z</time>
      </trkpt>
      <trkpt lat="47.08818" lon="5.48442">
        <ele>110</ele>
        <time>2010-05-21T11:27:23Z</time>
      </trkpt>
      <trkpt lat="47.08817" lon="5.48429">
        <ele>110</ele>
        <time>2010-05-21T11:27:32Z</time>
      </trkpt>
      <trkpt lat="47.08824" lon="5.48438">
        <ele>100</ele>
        <time>2010-05-21T11:27:43Z</time>
      </trkpt>
      <trkpt lat="47.088" lon="5.48426">
        <ele>121</ele>
        <time>2010-05-21T11:27:51Z</time>
      </trkpt>
      <trkpt lat="47.08781" lon="5.48422">
        <ele>137</ele>
        <time>2010-05-21T11:27:52Z</time>
      </trkpt>
      <trkpt lat="47.08767" lon="5.48419">
        <ele>150</ele>
        <time>2010-05-21T11:27:53Z</time>
      </trkpt>
      <trkpt lat="47.08757" lon="5.48416">
        <ele>160</ele>
        <time>2010-05-21T11:27:54Z</time>
      </trkpt>
      <trkpt lat="47.08749" lon="5.48413">
        <ele>170</ele>
        <time>2010-05-21T11:27:56Z</time>
      </trkpt>
      <trkpt lat="47.0874" lon="5.48406">
        <ele>184</ele>
        <time>2010-05-21T11:27:59Z</time>
      </trkpt>
      <trkpt lat="47.0873" lon="5.48402">
        <ele>194</ele>
        <time>2010-05-21T11:28:02Z</time>
      </trkpt>
      <trkpt lat="47.08719" lon="5.484">
        <ele>199</ele>
        <time>2010-05-21T11:28:05Z</time>
      </trkpt>
      <trkpt lat="47.08702" lon="5.48399">
        <ele>213</ele>
        <time>2010-05-21T11:28:07Z</time>
      </trkpt>
      <trkpt lat="47.08694" lon="5.48407">
        <ele>219</ele>
        <time>2010-05-21T11:28:09Z</time>
      </trkpt>
      <trkpt lat="47.08702" lon="5.48419">
        <ele>219</ele>
        <time>2010-05-21T11:28:13Z</time>
      </trkpt>
      <trkpt lat="47.08695" lon="5.48431">
        <ele>219</ele>
        <time>2010-05-21T11:28:14Z</time>
      </trkpt>
      <trkpt lat="47.08686" lon="5.48443">
        <ele>224</ele>
        <time>2010-05-21T11:28:15Z</time>
      </trkpt>
      <trkpt lat="47.08679" lon="5.48454">
        <ele>224</ele>
        <time>2010-05-21T11:28:16Z</time>
      </trkpt>
      <trkpt lat="47.08662" lon="5.48517">
        <ele>224</ele>
        <time>2010-05-21T11:28:22Z</time>
      </trkpt>
      <trkpt lat="47.08593" lon="5.48583">
        <ele>224</ele>
        <time>2010-05-21T11:28:33Z</time>
      </trkpt>
      <trkpt lat="47.08575" lon="5.48594">
        <ele>224</ele>
        <time>2010-05-21T11:28:34Z</time>
      </trkpt>
      <trkpt lat="47.08562" lon="5.48601">
        <ele>224</ele>
        <time>2010-05-21T11:28:35Z</time>
      </trkpt>
      <trkpt lat="47.08553" lon="5.48608">
        <ele>224</ele>
        <time>2010-05-21T11:28:36Z</time>
      </trkpt>
      <trkpt lat="47.08538" lon="5.4862">
        <ele>224</ele>
        <time>2010-05-21T11:28:38Z</time>
      </trkpt>
      <trkpt lat="47.08524" lon="5.48625">
        <ele>224</ele>
        <time>2010-05-21T11:28:40Z</time>
      </trkpt>
      <trkpt lat="47.08541" lon="5.48625">
        <ele>218</ele>
        <time>2010-05-21T11:28:45Z</time>
      </trkpt>
      <trkpt lat="47.08546" lon="5.48641">
        <ele>218</ele>
        <time>2010-05-21T11:28:48Z</time>
      </trkpt>
      <trkpt lat="47.0855" lon="5.48652">
        <ele>218</ele>
        <time>2010-05-21T11:28:50Z</time>
      </trkpt>
      <trkpt lat="47.08555" lon="5.48664">
        <ele>218</ele>
        <time>2010-05-21T11:28:52Z</time>
      </trkpt>
      <trkpt lat="47.08563" lon="5.48674">
        <ele>218</ele>
        <time>2010-05-21T11:28:54Z</time>
      </trkpt>
      <trkpt lat="47.0857" lon="5.48687">
        <ele>213</ele>
        <time>2010-05-21T11:28:56Z</time>
      </trkpt>
      <trkpt lat="47.08578" lon="5.48699">
        <ele>213</ele>
        <time>2010-05-21T11:28:58Z</time>
      </trkpt>
      <trkpt lat="47.08584" lon="5.48711">
        <ele>213</ele>
        <time>2010-05-21T11:29:00Z</time>
      </trkpt>
      <trkpt lat="47.0859" lon="5.48724">
        <ele>213</ele>
        <time>2010-05-21T11:29:02Z</time>
      </trkpt>
      <trkpt lat="47.08595" lon="5.48737">
        <ele>213</ele>
        <time>2010-05-21T11:29:04Z</time>
      </trkpt>
      <trkpt lat="47.08602" lon="5.4875">
        <ele>207</ele>
        <time>2010-05-21T11:29:06Z</time>
      </trkpt>
      <trkpt lat="47.0861" lon="5.48764">
        <ele>207</ele>
        <time>2010-05-21T11:29:08Z</time>
      </trkpt>
      <trkpt lat="47.08614" lon="5.48777">
        <ele>207</ele>
        <time>2010-05-21T11:29:10Z</time>
      </trkpt>
      <trkpt lat="47.08621" lon="5.48791">
        <ele>207</ele>
        <time>2010-05-21T11:29:12Z</time>
      </trkpt>
      <trkpt lat="47.08626" lon="5.48803">
        <ele>207</ele>
        <time>2010-05-21T11:29:14Z</time>
      </trkpt>
      <trkpt lat="47.08631" lon="5.48816">
        <ele>207</ele>
        <time>2010-05-21T11:29:16Z</time>
      </trkpt>
      <trkpt lat="47.08637" lon="5.48828">
        <ele>207</ele>
        <time>2010-05-21T11:29:18Z</time>
      </trkpt>
      <trkpt lat="47.08646" lon="5.48846">
        <ele>207</ele>
        <time>2010-05-21T11:29:21Z</time>
      </trkpt>
      <trkpt lat="47.0865" lon="5.48859">
        <ele>207</ele>
        <time>2010-05-21T11:29:23Z</time>
      </trkpt>
      <trkpt lat="47.08655" lon="5.48872">
        <ele>207</ele>
        <time>2010-05-21T11:29:25Z</time>
      </trkpt>
      <trkpt lat="47.08659" lon="5.48885">
        <ele>207</ele>
        <time>2010-05-21T11:29:27Z</time>
      </trkpt>
      <trkpt lat="47.08664" lon="5.48898">
        <ele>207</ele>
        <time>2010-05-21T11:29:29Z</time>
      </trkpt>
      <trkpt lat="47.08668" lon="5.48911">
        <ele>207</ele>
        <time>2010-05-21T11:29:31Z</time>
      </trkpt>
      <trkpt lat="47.08673" lon="5.48925">
        <ele>207</ele>
        <time>2010-05-21T11:29:33Z</time>
      </trkpt>
      <trkpt lat="47.08678" lon="5.48938">
        <ele>207</ele>
        <time>2010-05-21T11:29:35Z</time>
      </trkpt>
      <trkpt lat="47.08685" lon="5.48952">
        <ele>207</ele>
        <time>2010-05-21T11:29:37Z</time>
      </trkpt>
      <trkpt lat="47.08692" lon="5.48966">
        <ele>207</ele>
        <time>2010-05-21T11:29:39Z</time>
      </trkpt>
      <trkpt lat="47.08698" lon="5.48979">
        <ele>207</ele>
        <time>2010-05-21T11:29:41Z</time>
      </trkpt>
      <trkpt lat="47.08703" lon="5.48992">
        <ele>207</ele>
        <time>2010-05-21T11:29:43Z</time>
      </trkpt>
      <trkpt lat="47.0871" lon="5.49005">
        <ele>207</ele>
        <time>2010-05-21T11:29:45Z</time>
      </trkpt>
      <trkpt lat="47.08715" lon="5.49017">
        <ele>207</ele>
        <time>2010-05-21T11:29:47Z</time>
      </trkpt>
      <trkpt lat="47.08721" lon="5.49031">
        <ele>207</ele>
        <time>2010-05-21T11:29:49Z</time>
      </trkpt>
      <trkpt lat="47.08726" lon="5.49043">
        <ele>207</ele>
        <time>2010-05-21T11:29:51Z</time>
      </trkpt>
      <trkpt lat="47.0873" lon="5.49056">
        <ele>207</ele>
        <time>2010-05-21T11:29:53Z</time>
      </trkpt>
      <trkpt lat="47.08736" lon="5.49074">
        <ele>207</ele>
        <time>2010-05-21T11:29:56Z</time>
      </trkpt>
      <trkpt lat="47.0874" lon="5.49086">
        <ele>207</ele>
        <time>2010-05-21T11:29:58Z</time>
      </trkpt>
      <trkpt lat="47.08747" lon="5.49097">
        <ele>207</ele>
        <time>2010-05-21T11:30:00Z</time>
      </trkpt>
      <trkpt lat="47.08759" lon="5.49111">
        <ele>207</ele>
        <time>2010-05-21T11:30:03Z</time>
      </trkpt>
      <trkpt lat="47.08768" lon="5.4912">
        <ele>207</ele>
        <time>2010-05-21T11:30:05Z</time>
      </trkpt>
      <trkpt lat="47.08776" lon="5.49128">
        <ele>207</ele>
        <time>2010-05-21T11:30:07Z</time>
      </trkpt>
      <trkpt lat="47.08786" lon="5.49138">
        <ele>207</ele>
        <time>2010-05-21T11:30:10Z</time>
      </trkpt>
      <trkpt lat="47.08795" lon="5.49147">
        <ele>219</ele>
        <time>2010-05-21T11:30:15Z</time>
      </trkpt>
      <trkpt lat="47.08803" lon="5.49153">
        <ele>219</ele>
        <time>2010-05-21T11:30:17Z</time>
      </trkpt>
      <trkpt lat="47.08811" lon="5.4916">
        <ele>219</ele>
        <time>2010-05-21T11:30:20Z</time>
      </trkpt>
      <trkpt lat="47.08821" lon="5.49166">
        <ele>219</ele>
        <time>2010-05-21T11:30:23Z</time>
      </trkpt>
      <trkpt lat="47.0883" lon="5.49175">
        <ele>219</ele>
        <time>2010-05-21T11:30:25Z</time>
      </trkpt>
      <trkpt lat="47.0884" lon="5.49194">
        <ele>233</ele>
        <time>2010-05-21T11:30:30Z</time>
      </trkpt>
      <trkpt lat="47.08855" lon="5.49199">
        <ele>233</ele>
        <time>2010-05-21T11:30:32Z</time>
      </trkpt>
      <trkpt lat="47.08867" lon="5.49209">
        <ele>233</ele>
        <time>2010-05-21T11:30:34Z</time>
      </trkpt>
      <trkpt lat="47.08875" lon="5.49213">
        <ele>233</ele>
        <time>2010-05-21T11:30:35Z</time>
      </trkpt>
      <trkpt lat="47.08886" lon="5.49225">
        <ele>233</ele>
        <time>2010-05-21T11:30:37Z</time>
      </trkpt>
      <trkpt lat="47.08899" lon="5.49232">
        <ele>233</ele>
        <time>2010-05-21T11:30:39Z</time>
      </trkpt>
      <trkpt lat="47.08907" lon="5.49242">
        <ele>233</ele>
        <time>2010-05-21T11:30:40Z</time>
      </trkpt>
      <trkpt lat="47.08915" lon="5.49248">
        <ele>225</ele>
        <time>2010-05-21T11:30:42Z</time>
      </trkpt>
      <trkpt lat="47.0891" lon="5.4926">
        <ele>225</ele>
        <time>2010-05-21T11:30:50Z</time>
      </trkpt>
      <trkpt lat="47.0894" lon="5.49267">
        <ele>243</ele>
        <time>2010-05-21T11:30:57Z</time>
      </trkpt>
      <trkpt lat="47.08931" lon="5.49279">
        <ele>243</ele>
        <time>2010-05-21T11:30:58Z</time>
      </trkpt>
      <trkpt lat="47.08922" lon="5.49292">
        <ele>243</ele>
        <time>2010-05-21T11:30:59Z</time>
      </trkpt>
      <trkpt lat="47.0892" lon="5.49312">
        <ele>252</ele>
        <time>2010-05-21T11:31:01Z</time>
      </trkpt>
      <trkpt lat="47.08917" lon="5.49329">
        <ele>252</ele>
        <time>2010-05-21T11:31:03Z</time>
      </trkpt>
      <trkpt lat="47.08911" lon="5.49347">
        <ele>262</ele>
        <time>2010-05-21T11:31:05Z</time>
      </trkpt>
      <trkpt lat="47.08905" lon="5.49361">
        <ele>262</ele>
        <time>2010-05-21T11:31:07Z</time>
      </trkpt>
      <trkpt lat="47.08897" lon="5.49375">
        <ele>262</ele>
        <time>2010-05-21T11:31:09Z</time>
      </trkpt>
      <trkpt lat="47.08888" lon="5.49385">
        <ele>262</ele>
        <time>2010-05-21T11:31:11Z</time>
      </trkpt>
      <trkpt lat="47.08876" lon="5.49396">
        <ele>262</ele>
        <time>2010-05-21T11:31:13Z</time>
      </trkpt>
      <trkpt lat="47.08865" lon="5.49405">
        <ele>262</ele>
        <time>2010-05-21T11:31:15Z</time>
      </trkpt>
      <trkpt lat="47.08841" lon="5.49424">
        <ele>262</ele>
        <time>2010-05-21T11:31:17Z</time>
      </trkpt>
      <trkpt lat="47.08832" lon="5.49432">
        <ele>262</ele>
        <time>2010-05-21T11:31:18Z</time>
      </trkpt>
      <trkpt lat="47.08824" lon="5.49438">
        <ele>262</ele>
        <time>2010-05-21T11:31:19Z</time>
      </trkpt>
      <trkpt lat="47.08813" lon="5.49447">
        <ele>262</ele>
        <time>2010-05-21T11:31:21Z</time>
      </trkpt>
      <trkpt lat="47.08803" lon="5.49454">
        <ele>262</ele>
        <time>2010-05-21T11:31:23Z</time>
      </trkpt>
      <trkpt lat="47.08794" lon="5.4946">
        <ele>256</ele>
        <time>2010-05-21T11:31:25Z</time>
      </trkpt>
      <trkpt lat="47.08786" lon="5.49467">
        <ele>256</ele>
        <time>2010-05-21T11:31:27Z</time>
      </trkpt>
      <trkpt lat="47.08776" lon="5.49474">
        <ele>256</ele>
        <time>2010-05-21T11:31:29Z</time>
      </trkpt>
      <trkpt lat="47.08768" lon="5.49482">
        <ele>256</ele>
        <time>2010-05-21T11:31:31Z</time>
      </trkpt>
      <trkpt lat="47.08759" lon="5.49491">
        <ele>256</ele>
        <time>2010-05-21T11:31:33Z</time>
      </trkpt>
      <trkpt lat="47.08749" lon="5.49498">
        <ele>256</ele>
        <time>2010-05-21T11:31:35Z</time>
      </trkpt>
      <trkpt lat="47.08738" lon="5.49507">
        <ele>256</ele>
        <time>2010-05-21T11:31:37Z</time>
      </trkpt>
      <trkpt lat="47.08729" lon="5.49513">
        <ele>256</ele>
        <time>2010-05-21T11:31:39Z</time>
      </trkpt>
      <trkpt lat="47.08723" lon="5.49525">
        <ele>241</ele>
        <time>2010-05-21T11:31:42Z</time>
      </trkpt>
      <trkpt lat="47.08711" lon="5.49528">
        <ele>235</ele>
        <time>2010-05-21T11:31:45Z</time>
      </trkpt>
      <trkpt lat="47.08703" lon="5.49517">
        <ele>230</ele>
        <time>2010-05-21T11:31:47Z</time>
      </trkpt>
      <trkpt lat="47.08697" lon="5.495">
        <ele>230</ele>
        <time>2010-05-21T11:31:49Z</time>
      </trkpt>
      <trkpt lat="47.08697" lon="5.49464">
        <ele>220</ele>
        <time>2010-05-21T11:31:52Z</time>
      </trkpt>
      <trkpt lat="47.08699" lon="5.49441">
        <ele>220</ele>
        <time>2010-05-21T11:31:54Z</time>
      </trkpt>
      <trkpt lat="47.08698" lon="5.49418">
        <ele>220</ele>
        <time>2010-05-21T11:31:56Z</time>
      </trkpt>
      <trkpt lat="47.08694" lon="5.49396">
        <ele>214</ele>
        <time>2010-05-21T11:31:58Z</time>
      </trkpt>
      <trkpt lat="47.08689" lon="5.49374">
        <ele>214</ele>
        <time>2010-05-21T11:32:00Z</time>
      </trkpt>
      <trkpt lat="47.08683" lon="5.49353">
        <ele>214</ele>
        <time>2010-05-21T11:32:02Z</time>
      </trkpt>
      <trkpt lat="47.08678" lon="5.49332">
        <ele>214</ele>
        <time>2010-05-21T11:32:04Z</time>
      </trkpt>
      <trkpt lat="47.08673" lon="5.49312">
        <ele>214</ele>
        <time>2010-05-21T11:32:06Z</time>
      </trkpt>
      <trkpt lat="47.08668" lon="5.49293">
        <ele>214</ele>
        <time>2010-05-21T11:32:08Z</time>
      </trkpt>
      <trkpt lat="47.08664" lon="5.49274">
        <ele>208</ele>
        <time>2010-05-21T11:32:10Z</time>
      </trkpt>
      <trkpt lat="47.08659" lon="5.49256">
        <ele>208</ele>
        <time>2010-05-21T11:32:12Z</time>
      </trkpt>
      <trkpt lat="47.08655" lon="5.49238">
        <ele>208</ele>
        <time>2010-05-21T11:32:14Z</time>
      </trkpt>
      <trkpt lat="47.08649" lon="5.4922">
        <ele>208</ele>
        <time>2010-05-21T11:32:16Z</time>
      </trkpt>
      <trkpt lat="47.08644" lon="5.49204">
        <ele>208</ele>
        <time>2010-05-21T11:32:18Z</time>
      </trkpt>
      <trkpt lat="47.08637" lon="5.49188">
        <ele>208</ele>
        <time>2010-05-21T11:32:20Z</time>
      </trkpt>
      <trkpt lat="47.0863" lon="5.49174">
        <ele>208</ele>
        <time>2010-05-21T11:32:22Z</time>
      </trkpt>
      <trkpt lat="47.08621" lon="5.49161">
        <ele>208</ele>
        <time>2010-05-21T11:32:24Z</time>
      </trkpt>
      <trkpt lat="47.08612" lon="5.49149">
        <ele>208</ele>
        <time>2010-05-21T11:32:26Z</time>
      </trkpt>
      <trkpt lat="47.08602" lon="5.49139">
        <ele>208</ele>
        <time>2010-05-21T11:32:28Z</time>
      </trkpt>
      <trkpt lat="47.08593" lon="5.4913">
        <ele>208</ele>
        <time>2010-05-21T11:32:30Z</time>
      </trkpt>
      <trkpt lat="47.08584" lon="5.49122">
        <ele>208</ele>
        <time>2010-05-21T11:32:32Z</time>
      </trkpt>
      <trkpt lat="47.08575" lon="5.49112">
        <ele>208</ele>
        <time>2010-05-21T11:32:34Z</time>
      </trkpt>
      <trkpt lat="47.08565" lon="5.49101">
        <ele>208</ele>
        <time>2010-05-21T11:32:36Z</time>
      </trkpt>
      <trkpt lat="47.08556" lon="5.49088">
        <ele>208</ele>
        <time>2010-05-21T11:32:38Z</time>
      </trkpt>
      <trkpt lat="47.08546" lon="5.49076">
        <ele>208</ele>
        <time>2010-05-21T11:32:40Z</time>
      </trkpt>
      <trkpt lat="47.08537" lon="5.49064">
        <ele>208</ele>
        <time>2010-05-21T11:32:42Z</time>
      </trkpt>
      <trkpt lat="47.08527" lon="5.49049">
        <ele>208</ele>
        <time>2010-05-21T11:32:44Z</time>
      </trkpt>
      <trkpt lat="47.08519" lon="5.49035">
        <ele>208</ele>
        <time>2010-05-21T11:32:46Z</time>
      </trkpt>
      <trkpt lat="47.0851" lon="5.49022">
        <ele>208</ele>
        <time>2010-05-21T11:32:48Z</time>
      </trkpt>
      <trkpt lat="47.08501" lon="5.49007">
        <ele>208</ele>
        <time>2010-05-21T11:32:50Z</time>
      </trkpt>
      <trkpt lat="47.08491" lon="5.48994">
        <ele>208</ele>
        <time>2010-05-21T11:32:52Z</time>
      </trkpt>
      <trkpt lat="47.08481" lon="5.48979">
        <ele>208</ele>
        <time>2010-05-21T11:32:54Z</time>
      </trkpt>
      <trkpt lat="47.08472" lon="5.48964">
        <ele>208</ele>
        <time>2010-05-21T11:32:56Z</time>
      </trkpt>
      <trkpt lat="47.08462" lon="5.4895">
        <ele>208</ele>
        <time>2010-05-21T11:32:58Z</time>
      </trkpt>
      <trkpt lat="47.08454" lon="5.48935">
        <ele>208</ele>
        <time>2010-05-21T11:33:00Z</time>
      </trkpt>
      <trkpt lat="47.08445" lon="5.48921">
        <ele>208</ele>
        <time>2010-05-21T11:33:02Z</time>
      </trkpt>
      <trkpt lat="47.08435" lon="5.48907">
        <ele>208</ele>
        <time>2010-05-21T11:33:04Z</time>
      </trkpt>
      <trkpt lat="47.08427" lon="5.48893">
        <ele>208</ele>
        <time>2010-05-21T11:33:06Z</time>
      </trkpt>
      <trkpt lat="47.08418" lon="5.48879">
        <ele>208</ele>
        <time>2010-05-21T11:33:08Z</time>
      </trkpt>
      <trkpt lat="47.08409" lon="5.48864">
        <ele>208</ele>
        <time>2010-05-21T11:33:10Z</time>
      </trkpt>
      <trkpt lat="47.08404" lon="5.48846">
        <ele>208</ele>
        <time>2010-05-21T11:33:12Z</time>
      </trkpt>
      <trkpt lat="47.08398" lon="5.4883">
        <ele>208</ele>
        <time>2010-05-21T11:33:14Z</time>
      </trkpt>
      <trkpt lat="47.08387" lon="5.4882">
        <ele>208</ele>
        <time>2010-05-21T11:33:16Z</time>
      </trkpt>
      <trkpt lat="47.08376" lon="5.48811">
        <ele>208</ele>
        <time>2010-05-21T11:33:18Z</time>
      </trkpt>
      <trkpt lat="47.08367" lon="5.48797">
        <ele>208</ele>
        <time>2010-05-21T11:33:20Z</time>
      </trkpt>
      <trkpt lat="47.08358" lon="5.48783">
        <ele>208</ele>
        <time>2010-05-21T11:33:22Z</time>
      </trkpt>
      <trkpt lat="47.08349" lon="5.48767">
        <ele>208</ele>
        <time>2010-05-21T11:33:24Z</time>
      </trkpt>
      <trkpt lat="47.0834" lon="5.48753">
        <ele>208</ele>
        <time>2010-05-21T11:33:26Z</time>
      </trkpt>
      <trkpt lat="47.08331" lon="5.48739">
        <ele>208</ele>
        <time>2010-05-21T11:33:28Z</time>
      </trkpt>
      <trkpt lat="47.08322" lon="5.48724">
        <ele>208</ele>
        <time>2010-05-21T11:33:30Z</time>
      </trkpt>
      <trkpt lat="47.08312" lon="5.4871">
        <ele>208</ele>
        <time>2010-05-21T11:33:32Z</time>
      </trkpt>
      <trkpt lat="47.08304" lon="5.48696">
        <ele>208</ele>
        <time>2010-05-21T11:33:34Z</time>
      </trkpt>
      <trkpt lat="47.08296" lon="5.48682">
        <ele>208</ele>
        <time>2010-05-21T11:33:36Z</time>
      </trkpt>
      <trkpt lat="47.08287" lon="5.48668">
        <ele>208</ele>
        <time>2010-05-21T11:33:38Z</time>
      </trkpt>
      <trkpt lat="47.08278" lon="5.48653">
        <ele>208</ele>
        <time>2010-05-21T11:33:40Z</time>
      </trkpt>
      <trkpt lat="47.08268" lon="5.48639">
        <ele>208</ele>
        <time>2010-05-21T11:33:42Z</time>
      </trkpt>
      <trkpt lat="47.08259" lon="5.48625">
        <ele>208</ele>
        <time>2010-05-21T11:33:44Z</time>
      </trkpt>
      <trkpt lat="47.08249" lon="5.48611">
        <ele>208</ele>
        <time>2010-05-21T11:33:46Z</time>
      </trkpt>
      <trkpt lat="47.08238" lon="5.48598">
        <ele>208</ele>
        <time>2010-05-21T11:33:48Z</time>
      </trkpt>
      <trkpt lat="47.08229" lon="5.48586">
        <ele>208</ele>
        <time>2010-05-21T11:33:50Z</time>
      </trkpt>
      <trkpt lat="47.08218" lon="5.48575">
        <ele>208</ele>
        <time>2010-05-21T11:33:52Z</time>
      </trkpt>
      <trkpt lat="47.08207" lon="5.48565">
        <ele>208</ele>
        <time>2010-05-21T11:33:54Z</time>
      </trkpt>
      <trkpt lat="47.08196" lon="5.48555">
        <ele>208</ele>
        <time>2010-05-21T11:33:56Z</time>
      </trkpt>
      <trkpt lat="47.08184" lon="5.48545">
        <ele>208</ele>
        <time>2010-05-21T11:33:58Z</time>
      </trkpt>
      <trkpt lat="47.08173" lon="5.48537">
        <ele>208</ele>
        <time>2010-05-21T11:34:00Z</time>
      </trkpt>
      <trkpt lat="47.08162" lon="5.48528">
        <ele>208</ele>
        <time>2010-05-21T11:34:02Z</time>
      </trkpt>
      <trkpt lat="47.08151" lon="5.48519">
        <ele>208</ele>
        <time>2010-05-21T11:34:04Z</time>
      </trkpt>
      <trkpt lat="47.08139" lon="5.48511">
        <ele>208</ele>
        <time>2010-05-21T11:34:06Z</time>
      </trkpt>
      <trkpt lat="47.08127" lon="5.48502">
        <ele>208</ele>
        <time>2010-05-21T11:34:08Z</time>
      </trkpt>
      <trkpt lat="47.08116" lon="5.48494">
        <ele>208</ele>
        <time>2010-05-21T11:34:10Z</time>
      </trkpt>
      <trkpt lat="47.08104" lon="5.48484">
        <ele>208</ele>
        <time>2010-05-21T11:34:12Z</time>
      </trkpt>
      <trkpt lat="47.08092" lon="5.48475">
        <ele>208</ele>
        <time>2010-05-21T11:34:14Z</time>
      </trkpt>
      <trkpt lat="47.0808" lon="5.4847">
        <ele>208</ele>
        <time>2010-05-21T11:34:16Z</time>
      </trkpt>
      <trkpt lat="47.08067" lon="5.48472">
        <ele>208</ele>
        <time>2010-05-21T11:34:18Z</time>
      </trkpt>
      <trkpt lat="47.08056" lon="5.48481">
        <ele>208</ele>
        <time>2010-05-21T11:34:20Z</time>
      </trkpt>
      <trkpt lat="47.08048" lon="5.48497">
        <ele>208</ele>
        <time>2010-05-21T11:34:22Z</time>
      </trkpt>
      <trkpt lat="47.08043" lon="5.48513">
        <ele>208</ele>
        <time>2010-05-21T11:34:24Z</time>
      </trkpt>
      <trkpt lat="47.08036" lon="5.48529">
        <ele>208</ele>
        <time>2010-05-21T11:34:26Z</time>
      </trkpt>
      <trkpt lat="47.08032" lon="5.48546">
        <ele>208</ele>
        <time>2010-05-21T11:34:28Z</time>
      </trkpt>
      <trkpt lat="47.08027" lon="5.48563">
        <ele>208</ele>
        <time>2010-05-21T11:34:30Z</time>
      </trkpt>
      <trkpt lat="47.08023" lon="5.48581">
        <ele>215</ele>
        <time>2010-05-21T11:34:32Z</time>
      </trkpt>
      <trkpt lat="47.08016" lon="5.48598">
        <ele>215</ele>
        <time>2010-05-21T11:34:34Z</time>
      </trkpt>
      <trkpt lat="47.08009" lon="5.48613">
        <ele>215</ele>
        <time>2010-05-21T11:34:36Z</time>
      </trkpt>
      <trkpt lat="47.08002" lon="5.48626">
        <ele>215</ele>
        <time>2010-05-21T11:34:38Z</time>
      </trkpt>
      <trkpt lat="47.07997" lon="5.4864">
        <ele>215</ele>
        <time>2010-05-21T11:34:40Z</time>
      </trkpt>
      <trkpt lat="47.07992" lon="5.48654">
        <ele>215</ele>
        <time>2010-05-21T11:34:42Z</time>
      </trkpt>
      <trkpt lat="47.07986" lon="5.48669">
        <ele>215</ele>
        <time>2010-05-21T11:34:44Z</time>
      </trkpt>
      <trkpt lat="47.07981" lon="5.48683">
        <ele>215</ele>
        <time>2010-05-21T11:34:46Z</time>
      </trkpt>
      <trkpt lat="47.07976" lon="5.48699">
        <ele>215</ele>
        <time>2010-05-21T11:34:48Z</time>
      </trkpt>
      <trkpt lat="47.0797" lon="5.48713">
        <ele>215</ele>
        <time>2010-05-21T11:34:50Z</time>
      </trkpt>
      <trkpt lat="47.07965" lon="5.4873">
        <ele>215</ele>
        <time>2010-05-21T11:34:52Z</time>
      </trkpt>
      <trkpt lat="47.0796" lon="5.48744">
        <ele>215</ele>
        <time>2010-05-21T11:34:54Z</time>
      </trkpt>
      <trkpt lat="47.07955" lon="5.4876">
        <ele>215</ele>
        <time>2010-05-21T11:34:56Z</time>
      </trkpt>
      <trkpt lat="47.0795" lon="5.48776">
        <ele>215</ele>
        <time>2010-05-21T11:34:58Z</time>
      </trkpt>
      <trkpt lat="47.07944" lon="5.48793">
        <ele>215</ele>
        <time>2010-05-21T11:35:00Z</time>
      </trkpt>
      <trkpt lat="47.07938" lon="5.4881">
        <ele>215</ele>
        <time>2010-05-21T11:35:02Z</time>
      </trkpt>
      <trkpt lat="47.07933" lon="5.48824">
        <ele>215</ele>
        <time>2010-05-21T11:35:04Z</time>
      </trkpt>
      <trkpt lat="47.07928" lon="5.4884">
        <ele>215</ele>
        <time>2010-05-21T11:35:06Z</time>
      </trkpt>
      <trkpt lat="47.07923" lon="5.48856">
        <ele>215</ele>
        <time>2010-05-21T11:35:08Z</time>
      </trkpt>
      <trkpt lat="47.07918" lon="5.48871">
        <ele>215</ele>
        <time>2010-05-21T11:35:10Z</time>
      </trkpt>
      <trkpt lat="47.07915" lon="5.48886">
        <ele>215</ele>
        <time>2010-05-21T11:35:12Z</time>
      </trkpt>
      <trkpt lat="47.07908" lon="5.48903">
        <ele>215</ele>
        <time>2010-05-21T11:35:14Z</time>
      </trkpt>
      <trkpt lat="47.07903" lon="5.48918">
        <ele>215</ele>
        <time>2010-05-21T11:35:16Z</time>
      </trkpt>
      <trkpt lat="47.07897" lon="5.48933">
        <ele>215</ele>
        <time>2010-05-21T11:35:18Z</time>
      </trkpt>
      <trkpt lat="47.0789" lon="5.48943">
        <ele>215</ele>
        <time>2010-05-21T11:35:20Z</time>
      </trkpt>
      <trkpt lat="47.07879" lon="5.48952">
        <ele>215</ele>
        <time>2010-05-21T11:35:22Z</time>
      </trkpt>
      <trkpt lat="47.0787" lon="5.48958">
        <ele>215</ele>
        <time>2010-05-21T11:35:24Z</time>
      </trkpt>
      <trkpt lat="47.07857" lon="5.4896">
        <ele>215</ele>
        <time>2010-05-21T11:35:26Z</time>
      </trkpt>
      <trkpt lat="47.07845" lon="5.4896">
        <ele>215</ele>
        <time>2010-05-21T11:35:28Z</time>
      </trkpt>
      <trkpt lat="47.07832" lon="5.48955">
        <ele>215</ele>
        <time>2010-05-21T11:35:30Z</time>
      </trkpt>
      <trkpt lat="47.07822" lon="5.48946">
        <ele>215</ele>
        <time>2010-05-21T11:35:32Z</time>
      </trkpt>
      <trkpt lat="47.07814" lon="5.48932">
        <ele>210</ele>
        <time>2010-05-21T11:35:34Z</time>
      </trkpt>
      <trkpt lat="47.0781" lon="5.48916">
        <ele>210</ele>
        <time>2010-05-21T11:35:36Z</time>
      </trkpt>
      <trkpt lat="47.07806" lon="5.48899">
        <ele>210</ele>
        <time>2010-05-21T11:35:38Z</time>
      </trkpt>
      <trkpt lat="47.07798" lon="5.48887">
        <ele>210</ele>
        <time>2010-05-21T11:35:40Z</time>
      </trkpt>
      <trkpt lat="47.07789" lon="5.48878">
        <ele>210</ele>
        <time>2010-05-21T11:35:42Z</time>
      </trkpt>
      <trkpt lat="47.07777" lon="5.48876">
        <ele>210</ele>
        <time>2010-05-21T11:35:44Z</time>
      </trkpt>
      <trkpt lat="47.07765" lon="5.48879">
        <ele>210</ele>
        <time>2010-05-21T11:35:46Z</time>
      </trkpt>
      <trkpt lat="47.07755" lon="5.48889">
        <ele>210</ele>
        <time>2010-05-21T11:35:48Z</time>
      </trkpt>
      <trkpt lat="47.07748" lon="5.48905">
        <ele>210</ele>
        <time>2010-05-21T11:35:50Z</time>
      </trkpt>
      <trkpt lat="47.07743" lon="5.48923">
        <ele>210</ele>
        <time>2010-05-21T11:35:52Z</time>
      </trkpt>
      <trkpt lat="47.07735" lon="5.4894">
        <ele>210</ele>
        <time>2010-05-21T11:35:54Z</time>
      </trkpt>
      <trkpt lat="47.07725" lon="5.48953">
        <ele>210</ele>
        <time>2010-05-21T11:35:56Z</time>
      </trkpt>
      <trkpt lat="47.07714" lon="5.48966">
        <ele>216</ele>
        <time>2010-05-21T11:35:58Z</time>
      </trkpt>
      <trkpt lat="47.07705" lon="5.48974">
        <ele>216</ele>
        <time>2010-05-21T11:36:00Z</time>
      </trkpt>
      <trkpt lat="47.07695" lon="5.48985">
        <ele>216</ele>
        <time>2010-05-21T11:36:02Z</time>
      </trkpt>
      <trkpt lat="47.07684" lon="5.48994">
        <ele>216</ele>
        <time>2010-05-21T11:36:04Z</time>
      </trkpt>
      <trkpt lat="47.07675" lon="5.49004">
        <ele>216</ele>
        <time>2010-05-21T11:36:06Z</time>
      </trkpt>
      <trkpt lat="47.07665" lon="5.49014">
        <ele>216</ele>
        <time>2010-05-21T11:36:08Z</time>
      </trkpt>
      <trkpt lat="47.07656" lon="5.49024">
        <ele>216</ele>
        <time>2010-05-21T11:36:09Z</time>
      </trkpt>
      <trkpt lat="47.07645" lon="5.49036">
        <ele>216</ele>
        <time>2010-05-21T11:36:11Z</time>
      </trkpt>
      <trkpt lat="47.07635" lon="5.49049">
        <ele>216</ele>
        <time>2010-05-21T11:36:13Z</time>
      </trkpt>
      <trkpt lat="47.07626" lon="5.49061">
        <ele>216</ele>
        <time>2010-05-21T11:36:15Z</time>
      </trkpt>
      <trkpt lat="47.07619" lon="5.49072">
        <ele>216</ele>
        <time>2010-05-21T11:36:17Z</time>
      </trkpt>
      <trkpt lat="47.07611" lon="5.49084">
        <ele>216</ele>
        <time>2010-05-21T11:36:19Z</time>
      </trkpt>
      <trkpt lat="47.07602" lon="5.49097">
        <ele>216</ele>
        <time>2010-05-21T11:36:21Z</time>
      </trkpt>
      <trkpt lat="47.07593" lon="5.49111">
        <ele>216</ele>
        <time>2010-05-21T11:36:23Z</time>
      </trkpt>
      <trkpt lat="47.07586" lon="5.49124">
        <ele>216</ele>
        <time>2010-05-21T11:36:25Z</time>
      </trkpt>
      <trkpt lat="47.07579" lon="5.49139">
        <ele>216</ele>
        <time>2010-05-21T11:36:27Z</time>
      </trkpt>
      <trkpt lat="47.07571" lon="5.49153">
        <ele>216</ele>
        <time>2010-05-21T11:36:29Z</time>
      </trkpt>
      <trkpt lat="47.07564" lon="5.49165">
        <ele>216</ele>
        <time>2010-05-21T11:36:31Z</time>
      </trkpt>
      <trkpt lat="47.07557" lon="5.49177">
        <ele>216</ele>
        <time>2010-05-21T11:36:33Z</time>
      </trkpt>
      <trkpt lat="47.07549" lon="5.49189">
        <ele>216</ele>
        <time>2010-05-21T11:36:35Z</time>
      </trkpt>
      <trkpt lat="47.07541" lon="5.49201">
        <ele>216</ele>
        <time>2010-05-21T11:36:37Z</time>
      </trkpt>
      <trkpt lat="47.07534" lon="5.49216">
        <ele>216</ele>
        <time>2010-05-21T11:36:39Z</time>
      </trkpt>
      <trkpt lat="47.07528" lon="5.4923">
        <ele>216</ele>
        <time>2010-05-21T11:36:41Z</time>
      </trkpt>
      <trkpt lat="47.07522" lon="5.49245">
        <ele>216</ele>
        <time>2010-05-21T11:36:43Z</time>
      </trkpt>
      <trkpt lat="47.07515" lon="5.4926">
        <ele>216</ele>
        <time>2010-05-21T11:36:45Z</time>
      </trkpt>
      <trkpt lat="47.07509" lon="5.49273">
        <ele>216</ele>
        <time>2010-05-21T11:36:47Z</time>
      </trkpt>
      <trkpt lat="47.07502" lon="5.49287">
        <ele>216</ele>
        <time>2010-05-21T11:36:49Z</time>
      </trkpt>
      <trkpt lat="47.07495" lon="5.49298">
        <ele>216</ele>
        <time>2010-05-21T11:36:51Z</time>
      </trkpt>
      <trkpt lat="47.0749" lon="5.49311">
        <ele>216</ele>
        <time>2010-05-21T11:36:53Z</time>
      </trkpt>
      <trkpt lat="47.07485" lon="5.49323">
        <ele>216</ele>
        <time>2010-05-21T11:36:55Z</time>
      </trkpt>
      <trkpt lat="47.0748" lon="5.49338">
        <ele>216</ele>
        <time>2010-05-21T11:36:58Z</time>
      </trkpt>
      <trkpt lat="47.07473" lon="5.49354">
        <ele>216</ele>
        <time>2010-05-21T11:37:01Z</time>
      </trkpt>
      <trkpt lat="47.07466" lon="5.49369">
        <ele>216</ele>
        <time>2010-05-21T11:37:05Z</time>
      </trkpt>
      <trkpt lat="47.07461" lon="5.4938">
        <ele>216</ele>
        <time>2010-05-21T11:37:07Z</time>
      </trkpt>
      <trkpt lat="47.07455" lon="5.4939">
        <ele>216</ele>
        <time>2010-05-21T11:37:09Z</time>
      </trkpt>
      <trkpt lat="47.07447" lon="5.494">
        <ele>216</ele>
        <time>2010-05-21T11:37:11Z</time>
      </trkpt>
      <trkpt lat="47.07438" lon="5.49409">
        <ele>216</ele>
        <time>2010-05-21T11:37:14Z</time>
      </trkpt>
      <trkpt lat="47.07429" lon="5.49414">
        <ele>216</ele>
        <time>2010-05-21T11:37:16Z</time>
      </trkpt>
      <trkpt lat="47.07422" lon="5.49424">
        <ele>216</ele>
        <time>2010-05-21T11:37:18Z</time>
      </trkpt>
      <trkpt lat="47.0742" lon="5.49444">
        <ele>216</ele>
        <time>2010-05-21T11:37:21Z</time>
      </trkpt>
      <trkpt lat="47.07422" lon="5.49457">
        <ele>216</ele>
        <time>2010-05-21T11:37:23Z</time>
      </trkpt>
      <trkpt lat="47.0743" lon="5.49467">
        <ele>216</ele>
        <time>2010-05-21T11:37:25Z</time>
      </trkpt>
      <trkpt lat="47.07435" lon="5.49485">
        <ele>216</ele>
        <time>2010-05-21T11:37:28Z</time>
      </trkpt>
      <trkpt lat="47.07431" lon="5.495">
        <ele>216</ele>
        <time>2010-05-21T11:37:31Z</time>
      </trkpt>
      <trkpt lat="47.07426" lon="5.49512">
        <ele>216</ele>
        <time>2010-05-21T11:37:34Z</time>
      </trkpt>
      <trkpt lat="47.0743" lon="5.49524">
        <ele>216</ele>
        <time>2010-05-21T11:39:12Z</time>
      </trkpt>
      <trkpt lat="47.07422" lon="5.49517">
        <ele>216</ele>
        <time>2010-05-21T11:41:42Z</time>
      </trkpt>
      <trkpt lat="47.07427" lon="5.49528">
        <ele>216</ele>
        <time>2010-05-21T11:46:16Z</time>
      </trkpt>
      <trkpt lat="47.07419" lon="5.49522">
        <ele>216</ele>
        <time>2010-05-21T11:52:40Z</time>
      </trkpt>
      <trkpt lat="47.07426" lon="5.49513">
        <ele>224</ele>
        <time>2010-05-21T11:55:54Z</time>
      </trkpt>
      <trkpt lat="47.0743" lon="5.495">
        <ele>224</ele>
        <time>2010-05-21T12:01:23Z</time>
      </trkpt>
      <trkpt lat="47.07435" lon="5.49488">
        <ele>217</ele>
        <time>2010-05-21T12:01:27Z</time>
      </trkpt>
      <trkpt lat="47.07437" lon="5.49473">
        <ele>217</ele>
        <time>2010-05-21T12:01:33Z</time>
      </trkpt>
      <trkpt lat="47.07442" lon="5.4946">
        <ele>217</ele>
        <time>2010-05-21T12:01:38Z</time>
      </trkpt>
      <trkpt lat="47.07451" lon="5.4945">
        <ele>217</ele>
        <time>2010-05-21T12:01:42Z</time>
      </trkpt>
      <trkpt lat="47.07454" lon="5.49438">
        <ele>217</ele>
        <time>2010-05-21T12:01:45Z</time>
      </trkpt>
      <trkpt lat="47.07452" lon="5.49423">
        <ele>217</ele>
        <time>2010-05-21T12:01:48Z</time>
      </trkpt>
      <trkpt lat="47.07442" lon="5.49412">
        <ele>217</ele>
        <time>2010-05-21T12:01:51Z</time>
      </trkpt>
      <trkpt lat="47.07431" lon="5.49411">
        <ele>217</ele>
        <time>2010-05-21T12:01:54Z</time>
      </trkpt>
      <trkpt lat="47.07422" lon="5.4942">
        <ele>217</ele>
        <time>2010-05-21T12:01:57Z</time>
      </trkpt>
      <trkpt lat="47.07418" lon="5.49436">
        <ele>217</ele>
        <time>2010-05-21T12:02:00Z</time>
      </trkpt>
      <trkpt lat="47.07417" lon="5.49455">
        <ele>217</ele>
        <time>2010-05-21T12:02:03Z</time>
      </trkpt>
      <trkpt lat="47.07413" lon="5.49472">
        <ele>217</ele>
        <time>2010-05-21T12:02:06Z</time>
      </trkpt>
      <trkpt lat="47.07407" lon="5.49486">
        <ele>217</ele>
        <time>2010-05-21T12:02:09Z</time>
      </trkpt>
      <trkpt lat="47.07401" lon="5.495">
        <ele>217</ele>
        <time>2010-05-21T12:02:12Z</time>
      </trkpt>
      <trkpt lat="47.07395" lon="5.49513">
        <ele>217</ele>
        <time>2010-05-21T12:02:15Z</time>
      </trkpt>
      <trkpt lat="47.07388" lon="5.49526">
        <ele>217</ele>
        <time>2010-05-21T12:02:18Z</time>
      </trkpt>
      <trkpt lat="47.07383" lon="5.4954">
        <ele>217</ele>
        <time>2010-05-21T12:02:21Z</time>
      </trkpt>
      <trkpt lat="47.07377" lon="5.49553">
        <ele>217</ele>
        <time>2010-05-21T12:02:24Z</time>
      </trkpt>
      <trkpt lat="47.07372" lon="5.49567">
        <ele>217</ele>
        <time>2010-05-21T12:02:27Z</time>
      </trkpt>
      <trkpt lat="47.07367" lon="5.4958">
        <ele>217</ele>
        <time>2010-05-21T12:02:30Z</time>
      </trkpt>
      <trkpt lat="47.07362" lon="5.49594">
        <ele>217</ele>
        <time>2010-05-21T12:02:33Z</time>
      </trkpt>
      <trkpt lat="47.07357" lon="5.49608">
        <ele>217</ele>
        <time>2010-05-21T12:02:36Z</time>
      </trkpt>
      <trkpt lat="47.07352" lon="5.49623">
        <ele>217</ele>
        <time>2010-05-21T12:02:39Z</time>
      </trkpt>
      <trkpt lat="47.07347" lon="5.49637">
        <ele>217</ele>
        <time>2010-05-21T12:02:42Z</time>
      </trkpt>
      <trkpt lat="47.07343" lon="5.49651">
        <ele>217</ele>
        <time>2010-05-21T12:02:45Z</time>
      </trkpt>
      <trkpt lat="47.07338" lon="5.49667">
        <ele>217</ele>
        <time>2010-05-21T12:02:48Z</time>
      </trkpt>
      <trkpt lat="47.07334" lon="5.49681">
        <ele>217</ele>
        <time>2010-05-21T12:02:51Z</time>
      </trkpt>
      <trkpt lat="47.0733" lon="5.49695">
        <ele>217</ele>
        <time>2010-05-21T12:02:54Z</time>
      </trkpt>
      <trkpt lat="47.07325" lon="5.4971">
        <ele>217</ele>
        <time>2010-05-21T12:02:57Z</time>
      </trkpt>
      <trkpt lat="47.07316" lon="5.4972">
        <ele>222</ele>
        <time>2010-05-21T12:03:00Z</time>
      </trkpt>
      <trkpt lat="47.07306" lon="5.49728">
        <ele>222</ele>
        <time>2010-05-21T12:03:03Z</time>
      </trkpt>
      <trkpt lat="47.07299" lon="5.49741">
        <ele>222</ele>
        <time>2010-05-21T12:03:06Z</time>
      </trkpt>
      <trkpt lat="47.07297" lon="5.49756">
        <ele>222</ele>
        <time>2010-05-21T12:03:09Z</time>
      </trkpt>
      <trkpt lat="47.07301" lon="5.49769">
        <ele>222</ele>
        <time>2010-05-21T12:03:12Z</time>
      </trkpt>
      <trkpt lat="47.0731" lon="5.49781">
        <ele>222</ele>
        <time>2010-05-21T12:03:15Z</time>
      </trkpt>
      <trkpt lat="47.07323" lon="5.49784">
        <ele>222</ele>
        <time>2010-05-21T12:03:18Z</time>
      </trkpt>
      <trkpt lat="47.07333" lon="5.49785">
        <ele>222</ele>
        <time>2010-05-21T12:03:20Z</time>
      </trkpt>
      <trkpt lat="47.07342" lon="5.4979">
        <ele>222</ele>
        <time>2010-05-21T12:03:22Z</time>
      </trkpt>
      <trkpt lat="47.0735" lon="5.49796">
        <ele>222</ele>
        <time>2010-05-21T12:03:24Z</time>
      </trkpt>
      <trkpt lat="47.0736" lon="5.498">
        <ele>222</ele>
        <time>2010-05-21T12:03:26Z</time>
      </trkpt>
      <trkpt lat="47.0737" lon="5.49805">
        <ele>222</ele>
        <time>2010-05-21T12:03:28Z</time>
      </trkpt>
      <trkpt lat="47.0738" lon="5.49808">
        <ele>222</ele>
        <time>2010-05-21T12:03:30Z</time>
      </trkpt>
      <trkpt lat="47.07389" lon="5.49811">
        <ele>222</ele>
        <time>2010-05-21T12:03:32Z</time>
      </trkpt>
      <trkpt lat="47.07399" lon="5.49816">
        <ele>222</ele>
        <time>2010-05-21T12:03:34Z</time>
      </trkpt>
      <trkpt lat="47.07412" lon="5.49819">
        <ele>222</ele>
        <time>2010-05-21T12:03:37Z</time>
      </trkpt>
      <trkpt lat="47.07423" lon="5.4982">
        <ele>222</ele>
        <time>2010-05-21T12:03:39Z</time>
      </trkpt>
      <trkpt lat="47.07433" lon="5.49823">
        <ele>222</ele>
        <time>2010-05-21T12:03:41Z</time>
      </trkpt>
      <trkpt lat="47.07443" lon="5.49826">
        <ele>222</ele>
        <time>2010-05-21T12:03:43Z</time>
      </trkpt>
      <trkpt lat="47.07453" lon="5.49829">
        <ele>222</ele>
        <time>2010-05-21T12:03:45Z</time>
      </trkpt>
      <trkpt lat="47.07463" lon="5.49833">
        <ele>222</ele>
        <time>2010-05-21T12:03:47Z</time>
      </trkpt>
      <trkpt lat="47.07474" lon="5.49837">
        <ele>222</ele>
        <time>2010-05-21T12:03:49Z</time>
      </trkpt>
      <trkpt lat="47.07485" lon="5.4984">
        <ele>222</ele>
        <time>2010-05-21T12:03:51Z</time>
      </trkpt>
      <trkpt lat="47.07496" lon="5.49844">
        <ele>222</ele>
        <time>2010-05-21T12:03:53Z</time>
      </trkpt>
      <trkpt lat="47.07507" lon="5.49847">
        <ele>222</ele>
        <time>2010-05-21T12:03:55Z</time>
      </trkpt>
      <trkpt lat="47.07517" lon="5.49851">
        <ele>222</ele>
        <time>2010-05-21T12:03:57Z</time>
      </trkpt>
      <trkpt lat="47.07526" lon="5.49854">
        <ele>222</ele>
        <time>2010-05-21T12:03:59Z</time>
      </trkpt>
      <trkpt lat="47.07535" lon="5.49859">
        <ele>217</ele>
        <time>2010-05-21T12:04:01Z</time>
      </trkpt>
      <trkpt lat="47.07542" lon="5.49869">
        <ele>217</ele>
        <time>2010-05-21T12:04:03Z</time>
      </trkpt>
      <trkpt lat="47.07544" lon="5.49888">
        <ele>217</ele>
        <time>2010-05-21T12:04:06Z</time>
      </trkpt>
      <trkpt lat="47.07542" lon="5.49906">
        <ele>217</ele>
        <time>2010-05-21T12:04:09Z</time>
      </trkpt>
      <trkpt lat="47.0754" lon="5.49922">
        <ele>217</ele>
        <time>2010-05-21T12:04:12Z</time>
      </trkpt>
      <trkpt lat="47.07538" lon="5.49939">
        <ele>217</ele>
        <time>2010-05-21T12:04:15Z</time>
      </trkpt>
      <trkpt lat="47.07536" lon="5.49955">
        <ele>217</ele>
        <time>2010-05-21T12:04:18Z</time>
      </trkpt>
      <trkpt lat="47.07535" lon="5.4997">
        <ele>217</ele>
        <time>2010-05-21T12:04:21Z</time>
      </trkpt>
      <trkpt lat="47.07532" lon="5.49988">
        <ele>222</ele>
        <time>2010-05-21T12:04:24Z</time>
      </trkpt>
      <trkpt lat="47.07529" lon="5.50004">
        <ele>222</ele>
        <time>2010-05-21T12:04:27Z</time>
      </trkpt>
      <trkpt lat="47.07527" lon="5.5002">
        <ele>222</ele>
        <time>2010-05-21T12:04:30Z</time>
      </trkpt>
      <trkpt lat="47.07526" lon="5.50034">
        <ele>222</ele>
        <time>2010-05-21T12:04:33Z</time>
      </trkpt>
      <trkpt lat="47.07525" lon="5.50049">
        <ele>222</ele>
        <time>2010-05-21T12:04:36Z</time>
      </trkpt>
      <trkpt lat="47.07525" lon="5.50064">
        <ele>222</ele>
        <time>2010-05-21T12:04:39Z</time>
      </trkpt>
      <trkpt lat="47.07526" lon="5.50078">
        <ele>222</ele>
        <time>2010-05-21T12:04:42Z</time>
      </trkpt>
      <trkpt lat="47.07527" lon="5.50092">
        <ele>222</ele>
        <time>2010-05-21T12:04:45Z</time>
      </trkpt>
      <trkpt lat="47.07528" lon="5.50106">
        <ele>222</ele>
        <time>2010-05-21T12:04:48Z</time>
      </trkpt>
      <trkpt lat="47.0753" lon="5.5012">
        <ele>222</ele>
        <time>2010-05-21T12:04:51Z</time>
      </trkpt>
      <trkpt lat="47.07531" lon="5.50134">
        <ele>227</ele>
        <time>2010-05-21T12:04:54Z</time>
      </trkpt>
      <trkpt lat="47.07532" lon="5.50149">
        <ele>227</ele>
        <time>2010-05-21T12:04:57Z</time>
      </trkpt>
      <trkpt lat="47.07533" lon="5.50166">
        <ele>227</ele>
        <time>2010-05-21T12:05:01Z</time>
      </trkpt>
      <trkpt lat="47.07532" lon="5.5018">
        <ele>227</ele>
        <time>2010-05-21T12:05:05Z</time>
      </trkpt>
      <trkpt lat="47.07529" lon="5.50195">
        <ele>227</ele>
        <time>2010-05-21T12:05:29Z</time>
      </trkpt>
      <trkpt lat="47.07519" lon="5.50199">
        <ele>227</ele>
        <time>2010-05-21T12:05:34Z</time>
      </trkpt>
      <trkpt lat="47.07509" lon="5.50202">
        <ele>227</ele>
        <time>2010-05-21T12:05:38Z</time>
      </trkpt>
      <trkpt lat="47.07498" lon="5.50206">
        <ele>227</ele>
        <time>2010-05-21T12:05:42Z</time>
      </trkpt>
      <trkpt lat="47.07489" lon="5.50209">
        <ele>227</ele>
        <time>2010-05-21T12:05:45Z</time>
      </trkpt>
      <trkpt lat="47.07479" lon="5.50212">
        <ele>227</ele>
        <time>2010-05-21T12:05:48Z</time>
      </trkpt>
      <trkpt lat="47.07468" lon="5.50214">
        <ele>227</ele>
        <time>2010-05-21T12:05:51Z</time>
      </trkpt>
      <trkpt lat="47.07458" lon="5.50215">
        <ele>227</ele>
        <time>2010-05-21T12:05:54Z</time>
      </trkpt>
      <trkpt lat="47.07447" lon="5.50215">
        <ele>227</ele>
        <time>2010-05-21T12:05:57Z</time>
      </trkpt>
      <trkpt lat="47.07435" lon="5.50215">
        <ele>227</ele>
        <time>2010-05-21T12:06:00Z</time>
      </trkpt>
      <trkpt lat="47.07424" lon="5.50215">
        <ele>227</ele>
        <time>2010-05-21T12:06:03Z</time>
      </trkpt>
      <trkpt lat="47.07412" lon="5.50214">
        <ele>227</ele>
        <time>2010-05-21T12:06:06Z</time>
      </trkpt>
      <trkpt lat="47.07399" lon="5.50214">
        <ele>227</ele>
        <time>2010-05-21T12:06:09Z</time>
      </trkpt>
      <trkpt lat="47.07387" lon="5.50214">
        <ele>227</ele>
        <time>2010-05-21T12:06:12Z</time>
      </trkpt>
      <trkpt lat="47.07374" lon="5.50214">
        <ele>227</ele>
        <time>2010-05-21T12:06:15Z</time>
      </trkpt>
      <trkpt lat="47.0736" lon="5.50215">
        <ele>227</ele>
        <time>2010-05-21T12:06:18Z</time>
      </trkpt>
      <trkpt lat="47.07347" lon="5.50216">
        <ele>227</ele>
        <time>2010-05-21T12:06:21Z</time>
      </trkpt>
      <trkpt lat="47.07337" lon="5.50218">
        <ele>227</ele>
        <time>2010-05-21T12:06:23Z</time>
      </trkpt>
      <trkpt lat="47.07327" lon="5.50222">
        <ele>227</ele>
        <time>2010-05-21T12:06:25Z</time>
      </trkpt>
      <trkpt lat="47.07317" lon="5.50224">
        <ele>227</ele>
        <time>2010-05-21T12:06:27Z</time>
      </trkpt>
      <trkpt lat="47.07307" lon="5.50228">
        <ele>227</ele>
        <time>2010-05-21T12:06:29Z</time>
      </trkpt>
      <trkpt lat="47.07298" lon="5.50233">
        <ele>227</ele>
        <time>2010-05-21T12:06:31Z</time>
      </trkpt>
      <trkpt lat="47.07289" lon="5.50236">
        <ele>227</ele>
        <time>2010-05-21T12:06:33Z</time>
      </trkpt>
      <trkpt lat="47.0728" lon="5.50241">
        <ele>227</ele>
        <time>2010-05-21T12:06:35Z</time>
      </trkpt>
      <trkpt lat="47.07272" lon="5.50245">
        <ele>227</ele>
        <time>2010-05-21T12:06:37Z</time>
      </trkpt>
      <trkpt lat="47.0726" lon="5.50251">
        <ele>227</ele>
        <time>2010-05-21T12:06:40Z</time>
      </trkpt>
      <trkpt lat="47.07252" lon="5.50256">
        <ele>227</ele>
        <time>2010-05-21T12:06:42Z</time>
      </trkpt>
      <trkpt lat="47.07239" lon="5.50262">
        <ele>227</ele>
        <time>2010-05-21T12:06:45Z</time>
      </trkpt>
      <trkpt lat="47.07228" lon="5.50269">
        <ele>227</ele>
        <time>2010-05-21T12:06:48Z</time>
      </trkpt>
      <trkpt lat="47.07219" lon="5.50274">
        <ele>233</ele>
        <time>2010-05-21T12:06:50Z</time>
      </trkpt>
      <trkpt lat="47.07207" lon="5.50281">
        <ele>233</ele>
        <time>2010-05-21T12:06:53Z</time>
      </trkpt>
      <trkpt lat="47.07196" lon="5.50288">
        <ele>233</ele>
        <time>2010-05-21T12:06:56Z</time>
      </trkpt>
      <trkpt lat="47.07184" lon="5.50295">
        <ele>233</ele>
        <time>2010-05-21T12:06:59Z</time>
      </trkpt>
      <trkpt lat="47.07173" lon="5.50302">
        <ele>233</ele>
        <time>2010-05-21T12:07:02Z</time>
      </trkpt>
      <trkpt lat="47.07162" lon="5.50308">
        <ele>233</ele>
        <time>2010-05-21T12:07:05Z</time>
      </trkpt>
      <trkpt lat="47.07151" lon="5.50315">
        <ele>233</ele>
        <time>2010-05-21T12:07:08Z</time>
      </trkpt>
      <trkpt lat="47.0714" lon="5.50321">
        <ele>233</ele>
        <time>2010-05-21T12:07:11Z</time>
      </trkpt>
      <trkpt lat="47.07129" lon="5.50329">
        <ele>233</ele>
        <time>2010-05-21T12:07:14Z</time>
      </trkpt>
      <trkpt lat="47.0712" lon="5.50335">
        <ele>238</ele>
        <time>2010-05-21T12:07:17Z</time>
      </trkpt>
      <trkpt lat="47.0711" lon="5.50341">
        <ele>238</ele>
        <time>2010-05-21T12:07:20Z</time>
      </trkpt>
      <trkpt lat="47.071" lon="5.50348">
        <ele>238</ele>
        <time>2010-05-21T12:07:23Z</time>
      </trkpt>
      <trkpt lat="47.0709" lon="5.50355">
        <ele>238</ele>
        <time>2010-05-21T12:07:26Z</time>
      </trkpt>
      <trkpt lat="47.0708" lon="5.50362">
        <ele>238</ele>
        <time>2010-05-21T12:07:29Z</time>
      </trkpt>
      <trkpt lat="47.07071" lon="5.50369">
        <ele>238</ele>
        <time>2010-05-21T12:07:32Z</time>
      </trkpt>
      <trkpt lat="47.0706" lon="5.50376">
        <ele>238</ele>
        <time>2010-05-21T12:07:35Z</time>
      </trkpt>
      <trkpt lat="47.0705" lon="5.50384">
        <ele>238</ele>
        <time>2010-05-21T12:07:38Z</time>
      </trkpt>
      <trkpt lat="47.07041" lon="5.50392">
        <ele>238</ele>
        <time>2010-05-21T12:07:41Z</time>
      </trkpt>
      <trkpt lat="47.07031" lon="5.504">
        <ele>243</ele>
        <time>2010-05-21T12:07:44Z</time>
      </trkpt>
      <trkpt lat="47.07021" lon="5.50409">
        <ele>243</ele>
        <time>2010-05-21T12:07:47Z</time>
      </trkpt>
      <trkpt lat="47.07011" lon="5.50417">
        <ele>243</ele>
        <time>2010-05-21T12:07:50Z</time>
      </trkpt>
      <trkpt lat="47.07001" lon="5.50425">
        <ele>243</ele>
        <time>2010-05-21T12:07:53Z</time>
      </trkpt>
      <trkpt lat="47.06991" lon="5.50433">
        <ele>243</ele>
        <time>2010-05-21T12:07:56Z</time>
      </trkpt>
      <trkpt lat="47.0698" lon="5.50443">
        <ele>243</ele>
        <time>2010-05-21T12:07:59Z</time>
      </trkpt>
      <trkpt lat="47.06971" lon="5.50453">
        <ele>243</ele>
        <time>2010-05-21T12:08:02Z</time>
      </trkpt>
      <trkpt lat="47.06964" lon="5.50466">
        <ele>243</ele>
        <time>2010-05-21T12:08:05Z</time>
      </trkpt>
      <trkpt lat="47.06959" lon="5.50483">
        <ele>243</ele>
        <time>2010-05-21T12:08:08Z</time>
      </trkpt>
      <trkpt lat="47.06954" lon="5.50501">
        <ele>243</ele>
        <time>2010-05-21T12:08:11Z</time>
      </trkpt>
      <trkpt lat="47.06949" lon="5.50518">
        <ele>243</ele>
        <time>2010-05-21T12:08:14Z</time>
      </trkpt>
      <trkpt lat="47.06945" lon="5.50531">
        <ele>243</ele>
        <time>2010-05-21T12:08:16Z</time>
      </trkpt>
      <trkpt lat="47.0694" lon="5.50543">
        <ele>243</ele>
        <time>2010-05-21T12:08:18Z</time>
      </trkpt>
      <trkpt lat="47.06935" lon="5.50556">
        <ele>243</ele>
        <time>2010-05-21T12:08:20Z</time>
      </trkpt>
      <trkpt lat="47.06931" lon="5.50571">
        <ele>243</ele>
        <time>2010-05-21T12:08:22Z</time>
      </trkpt>
      <trkpt lat="47.06926" lon="5.50586">
        <ele>243</ele>
        <time>2010-05-21T12:08:24Z</time>
      </trkpt>
      <trkpt lat="47.06923" lon="5.506">
        <ele>243</ele>
        <time>2010-05-21T12:08:26Z</time>
      </trkpt>
      <trkpt lat="47.06918" lon="5.50614">
        <ele>243</ele>
        <time>2010-05-21T12:08:28Z</time>
      </trkpt>
      <trkpt lat="47.06912" lon="5.5063">
        <ele>243</ele>
        <time>2010-05-21T12:08:30Z</time>
      </trkpt>
      <trkpt lat="47.06908" lon="5.50645">
        <ele>243</ele>
        <time>2010-05-21T12:08:32Z</time>
      </trkpt>
      <trkpt lat="47.06902" lon="5.5066">
        <ele>243</ele>
        <time>2010-05-21T12:08:34Z</time>
      </trkpt>
      <trkpt lat="47.06899" lon="5.50674">
        <ele>243</ele>
        <time>2010-05-21T12:08:36Z</time>
      </trkpt>
      <trkpt lat="47.06894" lon="5.5069">
        <ele>243</ele>
        <time>2010-05-21T12:08:38Z</time>
      </trkpt>
      <trkpt lat="47.06889" lon="5.50707">
        <ele>243</ele>
        <time>2010-05-21T12:08:40Z</time>
      </trkpt>
      <trkpt lat="47.06885" lon="5.50724">
        <ele>243</ele>
        <time>2010-05-21T12:08:42Z</time>
      </trkpt>
      <trkpt lat="47.06879" lon="5.50743">
        <ele>243</ele>
        <time>2010-05-21T12:08:44Z</time>
      </trkpt>
      <trkpt lat="47.06873" lon="5.50763">
        <ele>243</ele>
        <time>2010-05-21T12:08:46Z</time>
      </trkpt>
      <trkpt lat="47.06868" lon="5.50784">
        <ele>243</ele>
        <time>2010-05-21T12:08:48Z</time>
      </trkpt>
      <trkpt lat="47.06862" lon="5.50805">
        <ele>243</ele>
        <time>2010-05-21T12:08:50Z</time>
      </trkpt>
      <trkpt lat="47.06856" lon="5.50825">
        <ele>243</ele>
        <time>2010-05-21T12:08:52Z</time>
      </trkpt>
      <trkpt lat="47.06851" lon="5.50844">
        <ele>243</ele>
        <time>2010-05-21T12:08:54Z</time>
      </trkpt>
      <trkpt lat="47.06846" lon="5.50862">
        <ele>243</ele>
        <time>2010-05-21T12:08:56Z</time>
      </trkpt>
      <trkpt lat="47.06842" lon="5.50878">
        <ele>243</ele>
        <time>2010-05-21T12:08:58Z</time>
      </trkpt>
      <trkpt lat="47.06838" lon="5.50895">
        <ele>243</ele>
        <time>2010-05-21T12:09:00Z</time>
      </trkpt>
      <trkpt lat="47.06833" lon="5.50908">
        <ele>243</ele>
        <time>2010-05-21T12:09:02Z</time>
      </trkpt>
      <trkpt lat="47.0683" lon="5.50922">
        <ele>243</ele>
        <time>2010-05-21T12:09:04Z</time>
      </trkpt>
      <trkpt lat="47.06827" lon="5.50936">
        <ele>243</ele>
        <time>2010-05-21T12:09:06Z</time>
      </trkpt>
      <trkpt lat="47.06824" lon="5.50949">
        <ele>243</ele>
        <time>2010-05-21T12:09:08Z</time>
      </trkpt>
      <trkpt lat="47.06819" lon="5.50963">
        <ele>243</ele>
        <time>2010-05-21T12:09:10Z</time>
      </trkpt>
      <trkpt lat="47.06815" lon="5.50975">
        <ele>243</ele>
        <time>2010-05-21T12:09:12Z</time>
      </trkpt>
      <trkpt lat="47.06809" lon="5.50989">
        <ele>243</ele>
        <time>2010-05-21T12:09:14Z</time>
      </trkpt>
      <trkpt lat="47.06804" lon="5.51002">
        <ele>243</ele>
        <time>2010-05-21T12:09:16Z</time>
      </trkpt>
      <trkpt lat="47.06799" lon="5.51017">
        <ele>243</ele>
        <time>2010-05-21T12:09:18Z</time>
      </trkpt>
      <trkpt lat="47.06796" lon="5.51031">
        <ele>243</ele>
        <time>2010-05-21T12:09:20Z</time>
      </trkpt>
      <trkpt lat="47.06792" lon="5.51046">
        <ele>243</ele>
        <time>2010-05-21T12:09:22Z</time>
      </trkpt>
      <trkpt lat="47.06787" lon="5.5106">
        <ele>243</ele>
        <time>2010-05-21T12:09:24Z</time>
      </trkpt>
      <trkpt lat="47.06781" lon="5.51072">
        <ele>243</ele>
        <time>2010-05-21T12:09:26Z</time>
      </trkpt>
      <trkpt lat="47.06777" lon="5.51085">
        <ele>243</ele>
        <time>2010-05-21T12:09:28Z</time>
      </trkpt>
      <trkpt lat="47.06773" lon="5.51099">
        <ele>243</ele>
        <time>2010-05-21T12:09:30Z</time>
      </trkpt>
      <trkpt lat="47.06769" lon="5.51113">
        <ele>243</ele>
        <time>2010-05-21T12:09:32Z</time>
      </trkpt>
      <trkpt lat="47.06765" lon="5.51128">
        <ele>243</ele>
        <time>2010-05-21T12:09:34Z</time>
      </trkpt>
      <trkpt lat="47.06761" lon="5.51144">
        <ele>243</ele>
        <time>2010-05-21T12:09:36Z</time>
      </trkpt>
      <trkpt lat="47.06757" lon="5.5116">
        <ele>243</ele>
        <time>2010-05-21T12:09:38Z</time>
      </trkpt>
      <trkpt lat="47.06753" lon="5.51173">
        <ele>243</ele>
        <time>2010-05-21T12:09:40Z</time>
      </trkpt>
      <trkpt lat="47.06748" lon="5.51187">
        <ele>243</ele>
        <time>2010-05-21T12:09:42Z</time>
      </trkpt>
      <trkpt lat="47.06745" lon="5.51202">
        <ele>243</ele>
        <time>2010-05-21T12:09:44Z</time>
      </trkpt>
      <trkpt lat="47.06741" lon="5.51218">
        <ele>243</ele>
        <time>2010-05-21T12:09:46Z</time>
      </trkpt>
      <trkpt lat="47.06735" lon="5.51234">
        <ele>243</ele>
        <time>2010-05-21T12:09:48Z</time>
      </trkpt>
      <trkpt lat="47.06729" lon="5.51251">
        <ele>243</ele>
        <time>2010-05-21T12:09:50Z</time>
      </trkpt>
      <trkpt lat="47.06724" lon="5.51269">
        <ele>243</ele>
        <time>2010-05-21T12:09:52Z</time>
      </trkpt>
      <trkpt lat="47.06718" lon="5.51288">
        <ele>243</ele>
        <time>2010-05-21T12:09:54Z</time>
      </trkpt>
      <trkpt lat="47.06713" lon="5.51308">
        <ele>243</ele>
        <time>2010-05-21T12:09:56Z</time>
      </trkpt>
      <trkpt lat="47.06707" lon="5.51328">
        <ele>243</ele>
        <time>2010-05-21T12:09:58Z</time>
      </trkpt>
      <trkpt lat="47.06701" lon="5.51349">
        <ele>237</ele>
        <time>2010-05-21T12:10:00Z</time>
      </trkpt>
      <trkpt lat="47.06695" lon="5.51371">
        <ele>237</ele>
        <time>2010-05-21T12:10:02Z</time>
      </trkpt>
      <trkpt lat="47.06688" lon="5.51391">
        <ele>237</ele>
        <time>2010-05-21T12:10:04Z</time>
      </trkpt>
      <trkpt lat="47.06683" lon="5.51414">
        <ele>237</ele>
        <time>2010-05-21T12:10:06Z</time>
      </trkpt>
      <trkpt lat="47.06676" lon="5.51435">
        <ele>237</ele>
        <time>2010-05-21T12:10:08Z</time>
      </trkpt>
      <trkpt lat="47.0667" lon="5.51458">
        <ele>237</ele>
        <time>2010-05-21T12:10:10Z</time>
      </trkpt>
      <trkpt lat="47.06664" lon="5.5148">
        <ele>237</ele>
        <time>2010-05-21T12:10:12Z</time>
      </trkpt>
      <trkpt lat="47.06659" lon="5.51503">
        <ele>237</ele>
        <time>2010-05-21T12:10:14Z</time>
      </trkpt>
      <trkpt lat="47.06653" lon="5.51523">
        <ele>237</ele>
        <time>2010-05-21T12:10:16Z</time>
      </trkpt>
      <trkpt lat="47.06647" lon="5.51542">
        <ele>237</ele>
        <time>2010-05-21T12:10:18Z</time>
      </trkpt>
      <trkpt lat="47.06641" lon="5.51559">
        <ele>237</ele>
        <time>2010-05-21T12:10:20Z</time>
      </trkpt>
      <trkpt lat="47.06636" lon="5.51576">
        <ele>237</ele>
        <time>2010-05-21T12:10:22Z</time>
      </trkpt>
      <trkpt lat="47.0663" lon="5.51592">
        <ele>237</ele>
        <time>2010-05-21T12:10:24Z</time>
      </trkpt>
      <trkpt lat="47.06626" lon="5.51608">
        <ele>237</ele>
        <time>2010-05-21T12:10:26Z</time>
      </trkpt>
      <trkpt lat="47.06621" lon="5.51624">
        <ele>237</ele>
        <time>2010-05-21T12:10:28Z</time>
      </trkpt>
      <trkpt lat="47.06616" lon="5.5164">
        <ele>237</ele>
        <time>2010-05-21T12:10:30Z</time>
      </trkpt>
      <trkpt lat="47.06613" lon="5.51656">
        <ele>237</ele>
        <time>2010-05-21T12:10:32Z</time>
      </trkpt>
      <trkpt lat="47.06608" lon="5.51672">
        <ele>237</ele>
        <time>2010-05-21T12:10:34Z</time>
      </trkpt>
      <trkpt lat="47.06603" lon="5.51686">
        <ele>237</ele>
        <time>2010-05-21T12:10:36Z</time>
      </trkpt>
      <trkpt lat="47.06599" lon="5.517">
        <ele>237</ele>
        <time>2010-05-21T12:10:38Z</time>
      </trkpt>
      <trkpt lat="47.06595" lon="5.51716">
        <ele>237</ele>
        <time>2010-05-21T12:10:40Z</time>
      </trkpt>
      <trkpt lat="47.0659" lon="5.51729">
        <ele>237</ele>
        <time>2010-05-21T12:10:42Z</time>
      </trkpt>
      <trkpt lat="47.06586" lon="5.51743">
        <ele>237</ele>
        <time>2010-05-21T12:10:44Z</time>
      </trkpt>
      <trkpt lat="47.06583" lon="5.51755">
        <ele>237</ele>
        <time>2010-05-21T12:10:46Z</time>
      </trkpt>
      <trkpt lat="47.06578" lon="5.51767">
        <ele>237</ele>
        <time>2010-05-21T12:10:48Z</time>
      </trkpt>
      <trkpt lat="47.06574" lon="5.51779">
        <ele>237</ele>
        <time>2010-05-21T12:10:50Z</time>
      </trkpt>
      <trkpt lat="47.0657" lon="5.51792">
        <ele>237</ele>
        <time>2010-05-21T12:10:52Z</time>
      </trkpt>
      <trkpt lat="47.06565" lon="5.51805">
        <ele>237</ele>
        <time>2010-05-21T12:10:54Z</time>
      </trkpt>
      <trkpt lat="47.06561" lon="5.51818">
        <ele>237</ele>
        <time>2010-05-21T12:10:56Z</time>
      </trkpt>
      <trkpt lat="47.06557" lon="5.51832">
        <ele>237</ele>
        <time>2010-05-21T12:10:58Z</time>
      </trkpt>
      <trkpt lat="47.06552" lon="5.51848">
        <ele>237</ele>
        <time>2010-05-21T12:11:00Z</time>
      </trkpt>
      <trkpt lat="47.06549" lon="5.51864">
        <ele>237</ele>
        <time>2010-05-21T12:11:02Z</time>
      </trkpt>
      <trkpt lat="47.06546" lon="5.51881">
        <ele>237</ele>
        <time>2010-05-21T12:11:04Z</time>
      </trkpt>
      <trkpt lat="47.06541" lon="5.51895">
        <ele>237</ele>
        <time>2010-05-21T12:11:06Z</time>
      </trkpt>
      <trkpt lat="47.06537" lon="5.51911">
        <ele>237</ele>
        <time>2010-05-21T12:11:08Z</time>
      </trkpt>
      <trkpt lat="47.06533" lon="5.51929">
        <ele>237</ele>
        <time>2010-05-21T12:11:10Z</time>
      </trkpt>
      <trkpt lat="47.06528" lon="5.51947">
        <ele>237</ele>
        <time>2010-05-21T12:11:12Z</time>
      </trkpt>
      <trkpt lat="47.06521" lon="5.51964">
        <ele>237</ele>
        <time>2010-05-21T12:11:14Z</time>
      </trkpt>
      <trkpt lat="47.06514" lon="5.51982">
        <ele>237</ele>
        <time>2010-05-21T12:11:16Z</time>
      </trkpt>
      <trkpt lat="47.06508" lon="5.52">
        <ele>237</ele>
        <time>2010-05-21T12:11:18Z</time>
      </trkpt>
      <trkpt lat="47.06501" lon="5.5202">
        <ele>237</ele>
        <time>2010-05-21T12:11:20Z</time>
      </trkpt>
      <trkpt lat="47.06496" lon="5.52042">
        <ele>237</ele>
        <time>2010-05-21T12:11:22Z</time>
      </trkpt>
      <trkpt lat="47.06491" lon="5.52063">
        <ele>237</ele>
        <time>2010-05-21T12:11:24Z</time>
      </trkpt>
      <trkpt lat="47.06485" lon="5.52084">
        <ele>237</ele>
        <time>2010-05-21T12:11:26Z</time>
      </trkpt>
      <trkpt lat="47.06479" lon="5.52105">
        <ele>237</ele>
        <time>2010-05-21T12:11:28Z</time>
      </trkpt>
      <trkpt lat="47.06473" lon="5.52125">
        <ele>237</ele>
        <time>2010-05-21T12:11:30Z</time>
      </trkpt>
      <trkpt lat="47.06468" lon="5.52145">
        <ele>237</ele>
        <time>2010-05-21T12:11:32Z</time>
      </trkpt>
      <trkpt lat="47.06462" lon="5.52161">
        <ele>237</ele>
        <time>2010-05-21T12:11:34Z</time>
      </trkpt>
      <trkpt lat="47.06457" lon="5.52176">
        <ele>237</ele>
        <time>2010-05-21T12:11:36Z</time>
      </trkpt>
      <trkpt lat="47.06453" lon="5.52193">
        <ele>237</ele>
        <time>2010-05-21T12:11:38Z</time>
      </trkpt>
      <trkpt lat="47.06449" lon="5.52207">
        <ele>237</ele>
        <time>2010-05-21T12:11:40Z</time>
      </trkpt>
      <trkpt lat="47.06445" lon="5.52222">
        <ele>237</ele>
        <time>2010-05-21T12:11:42Z</time>
      </trkpt>
      <trkpt lat="47.06441" lon="5.52238">
        <ele>237</ele>
        <time>2010-05-21T12:11:44Z</time>
      </trkpt>
      <trkpt lat="47.06436" lon="5.52253">
        <ele>237</ele>
        <time>2010-05-21T12:11:46Z</time>
      </trkpt>
      <trkpt lat="47.06432" lon="5.52267">
        <ele>237</ele>
        <time>2010-05-21T12:11:48Z</time>
      </trkpt>
      <trkpt lat="47.06428" lon="5.52282">
        <ele>237</ele>
        <time>2010-05-21T12:11:50Z</time>
      </trkpt>
      <trkpt lat="47.06423" lon="5.52296">
        <ele>237</ele>
        <time>2010-05-21T12:11:52Z</time>
      </trkpt>
      <trkpt lat="47.06417" lon="5.52309">
        <ele>237</ele>
        <time>2010-05-21T12:11:54Z</time>
      </trkpt>
      <trkpt lat="47.06413" lon="5.52321">
        <ele>244</ele>
        <time>2010-05-21T12:11:56Z</time>
      </trkpt>
      <trkpt lat="47.06409" lon="5.52335">
        <ele>244</ele>
        <time>2010-05-21T12:11:58Z</time>
      </trkpt>
      <trkpt lat="47.06405" lon="5.52349">
        <ele>244</ele>
        <time>2010-05-21T12:12:00Z</time>
      </trkpt>
      <trkpt lat="47.06401" lon="5.52364">
        <ele>244</ele>
        <time>2010-05-21T12:12:02Z</time>
      </trkpt>
      <trkpt lat="47.06397" lon="5.5238">
        <ele>244</ele>
        <time>2010-05-21T12:12:04Z</time>
      </trkpt>
      <trkpt lat="47.06393" lon="5.52397">
        <ele>244</ele>
        <time>2010-05-21T12:12:06Z</time>
      </trkpt>
      <trkpt lat="47.06387" lon="5.52413">
        <ele>244</ele>
        <time>2010-05-21T12:12:08Z</time>
      </trkpt>
      <trkpt lat="47.06382" lon="5.5243">
        <ele>244</ele>
        <time>2010-05-21T12:12:10Z</time>
      </trkpt>
      <trkpt lat="47.06378" lon="5.52446">
        <ele>244</ele>
        <time>2010-05-21T12:12:12Z</time>
      </trkpt>
      <trkpt lat="47.06373" lon="5.52461">
        <ele>244</ele>
        <time>2010-05-21T12:12:14Z</time>
      </trkpt>
      <trkpt lat="47.06369" lon="5.52477">
        <ele>244</ele>
        <time>2010-05-21T12:12:16Z</time>
      </trkpt>
      <trkpt lat="47.06365" lon="5.52492">
        <ele>244</ele>
        <time>2010-05-21T12:12:18Z</time>
      </trkpt>
      <trkpt lat="47.06361" lon="5.52506">
        <ele>244</ele>
        <time>2010-05-21T12:12:20Z</time>
      </trkpt>
      <trkpt lat="47.06356" lon="5.5252">
        <ele>244</ele>
        <time>2010-05-21T12:12:22Z</time>
      </trkpt>
      <trkpt lat="47.06351" lon="5.52533">
        <ele>244</ele>
        <time>2010-05-21T12:12:24Z</time>
      </trkpt>
      <trkpt lat="47.06346" lon="5.52547">
        <ele>244</ele>
        <time>2010-05-21T12:12:26Z</time>
      </trkpt>
      <trkpt lat="47.06341" lon="5.5256">
        <ele>244</ele>
        <time>2010-05-21T12:12:28Z</time>
      </trkpt>
      <trkpt lat="47.06338" lon="5.52575">
        <ele>244</ele>
        <time>2010-05-21T12:12:30Z</time>
      </trkpt>
      <trkpt lat="47.06334" lon="5.52592">
        <ele>244</ele>
        <time>2010-05-21T12:12:32Z</time>
      </trkpt>
      <trkpt lat="47.0633" lon="5.52608">
        <ele>238</ele>
        <time>2010-05-21T12:12:34Z</time>
      </trkpt>
      <trkpt lat="47.06325" lon="5.52623">
        <ele>238</ele>
        <time>2010-05-21T12:12:36Z</time>
      </trkpt>
      <trkpt lat="47.06321" lon="5.52637">
        <ele>238</ele>
        <time>2010-05-21T12:12:38Z</time>
      </trkpt>
      <trkpt lat="47.06317" lon="5.52653">
        <ele>238</ele>
        <time>2010-05-21T12:12:40Z</time>
      </trkpt>
      <trkpt lat="47.06311" lon="5.52669">
        <ele>238</ele>
        <time>2010-05-21T12:12:42Z</time>
      </trkpt>
      <trkpt lat="47.06307" lon="5.52685">
        <ele>238</ele>
        <time>2010-05-21T12:12:44Z</time>
      </trkpt>
      <trkpt lat="47.06303" lon="5.527">
        <ele>238</ele>
        <time>2010-05-21T12:12:46Z</time>
      </trkpt>
      <trkpt lat="47.06299" lon="5.52715">
        <ele>238</ele>
        <time>2010-05-21T12:12:48Z</time>
      </trkpt>
      <trkpt lat="47.06295" lon="5.52729">
        <ele>238</ele>
        <time>2010-05-21T12:12:50Z</time>
      </trkpt>
      <trkpt lat="47.0629" lon="5.52742">
        <ele>238</ele>
        <time>2010-05-21T12:12:52Z</time>
      </trkpt>
      <trkpt lat="47.06284" lon="5.52759">
        <ele>238</ele>
        <time>2010-05-21T12:12:55Z</time>
      </trkpt>
      <trkpt lat="47.06281" lon="5.52771">
        <ele>238</ele>
        <time>2010-05-21T12:12:57Z</time>
      </trkpt>
      <trkpt lat="47.06279" lon="5.52784">
        <ele>238</ele>
        <time>2010-05-21T12:12:59Z</time>
      </trkpt>
      <trkpt lat="47.06273" lon="5.52801">
        <ele>243</ele>
        <time>2010-05-21T12:13:02Z</time>
      </trkpt>
      <trkpt lat="47.06268" lon="5.52817">
        <ele>243</ele>
        <time>2010-05-21T12:13:05Z</time>
      </trkpt>
      <trkpt lat="47.06264" lon="5.5283">
        <ele>243</ele>
        <time>2010-05-21T12:13:07Z</time>
      </trkpt>
      <trkpt lat="47.06262" lon="5.52843">
        <ele>243</ele>
        <time>2010-05-21T12:13:09Z</time>
      </trkpt>
      <trkpt lat="47.06257" lon="5.52856">
        <ele>243</ele>
        <time>2010-05-21T12:13:11Z</time>
      </trkpt>
      <trkpt lat="47.06254" lon="5.52869">
        <ele>243</ele>
        <time>2010-05-21T12:13:13Z</time>
      </trkpt>
      <trkpt lat="47.0625" lon="5.52883">
        <ele>243</ele>
        <time>2010-05-21T12:13:15Z</time>
      </trkpt>
      <trkpt lat="47.06247" lon="5.52898">
        <ele>243</ele>
        <time>2010-05-21T12:13:17Z</time>
      </trkpt>
      <trkpt lat="47.06243" lon="5.52913">
        <ele>243</ele>
        <time>2010-05-21T12:13:19Z</time>
      </trkpt>
      <trkpt lat="47.06238" lon="5.52927">
        <ele>243</ele>
        <time>2010-05-21T12:13:21Z</time>
      </trkpt>
      <trkpt lat="47.06233" lon="5.52942">
        <ele>243</ele>
        <time>2010-05-21T12:13:23Z</time>
      </trkpt>
      <trkpt lat="47.06228" lon="5.52957">
        <ele>243</ele>
        <time>2010-05-21T12:13:25Z</time>
      </trkpt>
      <trkpt lat="47.06224" lon="5.52973">
        <ele>243</ele>
        <time>2010-05-21T12:13:27Z</time>
      </trkpt>
      <trkpt lat="47.06219" lon="5.52989">
        <ele>243</ele>
        <time>2010-05-21T12:13:29Z</time>
      </trkpt>
      <trkpt lat="47.06214" lon="5.53007">
        <ele>243</ele>
        <time>2010-05-21T12:13:31Z</time>
      </trkpt>
      <trkpt lat="47.06208" lon="5.53024">
        <ele>243</ele>
        <time>2010-05-21T12:13:33Z</time>
      </trkpt>
      <trkpt lat="47.06203" lon="5.53044">
        <ele>243</ele>
        <time>2010-05-21T12:13:35Z</time>
      </trkpt>
      <trkpt lat="47.06198" lon="5.53063">
        <ele>243</ele>
        <time>2010-05-21T12:13:37Z</time>
      </trkpt>
      <trkpt lat="47.06193" lon="5.5308">
        <ele>243</ele>
        <time>2010-05-21T12:13:39Z</time>
      </trkpt>
      <trkpt lat="47.06187" lon="5.53098">
        <ele>243</ele>
        <time>2010-05-21T12:13:41Z</time>
      </trkpt>
      <trkpt lat="47.06182" lon="5.53115">
        <ele>238</ele>
        <time>2010-05-21T12:13:43Z</time>
      </trkpt>
      <trkpt lat="47.06176" lon="5.53133">
        <ele>238</ele>
        <time>2010-05-21T12:13:45Z</time>
      </trkpt>
      <trkpt lat="47.0617" lon="5.53153">
        <ele>238</ele>
        <time>2010-05-21T12:13:47Z</time>
      </trkpt>
      <trkpt lat="47.06164" lon="5.53175">
        <ele>238</ele>
        <time>2010-05-21T12:13:49Z</time>
      </trkpt>
      <trkpt lat="47.06157" lon="5.53199">
        <ele>232</ele>
        <time>2010-05-21T12:13:51Z</time>
      </trkpt>
      <trkpt lat="47.06153" lon="5.53211">
        <ele>232</ele>
        <time>2010-05-21T12:13:52Z</time>
      </trkpt>
      <trkpt lat="47.06146" lon="5.53235">
        <ele>232</ele>
        <time>2010-05-21T12:13:54Z</time>
      </trkpt>
      <trkpt lat="47.0614" lon="5.53257">
        <ele>232</ele>
        <time>2010-05-21T12:13:56Z</time>
      </trkpt>
      <trkpt lat="47.06135" lon="5.53277">
        <ele>232</ele>
        <time>2010-05-21T12:13:58Z</time>
      </trkpt>
      <trkpt lat="47.0613" lon="5.53294">
        <ele>232</ele>
        <time>2010-05-21T12:14:00Z</time>
      </trkpt>
      <trkpt lat="47.06126" lon="5.53308">
        <ele>232</ele>
        <time>2010-05-21T12:14:02Z</time>
      </trkpt>
      <trkpt lat="47.06122" lon="5.5332">
        <ele>232</ele>
        <time>2010-05-21T12:14:04Z</time>
      </trkpt>
      <trkpt lat="47.06118" lon="5.53333">
        <ele>232</ele>
        <time>2010-05-21T12:14:06Z</time>
      </trkpt>
      <trkpt lat="47.06111" lon="5.53348">
        <ele>239</ele>
        <time>2010-05-21T12:14:09Z</time>
      </trkpt>
      <trkpt lat="47.06109" lon="5.5336">
        <ele>239</ele>
        <time>2010-05-21T12:14:11Z</time>
      </trkpt>
      <trkpt lat="47.06102" lon="5.53376">
        <ele>239</ele>
        <time>2010-05-21T12:14:14Z</time>
      </trkpt>
      <trkpt lat="47.06095" lon="5.53388">
        <ele>239</ele>
        <time>2010-05-21T12:14:17Z</time>
      </trkpt>
      <trkpt lat="47.06087" lon="5.53401">
        <ele>245</ele>
        <time>2010-05-21T12:14:20Z</time>
      </trkpt>
      <trkpt lat="47.06079" lon="5.53413">
        <ele>245</ele>
        <time>2010-05-21T12:14:23Z</time>
      </trkpt>
      <trkpt lat="47.06071" lon="5.53423">
        <ele>250</ele>
        <time>2010-05-21T12:14:26Z</time>
      </trkpt>
      <trkpt lat="47.06061" lon="5.53432">
        <ele>250</ele>
        <time>2010-05-21T12:14:29Z</time>
      </trkpt>
      <trkpt lat="47.06054" lon="5.53445">
        <ele>250</ele>
        <time>2010-05-21T12:14:32Z</time>
      </trkpt>
      <trkpt lat="47.06044" lon="5.53457">
        <ele>250</ele>
        <time>2010-05-21T12:14:35Z</time>
      </trkpt>
      <trkpt lat="47.06036" lon="5.53466">
        <ele>250</ele>
        <time>2010-05-21T12:14:37Z</time>
      </trkpt>
      <trkpt lat="47.06029" lon="5.53475">
        <ele>250</ele>
        <time>2010-05-21T12:14:39Z</time>
      </trkpt>
      <trkpt lat="47.06021" lon="5.53488">
        <ele>250</ele>
        <time>2010-05-21T12:14:42Z</time>
      </trkpt>
      <trkpt lat="47.06012" lon="5.53497">
        <ele>250</ele>
        <time>2010-05-21T12:14:45Z</time>
      </trkpt>
      <trkpt lat="47.06004" lon="5.53508">
        <ele>256</ele>
        <time>2010-05-21T12:14:48Z</time>
      </trkpt>
      <trkpt lat="47.05997" lon="5.53517">
        <ele>256</ele>
        <time>2010-05-21T12:14:51Z</time>
      </trkpt>
      <trkpt lat="47.0599" lon="5.53528">
        <ele>256</ele>
        <time>2010-05-21T12:14:54Z</time>
      </trkpt>
      <trkpt lat="47.05983" lon="5.53538">
        <ele>256</ele>
        <time>2010-05-21T12:14:57Z</time>
      </trkpt>
      <trkpt lat="47.05975" lon="5.53549">
        <ele>256</ele>
        <time>2010-05-21T12:15:00Z</time>
      </trkpt>
      <trkpt lat="47.05969" lon="5.53559">
        <ele>256</ele>
        <time>2010-05-21T12:15:03Z</time>
      </trkpt>
      <trkpt lat="47.05964" lon="5.53572">
        <ele>256</ele>
        <time>2010-05-21T12:15:06Z</time>
      </trkpt>
      <trkpt lat="47.05955" lon="5.53585">
        <ele>256</ele>
        <time>2010-05-21T12:15:09Z</time>
      </trkpt>
      <trkpt lat="47.05946" lon="5.53598">
        <ele>256</ele>
        <time>2010-05-21T12:15:12Z</time>
      </trkpt>
      <trkpt lat="47.05937" lon="5.5361">
        <ele>256</ele>
        <time>2010-05-21T12:15:15Z</time>
      </trkpt>
      <trkpt lat="47.0593" lon="5.5362">
        <ele>256</ele>
        <time>2010-05-21T12:15:17Z</time>
      </trkpt>
      <trkpt lat="47.05923" lon="5.53629">
        <ele>256</ele>
        <time>2010-05-21T12:15:19Z</time>
      </trkpt>
      <trkpt lat="47.05915" lon="5.53642">
        <ele>256</ele>
        <time>2010-05-21T12:15:22Z</time>
      </trkpt>
      <trkpt lat="47.05907" lon="5.53651">
        <ele>256</ele>
        <time>2010-05-21T12:15:24Z</time>
      </trkpt>
      <trkpt lat="47.05898" lon="5.53665">
        <ele>256</ele>
        <time>2010-05-21T12:15:27Z</time>
      </trkpt>
      <trkpt lat="47.05892" lon="5.53676">
        <ele>256</ele>
        <time>2010-05-21T12:15:29Z</time>
      </trkpt>
      <trkpt lat="47.05884" lon="5.53684">
        <ele>256</ele>
        <time>2010-05-21T12:15:31Z</time>
      </trkpt>
      <trkpt lat="47.05877" lon="5.53696">
        <ele>256</ele>
        <time>2010-05-21T12:15:33Z</time>
      </trkpt>
      <trkpt lat="47.05869" lon="5.53707">
        <ele>256</ele>
        <time>2010-05-21T12:15:35Z</time>
      </trkpt>
      <trkpt lat="47.05861" lon="5.53718">
        <ele>256</ele>
        <time>2010-05-21T12:15:37Z</time>
      </trkpt>
      <trkpt lat="47.05853" lon="5.53729">
        <ele>256</ele>
        <time>2010-05-21T12:15:39Z</time>
      </trkpt>
      <trkpt lat="47.05845" lon="5.5374">
        <ele>256</ele>
        <time>2010-05-21T12:15:41Z</time>
      </trkpt>
      <trkpt lat="47.05837" lon="5.53751">
        <ele>256</ele>
        <time>2010-05-21T12:15:43Z</time>
      </trkpt>
      <trkpt lat="47.05829" lon="5.53762">
        <ele>256</ele>
        <time>2010-05-21T12:15:45Z</time>
      </trkpt>
      <trkpt lat="47.05821" lon="5.53773">
        <ele>256</ele>
        <time>2010-05-21T12:15:47Z</time>
      </trkpt>
      <trkpt lat="47.05813" lon="5.53784">
        <ele>256</ele>
        <time>2010-05-21T12:15:49Z</time>
      </trkpt>
      <trkpt lat="47.05805" lon="5.53796">
        <ele>256</ele>
        <time>2010-05-21T12:15:51Z</time>
      </trkpt>
      <trkpt lat="47.05797" lon="5.53807">
        <ele>256</ele>
        <time>2010-05-21T12:15:53Z</time>
      </trkpt>
      <trkpt lat="47.05789" lon="5.53819">
        <ele>256</ele>
        <time>2010-05-21T12:15:55Z</time>
      </trkpt>
      <trkpt lat="47.05781" lon="5.53832">
        <ele>256</ele>
        <time>2010-05-21T12:15:57Z</time>
      </trkpt>
      <trkpt lat="47.05773" lon="5.53844">
        <ele>256</ele>
        <time>2010-05-21T12:15:59Z</time>
      </trkpt>
      <trkpt lat="47.05765" lon="5.53854">
        <ele>256</ele>
        <time>2010-05-21T12:16:01Z</time>
      </trkpt>
      <trkpt lat="47.05756" lon="5.53866">
        <ele>261</ele>
        <time>2010-05-21T12:16:03Z</time>
      </trkpt>
      <trkpt lat="47.05748" lon="5.53878">
        <ele>261</ele>
        <time>2010-05-21T12:16:05Z</time>
      </trkpt>
      <trkpt lat="47.05738" lon="5.5389">
        <ele>261</ele>
        <time>2010-05-21T12:16:07Z</time>
      </trkpt>
      <trkpt lat="47.0573" lon="5.53901">
        <ele>261</ele>
        <time>2010-05-21T12:16:09Z</time>
      </trkpt>
      <trkpt lat="47.05722" lon="5.53912">
        <ele>261</ele>
        <time>2010-05-21T12:16:11Z</time>
      </trkpt>
      <trkpt lat="47.05713" lon="5.53924">
        <ele>261</ele>
        <time>2010-05-21T12:16:13Z</time>
      </trkpt>
      <trkpt lat="47.05704" lon="5.53936">
        <ele>261</ele>
        <time>2010-05-21T12:16:15Z</time>
      </trkpt>
      <trkpt lat="47.05695" lon="5.53951">
        <ele>261</ele>
        <time>2010-05-21T12:16:17Z</time>
      </trkpt>
      <trkpt lat="47.05684" lon="5.53965">
        <ele>261</ele>
        <time>2010-05-21T12:16:19Z</time>
      </trkpt>
      <trkpt lat="47.05673" lon="5.53981">
        <ele>261</ele>
        <time>2010-05-21T12:16:21Z</time>
      </trkpt>
      <trkpt lat="47.05661" lon="5.53999">
        <ele>261</ele>
        <time>2010-05-21T12:16:23Z</time>
      </trkpt>
      <trkpt lat="47.05655" lon="5.54009">
        <ele>261</ele>
        <time>2010-05-21T12:16:24Z</time>
      </trkpt>
      <trkpt lat="47.05648" lon="5.54019">
        <ele>256</ele>
        <time>2010-05-21T12:16:25Z</time>
      </trkpt>
      <trkpt lat="47.05641" lon="5.54029">
        <ele>256</ele>
        <time>2010-05-21T12:16:26Z</time>
      </trkpt>
      <trkpt lat="47.05634" lon="5.54039">
        <ele>256</ele>
        <time>2010-05-21T12:16:27Z</time>
      </trkpt>
      <trkpt lat="47.05627" lon="5.54049">
        <ele>256</ele>
        <time>2010-05-21T12:16:28Z</time>
      </trkpt>
      <trkpt lat="47.05621" lon="5.5406">
        <ele>256</ele>
        <time>2010-05-21T12:16:29Z</time>
      </trkpt>
      <trkpt lat="47.05613" lon="5.54072">
        <ele>250</ele>
        <time>2010-05-21T12:16:30Z</time>
      </trkpt>
      <trkpt lat="47.05606" lon="5.54085">
        <ele>250</ele>
        <time>2010-05-21T12:16:31Z</time>
      </trkpt>
      <trkpt lat="47.05599" lon="5.54098">
        <ele>250</ele>
        <time>2010-05-21T12:16:32Z</time>
      </trkpt>
      <trkpt lat="47.05591" lon="5.5411">
        <ele>250</ele>
        <time>2010-05-21T12:16:33Z</time>
      </trkpt>
      <trkpt lat="47.05583" lon="5.54122">
        <ele>250</ele>
        <time>2010-05-21T12:16:34Z</time>
      </trkpt>
      <trkpt lat="47.05576" lon="5.54135">
        <ele>244</ele>
        <time>2010-05-21T12:16:35Z</time>
      </trkpt>
      <trkpt lat="47.05567" lon="5.54146">
        <ele>244</ele>
        <time>2010-05-21T12:16:36Z</time>
      </trkpt>
      <trkpt lat="47.0556" lon="5.54159">
        <ele>244</ele>
        <time>2010-05-21T12:16:37Z</time>
      </trkpt>
      <trkpt lat="47.05552" lon="5.54172">
        <ele>244</ele>
        <time>2010-05-21T12:16:38Z</time>
      </trkpt>
      <trkpt lat="47.05544" lon="5.54184">
        <ele>244</ele>
        <time>2010-05-21T12:16:39Z</time>
      </trkpt>
      <trkpt lat="47.05536" lon="5.54197">
        <ele>244</ele>
        <time>2010-05-21T12:16:40Z</time>
      </trkpt>
      <trkpt lat="47.05527" lon="5.54208">
        <ele>244</ele>
        <time>2010-05-21T12:16:41Z</time>
      </trkpt>
      <trkpt lat="47.05519" lon="5.54219">
        <ele>244</ele>
        <time>2010-05-21T12:16:42Z</time>
      </trkpt>
      <trkpt lat="47.05511" lon="5.54232">
        <ele>244</ele>
        <time>2010-05-21T12:16:43Z</time>
      </trkpt>
      <trkpt lat="47.05504" lon="5.54243">
        <ele>244</ele>
        <time>2010-05-21T12:16:44Z</time>
      </trkpt>
      <trkpt lat="47.05498" lon="5.54256">
        <ele>244</ele>
        <time>2010-05-21T12:16:45Z</time>
      </trkpt>
      <trkpt lat="47.05493" lon="5.5427">
        <ele>239</ele>
        <time>2010-05-21T12:16:46Z</time>
      </trkpt>
      <trkpt lat="47.05487" lon="5.54284">
        <ele>239</ele>
        <time>2010-05-21T12:16:47Z</time>
      </trkpt>
      <trkpt lat="47.05482" lon="5.54298">
        <ele>239</ele>
        <time>2010-05-21T12:16:48Z</time>
      </trkpt>
      <trkpt lat="47.05478" lon="5.54311">
        <ele>239</ele>
        <time>2010-05-21T12:16:49Z</time>
      </trkpt>
      <trkpt lat="47.05475" lon="5.54323">
        <ele>239</ele>
        <time>2010-05-21T12:16:50Z</time>
      </trkpt>
      <trkpt lat="47.05469" lon="5.54347">
        <ele>239</ele>
        <time>2010-05-21T12:16:52Z</time>
      </trkpt>
      <trkpt lat="47.0546" lon="5.54367">
        <ele>239</ele>
        <time>2010-05-21T12:16:54Z</time>
      </trkpt>
      <trkpt lat="47.05454" lon="5.54387">
        <ele>239</ele>
        <time>2010-05-21T12:16:56Z</time>
      </trkpt>
      <trkpt lat="47.05447" lon="5.54408">
        <ele>239</ele>
        <time>2010-05-21T12:16:58Z</time>
      </trkpt>
      <trkpt lat="47.05442" lon="5.54427">
        <ele>239</ele>
        <time>2010-05-21T12:17:00Z</time>
      </trkpt>
      <trkpt lat="47.05436" lon="5.54441">
        <ele>239</ele>
        <time>2010-05-21T12:17:02Z</time>
      </trkpt>
      <trkpt lat="47.05434" lon="5.54455">
        <ele>239</ele>
        <time>2010-05-21T12:17:04Z</time>
      </trkpt>
      <trkpt lat="47.0543" lon="5.54468">
        <ele>239</ele>
        <time>2010-05-21T12:17:06Z</time>
      </trkpt>
      <trkpt lat="47.05425" lon="5.54481">
        <ele>239</ele>
        <time>2010-05-21T12:17:08Z</time>
      </trkpt>
      <trkpt lat="47.05421" lon="5.54497">
        <ele>239</ele>
        <time>2010-05-21T12:17:10Z</time>
      </trkpt>
      <trkpt lat="47.05415" lon="5.54512">
        <ele>239</ele>
        <time>2010-05-21T12:17:12Z</time>
      </trkpt>
      <trkpt lat="47.05409" lon="5.54528">
        <ele>239</ele>
        <time>2010-05-21T12:17:14Z</time>
      </trkpt>
      <trkpt lat="47.05403" lon="5.54546">
        <ele>239</ele>
        <time>2010-05-21T12:17:16Z</time>
      </trkpt>
      <trkpt lat="47.05398" lon="5.54563">
        <ele>239</ele>
        <time>2010-05-21T12:17:18Z</time>
      </trkpt>
      <trkpt lat="47.05393" lon="5.54579">
        <ele>239</ele>
        <time>2010-05-21T12:17:20Z</time>
      </trkpt>
      <trkpt lat="47.05389" lon="5.54595">
        <ele>239</ele>
        <time>2010-05-21T12:17:22Z</time>
      </trkpt>
      <trkpt lat="47.05384" lon="5.54609">
        <ele>239</ele>
        <time>2010-05-21T12:17:24Z</time>
      </trkpt>
      <trkpt lat="47.0538" lon="5.54623">
        <ele>239</ele>
        <time>2010-05-21T12:17:26Z</time>
      </trkpt>
      <trkpt lat="47.05375" lon="5.54637">
        <ele>239</ele>
        <time>2010-05-21T12:17:28Z</time>
      </trkpt>
      <trkpt lat="47.05371" lon="5.54651">
        <ele>239</ele>
        <time>2010-05-21T12:17:30Z</time>
      </trkpt>
      <trkpt lat="47.05366" lon="5.54665">
        <ele>239</ele>
        <time>2010-05-21T12:17:32Z</time>
      </trkpt>
      <trkpt lat="47.05361" lon="5.54678">
        <ele>239</ele>
        <time>2010-05-21T12:17:34Z</time>
      </trkpt>
      <trkpt lat="47.05355" lon="5.54694">
        <ele>239</ele>
        <time>2010-05-21T12:17:36Z</time>
      </trkpt>
      <trkpt lat="47.0535" lon="5.54709">
        <ele>239</ele>
        <time>2010-05-21T12:17:38Z</time>
      </trkpt>
      <trkpt lat="47.05347" lon="5.54725">
        <ele>239</ele>
        <time>2010-05-21T12:17:40Z</time>
      </trkpt>
      <trkpt lat="47.05341" lon="5.5474">
        <ele>239</ele>
        <time>2010-05-21T12:17:42Z</time>
      </trkpt>
      <trkpt lat="47.05336" lon="5.54756">
        <ele>239</ele>
        <time>2010-05-21T12:17:44Z</time>
      </trkpt>
      <trkpt lat="47.0533" lon="5.54774">
        <ele>239</ele>
        <time>2010-05-21T12:17:46Z</time>
      </trkpt>
      <trkpt lat="47.05324" lon="5.54791">
        <ele>239</ele>
        <time>2010-05-21T12:17:48Z</time>
      </trkpt>
      <trkpt lat="47.05319" lon="5.54812">
        <ele>239</ele>
        <time>2010-05-21T12:17:50Z</time>
      </trkpt>
      <trkpt lat="47.05312" lon="5.54831">
        <ele>239</ele>
        <time>2010-05-21T12:17:52Z</time>
      </trkpt>
      <trkpt lat="47.05308" lon="5.54851">
        <ele>239</ele>
        <time>2010-05-21T12:17:54Z</time>
      </trkpt>
      <trkpt lat="47.05303" lon="5.5487">
        <ele>239</ele>
        <time>2010-05-21T12:17:56Z</time>
      </trkpt>
      <trkpt lat="47.05301" lon="5.54889">
        <ele>233</ele>
        <time>2010-05-21T12:17:58Z</time>
      </trkpt>
      <trkpt lat="47.05303" lon="5.54914">
        <ele>233</ele>
        <time>2010-05-21T12:18:00Z</time>
      </trkpt>
      <trkpt lat="47.05306" lon="5.54926">
        <ele>233</ele>
        <time>2010-05-21T12:18:01Z</time>
      </trkpt>
      <trkpt lat="47.05309" lon="5.54939">
        <ele>233</ele>
        <time>2010-05-21T12:18:02Z</time>
      </trkpt>
      <trkpt lat="47.05314" lon="5.54964">
        <ele>227</ele>
        <time>2010-05-21T12:18:04Z</time>
      </trkpt>
      <trkpt lat="47.05318" lon="5.54977">
        <ele>227</ele>
        <time>2010-05-21T12:18:05Z</time>
      </trkpt>
      <trkpt lat="47.05322" lon="5.54989">
        <ele>227</ele>
        <time>2010-05-21T12:18:06Z</time>
      </trkpt>
      <trkpt lat="47.05325" lon="5.55003">
        <ele>227</ele>
        <time>2010-05-21T12:18:07Z</time>
      </trkpt>
      <trkpt lat="47.05328" lon="5.55017">
        <ele>227</ele>
        <time>2010-05-21T12:18:08Z</time>
      </trkpt>
      <trkpt lat="47.0533" lon="5.5503">
        <ele>227</ele>
        <time>2010-05-21T12:18:09Z</time>
      </trkpt>
      <trkpt lat="47.05334" lon="5.55043">
        <ele>227</ele>
        <time>2010-05-21T12:18:10Z</time>
      </trkpt>
      <trkpt lat="47.05339" lon="5.55055">
        <ele>227</ele>
        <time>2010-05-21T12:18:11Z</time>
      </trkpt>
      <trkpt lat="47.05345" lon="5.55077">
        <ele>227</ele>
        <time>2010-05-21T12:18:13Z</time>
      </trkpt>
      <trkpt lat="47.05349" lon="5.55101">
        <ele>227</ele>
        <time>2010-05-21T12:18:15Z</time>
      </trkpt>
      <trkpt lat="47.05355" lon="5.55121">
        <ele>227</ele>
        <time>2010-05-21T12:18:17Z</time>
      </trkpt>
      <trkpt lat="47.05359" lon="5.55139">
        <ele>233</ele>
        <time>2010-05-21T12:18:19Z</time>
      </trkpt>
      <trkpt lat="47.05362" lon="5.55156">
        <ele>233</ele>
        <time>2010-05-21T12:18:21Z</time>
      </trkpt>
      <trkpt lat="47.05365" lon="5.55173">
        <ele>233</ele>
        <time>2010-05-21T12:18:23Z</time>
      </trkpt>
      <trkpt lat="47.05367" lon="5.55186">
        <ele>233</ele>
        <time>2010-05-21T12:18:25Z</time>
      </trkpt>
      <trkpt lat="47.05372" lon="5.55201">
        <ele>233</ele>
        <time>2010-05-21T12:18:28Z</time>
      </trkpt>
      <trkpt lat="47.0538" lon="5.55215">
        <ele>233</ele>
        <time>2010-05-21T12:18:31Z</time>
      </trkpt>
      <trkpt lat="47.0538" lon="5.55233">
        <ele>233</ele>
        <time>2010-05-21T12:18:34Z</time>
      </trkpt>
      <trkpt lat="47.05388" lon="5.55242">
        <ele>241</ele>
        <time>2010-05-21T12:18:36Z</time>
      </trkpt>
      <trkpt lat="47.05391" lon="5.55257">
        <ele>241</ele>
        <time>2010-05-21T12:18:39Z</time>
      </trkpt>
      <trkpt lat="47.05396" lon="5.55273">
        <ele>241</ele>
        <time>2010-05-21T12:18:42Z</time>
      </trkpt>
      <trkpt lat="47.05397" lon="5.55286">
        <ele>241</ele>
        <time>2010-05-21T12:18:44Z</time>
      </trkpt>
      <trkpt lat="47.05399" lon="5.55305">
        <ele>241</ele>
        <time>2010-05-21T12:18:47Z</time>
      </trkpt>
      <trkpt lat="47.05404" lon="5.55323">
        <ele>241</ele>
        <time>2010-05-21T12:18:50Z</time>
      </trkpt>
      <trkpt lat="47.05406" lon="5.55343">
        <ele>241</ele>
        <time>2010-05-21T12:18:53Z</time>
      </trkpt>
      <trkpt lat="47.05408" lon="5.55358">
        <ele>241</ele>
        <time>2010-05-21T12:18:56Z</time>
      </trkpt>
      <trkpt lat="47.05411" lon="5.55376">
        <ele>241</ele>
        <time>2010-05-21T12:18:59Z</time>
      </trkpt>
      <trkpt lat="47.05414" lon="5.55394">
        <ele>236</ele>
        <time>2010-05-21T12:19:02Z</time>
      </trkpt>
      <trkpt lat="47.05417" lon="5.55411">
        <ele>236</ele>
        <time>2010-05-21T12:19:05Z</time>
      </trkpt>
      <trkpt lat="47.0542" lon="5.55427">
        <ele>236</ele>
        <time>2010-05-21T12:19:08Z</time>
      </trkpt>
      <trkpt lat="47.05424" lon="5.55445">
        <ele>236</ele>
        <time>2010-05-21T12:19:11Z</time>
      </trkpt>
      <trkpt lat="47.05427" lon="5.55463">
        <ele>236</ele>
        <time>2010-05-21T12:19:14Z</time>
      </trkpt>
      <trkpt lat="47.05432" lon="5.55479">
        <ele>242</ele>
        <time>2010-05-21T12:19:17Z</time>
      </trkpt>
      <trkpt lat="47.05436" lon="5.55494">
        <ele>242</ele>
        <time>2010-05-21T12:19:20Z</time>
      </trkpt>
      <trkpt lat="47.05438" lon="5.55511">
        <ele>242</ele>
        <time>2010-05-21T12:19:23Z</time>
      </trkpt>
      <trkpt lat="47.05442" lon="5.55524">
        <ele>242</ele>
        <time>2010-05-21T12:19:25Z</time>
      </trkpt>
      <trkpt lat="47.05446" lon="5.55539">
        <ele>242</ele>
        <time>2010-05-21T12:19:28Z</time>
      </trkpt>
      <trkpt lat="47.05448" lon="5.55554">
        <ele>242</ele>
        <time>2010-05-21T12:19:31Z</time>
      </trkpt>
      <trkpt lat="47.05452" lon="5.55571">
        <ele>242</ele>
        <time>2010-05-21T12:19:34Z</time>
      </trkpt>
      <trkpt lat="47.05457" lon="5.55589">
        <ele>242</ele>
        <time>2010-05-21T12:19:37Z</time>
      </trkpt>
      <trkpt lat="47.05461" lon="5.55604">
        <ele>247</ele>
        <time>2010-05-21T12:19:40Z</time>
      </trkpt>
      <trkpt lat="47.05463" lon="5.55621">
        <ele>247</ele>
        <time>2010-05-21T12:19:43Z</time>
      </trkpt>
      <trkpt lat="47.05465" lon="5.55635">
        <ele>247</ele>
        <time>2010-05-21T12:19:45Z</time>
      </trkpt>
      <trkpt lat="47.05465" lon="5.55649">
        <ele>247</ele>
        <time>2010-05-21T12:19:47Z</time>
      </trkpt>
      <trkpt lat="47.05467" lon="5.55663">
        <ele>241</ele>
        <time>2010-05-21T12:19:50Z</time>
      </trkpt>
      <trkpt lat="47.05471" lon="5.55676">
        <ele>241</ele>
        <time>2010-05-21T12:19:53Z</time>
      </trkpt>
      <trkpt lat="47.05476" lon="5.55691">
        <ele>241</ele>
        <time>2010-05-21T12:19:56Z</time>
      </trkpt>
      <trkpt lat="47.05481" lon="5.55708">
        <ele>241</ele>
        <time>2010-05-21T12:19:59Z</time>
      </trkpt>
      <trkpt lat="47.05484" lon="5.55724">
        <ele>241</ele>
        <time>2010-05-21T12:20:02Z</time>
      </trkpt>
      <trkpt lat="47.05488" lon="5.55743">
        <ele>241</ele>
        <time>2010-05-21T12:20:05Z</time>
      </trkpt>
      <trkpt lat="47.05491" lon="5.55758">
        <ele>241</ele>
        <time>2010-05-21T12:20:07Z</time>
      </trkpt>
      <trkpt lat="47.05494" lon="5.55772">
        <ele>247</ele>
        <time>2010-05-21T12:20:09Z</time>
      </trkpt>
      <trkpt lat="47.05497" lon="5.55786">
        <ele>247</ele>
        <time>2010-05-21T12:20:11Z</time>
      </trkpt>
      <trkpt lat="47.055" lon="5.55798">
        <ele>247</ele>
        <time>2010-05-21T12:20:13Z</time>
      </trkpt>
      <trkpt lat="47.05503" lon="5.55811">
        <ele>247</ele>
        <time>2010-05-21T12:20:15Z</time>
      </trkpt>
      <trkpt lat="47.05506" lon="5.55824">
        <ele>247</ele>
        <time>2010-05-21T12:20:17Z</time>
      </trkpt>
      <trkpt lat="47.0551" lon="5.55836">
        <ele>247</ele>
        <time>2010-05-21T12:20:19Z</time>
      </trkpt>
      <trkpt lat="47.05514" lon="5.55854">
        <ele>247</ele>
        <time>2010-05-21T12:20:22Z</time>
      </trkpt>
      <trkpt lat="47.05517" lon="5.5587">
        <ele>247</ele>
        <time>2010-05-21T12:20:25Z</time>
      </trkpt>
      <trkpt lat="47.05521" lon="5.55883">
        <ele>247</ele>
        <time>2010-05-21T12:20:27Z</time>
      </trkpt>
      <trkpt lat="47.05524" lon="5.55897">
        <ele>247</ele>
        <time>2010-05-21T12:20:29Z</time>
      </trkpt>
      <trkpt lat="47.05527" lon="5.55912">
        <ele>247</ele>
        <time>2010-05-21T12:20:31Z</time>
      </trkpt>
      <trkpt lat="47.0553" lon="5.55925">
        <ele>247</ele>
        <time>2010-05-21T12:20:33Z</time>
      </trkpt>
      <trkpt lat="47.05532" lon="5.5594">
        <ele>247</ele>
        <time>2010-05-21T12:20:35Z</time>
      </trkpt>
      <trkpt lat="47.05535" lon="5.55955">
        <ele>247</ele>
        <time>2010-05-21T12:20:37Z</time>
      </trkpt>
      <trkpt lat="47.05538" lon="5.55967">
        <ele>247</ele>
        <time>2010-05-21T12:20:39Z</time>
      </trkpt>
      <trkpt lat="47.05541" lon="5.55981">
        <ele>247</ele>
        <time>2010-05-21T12:20:41Z</time>
      </trkpt>
      <trkpt lat="47.05544" lon="5.55996">
        <ele>247</ele>
        <time>2010-05-21T12:20:43Z</time>
      </trkpt>
      <trkpt lat="47.05548" lon="5.56013">
        <ele>247</ele>
        <time>2010-05-21T12:20:45Z</time>
      </trkpt>
      <trkpt lat="47.05551" lon="5.56029">
        <ele>247</ele>
        <time>2010-05-21T12:20:47Z</time>
      </trkpt>
      <trkpt lat="47.05555" lon="5.56047">
        <ele>247</ele>
        <time>2010-05-21T12:20:49Z</time>
      </trkpt>
      <trkpt lat="47.0556" lon="5.56064">
        <ele>247</ele>
        <time>2010-05-21T12:20:51Z</time>
      </trkpt>
      <trkpt lat="47.05564" lon="5.56083">
        <ele>247</ele>
        <time>2010-05-21T12:20:53Z</time>
      </trkpt>
      <trkpt lat="47.0557" lon="5.56103">
        <ele>247</ele>
        <time>2010-05-21T12:20:55Z</time>
      </trkpt>
      <trkpt lat="47.05575" lon="5.56125">
        <ele>242</ele>
        <time>2010-05-21T12:20:57Z</time>
      </trkpt>
      <trkpt lat="47.0558" lon="5.56149">
        <ele>242</ele>
        <time>2010-05-21T12:20:59Z</time>
      </trkpt>
      <trkpt lat="47.05583" lon="5.56161">
        <ele>242</ele>
        <time>2010-05-21T12:21:00Z</time>
      </trkpt>
      <trkpt lat="47.05588" lon="5.56185">
        <ele>242</ele>
        <time>2010-05-21T12:21:02Z</time>
      </trkpt>
      <trkpt lat="47.05591" lon="5.56199">
        <ele>242</ele>
        <time>2010-05-21T12:21:03Z</time>
      </trkpt>
      <trkpt lat="47.05594" lon="5.56213">
        <ele>236</ele>
        <time>2010-05-21T12:21:04Z</time>
      </trkpt>
      <trkpt lat="47.05597" lon="5.56227">
        <ele>236</ele>
        <time>2010-05-21T12:21:05Z</time>
      </trkpt>
      <trkpt lat="47.056" lon="5.56241">
        <ele>236</ele>
        <time>2010-05-21T12:21:06Z</time>
      </trkpt>
      <trkpt lat="47.05603" lon="5.56257">
        <ele>236</ele>
        <time>2010-05-21T12:21:07Z</time>
      </trkpt>
      <trkpt lat="47.05607" lon="5.56272">
        <ele>231</ele>
        <time>2010-05-21T12:21:08Z</time>
      </trkpt>
      <trkpt lat="47.0561" lon="5.56287">
        <ele>231</ele>
        <time>2010-05-21T12:21:09Z</time>
      </trkpt>
      <trkpt lat="47.05613" lon="5.56303">
        <ele>231</ele>
        <time>2010-05-21T12:21:10Z</time>
      </trkpt>
      <trkpt lat="47.05616" lon="5.5632">
        <ele>231</ele>
        <time>2010-05-21T12:21:11Z</time>
      </trkpt>
      <trkpt lat="47.05619" lon="5.56335">
        <ele>231</ele>
        <time>2010-05-21T12:21:12Z</time>
      </trkpt>
      <trkpt lat="47.05622" lon="5.56351">
        <ele>231</ele>
        <time>2010-05-21T12:21:13Z</time>
      </trkpt>
      <trkpt lat="47.05626" lon="5.56367">
        <ele>231</ele>
        <time>2010-05-21T12:21:14Z</time>
      </trkpt>
      <trkpt lat="47.0563" lon="5.56383">
        <ele>231</ele>
        <time>2010-05-21T12:21:15Z</time>
      </trkpt>
      <trkpt lat="47.05634" lon="5.564">
        <ele>225</ele>
        <time>2010-05-21T12:21:16Z</time>
      </trkpt>
      <trkpt lat="47.05637" lon="5.56417">
        <ele>225</ele>
        <time>2010-05-21T12:21:17Z</time>
      </trkpt>
      <trkpt lat="47.05641" lon="5.56435">
        <ele>225</ele>
        <time>2010-05-21T12:21:18Z</time>
      </trkpt>
      <trkpt lat="47.05646" lon="5.56452">
        <ele>225</ele>
        <time>2010-05-21T12:21:19Z</time>
      </trkpt>
      <trkpt lat="47.0565" lon="5.56468">
        <ele>225</ele>
        <time>2010-05-21T12:21:20Z</time>
      </trkpt>
      <trkpt lat="47.05654" lon="5.56484">
        <ele>225</ele>
        <time>2010-05-21T12:21:21Z</time>
      </trkpt>
      <trkpt lat="47.05657" lon="5.56497">
        <ele>225</ele>
        <time>2010-05-21T12:21:22Z</time>
      </trkpt>
      <trkpt lat="47.05661" lon="5.5651">
        <ele>225</ele>
        <time>2010-05-21T12:21:23Z</time>
      </trkpt>
      <trkpt lat="47.05666" lon="5.56532">
        <ele>225</ele>
        <time>2010-05-21T12:21:25Z</time>
      </trkpt>
      <trkpt lat="47.05669" lon="5.5655">
        <ele>225</ele>
        <time>2010-05-21T12:21:27Z</time>
      </trkpt>
      <trkpt lat="47.05673" lon="5.56569">
        <ele>225</ele>
        <time>2010-05-21T12:21:29Z</time>
      </trkpt>
      <trkpt lat="47.0568" lon="5.56582">
        <ele>230</ele>
        <time>2010-05-21T12:21:31Z</time>
      </trkpt>
      <trkpt lat="47.05685" lon="5.56594">
        <ele>230</ele>
        <time>2010-05-21T12:21:33Z</time>
      </trkpt>
      <trkpt lat="47.0569" lon="5.56606">
        <ele>230</ele>
        <time>2010-05-21T12:21:35Z</time>
      </trkpt>
      <trkpt lat="47.05696" lon="5.56623">
        <ele>236</ele>
        <time>2010-05-21T12:21:38Z</time>
      </trkpt>
      <trkpt lat="47.05698" lon="5.56637">
        <ele>236</ele>
        <time>2010-05-21T12:21:40Z</time>
      </trkpt>
      <trkpt lat="47.05699" lon="5.56651">
        <ele>236</ele>
        <time>2010-05-21T12:21:42Z</time>
      </trkpt>
      <trkpt lat="47.057" lon="5.56666">
        <ele>236</ele>
        <time>2010-05-21T12:21:44Z</time>
      </trkpt>
      <trkpt lat="47.05703" lon="5.56682">
        <ele>236</ele>
        <time>2010-05-21T12:21:46Z</time>
      </trkpt>
      <trkpt lat="47.05705" lon="5.56695">
        <ele>236</ele>
        <time>2010-05-21T12:21:48Z</time>
      </trkpt>
      <trkpt lat="47.05708" lon="5.56709">
        <ele>236</ele>
        <time>2010-05-21T12:21:50Z</time>
      </trkpt>
      <trkpt lat="47.05712" lon="5.56725">
        <ele>236</ele>
        <time>2010-05-21T12:21:52Z</time>
      </trkpt>
      <trkpt lat="47.05718" lon="5.56737">
        <ele>241</ele>
        <time>2010-05-21T12:21:54Z</time>
      </trkpt>
      <trkpt lat="47.05722" lon="5.56749">
        <ele>241</ele>
        <time>2010-05-21T12:21:56Z</time>
      </trkpt>
      <trkpt lat="47.05725" lon="5.56769">
        <ele>241</ele>
        <time>2010-05-21T12:21:59Z</time>
      </trkpt>
      <trkpt lat="47.05726" lon="5.56783">
        <ele>241</ele>
        <time>2010-05-21T12:22:01Z</time>
      </trkpt>
      <trkpt lat="47.05729" lon="5.56797">
        <ele>241</ele>
        <time>2010-05-21T12:22:03Z</time>
      </trkpt>
      <trkpt lat="47.05731" lon="5.56811">
        <ele>241</ele>
        <time>2010-05-21T12:22:05Z</time>
      </trkpt>
      <trkpt lat="47.05734" lon="5.56825">
        <ele>241</ele>
        <time>2010-05-21T12:22:07Z</time>
      </trkpt>
      <trkpt lat="47.05737" lon="5.56838">
        <ele>241</ele>
        <time>2010-05-21T12:22:09Z</time>
      </trkpt>
      <trkpt lat="47.0574" lon="5.56852">
        <ele>241</ele>
        <time>2010-05-21T12:22:11Z</time>
      </trkpt>
      <trkpt lat="47.05743" lon="5.56867">
        <ele>241</ele>
        <time>2010-05-21T12:22:13Z</time>
      </trkpt>
      <trkpt lat="47.05749" lon="5.56885">
        <ele>241</ele>
        <time>2010-05-21T12:22:16Z</time>
      </trkpt>
      <trkpt lat="47.05753" lon="5.56896">
        <ele>241</ele>
        <time>2010-05-21T12:22:18Z</time>
      </trkpt>
      <trkpt lat="47.05756" lon="5.56915">
        <ele>241</ele>
        <time>2010-05-21T12:22:21Z</time>
      </trkpt>
      <trkpt lat="47.05759" lon="5.56935">
        <ele>241</ele>
        <time>2010-05-21T12:22:24Z</time>
      </trkpt>
      <trkpt lat="47.05762" lon="5.56947">
        <ele>241</ele>
        <time>2010-05-21T12:22:26Z</time>
      </trkpt>
      <trkpt lat="47.05764" lon="5.56962">
        <ele>241</ele>
        <time>2010-05-21T12:22:28Z</time>
      </trkpt>
      <trkpt lat="47.05767" lon="5.56976">
        <ele>241</ele>
        <time>2010-05-21T12:22:30Z</time>
      </trkpt>
      <trkpt lat="47.05773" lon="5.56992">
        <ele>236</ele>
        <time>2010-05-21T12:22:33Z</time>
      </trkpt>
      <trkpt lat="47.05777" lon="5.5701">
        <ele>236</ele>
        <time>2010-05-21T12:22:36Z</time>
      </trkpt>
      <trkpt lat="47.0578" lon="5.57026">
        <ele>236</ele>
        <time>2010-05-21T12:22:38Z</time>
      </trkpt>
      <trkpt lat="47.05783" lon="5.57039">
        <ele>236</ele>
        <time>2010-05-21T12:22:40Z</time>
      </trkpt>
      <trkpt lat="47.05786" lon="5.57052">
        <ele>236</ele>
        <time>2010-05-21T12:22:42Z</time>
      </trkpt>
      <trkpt lat="47.05789" lon="5.57066">
        <ele>236</ele>
        <time>2010-05-21T12:22:44Z</time>
      </trkpt>
      <trkpt lat="47.05792" lon="5.5708">
        <ele>236</ele>
        <time>2010-05-21T12:22:46Z</time>
      </trkpt>
      <trkpt lat="47.05794" lon="5.57096">
        <ele>236</ele>
        <time>2010-05-21T12:22:48Z</time>
      </trkpt>
      <trkpt lat="47.05797" lon="5.5711">
        <ele>236</ele>
        <time>2010-05-21T12:22:50Z</time>
      </trkpt>
      <trkpt lat="47.05799" lon="5.57126">
        <ele>236</ele>
        <time>2010-05-21T12:22:52Z</time>
      </trkpt>
      <trkpt lat="47.05803" lon="5.57142">
        <ele>236</ele>
        <time>2010-05-21T12:22:54Z</time>
      </trkpt>
      <trkpt lat="47.05808" lon="5.57159">
        <ele>236</ele>
        <time>2010-05-21T12:22:56Z</time>
      </trkpt>
      <trkpt lat="47.05814" lon="5.57175">
        <ele>242</ele>
        <time>2010-05-21T12:22:58Z</time>
      </trkpt>
      <trkpt lat="47.05818" lon="5.57196">
        <ele>242</ele>
        <time>2010-05-21T12:23:00Z</time>
      </trkpt>
      <trkpt lat="47.05822" lon="5.5722">
        <ele>242</ele>
        <time>2010-05-21T12:23:02Z</time>
      </trkpt>
      <trkpt lat="47.05826" lon="5.57243">
        <ele>242</ele>
        <time>2010-05-21T12:23:04Z</time>
      </trkpt>
      <trkpt lat="47.05831" lon="5.57265">
        <ele>242</ele>
        <time>2010-05-21T12:23:06Z</time>
      </trkpt>
      <trkpt lat="47.05836" lon="5.57285">
        <ele>242</ele>
        <time>2010-05-21T12:23:08Z</time>
      </trkpt>
      <trkpt lat="47.05842" lon="5.57306">
        <ele>236</ele>
        <time>2010-05-21T12:23:10Z</time>
      </trkpt>
      <trkpt lat="47.05846" lon="5.57326">
        <ele>236</ele>
        <time>2010-05-21T12:23:12Z</time>
      </trkpt>
      <trkpt lat="47.0585" lon="5.57344">
        <ele>236</ele>
        <time>2010-05-21T12:23:14Z</time>
      </trkpt>
      <trkpt lat="47.05856" lon="5.5736">
        <ele>236</ele>
        <time>2010-05-21T12:23:16Z</time>
      </trkpt>
      <trkpt lat="47.05859" lon="5.57379">
        <ele>236</ele>
        <time>2010-05-21T12:23:18Z</time>
      </trkpt>
      <trkpt lat="47.05863" lon="5.57397">
        <ele>236</ele>
        <time>2010-05-21T12:23:20Z</time>
      </trkpt>
      <trkpt lat="47.05867" lon="5.57415">
        <ele>236</ele>
        <time>2010-05-21T12:23:22Z</time>
      </trkpt>
      <trkpt lat="47.05873" lon="5.57431">
        <ele>236</ele>
        <time>2010-05-21T12:23:24Z</time>
      </trkpt>
      <trkpt lat="47.05878" lon="5.57448">
        <ele>236</ele>
        <time>2010-05-21T12:23:26Z</time>
      </trkpt>
      <trkpt lat="47.05881" lon="5.57466">
        <ele>236</ele>
        <time>2010-05-21T12:23:28Z</time>
      </trkpt>
      <trkpt lat="47.05885" lon="5.57484">
        <ele>236</ele>
        <time>2010-05-21T12:23:30Z</time>
      </trkpt>
      <trkpt lat="47.05889" lon="5.57501">
        <ele>236</ele>
        <time>2010-05-21T12:23:32Z</time>
      </trkpt>
      <trkpt lat="47.05894" lon="5.57515">
        <ele>236</ele>
        <time>2010-05-21T12:23:34Z</time>
      </trkpt>
      <trkpt lat="47.05899" lon="5.57529">
        <ele>242</ele>
        <time>2010-05-21T12:23:36Z</time>
      </trkpt>
      <trkpt lat="47.05905" lon="5.57541">
        <ele>242</ele>
        <time>2010-05-21T12:23:38Z</time>
      </trkpt>
      <trkpt lat="47.0591" lon="5.57557">
        <ele>248</ele>
        <time>2010-05-21T12:23:40Z</time>
      </trkpt>
      <trkpt lat="47.05912" lon="5.57574">
        <ele>248</ele>
        <time>2010-05-21T12:23:42Z</time>
      </trkpt>
      <trkpt lat="47.05913" lon="5.57591">
        <ele>248</ele>
        <time>2010-05-21T12:23:44Z</time>
      </trkpt>
      <trkpt lat="47.05915" lon="5.57604">
        <ele>248</ele>
        <time>2010-05-21T12:23:46Z</time>
      </trkpt>
      <trkpt lat="47.05917" lon="5.57618">
        <ele>248</ele>
        <time>2010-05-21T12:23:48Z</time>
      </trkpt>
      <trkpt lat="47.0592" lon="5.5763">
        <ele>248</ele>
        <time>2010-05-21T12:23:50Z</time>
      </trkpt>
      <trkpt lat="47.05922" lon="5.57644">
        <ele>248</ele>
        <time>2010-05-21T12:23:52Z</time>
      </trkpt>
      <trkpt lat="47.05925" lon="5.57659">
        <ele>248</ele>
        <time>2010-05-21T12:23:54Z</time>
      </trkpt>
      <trkpt lat="47.05927" lon="5.57675">
        <ele>248</ele>
        <time>2010-05-21T12:23:56Z</time>
      </trkpt>
      <trkpt lat="47.05929" lon="5.5769">
        <ele>248</ele>
        <time>2010-05-21T12:23:58Z</time>
      </trkpt>
      <trkpt lat="47.05934" lon="5.57705">
        <ele>248</ele>
        <time>2010-05-21T12:24:00Z</time>
      </trkpt>
      <trkpt lat="47.05937" lon="5.57719">
        <ele>248</ele>
        <time>2010-05-21T12:24:02Z</time>
      </trkpt>
      <trkpt lat="47.05942" lon="5.57732">
        <ele>248</ele>
        <time>2010-05-21T12:24:04Z</time>
      </trkpt>
      <trkpt lat="47.05948" lon="5.57744">
        <ele>248</ele>
        <time>2010-05-21T12:24:06Z</time>
      </trkpt>
      <trkpt lat="47.05953" lon="5.57759">
        <ele>248</ele>
        <time>2010-05-21T12:24:08Z</time>
      </trkpt>
      <trkpt lat="47.05958" lon="5.57774">
        <ele>248</ele>
        <time>2010-05-21T12:24:10Z</time>
      </trkpt>
      <trkpt lat="47.0596" lon="5.57789">
        <ele>248</ele>
        <time>2010-05-21T12:24:12Z</time>
      </trkpt>
      <trkpt lat="47.05961" lon="5.57804">
        <ele>248</ele>
        <time>2010-05-21T12:24:14Z</time>
      </trkpt>
      <trkpt lat="47.05964" lon="5.57821">
        <ele>248</ele>
        <time>2010-05-21T12:24:16Z</time>
      </trkpt>
      <trkpt lat="47.05967" lon="5.57837">
        <ele>248</ele>
        <time>2010-05-21T12:24:18Z</time>
      </trkpt>
      <trkpt lat="47.05971" lon="5.5785">
        <ele>248</ele>
        <time>2010-05-21T12:24:20Z</time>
      </trkpt>
      <trkpt lat="47.05973" lon="5.57865">
        <ele>248</ele>
        <time>2010-05-21T12:24:22Z</time>
      </trkpt>
      <trkpt lat="47.05978" lon="5.5788">
        <ele>248</ele>
        <time>2010-05-21T12:24:24Z</time>
      </trkpt>
      <trkpt lat="47.05985" lon="5.57893">
        <ele>248</ele>
        <time>2010-05-21T12:24:26Z</time>
      </trkpt>
      <trkpt lat="47.05987" lon="5.57911">
        <ele>248</ele>
        <time>2010-05-21T12:24:28Z</time>
      </trkpt>
      <trkpt lat="47.05991" lon="5.57928">
        <ele>248</ele>
        <time>2010-05-21T12:24:30Z</time>
      </trkpt>
      <trkpt lat="47.05995" lon="5.57945">
        <ele>248</ele>
        <time>2010-05-21T12:24:32Z</time>
      </trkpt>
      <trkpt lat="47.05999" lon="5.57961">
        <ele>248</ele>
        <time>2010-05-21T12:24:34Z</time>
      </trkpt>
      <trkpt lat="47.06003" lon="5.57977">
        <ele>248</ele>
        <time>2010-05-21T12:24:36Z</time>
      </trkpt>
      <trkpt lat="47.06007" lon="5.57993">
        <ele>248</ele>
        <time>2010-05-21T12:24:38Z</time>
      </trkpt>
      <trkpt lat="47.06009" lon="5.58009">
        <ele>248</ele>
        <time>2010-05-21T12:24:40Z</time>
      </trkpt>
      <trkpt lat="47.06012" lon="5.58028">
        <ele>248</ele>
        <time>2010-05-21T12:24:42Z</time>
      </trkpt>
      <trkpt lat="47.06014" lon="5.58044">
        <ele>248</ele>
        <time>2010-05-21T12:24:44Z</time>
      </trkpt>
      <trkpt lat="47.06017" lon="5.58061">
        <ele>248</ele>
        <time>2010-05-21T12:24:46Z</time>
      </trkpt>
      <trkpt lat="47.0602" lon="5.58078">
        <ele>248</ele>
        <time>2010-05-21T12:24:48Z</time>
      </trkpt>
      <trkpt lat="47.06023" lon="5.58095">
        <ele>248</ele>
        <time>2010-05-21T12:24:50Z</time>
      </trkpt>
      <trkpt lat="47.06027" lon="5.58113">
        <ele>248</ele>
        <time>2010-05-21T12:24:52Z</time>
      </trkpt>
      <trkpt lat="47.06031" lon="5.5813">
        <ele>248</ele>
        <time>2010-05-21T12:24:54Z</time>
      </trkpt>
      <trkpt lat="47.06034" lon="5.58147">
        <ele>248</ele>
        <time>2010-05-21T12:24:56Z</time>
      </trkpt>
      <trkpt lat="47.06037" lon="5.58164">
        <ele>248</ele>
        <time>2010-05-21T12:24:58Z</time>
      </trkpt>
      <trkpt lat="47.06042" lon="5.58181">
        <ele>248</ele>
        <time>2010-05-21T12:25:00Z</time>
      </trkpt>
      <trkpt lat="47.06048" lon="5.58198">
        <ele>248</ele>
        <time>2010-05-21T12:25:02Z</time>
      </trkpt>
      <trkpt lat="47.06053" lon="5.58215">
        <ele>248</ele>
        <time>2010-05-21T12:25:04Z</time>
      </trkpt>
      <trkpt lat="47.06056" lon="5.58233">
        <ele>248</ele>
        <time>2010-05-21T12:25:06Z</time>
      </trkpt>
      <trkpt lat="47.06058" lon="5.5825">
        <ele>248</ele>
        <time>2010-05-21T12:25:08Z</time>
      </trkpt>
      <trkpt lat="47.06062" lon="5.58268">
        <ele>248</ele>
        <time>2010-05-21T12:25:10Z</time>
      </trkpt>
      <trkpt lat="47.06064" lon="5.58287">
        <ele>248</ele>
        <time>2010-05-21T12:25:12Z</time>
      </trkpt>
      <trkpt lat="47.06069" lon="5.58305">
        <ele>248</ele>
        <time>2010-05-21T12:25:14Z</time>
      </trkpt>
      <trkpt lat="47.06073" lon="5.58322">
        <ele>248</ele>
        <time>2010-05-21T12:25:16Z</time>
      </trkpt>
      <trkpt lat="47.06079" lon="5.58339">
        <ele>248</ele>
        <time>2010-05-21T12:25:18Z</time>
      </trkpt>
      <trkpt lat="47.06083" lon="5.58352">
        <ele>248</ele>
        <time>2010-05-21T12:25:20Z</time>
      </trkpt>
      <trkpt lat="47.06086" lon="5.58365">
        <ele>248</ele>
        <time>2010-05-21T12:25:22Z</time>
      </trkpt>
      <trkpt lat="47.06087" lon="5.58384">
        <ele>248</ele>
        <time>2010-05-21T12:25:25Z</time>
      </trkpt>
      <trkpt lat="47.06087" lon="5.58402">
        <ele>248</ele>
        <time>2010-05-21T12:25:28Z</time>
      </trkpt>
      <trkpt lat="47.0609" lon="5.5842">
        <ele>248</ele>
        <time>2010-05-21T12:25:31Z</time>
      </trkpt>
      <trkpt lat="47.06093" lon="5.58432">
        <ele>248</ele>
        <time>2010-05-21T12:25:33Z</time>
      </trkpt>
      <trkpt lat="47.06097" lon="5.58448">
        <ele>248</ele>
        <time>2010-05-21T12:25:35Z</time>
      </trkpt>
      <trkpt lat="47.06102" lon="5.58465">
        <ele>242</ele>
        <time>2010-05-21T12:25:37Z</time>
      </trkpt>
      <trkpt lat="47.06106" lon="5.58483">
        <ele>242</ele>
        <time>2010-05-21T12:25:39Z</time>
      </trkpt>
      <trkpt lat="47.06109" lon="5.58502">
        <ele>242</ele>
        <time>2010-05-21T12:25:41Z</time>
      </trkpt>
      <trkpt lat="47.06114" lon="5.5852">
        <ele>242</ele>
        <time>2010-05-21T12:25:43Z</time>
      </trkpt>
      <trkpt lat="47.06117" lon="5.58538">
        <ele>236</ele>
        <time>2010-05-21T12:25:45Z</time>
      </trkpt>
      <trkpt lat="47.06123" lon="5.58556">
        <ele>236</ele>
        <time>2010-05-21T12:25:47Z</time>
      </trkpt>
      <trkpt lat="47.06128" lon="5.58575">
        <ele>236</ele>
        <time>2010-05-21T12:25:49Z</time>
      </trkpt>
      <trkpt lat="47.06131" lon="5.58592">
        <ele>236</ele>
        <time>2010-05-21T12:25:51Z</time>
      </trkpt>
      <trkpt lat="47.06136" lon="5.5861">
        <ele>236</ele>
        <time>2010-05-21T12:25:53Z</time>
      </trkpt>
      <trkpt lat="47.0614" lon="5.58627">
        <ele>236</ele>
        <time>2010-05-21T12:25:55Z</time>
      </trkpt>
      <trkpt lat="47.06144" lon="5.58644">
        <ele>236</ele>
        <time>2010-05-21T12:25:57Z</time>
      </trkpt>
      <trkpt lat="47.06148" lon="5.58661">
        <ele>236</ele>
        <time>2010-05-21T12:25:59Z</time>
      </trkpt>
      <trkpt lat="47.06153" lon="5.58676">
        <ele>236</ele>
        <time>2010-05-21T12:26:01Z</time>
      </trkpt>
      <trkpt lat="47.06158" lon="5.5869">
        <ele>236</ele>
        <time>2010-05-21T12:26:03Z</time>
      </trkpt>
      <trkpt lat="47.06161" lon="5.58706">
        <ele>236</ele>
        <time>2010-05-21T12:26:05Z</time>
      </trkpt>
      <trkpt lat="47.06162" lon="5.58721">
        <ele>236</ele>
        <time>2010-05-21T12:26:07Z</time>
      </trkpt>
      <trkpt lat="47.06165" lon="5.5874">
        <ele>236</ele>
        <time>2010-05-21T12:26:10Z</time>
      </trkpt>
      <trkpt lat="47.06168" lon="5.58757">
        <ele>236</ele>
        <time>2010-05-21T12:26:13Z</time>
      </trkpt>
      <trkpt lat="47.06169" lon="5.5877">
        <ele>236</ele>
        <time>2010-05-21T12:26:15Z</time>
      </trkpt>
      <trkpt lat="47.06172" lon="5.58784">
        <ele>236</ele>
        <time>2010-05-21T12:26:17Z</time>
      </trkpt>
      <trkpt lat="47.06175" lon="5.588">
        <ele>236</ele>
        <time>2010-05-21T12:26:19Z</time>
      </trkpt>
      <trkpt lat="47.06179" lon="5.58816">
        <ele>236</ele>
        <time>2010-05-21T12:26:21Z</time>
      </trkpt>
      <trkpt lat="47.06182" lon="5.58833">
        <ele>236</ele>
        <time>2010-05-21T12:26:23Z</time>
      </trkpt>
      <trkpt lat="47.06185" lon="5.58851">
        <ele>236</ele>
        <time>2010-05-21T12:26:25Z</time>
      </trkpt>
      <trkpt lat="47.0619" lon="5.58869">
        <ele>241</ele>
        <time>2010-05-21T12:26:27Z</time>
      </trkpt>
      <trkpt lat="47.06195" lon="5.58889">
        <ele>241</ele>
        <time>2010-05-21T12:26:29Z</time>
      </trkpt>
      <trkpt lat="47.06199" lon="5.58908">
        <ele>241</ele>
        <time>2010-05-21T12:26:31Z</time>
      </trkpt>
      <trkpt lat="47.06203" lon="5.58927">
        <ele>241</ele>
        <time>2010-05-21T12:26:33Z</time>
      </trkpt>
      <trkpt lat="47.06207" lon="5.58945">
        <ele>241</ele>
        <time>2010-05-21T12:26:35Z</time>
      </trkpt>
      <trkpt lat="47.06212" lon="5.58963">
        <ele>241</ele>
        <time>2010-05-21T12:26:37Z</time>
      </trkpt>
      <trkpt lat="47.06217" lon="5.5898">
        <ele>241</ele>
        <time>2010-05-21T12:26:39Z</time>
      </trkpt>
      <trkpt lat="47.06223" lon="5.58997">
        <ele>241</ele>
        <time>2010-05-21T12:26:41Z</time>
      </trkpt>
      <trkpt lat="47.06228" lon="5.59014">
        <ele>241</ele>
        <time>2010-05-21T12:26:43Z</time>
      </trkpt>
      <trkpt lat="47.06231" lon="5.59031">
        <ele>241</ele>
        <time>2010-05-21T12:26:45Z</time>
      </trkpt>
      <trkpt lat="47.06234" lon="5.59045">
        <ele>241</ele>
        <time>2010-05-21T12:26:47Z</time>
      </trkpt>
      <trkpt lat="47.06237" lon="5.59061">
        <ele>241</ele>
        <time>2010-05-21T12:26:49Z</time>
      </trkpt>
      <trkpt lat="47.06239" lon="5.59076">
        <ele>241</ele>
        <time>2010-05-21T12:26:51Z</time>
      </trkpt>
      <trkpt lat="47.06243" lon="5.59093">
        <ele>241</ele>
        <time>2010-05-21T12:26:53Z</time>
      </trkpt>
      <trkpt lat="47.06246" lon="5.59108">
        <ele>241</ele>
        <time>2010-05-21T12:26:55Z</time>
      </trkpt>
      <trkpt lat="47.06249" lon="5.59123">
        <ele>241</ele>
        <time>2010-05-21T12:26:57Z</time>
      </trkpt>
      <trkpt lat="47.06252" lon="5.59138">
        <ele>241</ele>
        <time>2010-05-21T12:26:59Z</time>
      </trkpt>
      <trkpt lat="47.06254" lon="5.59154">
        <ele>241</ele>
        <time>2010-05-21T12:27:01Z</time>
      </trkpt>
      <trkpt lat="47.06258" lon="5.59169">
        <ele>241</ele>
        <time>2010-05-21T12:27:03Z</time>
      </trkpt>
      <trkpt lat="47.06262" lon="5.59185">
        <ele>241</ele>
        <time>2010-05-21T12:27:05Z</time>
      </trkpt>
      <trkpt lat="47.06266" lon="5.59202">
        <ele>241</ele>
        <time>2010-05-21T12:27:07Z</time>
      </trkpt>
      <trkpt lat="47.0627" lon="5.59219">
        <ele>241</ele>
        <time>2010-05-21T12:27:09Z</time>
      </trkpt>
      <trkpt lat="47.06274" lon="5.59238">
        <ele>241</ele>
        <time>2010-05-21T12:27:11Z</time>
      </trkpt>
      <trkpt lat="47.06278" lon="5.59256">
        <ele>241</ele>
        <time>2010-05-21T12:27:13Z</time>
      </trkpt>
      <trkpt lat="47.06281" lon="5.59276">
        <ele>241</ele>
        <time>2010-05-21T12:27:15Z</time>
      </trkpt>
      <trkpt lat="47.06285" lon="5.59296">
        <ele>241</ele>
        <time>2010-05-21T12:27:17Z</time>
      </trkpt>
      <trkpt lat="47.0629" lon="5.59316">
        <ele>241</ele>
        <time>2010-05-21T12:27:19Z</time>
      </trkpt>
      <trkpt lat="47.06293" lon="5.59339">
        <ele>241</ele>
        <time>2010-05-21T12:27:21Z</time>
      </trkpt>
      <trkpt lat="47.06298" lon="5.59359">
        <ele>236</ele>
        <time>2010-05-21T12:27:23Z</time>
      </trkpt>
      <trkpt lat="47.06303" lon="5.59381">
        <ele>236</ele>
        <time>2010-05-21T12:27:25Z</time>
      </trkpt>
      <trkpt lat="47.06307" lon="5.59402">
        <ele>236</ele>
        <time>2010-05-21T12:27:27Z</time>
      </trkpt>
      <trkpt lat="47.06312" lon="5.59421">
        <ele>236</ele>
        <time>2010-05-21T12:27:29Z</time>
      </trkpt>
      <trkpt lat="47.06317" lon="5.59441">
        <ele>236</ele>
        <time>2010-05-21T12:27:31Z</time>
      </trkpt>
      <trkpt lat="47.06322" lon="5.5946">
        <ele>236</ele>
        <time>2010-05-21T12:27:33Z</time>
      </trkpt>
      <trkpt lat="47.06325" lon="5.59478">
        <ele>236</ele>
        <time>2010-05-21T12:27:35Z</time>
      </trkpt>
      <trkpt lat="47.06328" lon="5.59494">
        <ele>236</ele>
        <time>2010-05-21T12:27:37Z</time>
      </trkpt>
      <trkpt lat="47.06332" lon="5.59509">
        <ele>236</ele>
        <time>2010-05-21T12:27:39Z</time>
      </trkpt>
      <trkpt lat="47.06336" lon="5.59525">
        <ele>236</ele>
        <time>2010-05-21T12:27:41Z</time>
      </trkpt>
      <trkpt lat="47.06339" lon="5.5954">
        <ele>236</ele>
        <time>2010-05-21T12:27:43Z</time>
      </trkpt>
      <trkpt lat="47.06343" lon="5.59555">
        <ele>236</ele>
        <time>2010-05-21T12:27:45Z</time>
      </trkpt>
      <trkpt lat="47.06347" lon="5.59571">
        <ele>236</ele>
        <time>2010-05-21T12:27:47Z</time>
      </trkpt>
      <trkpt lat="47.06351" lon="5.59589">
        <ele>236</ele>
        <time>2010-05-21T12:27:49Z</time>
      </trkpt>
      <trkpt lat="47.06355" lon="5.59606">
        <ele>236</ele>
        <time>2010-05-21T12:27:51Z</time>
      </trkpt>
      <trkpt lat="47.06359" lon="5.59624">
        <ele>236</ele>
        <time>2010-05-21T12:27:53Z</time>
      </trkpt>
      <trkpt lat="47.06362" lon="5.59641">
        <ele>236</ele>
        <time>2010-05-21T12:27:55Z</time>
      </trkpt>
      <trkpt lat="47.06366" lon="5.59659">
        <ele>236</ele>
        <time>2010-05-21T12:27:57Z</time>
      </trkpt>
      <trkpt lat="47.0637" lon="5.59679">
        <ele>241</ele>
        <time>2010-05-21T12:27:59Z</time>
      </trkpt>
      <trkpt lat="47.06374" lon="5.59696">
        <ele>241</ele>
        <time>2010-05-21T12:28:01Z</time>
      </trkpt>
      <trkpt lat="47.06381" lon="5.59711">
        <ele>241</ele>
        <time>2010-05-21T12:28:03Z</time>
      </trkpt>
      <trkpt lat="47.06385" lon="5.59727">
        <ele>241</ele>
        <time>2010-05-21T12:28:05Z</time>
      </trkpt>
      <trkpt lat="47.06389" lon="5.59745">
        <ele>241</ele>
        <time>2010-05-21T12:28:07Z</time>
      </trkpt>
      <trkpt lat="47.06391" lon="5.59763">
        <ele>241</ele>
        <time>2010-05-21T12:28:09Z</time>
      </trkpt>
      <trkpt lat="47.06395" lon="5.59782">
        <ele>241</ele>
        <time>2010-05-21T12:28:11Z</time>
      </trkpt>
      <trkpt lat="47.064" lon="5.598">
        <ele>235</ele>
        <time>2010-05-21T12:28:13Z</time>
      </trkpt>
      <trkpt lat="47.06404" lon="5.59819">
        <ele>235</ele>
        <time>2010-05-21T12:28:15Z</time>
      </trkpt>
      <trkpt lat="47.06408" lon="5.5984">
        <ele>235</ele>
        <time>2010-05-21T12:28:17Z</time>
      </trkpt>
      <trkpt lat="47.06413" lon="5.59859">
        <ele>235</ele>
        <time>2010-05-21T12:28:19Z</time>
      </trkpt>
      <trkpt lat="47.06416" lon="5.5988">
        <ele>235</ele>
        <time>2010-05-21T12:28:21Z</time>
      </trkpt>
      <trkpt lat="47.06419" lon="5.59903">
        <ele>229</ele>
        <time>2010-05-21T12:28:23Z</time>
      </trkpt>
      <trkpt lat="47.06425" lon="5.59924">
        <ele>229</ele>
        <time>2010-05-21T12:28:25Z</time>
      </trkpt>
      <trkpt lat="47.06429" lon="5.59943">
        <ele>229</ele>
        <time>2010-05-21T12:28:27Z</time>
      </trkpt>
      <trkpt lat="47.06435" lon="5.59965">
        <ele>229</ele>
        <time>2010-05-21T12:28:29Z</time>
      </trkpt>
      <trkpt lat="47.06439" lon="5.59986">
        <ele>229</ele>
        <time>2010-05-21T12:28:31Z</time>
      </trkpt>
      <trkpt lat="47.06444" lon="5.60008">
        <ele>229</ele>
        <time>2010-05-21T12:28:33Z</time>
      </trkpt>
      <trkpt lat="47.06449" lon="5.60028">
        <ele>223</ele>
        <time>2010-05-21T12:28:35Z</time>
      </trkpt>
      <trkpt lat="47.06454" lon="5.60048">
        <ele>223</ele>
        <time>2010-05-21T12:28:37Z</time>
      </trkpt>
      <trkpt lat="47.06459" lon="5.60067">
        <ele>223</ele>
        <time>2010-05-21T12:28:39Z</time>
      </trkpt>
      <trkpt lat="47.06465" lon="5.60085">
        <ele>223</ele>
        <time>2010-05-21T12:28:41Z</time>
      </trkpt>
      <trkpt lat="47.06471" lon="5.60102">
        <ele>223</ele>
        <time>2010-05-21T12:28:43Z</time>
      </trkpt>
      <trkpt lat="47.06475" lon="5.60118">
        <ele>223</ele>
        <time>2010-05-21T12:28:45Z</time>
      </trkpt>
      <trkpt lat="47.06479" lon="5.60134">
        <ele>223</ele>
        <time>2010-05-21T12:28:47Z</time>
      </trkpt>
      <trkpt lat="47.06481" lon="5.60148">
        <ele>223</ele>
        <time>2010-05-21T12:28:49Z</time>
      </trkpt>
      <trkpt lat="47.06482" lon="5.60163">
        <ele>229</ele>
        <time>2010-05-21T12:28:51Z</time>
      </trkpt>
      <trkpt lat="47.06485" lon="5.60175">
        <ele>229</ele>
        <time>2010-05-21T12:28:53Z</time>
      </trkpt>
      <trkpt lat="47.06488" lon="5.6019">
        <ele>229</ele>
        <time>2010-05-21T12:28:55Z</time>
      </trkpt>
      <trkpt lat="47.0649" lon="5.60203">
        <ele>234</ele>
        <time>2010-05-21T12:28:57Z</time>
      </trkpt>
      <trkpt lat="47.06494" lon="5.60219">
        <ele>234</ele>
        <time>2010-05-21T12:29:00Z</time>
      </trkpt>
      <trkpt lat="47.06498" lon="5.60231">
        <ele>234</ele>
        <time>2010-05-21T12:29:02Z</time>
      </trkpt>
      <trkpt lat="47.06503" lon="5.60242">
        <ele>234</ele>
        <time>2010-05-21T12:29:04Z</time>
      </trkpt>
      <trkpt lat="47.06509" lon="5.60254">
        <ele>234</ele>
        <time>2010-05-21T12:29:06Z</time>
      </trkpt>
      <trkpt lat="47.06513" lon="5.60268">
        <ele>234</ele>
        <time>2010-05-21T12:29:08Z</time>
      </trkpt>
      <trkpt lat="47.06516" lon="5.60283">
        <ele>234</ele>
        <time>2010-05-21T12:29:10Z</time>
      </trkpt>
      <trkpt lat="47.06519" lon="5.60299">
        <ele>234</ele>
        <time>2010-05-21T12:29:12Z</time>
      </trkpt>
      <trkpt lat="47.06522" lon="5.60317">
        <ele>234</ele>
        <time>2010-05-21T12:29:14Z</time>
      </trkpt>
      <trkpt lat="47.06524" lon="5.60336">
        <ele>234</ele>
        <time>2010-05-21T12:29:16Z</time>
      </trkpt>
      <trkpt lat="47.0653" lon="5.60354">
        <ele>234</ele>
        <time>2010-05-21T12:29:18Z</time>
      </trkpt>
      <trkpt lat="47.06535" lon="5.60374">
        <ele>234</ele>
        <time>2010-05-21T12:29:20Z</time>
      </trkpt>
      <trkpt lat="47.06541" lon="5.60394">
        <ele>234</ele>
        <time>2010-05-21T12:29:22Z</time>
      </trkpt>
      <trkpt lat="47.06546" lon="5.60418">
        <ele>229</ele>
        <time>2010-05-21T12:29:24Z</time>
      </trkpt>
      <trkpt lat="47.06548" lon="5.60432">
        <ele>229</ele>
        <time>2010-05-21T12:29:25Z</time>
      </trkpt>
      <trkpt lat="47.06549" lon="5.60445">
        <ele>229</ele>
        <time>2010-05-21T12:29:26Z</time>
      </trkpt>
      <trkpt lat="47.06552" lon="5.60459">
        <ele>229</ele>
        <time>2010-05-21T12:29:27Z</time>
      </trkpt>
      <trkpt lat="47.06554" lon="5.60472">
        <ele>229</ele>
        <time>2010-05-21T12:29:28Z</time>
      </trkpt>
      <trkpt lat="47.06559" lon="5.60498">
        <ele>229</ele>
        <time>2010-05-21T12:29:30Z</time>
      </trkpt>
      <trkpt lat="47.06562" lon="5.60511">
        <ele>229</ele>
        <time>2010-05-21T12:29:31Z</time>
      </trkpt>
      <trkpt lat="47.06565" lon="5.60525">
        <ele>229</ele>
        <time>2010-05-21T12:29:32Z</time>
      </trkpt>
      <trkpt lat="47.06568" lon="5.60538">
        <ele>229</ele>
        <time>2010-05-21T12:29:33Z</time>
      </trkpt>
      <trkpt lat="47.0657" lon="5.60551">
        <ele>229</ele>
        <time>2010-05-21T12:29:34Z</time>
      </trkpt>
      <trkpt lat="47.06573" lon="5.60564">
        <ele>229</ele>
        <time>2010-05-21T12:29:35Z</time>
      </trkpt>
      <trkpt lat="47.06576" lon="5.60577">
        <ele>229</ele>
        <time>2010-05-21T12:29:36Z</time>
      </trkpt>
      <trkpt lat="47.06581" lon="5.60589">
        <ele>229</ele>
        <time>2010-05-21T12:29:37Z</time>
      </trkpt>
      <trkpt lat="47.06585" lon="5.60602">
        <ele>229</ele>
        <time>2010-05-21T12:29:38Z</time>
      </trkpt>
      <trkpt lat="47.06587" lon="5.60614">
        <ele>229</ele>
        <time>2010-05-21T12:29:39Z</time>
      </trkpt>
      <trkpt lat="47.0659" lon="5.60627">
        <ele>229</ele>
        <time>2010-05-21T12:29:40Z</time>
      </trkpt>
      <trkpt lat="47.06596" lon="5.60649">
        <ele>229</ele>
        <time>2010-05-21T12:29:42Z</time>
      </trkpt>
      <trkpt lat="47.06602" lon="5.60669">
        <ele>229</ele>
        <time>2010-05-21T12:29:44Z</time>
      </trkpt>
      <trkpt lat="47.06606" lon="5.6069">
        <ele>229</ele>
        <time>2010-05-21T12:29:46Z</time>
      </trkpt>
      <trkpt lat="47.06613" lon="5.6071">
        <ele>229</ele>
        <time>2010-05-21T12:29:48Z</time>
      </trkpt>
      <trkpt lat="47.06618" lon="5.6073">
        <ele>229</ele>
        <time>2010-05-21T12:29:50Z</time>
      </trkpt>
      <trkpt lat="47.06619" lon="5.60751">
        <ele>229</ele>
        <time>2010-05-21T12:29:52Z</time>
      </trkpt>
      <trkpt lat="47.06623" lon="5.60768">
        <ele>229</ele>
        <time>2010-05-21T12:29:54Z</time>
      </trkpt>
      <trkpt lat="47.06627" lon="5.60786">
        <ele>229</ele>
        <time>2010-05-21T12:29:56Z</time>
      </trkpt>
      <trkpt lat="47.06629" lon="5.60804">
        <ele>229</ele>
        <time>2010-05-21T12:29:58Z</time>
      </trkpt>
      <trkpt lat="47.06632" lon="5.60821">
        <ele>229</ele>
        <time>2010-05-21T12:30:00Z</time>
      </trkpt>
      <trkpt lat="47.06637" lon="5.60837">
        <ele>229</ele>
        <time>2010-05-21T12:30:02Z</time>
      </trkpt>
      <trkpt lat="47.06639" lon="5.60852">
        <ele>235</ele>
        <time>2010-05-21T12:30:04Z</time>
      </trkpt>
      <trkpt lat="47.06643" lon="5.60869">
        <ele>235</ele>
        <time>2010-05-21T12:30:06Z</time>
      </trkpt>
      <trkpt lat="47.06648" lon="5.60887">
        <ele>235</ele>
        <time>2010-05-21T12:30:08Z</time>
      </trkpt>
      <trkpt lat="47.06652" lon="5.60904">
        <ele>235</ele>
        <time>2010-05-21T12:30:10Z</time>
      </trkpt>
      <trkpt lat="47.06657" lon="5.60922">
        <ele>235</ele>
        <time>2010-05-21T12:30:12Z</time>
      </trkpt>
      <trkpt lat="47.06662" lon="5.60937">
        <ele>235</ele>
        <time>2010-05-21T12:30:14Z</time>
      </trkpt>
      <trkpt lat="47.06666" lon="5.60956">
        <ele>235</ele>
        <time>2010-05-21T12:30:16Z</time>
      </trkpt>
      <trkpt lat="47.0667" lon="5.60971">
        <ele>235</ele>
        <time>2010-05-21T12:30:18Z</time>
      </trkpt>
      <trkpt lat="47.06675" lon="5.60988">
        <ele>235</ele>
        <time>2010-05-21T12:30:20Z</time>
      </trkpt>
      <trkpt lat="47.06675" lon="5.61006">
        <ele>235</ele>
        <time>2010-05-21T12:30:22Z</time>
      </trkpt>
      <trkpt lat="47.06678" lon="5.6102">
        <ele>235</ele>
        <time>2010-05-21T12:30:24Z</time>
      </trkpt>
      <trkpt lat="47.0668" lon="5.61032">
        <ele>235</ele>
        <time>2010-05-21T12:30:26Z</time>
      </trkpt>
      <trkpt lat="47.06684" lon="5.61045">
        <ele>235</ele>
        <time>2010-05-21T12:30:28Z</time>
      </trkpt>
      <trkpt lat="47.06689" lon="5.61058">
        <ele>235</ele>
        <time>2010-05-21T12:30:30Z</time>
      </trkpt>
      <trkpt lat="47.06692" lon="5.61071">
        <ele>235</ele>
        <time>2010-05-21T12:30:32Z</time>
      </trkpt>
      <trkpt lat="47.06695" lon="5.61087">
        <ele>235</ele>
        <time>2010-05-21T12:30:34Z</time>
      </trkpt>
      <trkpt lat="47.06699" lon="5.61101">
        <ele>235</ele>
        <time>2010-05-21T12:30:36Z</time>
      </trkpt>
      <trkpt lat="47.06702" lon="5.61117">
        <ele>235</ele>
        <time>2010-05-21T12:30:39Z</time>
      </trkpt>
      <trkpt lat="47.06709" lon="5.61131">
        <ele>235</ele>
        <time>2010-05-21T12:30:42Z</time>
      </trkpt>
      <trkpt lat="47.06712" lon="5.61143">
        <ele>235</ele>
        <time>2010-05-21T12:30:44Z</time>
      </trkpt>
      <trkpt lat="47.06719" lon="5.61158">
        <ele>235</ele>
        <time>2010-05-21T12:30:47Z</time>
      </trkpt>
      <trkpt lat="47.06725" lon="5.61169">
        <ele>235</ele>
        <time>2010-05-21T12:30:49Z</time>
      </trkpt>
      <trkpt lat="47.06728" lon="5.61183">
        <ele>241</ele>
        <time>2010-05-21T12:30:51Z</time>
      </trkpt>
      <trkpt lat="47.06729" lon="5.61199">
        <ele>241</ele>
        <time>2010-05-21T12:30:53Z</time>
      </trkpt>
      <trkpt lat="47.0673" lon="5.61213">
        <ele>241</ele>
        <time>2010-05-21T12:30:55Z</time>
      </trkpt>
      <trkpt lat="47.06732" lon="5.61231">
        <ele>241</ele>
        <time>2010-05-21T12:30:58Z</time>
      </trkpt>
      <trkpt lat="47.06737" lon="5.61249">
        <ele>241</ele>
        <time>2010-05-21T12:31:01Z</time>
      </trkpt>
      <trkpt lat="47.06737" lon="5.61263">
        <ele>241</ele>
        <time>2010-05-21T12:31:03Z</time>
      </trkpt>
      <trkpt lat="47.06742" lon="5.61276">
        <ele>241</ele>
        <time>2010-05-21T12:31:05Z</time>
      </trkpt>
      <trkpt lat="47.06746" lon="5.61289">
        <ele>241</ele>
        <time>2010-05-21T12:31:07Z</time>
      </trkpt>
      <trkpt lat="47.06749" lon="5.61306">
        <ele>241</ele>
        <time>2010-05-21T12:31:09Z</time>
      </trkpt>
      <trkpt lat="47.06751" lon="5.61323">
        <ele>241</ele>
        <time>2010-05-21T12:31:11Z</time>
      </trkpt>
      <trkpt lat="47.06754" lon="5.6134">
        <ele>241</ele>
        <time>2010-05-21T12:31:13Z</time>
      </trkpt>
      <trkpt lat="47.06757" lon="5.61359">
        <ele>241</ele>
        <time>2010-05-21T12:31:15Z</time>
      </trkpt>
      <trkpt lat="47.06761" lon="5.61377">
        <ele>241</ele>
        <time>2010-05-21T12:31:17Z</time>
      </trkpt>
      <trkpt lat="47.06765" lon="5.61394">
        <ele>241</ele>
        <time>2010-05-21T12:31:19Z</time>
      </trkpt>
      <trkpt lat="47.06768" lon="5.61409">
        <ele>241</ele>
        <time>2010-05-21T12:31:21Z</time>
      </trkpt>
      <trkpt lat="47.06772" lon="5.61425">
        <ele>241</ele>
        <time>2010-05-21T12:31:23Z</time>
      </trkpt>
      <trkpt lat="47.06774" lon="5.61437">
        <ele>241</ele>
        <time>2010-05-21T12:31:25Z</time>
      </trkpt>
      <trkpt lat="47.06777" lon="5.61451">
        <ele>241</ele>
        <time>2010-05-21T12:31:27Z</time>
      </trkpt>
      <trkpt lat="47.0678" lon="5.61465">
        <ele>241</ele>
        <time>2010-05-21T12:31:29Z</time>
      </trkpt>
      <trkpt lat="47.06784" lon="5.61481">
        <ele>241</ele>
        <time>2010-05-21T12:31:32Z</time>
      </trkpt>
      <trkpt lat="47.06788" lon="5.61499">
        <ele>241</ele>
        <time>2010-05-21T12:31:35Z</time>
      </trkpt>
      <trkpt lat="47.06792" lon="5.61511">
        <ele>241</ele>
        <time>2010-05-21T12:31:37Z</time>
      </trkpt>
      <trkpt lat="47.06799" lon="5.61528">
        <ele>241</ele>
        <time>2010-05-21T12:31:40Z</time>
      </trkpt>
      <trkpt lat="47.06804" lon="5.61544">
        <ele>248</ele>
        <time>2010-05-21T12:31:43Z</time>
      </trkpt>
      <trkpt lat="47.06807" lon="5.6156">
        <ele>248</ele>
        <time>2010-05-21T12:31:46Z</time>
      </trkpt>
      <trkpt lat="47.06808" lon="5.61576">
        <ele>248</ele>
        <time>2010-05-21T12:31:49Z</time>
      </trkpt>
      <trkpt lat="47.0681" lon="5.61592">
        <ele>248</ele>
        <time>2010-05-21T12:31:52Z</time>
      </trkpt>
      <trkpt lat="47.06812" lon="5.61604">
        <ele>248</ele>
        <time>2010-05-21T12:31:54Z</time>
      </trkpt>
      <trkpt lat="47.06815" lon="5.61622">
        <ele>248</ele>
        <time>2010-05-21T12:31:57Z</time>
      </trkpt>
      <trkpt lat="47.06819" lon="5.61638">
        <ele>248</ele>
        <time>2010-05-21T12:32:00Z</time>
      </trkpt>
      <trkpt lat="47.06821" lon="5.6165">
        <ele>248</ele>
        <time>2010-05-21T12:32:02Z</time>
      </trkpt>
      <trkpt lat="47.06824" lon="5.61667">
        <ele>248</ele>
        <time>2010-05-21T12:32:05Z</time>
      </trkpt>
      <trkpt lat="47.06827" lon="5.61681">
        <ele>248</ele>
        <time>2010-05-21T12:32:07Z</time>
      </trkpt>
      <trkpt lat="47.06831" lon="5.61699">
        <ele>248</ele>
        <time>2010-05-21T12:32:10Z</time>
      </trkpt>
      <trkpt lat="47.06835" lon="5.61717">
        <ele>248</ele>
        <time>2010-05-21T12:32:13Z</time>
      </trkpt>
      <trkpt lat="47.06839" lon="5.61732">
        <ele>248</ele>
        <time>2010-05-21T12:32:15Z</time>
      </trkpt>
      <trkpt lat="47.06843" lon="5.61746">
        <ele>248</ele>
        <time>2010-05-21T12:32:17Z</time>
      </trkpt>
      <trkpt lat="47.06846" lon="5.6176">
        <ele>248</ele>
        <time>2010-05-21T12:32:19Z</time>
      </trkpt>
      <trkpt lat="47.06851" lon="5.61775">
        <ele>248</ele>
        <time>2010-05-21T12:32:21Z</time>
      </trkpt>
      <trkpt lat="47.06854" lon="5.61788">
        <ele>248</ele>
        <time>2010-05-21T12:32:23Z</time>
      </trkpt>
      <trkpt lat="47.06857" lon="5.61801">
        <ele>248</ele>
        <time>2010-05-21T12:32:25Z</time>
      </trkpt>
      <trkpt lat="47.06859" lon="5.61815">
        <ele>248</ele>
        <time>2010-05-21T12:32:27Z</time>
      </trkpt>
      <trkpt lat="47.06862" lon="5.6183">
        <ele>248</ele>
        <time>2010-05-21T12:32:29Z</time>
      </trkpt>
      <trkpt lat="47.06864" lon="5.61845">
        <ele>248</ele>
        <time>2010-05-21T12:32:31Z</time>
      </trkpt>
      <trkpt lat="47.06867" lon="5.6186">
        <ele>248</ele>
        <time>2010-05-21T12:32:33Z</time>
      </trkpt>
      <trkpt lat="47.06869" lon="5.61874">
        <ele>248</ele>
        <time>2010-05-21T12:32:35Z</time>
      </trkpt>
      <trkpt lat="47.06872" lon="5.61887">
        <ele>248</ele>
        <time>2010-05-21T12:32:37Z</time>
      </trkpt>
      <trkpt lat="47.06874" lon="5.61901">
        <ele>248</ele>
        <time>2010-05-21T12:32:39Z</time>
      </trkpt>
      <trkpt lat="47.06877" lon="5.61914">
        <ele>248</ele>
        <time>2010-05-21T12:32:41Z</time>
      </trkpt>
      <trkpt lat="47.06879" lon="5.61928">
        <ele>248</ele>
        <time>2010-05-21T12:32:43Z</time>
      </trkpt>
      <trkpt lat="47.06882" lon="5.61942">
        <ele>248</ele>
        <time>2010-05-21T12:32:45Z</time>
      </trkpt>
      <trkpt lat="47.06885" lon="5.61956">
        <ele>248</ele>
        <time>2010-05-21T12:32:47Z</time>
      </trkpt>
      <trkpt lat="47.06888" lon="5.61971">
        <ele>248</ele>
        <time>2010-05-21T12:32:49Z</time>
      </trkpt>
      <trkpt lat="47.06891" lon="5.61987">
        <ele>248</ele>
        <time>2010-05-21T12:32:51Z</time>
      </trkpt>
      <trkpt lat="47.06894" lon="5.62002">
        <ele>248</ele>
        <time>2010-05-21T12:32:53Z</time>
      </trkpt>
      <trkpt lat="47.06896" lon="5.62017">
        <ele>248</ele>
        <time>2010-05-21T12:32:55Z</time>
      </trkpt>
      <trkpt lat="47.06899" lon="5.62032">
        <ele>248</ele>
        <time>2010-05-21T12:32:57Z</time>
      </trkpt>
      <trkpt lat="47.06902" lon="5.62046">
        <ele>253</ele>
        <time>2010-05-21T12:32:59Z</time>
      </trkpt>
      <trkpt lat="47.06905" lon="5.62061">
        <ele>253</ele>
        <time>2010-05-21T12:33:01Z</time>
      </trkpt>
      <trkpt lat="47.06908" lon="5.62076">
        <ele>253</ele>
        <time>2010-05-21T12:33:03Z</time>
      </trkpt>
      <trkpt lat="47.06913" lon="5.6209">
        <ele>253</ele>
        <time>2010-05-21T12:33:05Z</time>
      </trkpt>
      <trkpt lat="47.06916" lon="5.62105">
        <ele>253</ele>
        <time>2010-05-21T12:33:07Z</time>
      </trkpt>
      <trkpt lat="47.06918" lon="5.6212">
        <ele>253</ele>
        <time>2010-05-21T12:33:09Z</time>
      </trkpt>
      <trkpt lat="47.06921" lon="5.62135">
        <ele>253</ele>
        <time>2010-05-21T12:33:11Z</time>
      </trkpt>
      <trkpt lat="47.06924" lon="5.6215">
        <ele>253</ele>
        <time>2010-05-21T12:33:13Z</time>
      </trkpt>
      <trkpt lat="47.06928" lon="5.62165">
        <ele>253</ele>
        <time>2010-05-21T12:33:15Z</time>
      </trkpt>
      <trkpt lat="47.06932" lon="5.6218">
        <ele>253</ele>
        <time>2010-05-21T12:33:17Z</time>
      </trkpt>
      <trkpt lat="47.06935" lon="5.62195">
        <ele>253</ele>
        <time>2010-05-21T12:33:19Z</time>
      </trkpt>
      <trkpt lat="47.06939" lon="5.6221">
        <ele>253</ele>
        <time>2010-05-21T12:33:21Z</time>
      </trkpt>
      <trkpt lat="47.06943" lon="5.62224">
        <ele>253</ele>
        <time>2010-05-21T12:33:23Z</time>
      </trkpt>
      <trkpt lat="47.06947" lon="5.62239">
        <ele>253</ele>
        <time>2010-05-21T12:33:25Z</time>
      </trkpt>
      <trkpt lat="47.06951" lon="5.62255">
        <ele>253</ele>
        <time>2010-05-21T12:33:27Z</time>
      </trkpt>
      <trkpt lat="47.06954" lon="5.62271">
        <ele>253</ele>
        <time>2010-05-21T12:33:29Z</time>
      </trkpt>
      <trkpt lat="47.06957" lon="5.62286">
        <ele>253</ele>
        <time>2010-05-21T12:33:31Z</time>
      </trkpt>
      <trkpt lat="47.06961" lon="5.62301">
        <ele>253</ele>
        <time>2010-05-21T12:33:33Z</time>
      </trkpt>
      <trkpt lat="47.06964" lon="5.62319">
        <ele>253</ele>
        <time>2010-05-21T12:33:35Z</time>
      </trkpt>
      <trkpt lat="47.06967" lon="5.62336">
        <ele>253</ele>
        <time>2010-05-21T12:33:37Z</time>
      </trkpt>
      <trkpt lat="47.06969" lon="5.62352">
        <ele>253</ele>
        <time>2010-05-21T12:33:39Z</time>
      </trkpt>
      <trkpt lat="47.06974" lon="5.62368">
        <ele>253</ele>
        <time>2010-05-21T12:33:41Z</time>
      </trkpt>
      <trkpt lat="47.06977" lon="5.62384">
        <ele>253</ele>
        <time>2010-05-21T12:33:43Z</time>
      </trkpt>
      <trkpt lat="47.06981" lon="5.62401">
        <ele>253</ele>
        <time>2010-05-21T12:33:45Z</time>
      </trkpt>
      <trkpt lat="47.06985" lon="5.62418">
        <ele>253</ele>
        <time>2010-05-21T12:33:47Z</time>
      </trkpt>
      <trkpt lat="47.06989" lon="5.62434">
        <ele>253</ele>
        <time>2010-05-21T12:33:49Z</time>
      </trkpt>
      <trkpt lat="47.06993" lon="5.62451">
        <ele>253</ele>
        <time>2010-05-21T12:33:51Z</time>
      </trkpt>
      <trkpt lat="47.06997" lon="5.62468">
        <ele>253</ele>
        <time>2010-05-21T12:33:53Z</time>
      </trkpt>
      <trkpt lat="47.07001" lon="5.62486">
        <ele>253</ele>
        <time>2010-05-21T12:33:55Z</time>
      </trkpt>
      <trkpt lat="47.07006" lon="5.62503">
        <ele>253</ele>
        <time>2010-05-21T12:33:57Z</time>
      </trkpt>
      <trkpt lat="47.0701" lon="5.62521">
        <ele>253</ele>
        <time>2010-05-21T12:33:59Z</time>
      </trkpt>
      <trkpt lat="47.07015" lon="5.62537">
        <ele>253</ele>
        <time>2010-05-21T12:34:01Z</time>
      </trkpt>
      <trkpt lat="47.07019" lon="5.62554">
        <ele>253</ele>
        <time>2010-05-21T12:34:03Z</time>
      </trkpt>
      <trkpt lat="47.07024" lon="5.62571">
        <ele>253</ele>
        <time>2010-05-21T12:34:05Z</time>
      </trkpt>
      <trkpt lat="47.07028" lon="5.62588">
        <ele>253</ele>
        <time>2010-05-21T12:34:07Z</time>
      </trkpt>
      <trkpt lat="47.07032" lon="5.62606">
        <ele>253</ele>
        <time>2010-05-21T12:34:09Z</time>
      </trkpt>
      <trkpt lat="47.07036" lon="5.62623">
        <ele>253</ele>
        <time>2010-05-21T12:34:11Z</time>
      </trkpt>
      <trkpt lat="47.0704" lon="5.62639">
        <ele>253</ele>
        <time>2010-05-21T12:34:13Z</time>
      </trkpt>
      <trkpt lat="47.07044" lon="5.62655">
        <ele>253</ele>
        <time>2010-05-21T12:34:15Z</time>
      </trkpt>
      <trkpt lat="47.07048" lon="5.62672">
        <ele>253</ele>
        <time>2010-05-21T12:34:17Z</time>
      </trkpt>
      <trkpt lat="47.07052" lon="5.62689">
        <ele>253</ele>
        <time>2010-05-21T12:34:19Z</time>
      </trkpt>
      <trkpt lat="47.07057" lon="5.62706">
        <ele>253</ele>
        <time>2010-05-21T12:34:21Z</time>
      </trkpt>
      <trkpt lat="47.07061" lon="5.62723">
        <ele>253</ele>
        <time>2010-05-21T12:34:23Z</time>
      </trkpt>
      <trkpt lat="47.07066" lon="5.6274">
        <ele>253</ele>
        <time>2010-05-21T12:34:25Z</time>
      </trkpt>
      <trkpt lat="47.07069" lon="5.62759">
        <ele>253</ele>
        <time>2010-05-21T12:34:27Z</time>
      </trkpt>
      <trkpt lat="47.07073" lon="5.62778">
        <ele>253</ele>
        <time>2010-05-21T12:34:29Z</time>
      </trkpt>
      <trkpt lat="47.07077" lon="5.62795">
        <ele>253</ele>
        <time>2010-05-21T12:34:31Z</time>
      </trkpt>
      <trkpt lat="47.07081" lon="5.62815">
        <ele>247</ele>
        <time>2010-05-21T12:34:33Z</time>
      </trkpt>
      <trkpt lat="47.07085" lon="5.62833">
        <ele>247</ele>
        <time>2010-05-21T12:34:35Z</time>
      </trkpt>
      <trkpt lat="47.07088" lon="5.62852">
        <ele>247</ele>
        <time>2010-05-21T12:34:37Z</time>
      </trkpt>
      <trkpt lat="47.07092" lon="5.6287">
        <ele>247</ele>
        <time>2010-05-21T12:34:39Z</time>
      </trkpt>
      <trkpt lat="47.07097" lon="5.62888">
        <ele>247</ele>
        <time>2010-05-21T12:34:41Z</time>
      </trkpt>
      <trkpt lat="47.07101" lon="5.62906">
        <ele>247</ele>
        <time>2010-05-21T12:34:43Z</time>
      </trkpt>
      <trkpt lat="47.07105" lon="5.62924">
        <ele>247</ele>
        <time>2010-05-21T12:34:45Z</time>
      </trkpt>
      <trkpt lat="47.0711" lon="5.62941">
        <ele>247</ele>
        <time>2010-05-21T12:34:47Z</time>
      </trkpt>
      <trkpt lat="47.07114" lon="5.62958">
        <ele>247</ele>
        <time>2010-05-21T12:34:49Z</time>
      </trkpt>
      <trkpt lat="47.07117" lon="5.62975">
        <ele>247</ele>
        <time>2010-05-21T12:34:51Z</time>
      </trkpt>
      <trkpt lat="47.07121" lon="5.62991">
        <ele>247</ele>
        <time>2010-05-21T12:34:53Z</time>
      </trkpt>
      <trkpt lat="47.07127" lon="5.63006">
        <ele>247</ele>
        <time>2010-05-21T12:34:55Z</time>
      </trkpt>
      <trkpt lat="47.07132" lon="5.63021">
        <ele>247</ele>
        <time>2010-05-21T12:34:57Z</time>
      </trkpt>
      <trkpt lat="47.07134" lon="5.63037">
        <ele>247</ele>
        <time>2010-05-21T12:34:59Z</time>
      </trkpt>
      <trkpt lat="47.07136" lon="5.63051">
        <ele>247</ele>
        <time>2010-05-21T12:35:01Z</time>
      </trkpt>
      <trkpt lat="47.07139" lon="5.6307">
        <ele>247</ele>
        <time>2010-05-21T12:35:04Z</time>
      </trkpt>
      <trkpt lat="47.07142" lon="5.63083">
        <ele>247</ele>
        <time>2010-05-21T12:35:06Z</time>
      </trkpt>
      <trkpt lat="47.07145" lon="5.63097">
        <ele>247</ele>
        <time>2010-05-21T12:35:08Z</time>
      </trkpt>
      <trkpt lat="47.07148" lon="5.63112">
        <ele>247</ele>
        <time>2010-05-21T12:35:10Z</time>
      </trkpt>
      <trkpt lat="47.07152" lon="5.63125">
        <ele>247</ele>
        <time>2010-05-21T12:35:12Z</time>
      </trkpt>
      <trkpt lat="47.07155" lon="5.6314">
        <ele>247</ele>
        <time>2010-05-21T12:35:14Z</time>
      </trkpt>
      <trkpt lat="47.07158" lon="5.63155">
        <ele>247</ele>
        <time>2010-05-21T12:35:16Z</time>
      </trkpt>
      <trkpt lat="47.07161" lon="5.6317">
        <ele>247</ele>
        <time>2010-05-21T12:35:18Z</time>
      </trkpt>
      <trkpt lat="47.07164" lon="5.63186">
        <ele>247</ele>
        <time>2010-05-21T12:35:20Z</time>
      </trkpt>
      <trkpt lat="47.07167" lon="5.63202">
        <ele>247</ele>
        <time>2010-05-21T12:35:22Z</time>
      </trkpt>
      <trkpt lat="47.07172" lon="5.63218">
        <ele>247</ele>
        <time>2010-05-21T12:35:24Z</time>
      </trkpt>
      <trkpt lat="47.07175" lon="5.63234">
        <ele>247</ele>
        <time>2010-05-21T12:35:26Z</time>
      </trkpt>
      <trkpt lat="47.0718" lon="5.63249">
        <ele>247</ele>
        <time>2010-05-21T12:35:28Z</time>
      </trkpt>
      <trkpt lat="47.07183" lon="5.63265">
        <ele>247</ele>
        <time>2010-05-21T12:35:30Z</time>
      </trkpt>
      <trkpt lat="47.07186" lon="5.63281">
        <ele>247</ele>
        <time>2010-05-21T12:35:32Z</time>
      </trkpt>
      <trkpt lat="47.07189" lon="5.63298">
        <ele>247</ele>
        <time>2010-05-21T12:35:34Z</time>
      </trkpt>
      <trkpt lat="47.07193" lon="5.63314">
        <ele>247</ele>
        <time>2010-05-21T12:35:36Z</time>
      </trkpt>
      <trkpt lat="47.07198" lon="5.6333">
        <ele>247</ele>
        <time>2010-05-21T12:35:38Z</time>
      </trkpt>
      <trkpt lat="47.07202" lon="5.63348">
        <ele>247</ele>
        <time>2010-05-21T12:35:40Z</time>
      </trkpt>
      <trkpt lat="47.07206" lon="5.63364">
        <ele>247</ele>
        <time>2010-05-21T12:35:42Z</time>
      </trkpt>
      <trkpt lat="47.0721" lon="5.63381">
        <ele>252</ele>
        <time>2010-05-21T12:35:44Z</time>
      </trkpt>
      <trkpt lat="47.07214" lon="5.63396">
        <ele>252</ele>
        <time>2010-05-21T12:35:46Z</time>
      </trkpt>
      <trkpt lat="47.07221" lon="5.63411">
        <ele>252</ele>
        <time>2010-05-21T12:35:48Z</time>
      </trkpt>
      <trkpt lat="47.07226" lon="5.63427">
        <ele>252</ele>
        <time>2010-05-21T12:35:50Z</time>
      </trkpt>
      <trkpt lat="47.07228" lon="5.63443">
        <ele>252</ele>
        <time>2010-05-21T12:35:52Z</time>
      </trkpt>
      <trkpt lat="47.07229" lon="5.63461">
        <ele>252</ele>
        <time>2010-05-21T12:35:54Z</time>
      </trkpt>
      <trkpt lat="47.07233" lon="5.63478">
        <ele>252</ele>
        <time>2010-05-21T12:35:56Z</time>
      </trkpt>
      <trkpt lat="47.07237" lon="5.63496">
        <ele>252</ele>
        <time>2010-05-21T12:35:58Z</time>
      </trkpt>
      <trkpt lat="47.0724" lon="5.63515">
        <ele>252</ele>
        <time>2010-05-21T12:36:00Z</time>
      </trkpt>
      <trkpt lat="47.07243" lon="5.63533">
        <ele>252</ele>
        <time>2010-05-21T12:36:02Z</time>
      </trkpt>
      <trkpt lat="47.07247" lon="5.63551">
        <ele>252</ele>
        <time>2010-05-21T12:36:04Z</time>
      </trkpt>
      <trkpt lat="47.07251" lon="5.63567">
        <ele>252</ele>
        <time>2010-05-21T12:36:06Z</time>
      </trkpt>
      <trkpt lat="47.07254" lon="5.63583">
        <ele>252</ele>
        <time>2010-05-21T12:36:08Z</time>
      </trkpt>
      <trkpt lat="47.07257" lon="5.636">
        <ele>252</ele>
        <time>2010-05-21T12:36:10Z</time>
      </trkpt>
      <trkpt lat="47.0726" lon="5.63617">
        <ele>252</ele>
        <time>2010-05-21T12:36:12Z</time>
      </trkpt>
      <trkpt lat="47.07262" lon="5.63632">
        <ele>252</ele>
        <time>2010-05-21T12:36:14Z</time>
      </trkpt>
      <trkpt lat="47.07265" lon="5.63648">
        <ele>252</ele>
        <time>2010-05-21T12:36:16Z</time>
      </trkpt>
      <trkpt lat="47.07269" lon="5.63664">
        <ele>252</ele>
        <time>2010-05-21T12:36:18Z</time>
      </trkpt>
      <trkpt lat="47.07272" lon="5.63679">
        <ele>252</ele>
        <time>2010-05-21T12:36:20Z</time>
      </trkpt>
      <trkpt lat="47.07275" lon="5.63695">
        <ele>252</ele>
        <time>2010-05-21T12:36:22Z</time>
      </trkpt>
      <trkpt lat="47.07278" lon="5.63711">
        <ele>252</ele>
        <time>2010-05-21T12:36:24Z</time>
      </trkpt>
      <trkpt lat="47.07281" lon="5.63725">
        <ele>252</ele>
        <time>2010-05-21T12:36:26Z</time>
      </trkpt>
      <trkpt lat="47.07286" lon="5.63741">
        <ele>252</ele>
        <time>2010-05-21T12:36:28Z</time>
      </trkpt>
      <trkpt lat="47.0729" lon="5.63757">
        <ele>252</ele>
        <time>2010-05-21T12:36:30Z</time>
      </trkpt>
      <trkpt lat="47.07295" lon="5.63772">
        <ele>252</ele>
        <time>2010-05-21T12:36:32Z</time>
      </trkpt>
      <trkpt lat="47.07298" lon="5.63787">
        <ele>252</ele>
        <time>2010-05-21T12:36:34Z</time>
      </trkpt>
      <trkpt lat="47.07302" lon="5.63804">
        <ele>252</ele>
        <time>2010-05-21T12:36:36Z</time>
      </trkpt>
      <trkpt lat="47.07305" lon="5.63821">
        <ele>252</ele>
        <time>2010-05-21T12:36:38Z</time>
      </trkpt>
      <trkpt lat="47.07309" lon="5.63838">
        <ele>252</ele>
        <time>2010-05-21T12:36:40Z</time>
      </trkpt>
      <trkpt lat="47.07312" lon="5.63855">
        <ele>252</ele>
        <time>2010-05-21T12:36:42Z</time>
      </trkpt>
      <trkpt lat="47.07316" lon="5.63872">
        <ele>252</ele>
        <time>2010-05-21T12:36:44Z</time>
      </trkpt>
      <trkpt lat="47.0732" lon="5.6389">
        <ele>252</ele>
        <time>2010-05-21T12:36:46Z</time>
      </trkpt>
      <trkpt lat="47.07323" lon="5.63905">
        <ele>252</ele>
        <time>2010-05-21T12:36:48Z</time>
      </trkpt>
      <trkpt lat="47.07329" lon="5.63922">
        <ele>252</ele>
        <time>2010-05-21T12:36:50Z</time>
      </trkpt>
      <trkpt lat="47.07333" lon="5.63939">
        <ele>252</ele>
        <time>2010-05-21T12:36:52Z</time>
      </trkpt>
      <trkpt lat="47.07337" lon="5.63956">
        <ele>252</ele>
        <time>2010-05-21T12:36:54Z</time>
      </trkpt>
      <trkpt lat="47.07342" lon="5.63972">
        <ele>252</ele>
        <time>2010-05-21T12:36:56Z</time>
      </trkpt>
      <trkpt lat="47.07345" lon="5.63989">
        <ele>252</ele>
        <time>2010-05-21T12:36:58Z</time>
      </trkpt>
      <trkpt lat="47.07349" lon="5.64006">
        <ele>252</ele>
        <time>2010-05-21T12:37:00Z</time>
      </trkpt>
      <trkpt lat="47.07353" lon="5.64022">
        <ele>252</ele>
        <time>2010-05-21T12:37:02Z</time>
      </trkpt>
      <trkpt lat="47.07357" lon="5.6404">
        <ele>252</ele>
        <time>2010-05-21T12:37:04Z</time>
      </trkpt>
      <trkpt lat="47.07363" lon="5.64059">
        <ele>247</ele>
        <time>2010-05-21T12:37:06Z</time>
      </trkpt>
      <trkpt lat="47.07367" lon="5.64077">
        <ele>247</ele>
        <time>2010-05-21T12:37:08Z</time>
      </trkpt>
      <trkpt lat="47.07371" lon="5.64095">
        <ele>247</ele>
        <time>2010-05-21T12:37:10Z</time>
      </trkpt>
      <trkpt lat="47.07374" lon="5.64113">
        <ele>247</ele>
        <time>2010-05-21T12:37:12Z</time>
      </trkpt>
      <trkpt lat="47.07377" lon="5.64132">
        <ele>247</ele>
        <time>2010-05-21T12:37:14Z</time>
      </trkpt>
      <trkpt lat="47.07381" lon="5.64153">
        <ele>247</ele>
        <time>2010-05-21T12:37:16Z</time>
      </trkpt>
      <trkpt lat="47.07384" lon="5.64173">
        <ele>247</ele>
        <time>2010-05-21T12:37:18Z</time>
      </trkpt>
      <trkpt lat="47.07388" lon="5.64193">
        <ele>247</ele>
        <time>2010-05-21T12:37:20Z</time>
      </trkpt>
      <trkpt lat="47.07393" lon="5.64213">
        <ele>241</ele>
        <time>2010-05-21T12:37:22Z</time>
      </trkpt>
      <trkpt lat="47.07398" lon="5.64236">
        <ele>241</ele>
        <time>2010-05-21T12:37:24Z</time>
      </trkpt>
      <trkpt lat="47.07403" lon="5.64257">
        <ele>241</ele>
        <time>2010-05-21T12:37:26Z</time>
      </trkpt>
      <trkpt lat="47.07407" lon="5.64279">
        <ele>241</ele>
        <time>2010-05-21T12:37:28Z</time>
      </trkpt>
      <trkpt lat="47.07412" lon="5.64304">
        <ele>241</ele>
        <time>2010-05-21T12:37:30Z</time>
      </trkpt>
      <trkpt lat="47.07414" lon="5.64316">
        <ele>241</ele>
        <time>2010-05-21T12:37:31Z</time>
      </trkpt>
      <trkpt lat="47.0742" lon="5.64341">
        <ele>241</ele>
        <time>2010-05-21T12:37:33Z</time>
      </trkpt>
      <trkpt lat="47.07423" lon="5.64353">
        <ele>241</ele>
        <time>2010-05-21T12:37:34Z</time>
      </trkpt>
      <trkpt lat="47.07426" lon="5.64366">
        <ele>241</ele>
        <time>2010-05-21T12:37:35Z</time>
      </trkpt>
      <trkpt lat="47.07429" lon="5.64378">
        <ele>241</ele>
        <time>2010-05-21T12:37:36Z</time>
      </trkpt>
      <trkpt lat="47.07435" lon="5.64402">
        <ele>241</ele>
        <time>2010-05-21T12:37:38Z</time>
      </trkpt>
      <trkpt lat="47.07438" lon="5.64421">
        <ele>236</ele>
        <time>2010-05-21T12:37:40Z</time>
      </trkpt>
      <trkpt lat="47.07444" lon="5.64438">
        <ele>236</ele>
        <time>2010-05-21T12:37:42Z</time>
      </trkpt>
      <trkpt lat="47.07448" lon="5.64456">
        <ele>236</ele>
        <time>2010-05-21T12:37:44Z</time>
      </trkpt>
      <trkpt lat="47.07452" lon="5.64473">
        <ele>236</ele>
        <time>2010-05-21T12:37:46Z</time>
      </trkpt>
      <trkpt lat="47.07456" lon="5.64487">
        <ele>236</ele>
        <time>2010-05-21T12:37:48Z</time>
      </trkpt>
      <trkpt lat="47.0746" lon="5.64501">
        <ele>236</ele>
        <time>2010-05-21T12:37:50Z</time>
      </trkpt>
      <trkpt lat="47.07463" lon="5.6452">
        <ele>241</ele>
        <time>2010-05-21T12:37:53Z</time>
      </trkpt>
      <trkpt lat="47.07465" lon="5.64534">
        <ele>241</ele>
        <time>2010-05-21T12:37:55Z</time>
      </trkpt>
      <trkpt lat="47.07468" lon="5.64552">
        <ele>241</ele>
        <time>2010-05-21T12:37:58Z</time>
      </trkpt>
      <trkpt lat="47.07471" lon="5.64571">
        <ele>241</ele>
        <time>2010-05-21T12:38:01Z</time>
      </trkpt>
      <trkpt lat="47.07472" lon="5.64586">
        <ele>241</ele>
        <time>2010-05-21T12:38:03Z</time>
      </trkpt>
      <trkpt lat="47.07476" lon="5.64599">
        <ele>241</ele>
        <time>2010-05-21T12:38:05Z</time>
      </trkpt>
      <trkpt lat="47.07479" lon="5.64614">
        <ele>241</ele>
        <time>2010-05-21T12:38:07Z</time>
      </trkpt>
      <trkpt lat="47.07482" lon="5.64627">
        <ele>241</ele>
        <time>2010-05-21T12:38:09Z</time>
      </trkpt>
      <trkpt lat="47.07486" lon="5.64642">
        <ele>241</ele>
        <time>2010-05-21T12:38:11Z</time>
      </trkpt>
      <trkpt lat="47.07491" lon="5.64656">
        <ele>247</ele>
        <time>2010-05-21T12:38:13Z</time>
      </trkpt>
      <trkpt lat="47.07495" lon="5.6467">
        <ele>247</ele>
        <time>2010-05-21T12:38:15Z</time>
      </trkpt>
      <trkpt lat="47.07498" lon="5.64685">
        <ele>247</ele>
        <time>2010-05-21T12:38:17Z</time>
      </trkpt>
      <trkpt lat="47.07501" lon="5.64699">
        <ele>247</ele>
        <time>2010-05-21T12:38:19Z</time>
      </trkpt>
      <trkpt lat="47.07504" lon="5.64713">
        <ele>247</ele>
        <time>2010-05-21T12:38:21Z</time>
      </trkpt>
      <trkpt lat="47.07507" lon="5.64729">
        <ele>247</ele>
        <time>2010-05-21T12:38:23Z</time>
      </trkpt>
      <trkpt lat="47.0751" lon="5.64743">
        <ele>247</ele>
        <time>2010-05-21T12:38:25Z</time>
      </trkpt>
      <trkpt lat="47.07512" lon="5.64758">
        <ele>247</ele>
        <time>2010-05-21T12:38:27Z</time>
      </trkpt>
      <trkpt lat="47.07516" lon="5.64773">
        <ele>247</ele>
        <time>2010-05-21T12:38:29Z</time>
      </trkpt>
      <trkpt lat="47.07519" lon="5.64789">
        <ele>247</ele>
        <time>2010-05-21T12:38:31Z</time>
      </trkpt>
      <trkpt lat="47.07523" lon="5.64804">
        <ele>247</ele>
        <time>2010-05-21T12:38:33Z</time>
      </trkpt>
      <trkpt lat="47.07525" lon="5.6482">
        <ele>247</ele>
        <time>2010-05-21T12:38:35Z</time>
      </trkpt>
      <trkpt lat="47.07529" lon="5.64836">
        <ele>247</ele>
        <time>2010-05-21T12:38:37Z</time>
      </trkpt>
      <trkpt lat="47.07534" lon="5.64851">
        <ele>247</ele>
        <time>2010-05-21T12:38:39Z</time>
      </trkpt>
      <trkpt lat="47.07538" lon="5.64868">
        <ele>247</ele>
        <time>2010-05-21T12:38:41Z</time>
      </trkpt>
      <trkpt lat="47.07541" lon="5.64886">
        <ele>241</ele>
        <time>2010-05-21T12:38:43Z</time>
      </trkpt>
      <trkpt lat="47.07544" lon="5.64903">
        <ele>241</ele>
        <time>2010-05-21T12:38:45Z</time>
      </trkpt>
      <trkpt lat="47.07547" lon="5.64922">
        <ele>241</ele>
        <time>2010-05-21T12:38:47Z</time>
      </trkpt>
      <trkpt lat="47.07551" lon="5.6494">
        <ele>236</ele>
        <time>2010-05-21T12:38:49Z</time>
      </trkpt>
      <trkpt lat="47.07554" lon="5.64957">
        <ele>236</ele>
        <time>2010-05-21T12:38:51Z</time>
      </trkpt>
      <trkpt lat="47.07556" lon="5.64975">
        <ele>236</ele>
        <time>2010-05-21T12:38:53Z</time>
      </trkpt>
      <trkpt lat="47.07561" lon="5.64993">
        <ele>236</ele>
        <time>2010-05-21T12:38:55Z</time>
      </trkpt>
      <trkpt lat="47.07565" lon="5.65012">
        <ele>236</ele>
        <time>2010-05-21T12:38:57Z</time>
      </trkpt>
      <trkpt lat="47.07568" lon="5.6503">
        <ele>236</ele>
        <time>2010-05-21T12:38:59Z</time>
      </trkpt>
      <trkpt lat="47.07573" lon="5.65048">
        <ele>236</ele>
        <time>2010-05-21T12:39:01Z</time>
      </trkpt>
      <trkpt lat="47.07576" lon="5.65066">
        <ele>236</ele>
        <time>2010-05-21T12:39:03Z</time>
      </trkpt>
      <trkpt lat="47.07582" lon="5.65082">
        <ele>236</ele>
        <time>2010-05-21T12:39:05Z</time>
      </trkpt>
      <trkpt lat="47.07587" lon="5.65101">
        <ele>236</ele>
        <time>2010-05-21T12:39:07Z</time>
      </trkpt>
      <trkpt lat="47.07592" lon="5.65124">
        <ele>236</ele>
        <time>2010-05-21T12:39:09Z</time>
      </trkpt>
      <trkpt lat="47.07597" lon="5.65147">
        <ele>236</ele>
        <time>2010-05-21T12:39:11Z</time>
      </trkpt>
      <trkpt lat="47.076" lon="5.6516">
        <ele>236</ele>
        <time>2010-05-21T12:39:12Z</time>
      </trkpt>
      <trkpt lat="47.07602" lon="5.65172">
        <ele>236</ele>
        <time>2010-05-21T12:39:13Z</time>
      </trkpt>
      <trkpt lat="47.07608" lon="5.65196">
        <ele>236</ele>
        <time>2010-05-21T12:39:15Z</time>
      </trkpt>
      <trkpt lat="47.07614" lon="5.65217">
        <ele>236</ele>
        <time>2010-05-21T12:39:17Z</time>
      </trkpt>
      <trkpt lat="47.0762" lon="5.65238">
        <ele>236</ele>
        <time>2010-05-21T12:39:19Z</time>
      </trkpt>
      <trkpt lat="47.07625" lon="5.65258">
        <ele>236</ele>
        <time>2010-05-21T12:39:21Z</time>
      </trkpt>
      <trkpt lat="47.07628" lon="5.65278">
        <ele>236</ele>
        <time>2010-05-21T12:39:23Z</time>
      </trkpt>
      <trkpt lat="47.07632" lon="5.65295">
        <ele>236</ele>
        <time>2010-05-21T12:39:25Z</time>
      </trkpt>
      <trkpt lat="47.07635" lon="5.65311">
        <ele>236</ele>
        <time>2010-05-21T12:39:27Z</time>
      </trkpt>
      <trkpt lat="47.07639" lon="5.65327">
        <ele>236</ele>
        <time>2010-05-21T12:39:29Z</time>
      </trkpt>
      <trkpt lat="47.07641" lon="5.65345">
        <ele>236</ele>
        <time>2010-05-21T12:39:31Z</time>
      </trkpt>
      <trkpt lat="47.07644" lon="5.65362">
        <ele>236</ele>
        <time>2010-05-21T12:39:33Z</time>
      </trkpt>
      <trkpt lat="47.07648" lon="5.65378">
        <ele>236</ele>
        <time>2010-05-21T12:39:35Z</time>
      </trkpt>
      <trkpt lat="47.07652" lon="5.65394">
        <ele>236</ele>
        <time>2010-05-21T12:39:37Z</time>
      </trkpt>
      <trkpt lat="47.07657" lon="5.6541">
        <ele>242</ele>
        <time>2010-05-21T12:39:39Z</time>
      </trkpt>
      <trkpt lat="47.0766" lon="5.65428">
        <ele>242</ele>
        <time>2010-05-21T12:39:41Z</time>
      </trkpt>
      <trkpt lat="47.07664" lon="5.65444">
        <ele>242</ele>
        <time>2010-05-21T12:39:43Z</time>
      </trkpt>
      <trkpt lat="47.07668" lon="5.65459">
        <ele>242</ele>
        <time>2010-05-21T12:39:45Z</time>
      </trkpt>
      <trkpt lat="47.07672" lon="5.65472">
        <ele>242</ele>
        <time>2010-05-21T12:39:47Z</time>
      </trkpt>
      <trkpt lat="47.07677" lon="5.65487">
        <ele>242</ele>
        <time>2010-05-21T12:39:49Z</time>
      </trkpt>
      <trkpt lat="47.07682" lon="5.65499">
        <ele>248</ele>
        <time>2010-05-21T12:39:51Z</time>
      </trkpt>
      <trkpt lat="47.07684" lon="5.65514">
        <ele>248</ele>
        <time>2010-05-21T12:39:53Z</time>
      </trkpt>
      <trkpt lat="47.07687" lon="5.65528">
        <ele>248</ele>
        <time>2010-05-21T12:39:55Z</time>
      </trkpt>
      <trkpt lat="47.0769" lon="5.65543">
        <ele>248</ele>
        <time>2010-05-21T12:39:57Z</time>
      </trkpt>
      <trkpt lat="47.07693" lon="5.65558">
        <ele>248</ele>
        <time>2010-05-21T12:39:59Z</time>
      </trkpt>
      <trkpt lat="47.07696" lon="5.65574">
        <ele>248</ele>
        <time>2010-05-21T12:40:01Z</time>
      </trkpt>
      <trkpt lat="47.077" lon="5.6559">
        <ele>248</ele>
        <time>2010-05-21T12:40:03Z</time>
      </trkpt>
      <trkpt lat="47.07703" lon="5.65606">
        <ele>248</ele>
        <time>2010-05-21T12:40:05Z</time>
      </trkpt>
      <trkpt lat="47.07705" lon="5.65622">
        <ele>248</ele>
        <time>2010-05-21T12:40:07Z</time>
      </trkpt>
      <trkpt lat="47.07708" lon="5.65636">
        <ele>248</ele>
        <time>2010-05-21T12:40:09Z</time>
      </trkpt>
      <trkpt lat="47.07712" lon="5.65651">
        <ele>248</ele>
        <time>2010-05-21T12:40:11Z</time>
      </trkpt>
      <trkpt lat="47.07715" lon="5.65666">
        <ele>248</ele>
        <time>2010-05-21T12:40:13Z</time>
      </trkpt>
      <trkpt lat="47.07718" lon="5.6568">
        <ele>248</ele>
        <time>2010-05-21T12:40:15Z</time>
      </trkpt>
      <trkpt lat="47.07721" lon="5.65694">
        <ele>248</ele>
        <time>2010-05-21T12:40:17Z</time>
      </trkpt>
      <trkpt lat="47.07724" lon="5.65708">
        <ele>248</ele>
        <time>2010-05-21T12:40:19Z</time>
      </trkpt>
      <trkpt lat="47.07727" lon="5.65722">
        <ele>248</ele>
        <time>2010-05-21T12:40:21Z</time>
      </trkpt>
      <trkpt lat="47.07731" lon="5.65737">
        <ele>248</ele>
        <time>2010-05-21T12:40:23Z</time>
      </trkpt>
      <trkpt lat="47.07734" lon="5.65751">
        <ele>248</ele>
        <time>2010-05-21T12:40:25Z</time>
      </trkpt>
      <trkpt lat="47.07737" lon="5.65764">
        <ele>248</ele>
        <time>2010-05-21T12:40:27Z</time>
      </trkpt>
      <trkpt lat="47.0774" lon="5.65779">
        <ele>248</ele>
        <time>2010-05-21T12:40:29Z</time>
      </trkpt>
      <trkpt lat="47.07743" lon="5.65793">
        <ele>248</ele>
        <time>2010-05-21T12:40:31Z</time>
      </trkpt>
      <trkpt lat="47.07747" lon="5.65808">
        <ele>248</ele>
        <time>2010-05-21T12:40:33Z</time>
      </trkpt>
      <trkpt lat="47.0775" lon="5.65823">
        <ele>248</ele>
        <time>2010-05-21T12:40:35Z</time>
      </trkpt>
      <trkpt lat="47.07753" lon="5.65837">
        <ele>248</ele>
        <time>2010-05-21T12:40:37Z</time>
      </trkpt>
      <trkpt lat="47.07756" lon="5.65852">
        <ele>248</ele>
        <time>2010-05-21T12:40:39Z</time>
      </trkpt>
      <trkpt lat="47.07758" lon="5.65867">
        <ele>248</ele>
        <time>2010-05-21T12:40:41Z</time>
      </trkpt>
      <trkpt lat="47.07762" lon="5.65882">
        <ele>248</ele>
        <time>2010-05-21T12:40:43Z</time>
      </trkpt>
      <trkpt lat="47.07765" lon="5.65897">
        <ele>248</ele>
        <time>2010-05-21T12:40:45Z</time>
      </trkpt>
      <trkpt lat="47.07768" lon="5.65913">
        <ele>248</ele>
        <time>2010-05-21T12:40:47Z</time>
      </trkpt>
      <trkpt lat="47.07771" lon="5.65927">
        <ele>248</ele>
        <time>2010-05-21T12:40:49Z</time>
      </trkpt>
      <trkpt lat="47.07775" lon="5.65942">
        <ele>248</ele>
        <time>2010-05-21T12:40:51Z</time>
      </trkpt>
      <trkpt lat="47.07778" lon="5.65958">
        <ele>248</ele>
        <time>2010-05-21T12:40:53Z</time>
      </trkpt>
      <trkpt lat="47.07781" lon="5.65974">
        <ele>248</ele>
        <time>2010-05-21T12:40:55Z</time>
      </trkpt>
      <trkpt lat="47.07784" lon="5.65989">
        <ele>248</ele>
        <time>2010-05-21T12:40:57Z</time>
      </trkpt>
      <trkpt lat="47.07788" lon="5.66004">
        <ele>248</ele>
        <time>2010-05-21T12:40:59Z</time>
      </trkpt>
      <trkpt lat="47.07792" lon="5.66019">
        <ele>248</ele>
        <time>2010-05-21T12:41:01Z</time>
      </trkpt>
      <trkpt lat="47.07795" lon="5.66034">
        <ele>248</ele>
        <time>2010-05-21T12:41:03Z</time>
      </trkpt>
      <trkpt lat="47.07798" lon="5.6605">
        <ele>248</ele>
        <time>2010-05-21T12:41:05Z</time>
      </trkpt>
      <trkpt lat="47.07801" lon="5.66066">
        <ele>248</ele>
        <time>2010-05-21T12:41:07Z</time>
      </trkpt>
      <trkpt lat="47.07805" lon="5.66082">
        <ele>248</ele>
        <time>2010-05-21T12:41:09Z</time>
      </trkpt>
      <trkpt lat="47.07808" lon="5.66099">
        <ele>248</ele>
        <time>2010-05-21T12:41:11Z</time>
      </trkpt>
      <trkpt lat="47.07812" lon="5.66115">
        <ele>248</ele>
        <time>2010-05-21T12:41:13Z</time>
      </trkpt>
      <trkpt lat="47.07816" lon="5.6613">
        <ele>248</ele>
        <time>2010-05-21T12:41:15Z</time>
      </trkpt>
      <trkpt lat="47.07819" lon="5.66145">
        <ele>248</ele>
        <time>2010-05-21T12:41:17Z</time>
      </trkpt>
      <trkpt lat="47.07822" lon="5.66161">
        <ele>248</ele>
        <time>2010-05-21T12:41:19Z</time>
      </trkpt>
      <trkpt lat="47.07826" lon="5.66178">
        <ele>248</ele>
        <time>2010-05-21T12:41:21Z</time>
      </trkpt>
      <trkpt lat="47.0783" lon="5.66195">
        <ele>248</ele>
        <time>2010-05-21T12:41:23Z</time>
      </trkpt>
      <trkpt lat="47.07833" lon="5.66212">
        <ele>248</ele>
        <time>2010-05-21T12:41:25Z</time>
      </trkpt>
      <trkpt lat="47.07837" lon="5.66229">
        <ele>248</ele>
        <time>2010-05-21T12:41:27Z</time>
      </trkpt>
      <trkpt lat="47.07841" lon="5.66247">
        <ele>248</ele>
        <time>2010-05-21T12:41:29Z</time>
      </trkpt>
      <trkpt lat="47.07845" lon="5.66264">
        <ele>248</ele>
        <time>2010-05-21T12:41:31Z</time>
      </trkpt>
      <trkpt lat="47.07849" lon="5.6628">
        <ele>248</ele>
        <time>2010-05-21T12:41:33Z</time>
      </trkpt>
      <trkpt lat="47.07852" lon="5.66297">
        <ele>248</ele>
        <time>2010-05-21T12:41:35Z</time>
      </trkpt>
      <trkpt lat="47.07856" lon="5.66315">
        <ele>248</ele>
        <time>2010-05-21T12:41:37Z</time>
      </trkpt>
      <trkpt lat="47.0786" lon="5.66332">
        <ele>248</ele>
        <time>2010-05-21T12:41:39Z</time>
      </trkpt>
      <trkpt lat="47.07864" lon="5.66349">
        <ele>248</ele>
        <time>2010-05-21T12:41:41Z</time>
      </trkpt>
      <trkpt lat="47.07868" lon="5.66365">
        <ele>248</ele>
        <time>2010-05-21T12:41:43Z</time>
      </trkpt>
      <trkpt lat="47.07871" lon="5.66382">
        <ele>248</ele>
        <time>2010-05-21T12:41:45Z</time>
      </trkpt>
      <trkpt lat="47.07874" lon="5.66397">
        <ele>248</ele>
        <time>2010-05-21T12:41:47Z</time>
      </trkpt>
      <trkpt lat="47.07877" lon="5.66412">
        <ele>248</ele>
        <time>2010-05-21T12:41:49Z</time>
      </trkpt>
      <trkpt lat="47.07881" lon="5.66428">
        <ele>248</ele>
        <time>2010-05-21T12:41:51Z</time>
      </trkpt>
      <trkpt lat="47.07884" lon="5.66445">
        <ele>248</ele>
        <time>2010-05-21T12:41:53Z</time>
      </trkpt>
      <trkpt lat="47.07888" lon="5.66461">
        <ele>248</ele>
        <time>2010-05-21T12:41:55Z</time>
      </trkpt>
      <trkpt lat="47.07892" lon="5.66477">
        <ele>248</ele>
        <time>2010-05-21T12:41:57Z</time>
      </trkpt>
      <trkpt lat="47.07896" lon="5.66493">
        <ele>248</ele>
        <time>2010-05-21T12:41:59Z</time>
      </trkpt>
      <trkpt lat="47.07901" lon="5.66508">
        <ele>248</ele>
        <time>2010-05-21T12:42:01Z</time>
      </trkpt>
      <trkpt lat="47.07905" lon="5.66524">
        <ele>248</ele>
        <time>2010-05-21T12:42:03Z</time>
      </trkpt>
      <trkpt lat="47.07909" lon="5.66541">
        <ele>248</ele>
        <time>2010-05-21T12:42:05Z</time>
      </trkpt>
      <trkpt lat="47.07912" lon="5.66556">
        <ele>248</ele>
        <time>2010-05-21T12:42:07Z</time>
      </trkpt>
      <trkpt lat="47.07916" lon="5.66572">
        <ele>248</ele>
        <time>2010-05-21T12:42:09Z</time>
      </trkpt>
      <trkpt lat="47.07919" lon="5.66587">
        <ele>248</ele>
        <time>2010-05-21T12:42:11Z</time>
      </trkpt>
      <trkpt lat="47.07924" lon="5.66602">
        <ele>248</ele>
        <time>2010-05-21T12:42:13Z</time>
      </trkpt>
      <trkpt lat="47.07926" lon="5.66617">
        <ele>248</ele>
        <time>2010-05-21T12:42:15Z</time>
      </trkpt>
      <trkpt lat="47.0793" lon="5.66632">
        <ele>248</ele>
        <time>2010-05-21T12:42:17Z</time>
      </trkpt>
      <trkpt lat="47.07933" lon="5.66647">
        <ele>248</ele>
        <time>2010-05-21T12:42:19Z</time>
      </trkpt>
      <trkpt lat="47.07936" lon="5.66661">
        <ele>248</ele>
        <time>2010-05-21T12:42:21Z</time>
      </trkpt>
      <trkpt lat="47.07941" lon="5.66674">
        <ele>248</ele>
        <time>2010-05-21T12:42:23Z</time>
      </trkpt>
      <trkpt lat="47.07944" lon="5.6669">
        <ele>248</ele>
        <time>2010-05-21T12:42:25Z</time>
      </trkpt>
      <trkpt lat="47.07948" lon="5.66705">
        <ele>248</ele>
        <time>2010-05-21T12:42:27Z</time>
      </trkpt>
      <trkpt lat="47.07951" lon="5.66722">
        <ele>248</ele>
        <time>2010-05-21T12:42:29Z</time>
      </trkpt>
      <trkpt lat="47.07954" lon="5.66738">
        <ele>248</ele>
        <time>2010-05-21T12:42:31Z</time>
      </trkpt>
      <trkpt lat="47.07958" lon="5.66756">
        <ele>248</ele>
        <time>2010-05-21T12:42:33Z</time>
      </trkpt>
      <trkpt lat="47.07962" lon="5.66775">
        <ele>248</ele>
        <time>2010-05-21T12:42:35Z</time>
      </trkpt>
      <trkpt lat="47.07967" lon="5.66794">
        <ele>248</ele>
        <time>2010-05-21T12:42:37Z</time>
      </trkpt>
      <trkpt lat="47.07971" lon="5.66814">
        <ele>248</ele>
        <time>2010-05-21T12:42:39Z</time>
      </trkpt>
      <trkpt lat="47.07976" lon="5.66833">
        <ele>248</ele>
        <time>2010-05-21T12:42:41Z</time>
      </trkpt>
      <trkpt lat="47.07981" lon="5.66854">
        <ele>243</ele>
        <time>2010-05-21T12:42:43Z</time>
      </trkpt>
      <trkpt lat="47.07986" lon="5.66876">
        <ele>243</ele>
        <time>2010-05-21T12:42:45Z</time>
      </trkpt>
      <trkpt lat="47.07991" lon="5.66898">
        <ele>243</ele>
        <time>2010-05-21T12:42:47Z</time>
      </trkpt>
      <trkpt lat="47.07997" lon="5.66921">
        <ele>243</ele>
        <time>2010-05-21T12:42:49Z</time>
      </trkpt>
      <trkpt lat="47.08002" lon="5.66946">
        <ele>243</ele>
        <time>2010-05-21T12:42:51Z</time>
      </trkpt>
      <trkpt lat="47.08008" lon="5.66969">
        <ele>237</ele>
        <time>2010-05-21T12:42:53Z</time>
      </trkpt>
      <trkpt lat="47.0801" lon="5.66982">
        <ele>237</ele>
        <time>2010-05-21T12:42:54Z</time>
      </trkpt>
      <trkpt lat="47.08013" lon="5.66994">
        <ele>237</ele>
        <time>2010-05-21T12:42:55Z</time>
      </trkpt>
      <trkpt lat="47.08019" lon="5.67017">
        <ele>237</ele>
        <time>2010-05-21T12:42:57Z</time>
      </trkpt>
      <trkpt lat="47.08024" lon="5.6704">
        <ele>237</ele>
        <time>2010-05-21T12:42:59Z</time>
      </trkpt>
      <trkpt lat="47.0803" lon="5.67062">
        <ele>237</ele>
        <time>2010-05-21T12:43:01Z</time>
      </trkpt>
      <trkpt lat="47.08035" lon="5.67084">
        <ele>237</ele>
        <time>2010-05-21T12:43:03Z</time>
      </trkpt>
      <trkpt lat="47.08039" lon="5.67104">
        <ele>237</ele>
        <time>2010-05-21T12:43:05Z</time>
      </trkpt>
      <trkpt lat="47.08042" lon="5.67121">
        <ele>237</ele>
        <time>2010-05-21T12:43:07Z</time>
      </trkpt>
      <trkpt lat="47.08046" lon="5.67137">
        <ele>237</ele>
        <time>2010-05-21T12:43:09Z</time>
      </trkpt>
      <trkpt lat="47.08049" lon="5.67151">
        <ele>237</ele>
        <time>2010-05-21T12:43:11Z</time>
      </trkpt>
      <trkpt lat="47.08053" lon="5.67165">
        <ele>237</ele>
        <time>2010-05-21T12:43:13Z</time>
      </trkpt>
      <trkpt lat="47.08056" lon="5.67179">
        <ele>237</ele>
        <time>2010-05-21T12:43:15Z</time>
      </trkpt>
      <trkpt lat="47.08059" lon="5.67193">
        <ele>237</ele>
        <time>2010-05-21T12:43:17Z</time>
      </trkpt>
      <trkpt lat="47.08063" lon="5.67204">
        <ele>237</ele>
        <time>2010-05-21T12:43:19Z</time>
      </trkpt>
      <trkpt lat="47.08067" lon="5.67223">
        <ele>244</ele>
        <time>2010-05-21T12:43:22Z</time>
      </trkpt>
      <trkpt lat="47.08071" lon="5.67236">
        <ele>244</ele>
        <time>2010-05-21T12:43:24Z</time>
      </trkpt>
      <trkpt lat="47.08074" lon="5.67249">
        <ele>244</ele>
        <time>2010-05-21T12:43:26Z</time>
      </trkpt>
      <trkpt lat="47.08076" lon="5.67263">
        <ele>244</ele>
        <time>2010-05-21T12:43:28Z</time>
      </trkpt>
      <trkpt lat="47.08079" lon="5.67276">
        <ele>244</ele>
        <time>2010-05-21T12:43:30Z</time>
      </trkpt>
      <trkpt lat="47.08081" lon="5.67291">
        <ele>244</ele>
        <time>2010-05-21T12:43:32Z</time>
      </trkpt>
      <trkpt lat="47.08085" lon="5.67304">
        <ele>244</ele>
        <time>2010-05-21T12:43:34Z</time>
      </trkpt>
      <trkpt lat="47.08087" lon="5.67318">
        <ele>244</ele>
        <time>2010-05-21T12:43:36Z</time>
      </trkpt>
      <trkpt lat="47.0809" lon="5.67331">
        <ele>244</ele>
        <time>2010-05-21T12:43:38Z</time>
      </trkpt>
      <trkpt lat="47.08093" lon="5.67344">
        <ele>244</ele>
        <time>2010-05-21T12:43:40Z</time>
      </trkpt>
      <trkpt lat="47.08096" lon="5.67356">
        <ele>244</ele>
        <time>2010-05-21T12:43:42Z</time>
      </trkpt>
      <trkpt lat="47.08101" lon="5.67373">
        <ele>250</ele>
        <time>2010-05-21T12:43:45Z</time>
      </trkpt>
      <trkpt lat="47.08103" lon="5.67386">
        <ele>250</ele>
        <time>2010-05-21T12:43:47Z</time>
      </trkpt>
      <trkpt lat="47.08106" lon="5.67398">
        <ele>250</ele>
        <time>2010-05-21T12:43:49Z</time>
      </trkpt>
      <trkpt lat="47.08108" lon="5.67412">
        <ele>250</ele>
        <time>2010-05-21T12:43:51Z</time>
      </trkpt>
      <trkpt lat="47.0811" lon="5.67425">
        <ele>250</ele>
        <time>2010-05-21T12:43:53Z</time>
      </trkpt>
      <trkpt lat="47.08112" lon="5.67439">
        <ele>250</ele>
        <time>2010-05-21T12:43:55Z</time>
      </trkpt>
      <trkpt lat="47.08115" lon="5.67453">
        <ele>250</ele>
        <time>2010-05-21T12:43:57Z</time>
      </trkpt>
      <trkpt lat="47.08117" lon="5.67467">
        <ele>250</ele>
        <time>2010-05-21T12:43:59Z</time>
      </trkpt>
      <trkpt lat="47.08121" lon="5.67479">
        <ele>250</ele>
        <time>2010-05-21T12:44:01Z</time>
      </trkpt>
      <trkpt lat="47.08124" lon="5.67494">
        <ele>250</ele>
        <time>2010-05-21T12:44:03Z</time>
      </trkpt>
      <trkpt lat="47.08127" lon="5.67508">
        <ele>250</ele>
        <time>2010-05-21T12:44:05Z</time>
      </trkpt>
      <trkpt lat="47.0813" lon="5.67522">
        <ele>250</ele>
        <time>2010-05-21T12:44:07Z</time>
      </trkpt>
      <trkpt lat="47.08133" lon="5.67539">
        <ele>250</ele>
        <time>2010-05-21T12:44:09Z</time>
      </trkpt>
      <trkpt lat="47.08136" lon="5.67555">
        <ele>250</ele>
        <time>2010-05-21T12:44:11Z</time>
      </trkpt>
      <trkpt lat="47.0814" lon="5.6757">
        <ele>250</ele>
        <time>2010-05-21T12:44:13Z</time>
      </trkpt>
      <trkpt lat="47.08143" lon="5.67583">
        <ele>250</ele>
        <time>2010-05-21T12:44:15Z</time>
      </trkpt>
      <trkpt lat="47.08146" lon="5.67598">
        <ele>255</ele>
        <time>2010-05-21T12:44:17Z</time>
      </trkpt>
      <trkpt lat="47.0815" lon="5.67612">
        <ele>255</ele>
        <time>2010-05-21T12:44:19Z</time>
      </trkpt>
      <trkpt lat="47.08154" lon="5.67627">
        <ele>255</ele>
        <time>2010-05-21T12:44:21Z</time>
      </trkpt>
      <trkpt lat="47.08157" lon="5.67643">
        <ele>255</ele>
        <time>2010-05-21T12:44:23Z</time>
      </trkpt>
      <trkpt lat="47.0816" lon="5.67658">
        <ele>255</ele>
        <time>2010-05-21T12:44:25Z</time>
      </trkpt>
      <trkpt lat="47.08163" lon="5.67675">
        <ele>255</ele>
        <time>2010-05-21T12:44:27Z</time>
      </trkpt>
      <trkpt lat="47.08166" lon="5.6769">
        <ele>255</ele>
        <time>2010-05-21T12:44:29Z</time>
      </trkpt>
      <trkpt lat="47.0817" lon="5.67707">
        <ele>255</ele>
        <time>2010-05-21T12:44:31Z</time>
      </trkpt>
      <trkpt lat="47.08173" lon="5.67723">
        <ele>255</ele>
        <time>2010-05-21T12:44:33Z</time>
      </trkpt>
      <trkpt lat="47.08177" lon="5.67739">
        <ele>255</ele>
        <time>2010-05-21T12:44:35Z</time>
      </trkpt>
      <trkpt lat="47.08181" lon="5.67756">
        <ele>255</ele>
        <time>2010-05-21T12:44:37Z</time>
      </trkpt>
      <trkpt lat="47.08184" lon="5.67772">
        <ele>255</ele>
        <time>2010-05-21T12:44:39Z</time>
      </trkpt>
      <trkpt lat="47.08189" lon="5.67789">
        <ele>255</ele>
        <time>2010-05-21T12:44:41Z</time>
      </trkpt>
      <trkpt lat="47.08192" lon="5.67805">
        <ele>255</ele>
        <time>2010-05-21T12:44:43Z</time>
      </trkpt>
      <trkpt lat="47.08195" lon="5.67822">
        <ele>255</ele>
        <time>2010-05-21T12:44:45Z</time>
      </trkpt>
      <trkpt lat="47.08198" lon="5.67839">
        <ele>255</ele>
        <time>2010-05-21T12:44:47Z</time>
      </trkpt>
      <trkpt lat="47.08202" lon="5.67855">
        <ele>255</ele>
        <time>2010-05-21T12:44:49Z</time>
      </trkpt>
      <trkpt lat="47.08207" lon="5.67872">
        <ele>255</ele>
        <time>2010-05-21T12:44:51Z</time>
      </trkpt>
      <trkpt lat="47.08211" lon="5.67888">
        <ele>255</ele>
        <time>2010-05-21T12:44:53Z</time>
      </trkpt>
      <trkpt lat="47.08214" lon="5.67904">
        <ele>255</ele>
        <time>2010-05-21T12:44:55Z</time>
      </trkpt>
      <trkpt lat="47.08217" lon="5.6792">
        <ele>255</ele>
        <time>2010-05-21T12:44:57Z</time>
      </trkpt>
      <trkpt lat="47.08221" lon="5.67937">
        <ele>255</ele>
        <time>2010-05-21T12:44:59Z</time>
      </trkpt>
      <trkpt lat="47.08224" lon="5.67952">
        <ele>255</ele>
        <time>2010-05-21T12:45:01Z</time>
      </trkpt>
      <trkpt lat="47.08228" lon="5.67969">
        <ele>255</ele>
        <time>2010-05-21T12:45:03Z</time>
      </trkpt>
      <trkpt lat="47.08232" lon="5.67986">
        <ele>255</ele>
        <time>2010-05-21T12:45:05Z</time>
      </trkpt>
      <trkpt lat="47.08236" lon="5.68003">
        <ele>255</ele>
        <time>2010-05-21T12:45:07Z</time>
      </trkpt>
      <trkpt lat="47.0824" lon="5.6802">
        <ele>255</ele>
        <time>2010-05-21T12:45:09Z</time>
      </trkpt>
      <trkpt lat="47.08243" lon="5.68036">
        <ele>255</ele>
        <time>2010-05-21T12:45:11Z</time>
      </trkpt>
      <trkpt lat="47.08247" lon="5.68052">
        <ele>255</ele>
        <time>2010-05-21T12:45:13Z</time>
      </trkpt>
      <trkpt lat="47.0825" lon="5.68067">
        <ele>255</ele>
        <time>2010-05-21T12:45:15Z</time>
      </trkpt>
      <trkpt lat="47.08254" lon="5.68082">
        <ele>255</ele>
        <time>2010-05-21T12:45:17Z</time>
      </trkpt>
      <trkpt lat="47.08257" lon="5.68097">
        <ele>255</ele>
        <time>2010-05-21T12:45:19Z</time>
      </trkpt>
      <trkpt lat="47.0826" lon="5.68112">
        <ele>255</ele>
        <time>2010-05-21T12:45:21Z</time>
      </trkpt>
      <trkpt lat="47.08263" lon="5.68126">
        <ele>255</ele>
        <time>2010-05-21T12:45:23Z</time>
      </trkpt>
      <trkpt lat="47.08267" lon="5.68141">
        <ele>255</ele>
        <time>2010-05-21T12:45:25Z</time>
      </trkpt>
      <trkpt lat="47.0827" lon="5.68157">
        <ele>255</ele>
        <time>2010-05-21T12:45:27Z</time>
      </trkpt>
      <trkpt lat="47.08273" lon="5.68172">
        <ele>255</ele>
        <time>2010-05-21T12:45:29Z</time>
      </trkpt>
      <trkpt lat="47.08277" lon="5.68187">
        <ele>255</ele>
        <time>2010-05-21T12:45:31Z</time>
      </trkpt>
      <trkpt lat="47.08281" lon="5.68202">
        <ele>255</ele>
        <time>2010-05-21T12:45:33Z</time>
      </trkpt>
      <trkpt lat="47.08284" lon="5.68217">
        <ele>255</ele>
        <time>2010-05-21T12:45:35Z</time>
      </trkpt>
      <trkpt lat="47.08287" lon="5.68232">
        <ele>255</ele>
        <time>2010-05-21T12:45:37Z</time>
      </trkpt>
      <trkpt lat="47.08291" lon="5.68246">
        <ele>255</ele>
        <time>2010-05-21T12:45:39Z</time>
      </trkpt>
      <trkpt lat="47.08294" lon="5.68263">
        <ele>255</ele>
        <time>2010-05-21T12:45:41Z</time>
      </trkpt>
      <trkpt lat="47.08298" lon="5.68279">
        <ele>255</ele>
        <time>2010-05-21T12:45:43Z</time>
      </trkpt>
      <trkpt lat="47.08302" lon="5.68295">
        <ele>255</ele>
        <time>2010-05-21T12:45:45Z</time>
      </trkpt>
      <trkpt lat="47.08306" lon="5.68312">
        <ele>255</ele>
        <time>2010-05-21T12:45:47Z</time>
      </trkpt>
      <trkpt lat="47.0831" lon="5.68329">
        <ele>255</ele>
        <time>2010-05-21T12:45:49Z</time>
      </trkpt>
      <trkpt lat="47.08314" lon="5.68347">
        <ele>255</ele>
        <time>2010-05-21T12:45:51Z</time>
      </trkpt>
      <trkpt lat="47.08318" lon="5.68365">
        <ele>255</ele>
        <time>2010-05-21T12:45:53Z</time>
      </trkpt>
      <trkpt lat="47.08322" lon="5.68384">
        <ele>255</ele>
        <time>2010-05-21T12:45:55Z</time>
      </trkpt>
      <trkpt lat="47.08327" lon="5.68402">
        <ele>255</ele>
        <time>2010-05-21T12:45:57Z</time>
      </trkpt>
      <trkpt lat="47.08331" lon="5.6842">
        <ele>255</ele>
        <time>2010-05-21T12:45:59Z</time>
      </trkpt>
      <trkpt lat="47.08335" lon="5.68439">
        <ele>255</ele>
        <time>2010-05-21T12:46:01Z</time>
      </trkpt>
      <trkpt lat="47.08339" lon="5.68458">
        <ele>255</ele>
        <time>2010-05-21T12:46:03Z</time>
      </trkpt>
      <trkpt lat="47.08343" lon="5.68476">
        <ele>255</ele>
        <time>2010-05-21T12:46:05Z</time>
      </trkpt>
      <trkpt lat="47.08348" lon="5.68495">
        <ele>255</ele>
        <time>2010-05-21T12:46:07Z</time>
      </trkpt>
      <trkpt lat="47.08352" lon="5.68515">
        <ele>255</ele>
        <time>2010-05-21T12:46:09Z</time>
      </trkpt>
      <trkpt lat="47.08357" lon="5.68535">
        <ele>255</ele>
        <time>2010-05-21T12:46:11Z</time>
      </trkpt>
      <trkpt lat="47.08361" lon="5.68557">
        <ele>250</ele>
        <time>2010-05-21T12:46:13Z</time>
      </trkpt>
      <trkpt lat="47.08366" lon="5.6858">
        <ele>250</ele>
        <time>2010-05-21T12:46:15Z</time>
      </trkpt>
      <trkpt lat="47.08371" lon="5.68602">
        <ele>250</ele>
        <time>2010-05-21T12:46:17Z</time>
      </trkpt>
      <trkpt lat="47.08377" lon="5.68626">
        <ele>250</ele>
        <time>2010-05-21T12:46:19Z</time>
      </trkpt>
      <trkpt lat="47.08383" lon="5.68648">
        <ele>250</ele>
        <time>2010-05-21T12:46:21Z</time>
      </trkpt>
      <trkpt lat="47.08387" lon="5.68669">
        <ele>250</ele>
        <time>2010-05-21T12:46:23Z</time>
      </trkpt>
      <trkpt lat="47.08391" lon="5.68688">
        <ele>250</ele>
        <time>2010-05-21T12:46:25Z</time>
      </trkpt>
      <trkpt lat="47.08396" lon="5.68708">
        <ele>250</ele>
        <time>2010-05-21T12:46:27Z</time>
      </trkpt>
      <trkpt lat="47.08401" lon="5.68728">
        <ele>250</ele>
        <time>2010-05-21T12:46:29Z</time>
      </trkpt>
      <trkpt lat="47.08406" lon="5.68749">
        <ele>250</ele>
        <time>2010-05-21T12:46:31Z</time>
      </trkpt>
      <trkpt lat="47.08411" lon="5.68769">
        <ele>250</ele>
        <time>2010-05-21T12:46:33Z</time>
      </trkpt>
      <trkpt lat="47.08417" lon="5.68792">
        <ele>250</ele>
        <time>2010-05-21T12:46:35Z</time>
      </trkpt>
      <trkpt lat="47.08422" lon="5.68816">
        <ele>250</ele>
        <time>2010-05-21T12:46:37Z</time>
      </trkpt>
      <trkpt lat="47.08429" lon="5.68841">
        <ele>245</ele>
        <time>2010-05-21T12:46:39Z</time>
      </trkpt>
      <trkpt lat="47.08435" lon="5.68865">
        <ele>245</ele>
        <time>2010-05-21T12:46:41Z</time>
      </trkpt>
      <trkpt lat="47.08438" lon="5.68878">
        <ele>245</ele>
        <time>2010-05-21T12:46:42Z</time>
      </trkpt>
      <trkpt lat="47.08443" lon="5.689">
        <ele>245</ele>
        <time>2010-05-21T12:46:44Z</time>
      </trkpt>
      <trkpt lat="47.08449" lon="5.68921">
        <ele>245</ele>
        <time>2010-05-21T12:46:46Z</time>
      </trkpt>
      <trkpt lat="47.08454" lon="5.68939">
        <ele>245</ele>
        <time>2010-05-21T12:46:48Z</time>
      </trkpt>
      <trkpt lat="47.08458" lon="5.68957">
        <ele>245</ele>
        <time>2010-05-21T12:46:50Z</time>
      </trkpt>
      <trkpt lat="47.08462" lon="5.68974">
        <ele>245</ele>
        <time>2010-05-21T12:46:52Z</time>
      </trkpt>
      <trkpt lat="47.08465" lon="5.68991">
        <ele>245</ele>
        <time>2010-05-21T12:46:54Z</time>
      </trkpt>
      <trkpt lat="47.08468" lon="5.69007">
        <ele>245</ele>
        <time>2010-05-21T12:46:56Z</time>
      </trkpt>
      <trkpt lat="47.08473" lon="5.69023">
        <ele>245</ele>
        <time>2010-05-21T12:46:58Z</time>
      </trkpt>
      <trkpt lat="47.08477" lon="5.6904">
        <ele>245</ele>
        <time>2010-05-21T12:47:00Z</time>
      </trkpt>
      <trkpt lat="47.08481" lon="5.69055">
        <ele>245</ele>
        <time>2010-05-21T12:47:02Z</time>
      </trkpt>
      <trkpt lat="47.08485" lon="5.6907">
        <ele>245</ele>
        <time>2010-05-21T12:47:04Z</time>
      </trkpt>
      <trkpt lat="47.08489" lon="5.69085">
        <ele>250</ele>
        <time>2010-05-21T12:47:06Z</time>
      </trkpt>
      <trkpt lat="47.08491" lon="5.69101">
        <ele>250</ele>
        <time>2010-05-21T12:47:08Z</time>
      </trkpt>
      <trkpt lat="47.08494" lon="5.69118">
        <ele>250</ele>
        <time>2010-05-21T12:47:10Z</time>
      </trkpt>
      <trkpt lat="47.08497" lon="5.69134">
        <ele>250</ele>
        <time>2010-05-21T12:47:12Z</time>
      </trkpt>
      <trkpt lat="47.08501" lon="5.6915">
        <ele>250</ele>
        <time>2010-05-21T12:47:14Z</time>
      </trkpt>
      <trkpt lat="47.08505" lon="5.69165">
        <ele>250</ele>
        <time>2010-05-21T12:47:16Z</time>
      </trkpt>
      <trkpt lat="47.08508" lon="5.69182">
        <ele>250</ele>
        <time>2010-05-21T12:47:18Z</time>
      </trkpt>
      <trkpt lat="47.08511" lon="5.69197">
        <ele>250</ele>
        <time>2010-05-21T12:47:20Z</time>
      </trkpt>
      <trkpt lat="47.08514" lon="5.69212">
        <ele>250</ele>
        <time>2010-05-21T12:47:22Z</time>
      </trkpt>
      <trkpt lat="47.08518" lon="5.69227">
        <ele>250</ele>
        <time>2010-05-21T12:47:24Z</time>
      </trkpt>
      <trkpt lat="47.08519" lon="5.69242">
        <ele>250</ele>
        <time>2010-05-21T12:47:26Z</time>
      </trkpt>
      <trkpt lat="47.08522" lon="5.69256">
        <ele>250</ele>
        <time>2010-05-21T12:47:28Z</time>
      </trkpt>
      <trkpt lat="47.08524" lon="5.69271">
        <ele>250</ele>
        <time>2010-05-21T12:47:30Z</time>
      </trkpt>
      <trkpt lat="47.08527" lon="5.69284">
        <ele>250</ele>
        <time>2010-05-21T12:47:32Z</time>
      </trkpt>
      <trkpt lat="47.0853" lon="5.69298">
        <ele>250</ele>
        <time>2010-05-21T12:47:34Z</time>
      </trkpt>
      <trkpt lat="47.08533" lon="5.69312">
        <ele>250</ele>
        <time>2010-05-21T12:47:36Z</time>
      </trkpt>
      <trkpt lat="47.08536" lon="5.69325">
        <ele>250</ele>
        <time>2010-05-21T12:47:38Z</time>
      </trkpt>
      <trkpt lat="47.08539" lon="5.6934">
        <ele>250</ele>
        <time>2010-05-21T12:47:40Z</time>
      </trkpt>
      <trkpt lat="47.08542" lon="5.69354">
        <ele>250</ele>
        <time>2010-05-21T12:47:42Z</time>
      </trkpt>
      <trkpt lat="47.08545" lon="5.69368">
        <ele>250</ele>
        <time>2010-05-21T12:47:44Z</time>
      </trkpt>
      <trkpt lat="47.08548" lon="5.69384">
        <ele>250</ele>
        <time>2010-05-21T12:47:46Z</time>
      </trkpt>
      <trkpt lat="47.08553" lon="5.69399">
        <ele>250</ele>
        <time>2010-05-21T12:47:48Z</time>
      </trkpt>
      <trkpt lat="47.08556" lon="5.69413">
        <ele>255</ele>
        <time>2010-05-21T12:47:50Z</time>
      </trkpt>
      <trkpt lat="47.08559" lon="5.6943">
        <ele>255</ele>
        <time>2010-05-21T12:47:52Z</time>
      </trkpt>
      <trkpt lat="47.08563" lon="5.69446">
        <ele>255</ele>
        <time>2010-05-21T12:47:54Z</time>
      </trkpt>
      <trkpt lat="47.08567" lon="5.69462">
        <ele>255</ele>
        <time>2010-05-21T12:47:56Z</time>
      </trkpt>
      <trkpt lat="47.0857" lon="5.69478">
        <ele>255</ele>
        <time>2010-05-21T12:47:58Z</time>
      </trkpt>
      <trkpt lat="47.08573" lon="5.69493">
        <ele>255</ele>
        <time>2010-05-21T12:48:00Z</time>
      </trkpt>
      <trkpt lat="47.08576" lon="5.6951">
        <ele>255</ele>
        <time>2010-05-21T12:48:02Z</time>
      </trkpt>
      <trkpt lat="47.08579" lon="5.69526">
        <ele>255</ele>
        <time>2010-05-21T12:48:04Z</time>
      </trkpt>
      <trkpt lat="47.08583" lon="5.69541">
        <ele>255</ele>
        <time>2010-05-21T12:48:06Z</time>
      </trkpt>
      <trkpt lat="47.08587" lon="5.69557">
        <ele>255</ele>
        <time>2010-05-21T12:48:08Z</time>
      </trkpt>
      <trkpt lat="47.08591" lon="5.69572">
        <ele>255</ele>
        <time>2010-05-21T12:48:10Z</time>
      </trkpt>
      <trkpt lat="47.08594" lon="5.69588">
        <ele>255</ele>
        <time>2010-05-21T12:48:12Z</time>
      </trkpt>
      <trkpt lat="47.08598" lon="5.69604">
        <ele>255</ele>
        <time>2010-05-21T12:48:14Z</time>
      </trkpt>
      <trkpt lat="47.08602" lon="5.6962">
        <ele>255</ele>
        <time>2010-05-21T12:48:16Z</time>
      </trkpt>
      <trkpt lat="47.08606" lon="5.69635">
        <ele>255</ele>
        <time>2010-05-21T12:48:18Z</time>
      </trkpt>
      <trkpt lat="47.0861" lon="5.69653">
        <ele>255</ele>
        <time>2010-05-21T12:48:20Z</time>
      </trkpt>
      <trkpt lat="47.08614" lon="5.6967">
        <ele>255</ele>
        <time>2010-05-21T12:48:22Z</time>
      </trkpt>
      <trkpt lat="47.08618" lon="5.69687">
        <ele>255</ele>
        <time>2010-05-21T12:48:24Z</time>
      </trkpt>
      <trkpt lat="47.08621" lon="5.69704">
        <ele>255</ele>
        <time>2010-05-21T12:48:26Z</time>
      </trkpt>
      <trkpt lat="47.08626" lon="5.69722">
        <ele>255</ele>
        <time>2010-05-21T12:48:28Z</time>
      </trkpt>
      <trkpt lat="47.08629" lon="5.69739">
        <ele>255</ele>
        <time>2010-05-21T12:48:30Z</time>
      </trkpt>
      <trkpt lat="47.08634" lon="5.69757">
        <ele>255</ele>
        <time>2010-05-21T12:48:32Z</time>
      </trkpt>
      <trkpt lat="47.08638" lon="5.69774">
        <ele>255</ele>
        <time>2010-05-21T12:48:34Z</time>
      </trkpt>
      <trkpt lat="47.08642" lon="5.69792">
        <ele>255</ele>
        <time>2010-05-21T12:48:36Z</time>
      </trkpt>
      <trkpt lat="47.08646" lon="5.6981">
        <ele>255</ele>
        <time>2010-05-21T12:48:38Z</time>
      </trkpt>
      <trkpt lat="47.0865" lon="5.69827">
        <ele>255</ele>
        <time>2010-05-21T12:48:40Z</time>
      </trkpt>
      <trkpt lat="47.08654" lon="5.69845">
        <ele>255</ele>
        <time>2010-05-21T12:48:42Z</time>
      </trkpt>
      <trkpt lat="47.08657" lon="5.69862">
        <ele>255</ele>
        <time>2010-05-21T12:48:44Z</time>
      </trkpt>
      <trkpt lat="47.08662" lon="5.6988">
        <ele>255</ele>
        <time>2010-05-21T12:48:46Z</time>
      </trkpt>
      <trkpt lat="47.08666" lon="5.69898">
        <ele>255</ele>
        <time>2010-05-21T12:48:48Z</time>
      </trkpt>
      <trkpt lat="47.0867" lon="5.69916">
        <ele>255</ele>
        <time>2010-05-21T12:48:50Z</time>
      </trkpt>
      <trkpt lat="47.08673" lon="5.69934">
        <ele>255</ele>
        <time>2010-05-21T12:48:52Z</time>
      </trkpt>
      <trkpt lat="47.08678" lon="5.69953">
        <ele>255</ele>
        <time>2010-05-21T12:48:54Z</time>
      </trkpt>
      <trkpt lat="47.08681" lon="5.69971">
        <ele>255</ele>
        <time>2010-05-21T12:48:56Z</time>
      </trkpt>
      <trkpt lat="47.08686" lon="5.69989">
        <ele>255</ele>
        <time>2010-05-21T12:48:58Z</time>
      </trkpt>
      <trkpt lat="47.0869" lon="5.70008">
        <ele>255</ele>
        <time>2010-05-21T12:49:00Z</time>
      </trkpt>
      <trkpt lat="47.08693" lon="5.70025">
        <ele>255</ele>
        <time>2010-05-21T12:49:02Z</time>
      </trkpt>
      <trkpt lat="47.08697" lon="5.70043">
        <ele>255</ele>
        <time>2010-05-21T12:49:04Z</time>
      </trkpt>
      <trkpt lat="47.08701" lon="5.7006">
        <ele>255</ele>
        <time>2010-05-21T12:49:06Z</time>
      </trkpt>
      <trkpt lat="47.08705" lon="5.70076">
        <ele>255</ele>
        <time>2010-05-21T12:49:08Z</time>
      </trkpt>
      <trkpt lat="47.08709" lon="5.70094">
        <ele>255</ele>
        <time>2010-05-21T12:49:10Z</time>
      </trkpt>
      <trkpt lat="47.08713" lon="5.70111">
        <ele>255</ele>
        <time>2010-05-21T12:49:12Z</time>
      </trkpt>
      <trkpt lat="47.08718" lon="5.70128">
        <ele>255</ele>
        <time>2010-05-21T12:49:14Z</time>
      </trkpt>
      <trkpt lat="47.08721" lon="5.70145">
        <ele>255</ele>
        <time>2010-05-21T12:49:16Z</time>
      </trkpt>
      <trkpt lat="47.08725" lon="5.70161">
        <ele>255</ele>
        <time>2010-05-21T12:49:18Z</time>
      </trkpt>
      <trkpt lat="47.08729" lon="5.70179">
        <ele>255</ele>
        <time>2010-05-21T12:49:20Z</time>
      </trkpt>
      <trkpt lat="47.08732" lon="5.70196">
        <ele>255</ele>
        <time>2010-05-21T12:49:22Z</time>
      </trkpt>
      <trkpt lat="47.08736" lon="5.70212">
        <ele>255</ele>
        <time>2010-05-21T12:49:24Z</time>
      </trkpt>
      <trkpt lat="47.08739" lon="5.70229">
        <ele>255</ele>
        <time>2010-05-21T12:49:26Z</time>
      </trkpt>
      <trkpt lat="47.08743" lon="5.70245">
        <ele>255</ele>
        <time>2010-05-21T12:49:28Z</time>
      </trkpt>
      <trkpt lat="47.08746" lon="5.70261">
        <ele>255</ele>
        <time>2010-05-21T12:49:30Z</time>
      </trkpt>
      <trkpt lat="47.0875" lon="5.70278">
        <ele>255</ele>
        <time>2010-05-21T12:49:32Z</time>
      </trkpt>
      <trkpt lat="47.08753" lon="5.70295">
        <ele>255</ele>
        <time>2010-05-21T12:49:34Z</time>
      </trkpt>
      <trkpt lat="47.08757" lon="5.70311">
        <ele>255</ele>
        <time>2010-05-21T12:49:36Z</time>
      </trkpt>
      <trkpt lat="47.08762" lon="5.70328">
        <ele>255</ele>
        <time>2010-05-21T12:49:38Z</time>
      </trkpt>
      <trkpt lat="47.08767" lon="5.70345">
        <ele>255</ele>
        <time>2010-05-21T12:49:40Z</time>
      </trkpt>
      <trkpt lat="47.08771" lon="5.70362">
        <ele>255</ele>
        <time>2010-05-21T12:49:42Z</time>
      </trkpt>
      <trkpt lat="47.08775" lon="5.70378">
        <ele>255</ele>
        <time>2010-05-21T12:49:44Z</time>
      </trkpt>
      <trkpt lat="47.08779" lon="5.70394">
        <ele>255</ele>
        <time>2010-05-21T12:49:46Z</time>
      </trkpt>
      <trkpt lat="47.08782" lon="5.7041">
        <ele>255</ele>
        <time>2010-05-21T12:49:48Z</time>
      </trkpt>
      <trkpt lat="47.08786" lon="5.70425">
        <ele>255</ele>
        <time>2010-05-21T12:49:50Z</time>
      </trkpt>
      <trkpt lat="47.08789" lon="5.70439">
        <ele>255</ele>
        <time>2010-05-21T12:49:52Z</time>
      </trkpt>
      <trkpt lat="47.08791" lon="5.70452">
        <ele>255</ele>
        <time>2010-05-21T12:49:54Z</time>
      </trkpt>
      <trkpt lat="47.08795" lon="5.70468">
        <ele>255</ele>
        <time>2010-05-21T12:49:57Z</time>
      </trkpt>
      <trkpt lat="47.08798" lon="5.70484">
        <ele>255</ele>
        <time>2010-05-21T12:50:00Z</time>
      </trkpt>
      <trkpt lat="47.088" lon="5.70499">
        <ele>255</ele>
        <time>2010-05-21T12:50:03Z</time>
      </trkpt>
      <trkpt lat="47.08807" lon="5.70512">
        <ele>255</ele>
        <time>2010-05-21T12:50:07Z</time>
      </trkpt>
      <trkpt lat="47.08818" lon="5.70508">
        <ele>255</ele>
        <time>2010-05-21T12:50:10Z</time>
      </trkpt>
      <trkpt lat="47.08829" lon="5.70506">
        <ele>255</ele>
        <time>2010-05-21T12:50:13Z</time>
      </trkpt>
      <trkpt lat="47.08841" lon="5.70502">
        <ele>255</ele>
        <time>2010-05-21T12:50:16Z</time>
      </trkpt>
      <trkpt lat="47.08854" lon="5.70498">
        <ele>255</ele>
        <time>2010-05-21T12:50:19Z</time>
      </trkpt>
      <trkpt lat="47.08867" lon="5.70494">
        <ele>260</ele>
        <time>2010-05-21T12:50:22Z</time>
      </trkpt>
      <trkpt lat="47.08878" lon="5.7049">
        <ele>260</ele>
        <time>2010-05-21T12:50:25Z</time>
      </trkpt>
      <trkpt lat="47.08892" lon="5.70488">
        <ele>260</ele>
        <time>2010-05-21T12:50:28Z</time>
      </trkpt>
      <trkpt lat="47.08901" lon="5.70486">
        <ele>260</ele>
        <time>2010-05-21T12:50:30Z</time>
      </trkpt>
      <trkpt lat="47.0891" lon="5.70482">
        <ele>260</ele>
        <time>2010-05-21T12:50:32Z</time>
      </trkpt>
      <trkpt lat="47.08919" lon="5.70481">
        <ele>260</ele>
        <time>2010-05-21T12:50:34Z</time>
      </trkpt>
      <trkpt lat="47.08929" lon="5.70477">
        <ele>260</ele>
        <time>2010-05-21T12:50:36Z</time>
      </trkpt>
      <trkpt lat="47.08938" lon="5.70475">
        <ele>260</ele>
        <time>2010-05-21T12:50:38Z</time>
      </trkpt>
      <trkpt lat="47.08952" lon="5.70472">
        <ele>260</ele>
        <time>2010-05-21T12:50:41Z</time>
      </trkpt>
      <trkpt lat="47.08962" lon="5.7047">
        <ele>260</ele>
        <time>2010-05-21T12:50:43Z</time>
      </trkpt>
      <trkpt lat="47.08972" lon="5.70468">
        <ele>260</ele>
        <time>2010-05-21T12:50:45Z</time>
      </trkpt>
      <trkpt lat="47.08982" lon="5.70465">
        <ele>260</ele>
        <time>2010-05-21T12:50:47Z</time>
      </trkpt>
      <trkpt lat="47.08992" lon="5.70463">
        <ele>266</ele>
        <time>2010-05-21T12:50:49Z</time>
      </trkpt>
      <trkpt lat="47.09001" lon="5.70461">
        <ele>266</ele>
        <time>2010-05-21T12:50:51Z</time>
      </trkpt>
      <trkpt lat="47.0901" lon="5.70458">
        <ele>266</ele>
        <time>2010-05-21T12:50:53Z</time>
      </trkpt>
      <trkpt lat="47.09019" lon="5.70455">
        <ele>266</ele>
        <time>2010-05-21T12:50:55Z</time>
      </trkpt>
      <trkpt lat="47.09029" lon="5.70453">
        <ele>266</ele>
        <time>2010-05-21T12:50:57Z</time>
      </trkpt>
      <trkpt lat="47.0904" lon="5.70449">
        <ele>271</ele>
        <time>2010-05-21T12:50:59Z</time>
      </trkpt>
      <trkpt lat="47.09051" lon="5.70447">
        <ele>271</ele>
        <time>2010-05-21T12:51:01Z</time>
      </trkpt>
      <trkpt lat="47.09061" lon="5.70445">
        <ele>271</ele>
        <time>2010-05-21T12:51:03Z</time>
      </trkpt>
      <trkpt lat="47.09072" lon="5.70442">
        <ele>271</ele>
        <time>2010-05-21T12:51:05Z</time>
      </trkpt>
      <trkpt lat="47.09084" lon="5.70438">
        <ele>271</ele>
        <time>2010-05-21T12:51:07Z</time>
      </trkpt>
      <trkpt lat="47.09094" lon="5.70436">
        <ele>278</ele>
        <time>2010-05-21T12:51:09Z</time>
      </trkpt>
      <trkpt lat="47.09105" lon="5.70433">
        <ele>278</ele>
        <time>2010-05-21T12:51:11Z</time>
      </trkpt>
      <trkpt lat="47.09116" lon="5.70431">
        <ele>278</ele>
        <time>2010-05-21T12:51:13Z</time>
      </trkpt>
      <trkpt lat="47.09127" lon="5.70428">
        <ele>283</ele>
        <time>2010-05-21T12:51:15Z</time>
      </trkpt>
      <trkpt lat="47.09138" lon="5.70425">
        <ele>283</ele>
        <time>2010-05-21T12:51:17Z</time>
      </trkpt>
      <trkpt lat="47.09149" lon="5.70421">
        <ele>283</ele>
        <time>2010-05-21T12:51:19Z</time>
      </trkpt>
      <trkpt lat="47.0916" lon="5.70418">
        <ele>283</ele>
        <time>2010-05-21T12:51:21Z</time>
      </trkpt>
      <trkpt lat="47.09171" lon="5.70415">
        <ele>283</ele>
        <time>2010-05-21T12:51:23Z</time>
      </trkpt>
      <trkpt lat="47.09181" lon="5.70412">
        <ele>283</ele>
        <time>2010-05-21T12:51:25Z</time>
      </trkpt>
      <trkpt lat="47.09192" lon="5.7041">
        <ele>283</ele>
        <time>2010-05-21T12:51:27Z</time>
      </trkpt>
      <trkpt lat="47.09203" lon="5.70407">
        <ele>283</ele>
        <time>2010-05-21T12:51:29Z</time>
      </trkpt>
      <trkpt lat="47.09215" lon="5.70405">
        <ele>283</ele>
        <time>2010-05-21T12:51:31Z</time>
      </trkpt>
      <trkpt lat="47.09225" lon="5.70402">
        <ele>283</ele>
        <time>2010-05-21T12:51:33Z</time>
      </trkpt>
      <trkpt lat="47.09235" lon="5.704">
        <ele>283</ele>
        <time>2010-05-21T12:51:35Z</time>
      </trkpt>
      <trkpt lat="47.09246" lon="5.70398">
        <ele>283</ele>
        <time>2010-05-21T12:51:37Z</time>
      </trkpt>
      <trkpt lat="47.09256" lon="5.70396">
        <ele>283</ele>
        <time>2010-05-21T12:51:39Z</time>
      </trkpt>
      <trkpt lat="47.09265" lon="5.70395">
        <ele>283</ele>
        <time>2010-05-21T12:51:41Z</time>
      </trkpt>
      <trkpt lat="47.09275" lon="5.70392">
        <ele>283</ele>
        <time>2010-05-21T12:51:43Z</time>
      </trkpt>
      <trkpt lat="47.09284" lon="5.7039">
        <ele>283</ele>
        <time>2010-05-21T12:51:45Z</time>
      </trkpt>
      <trkpt lat="47.09294" lon="5.70388">
        <ele>283</ele>
        <time>2010-05-21T12:51:47Z</time>
      </trkpt>
      <trkpt lat="47.09303" lon="5.70385">
        <ele>283</ele>
        <time>2010-05-21T12:51:49Z</time>
      </trkpt>
      <trkpt lat="47.09314" lon="5.70383">
        <ele>283</ele>
        <time>2010-05-21T12:51:51Z</time>
      </trkpt>
      <trkpt lat="47.09324" lon="5.7038">
        <ele>283</ele>
        <time>2010-05-21T12:51:53Z</time>
      </trkpt>
      <trkpt lat="47.09335" lon="5.70376">
        <ele>283</ele>
        <time>2010-05-21T12:51:55Z</time>
      </trkpt>
      <trkpt lat="47.09346" lon="5.70375">
        <ele>283</ele>
        <time>2010-05-21T12:51:57Z</time>
      </trkpt>
      <trkpt lat="47.09357" lon="5.70372">
        <ele>283</ele>
        <time>2010-05-21T12:51:59Z</time>
      </trkpt>
      <trkpt lat="47.09369" lon="5.70368">
        <ele>283</ele>
        <time>2010-05-21T12:52:01Z</time>
      </trkpt>
      <trkpt lat="47.0938" lon="5.70366">
        <ele>283</ele>
        <time>2010-05-21T12:52:03Z</time>
      </trkpt>
      <trkpt lat="47.09392" lon="5.70362">
        <ele>283</ele>
        <time>2010-05-21T12:52:05Z</time>
      </trkpt>
      <trkpt lat="47.09405" lon="5.70359">
        <ele>278</ele>
        <time>2010-05-21T12:52:07Z</time>
      </trkpt>
      <trkpt lat="47.09418" lon="5.70357">
        <ele>278</ele>
        <time>2010-05-21T12:52:09Z</time>
      </trkpt>
      <trkpt lat="47.0943" lon="5.70354">
        <ele>278</ele>
        <time>2010-05-21T12:52:11Z</time>
      </trkpt>
      <trkpt lat="47.09443" lon="5.7035">
        <ele>278</ele>
        <time>2010-05-21T12:52:13Z</time>
      </trkpt>
      <trkpt lat="47.09456" lon="5.70347">
        <ele>278</ele>
        <time>2010-05-21T12:52:15Z</time>
      </trkpt>
      <trkpt lat="47.09469" lon="5.70344">
        <ele>278</ele>
        <time>2010-05-21T12:52:17Z</time>
      </trkpt>
      <trkpt lat="47.09483" lon="5.7034">
        <ele>278</ele>
        <time>2010-05-21T12:52:19Z</time>
      </trkpt>
      <trkpt lat="47.09496" lon="5.70338">
        <ele>278</ele>
        <time>2010-05-21T12:52:21Z</time>
      </trkpt>
      <trkpt lat="47.09509" lon="5.70334">
        <ele>278</ele>
        <time>2010-05-21T12:52:23Z</time>
      </trkpt>
      <trkpt lat="47.09522" lon="5.70331">
        <ele>278</ele>
        <time>2010-05-21T12:52:25Z</time>
      </trkpt>
      <trkpt lat="47.09535" lon="5.70328">
        <ele>278</ele>
        <time>2010-05-21T12:52:27Z</time>
      </trkpt>
      <trkpt lat="47.09548" lon="5.70325">
        <ele>272</ele>
        <time>2010-05-21T12:52:29Z</time>
      </trkpt>
      <trkpt lat="47.09561" lon="5.70322">
        <ele>272</ele>
        <time>2010-05-21T12:52:31Z</time>
      </trkpt>
      <trkpt lat="47.09573" lon="5.70319">
        <ele>272</ele>
        <time>2010-05-21T12:52:33Z</time>
      </trkpt>
      <trkpt lat="47.09586" lon="5.70316">
        <ele>272</ele>
        <time>2010-05-21T12:52:35Z</time>
      </trkpt>
      <trkpt lat="47.09599" lon="5.70313">
        <ele>272</ele>
        <time>2010-05-21T12:52:37Z</time>
      </trkpt>
      <trkpt lat="47.09611" lon="5.70311">
        <ele>272</ele>
        <time>2010-05-21T12:52:39Z</time>
      </trkpt>
      <trkpt lat="47.09623" lon="5.70307">
        <ele>272</ele>
        <time>2010-05-21T12:52:41Z</time>
      </trkpt>
      <trkpt lat="47.09636" lon="5.70304">
        <ele>272</ele>
        <time>2010-05-21T12:52:43Z</time>
      </trkpt>
      <trkpt lat="47.09649" lon="5.70301">
        <ele>272</ele>
        <time>2010-05-21T12:52:45Z</time>
      </trkpt>
      <trkpt lat="47.09661" lon="5.70298">
        <ele>272</ele>
        <time>2010-05-21T12:52:47Z</time>
      </trkpt>
      <trkpt lat="47.09674" lon="5.70295">
        <ele>272</ele>
        <time>2010-05-21T12:52:49Z</time>
      </trkpt>
      <trkpt lat="47.09686" lon="5.70291">
        <ele>272</ele>
        <time>2010-05-21T12:52:51Z</time>
      </trkpt>
      <trkpt lat="47.09699" lon="5.70287">
        <ele>272</ele>
        <time>2010-05-21T12:52:53Z</time>
      </trkpt>
      <trkpt lat="47.09711" lon="5.70284">
        <ele>272</ele>
        <time>2010-05-21T12:52:55Z</time>
      </trkpt>
      <trkpt lat="47.09725" lon="5.70281">
        <ele>272</ele>
        <time>2010-05-21T12:52:57Z</time>
      </trkpt>
      <trkpt lat="47.09738" lon="5.70278">
        <ele>272</ele>
        <time>2010-05-21T12:52:59Z</time>
      </trkpt>
      <trkpt lat="47.09752" lon="5.70275">
        <ele>272</ele>
        <time>2010-05-21T12:53:01Z</time>
      </trkpt>
      <trkpt lat="47.09765" lon="5.7027">
        <ele>272</ele>
        <time>2010-05-21T12:53:03Z</time>
      </trkpt>
      <trkpt lat="47.09779" lon="5.70269">
        <ele>272</ele>
        <time>2010-05-21T12:53:05Z</time>
      </trkpt>
      <trkpt lat="47.09793" lon="5.70265">
        <ele>272</ele>
        <time>2010-05-21T12:53:07Z</time>
      </trkpt>
      <trkpt lat="47.09808" lon="5.70261">
        <ele>272</ele>
        <time>2010-05-21T12:53:09Z</time>
      </trkpt>
      <trkpt lat="47.09822" lon="5.70259">
        <ele>272</ele>
        <time>2010-05-21T12:53:11Z</time>
      </trkpt>
      <trkpt lat="47.09835" lon="5.70256">
        <ele>272</ele>
        <time>2010-05-21T12:53:13Z</time>
      </trkpt>
      <trkpt lat="47.09848" lon="5.70252">
        <ele>272</ele>
        <time>2010-05-21T12:53:15Z</time>
      </trkpt>
      <trkpt lat="47.0986" lon="5.70249">
        <ele>272</ele>
        <time>2010-05-21T12:53:17Z</time>
      </trkpt>
      <trkpt lat="47.09873" lon="5.70246">
        <ele>272</ele>
        <time>2010-05-21T12:53:19Z</time>
      </trkpt>
      <trkpt lat="47.09886" lon="5.70243">
        <ele>272</ele>
        <time>2010-05-21T12:53:21Z</time>
      </trkpt>
      <trkpt lat="47.09899" lon="5.7024">
        <ele>272</ele>
        <time>2010-05-21T12:53:23Z</time>
      </trkpt>
      <trkpt lat="47.09911" lon="5.70236">
        <ele>272</ele>
        <time>2010-05-21T12:53:25Z</time>
      </trkpt>
      <trkpt lat="47.09923" lon="5.70234">
        <ele>272</ele>
        <time>2010-05-21T12:53:27Z</time>
      </trkpt>
      <trkpt lat="47.09935" lon="5.7023">
        <ele>272</ele>
        <time>2010-05-21T12:53:29Z</time>
      </trkpt>
      <trkpt lat="47.09949" lon="5.70227">
        <ele>272</ele>
        <time>2010-05-21T12:53:31Z</time>
      </trkpt>
      <trkpt lat="47.09964" lon="5.70224">
        <ele>272</ele>
        <time>2010-05-21T12:53:33Z</time>
      </trkpt>
      <trkpt lat="47.09978" lon="5.70222">
        <ele>272</ele>
        <time>2010-05-21T12:53:35Z</time>
      </trkpt>
      <trkpt lat="47.09992" lon="5.70218">
        <ele>272</ele>
        <time>2010-05-21T12:53:37Z</time>
      </trkpt>
      <trkpt lat="47.10006" lon="5.70216">
        <ele>272</ele>
        <time>2010-05-21T12:53:39Z</time>
      </trkpt>
      <trkpt lat="47.10019" lon="5.70212">
        <ele>272</ele>
        <time>2010-05-21T12:53:41Z</time>
      </trkpt>
      <trkpt lat="47.10032" lon="5.70209">
        <ele>272</ele>
        <time>2010-05-21T12:53:43Z</time>
      </trkpt>
      <trkpt lat="47.10043" lon="5.70203">
        <ele>272</ele>
        <time>2010-05-21T12:53:45Z</time>
      </trkpt>
      <trkpt lat="47.10056" lon="5.70198">
        <ele>272</ele>
        <time>2010-05-21T12:53:47Z</time>
      </trkpt>
      <trkpt lat="47.10068" lon="5.70196">
        <ele>272</ele>
        <time>2010-05-21T12:53:49Z</time>
      </trkpt>
      <trkpt lat="47.10081" lon="5.70192">
        <ele>272</ele>
        <time>2010-05-21T12:53:51Z</time>
      </trkpt>
      <trkpt lat="47.10092" lon="5.7019">
        <ele>272</ele>
        <time>2010-05-21T12:53:53Z</time>
      </trkpt>
      <trkpt lat="47.10104" lon="5.70187">
        <ele>272</ele>
        <time>2010-05-21T12:53:55Z</time>
      </trkpt>
      <trkpt lat="47.10115" lon="5.70184">
        <ele>272</ele>
        <time>2010-05-21T12:53:57Z</time>
      </trkpt>
      <trkpt lat="47.10125" lon="5.70182">
        <ele>272</ele>
        <time>2010-05-21T12:53:59Z</time>
      </trkpt>
      <trkpt lat="47.10136" lon="5.70181">
        <ele>267</ele>
        <time>2010-05-21T12:54:01Z</time>
      </trkpt>
      <trkpt lat="47.10146" lon="5.70178">
        <ele>267</ele>
        <time>2010-05-21T12:54:03Z</time>
      </trkpt>
      <trkpt lat="47.10156" lon="5.70176">
        <ele>267</ele>
        <time>2010-05-21T12:54:05Z</time>
      </trkpt>
      <trkpt lat="47.10167" lon="5.70173">
        <ele>267</ele>
        <time>2010-05-21T12:54:07Z</time>
      </trkpt>
      <trkpt lat="47.10176" lon="5.70171">
        <ele>267</ele>
        <time>2010-05-21T12:54:09Z</time>
      </trkpt>
      <trkpt lat="47.10187" lon="5.70168">
        <ele>267</ele>
        <time>2010-05-21T12:54:11Z</time>
      </trkpt>
      <trkpt lat="47.10197" lon="5.70166">
        <ele>267</ele>
        <time>2010-05-21T12:54:13Z</time>
      </trkpt>
      <trkpt lat="47.10206" lon="5.70163">
        <ele>267</ele>
        <time>2010-05-21T12:54:15Z</time>
      </trkpt>
      <trkpt lat="47.10217" lon="5.7016">
        <ele>267</ele>
        <time>2010-05-21T12:54:17Z</time>
      </trkpt>
      <trkpt lat="47.10229" lon="5.70157">
        <ele>267</ele>
        <time>2010-05-21T12:54:19Z</time>
      </trkpt>
      <trkpt lat="47.10241" lon="5.70154">
        <ele>267</ele>
        <time>2010-05-21T12:54:21Z</time>
      </trkpt>
      <trkpt lat="47.10254" lon="5.70152">
        <ele>267</ele>
        <time>2010-05-21T12:54:23Z</time>
      </trkpt>
      <trkpt lat="47.10266" lon="5.70149">
        <ele>267</ele>
        <time>2010-05-21T12:54:25Z</time>
      </trkpt>
      <trkpt lat="47.10277" lon="5.70147">
        <ele>267</ele>
        <time>2010-05-21T12:54:27Z</time>
      </trkpt>
      <trkpt lat="47.10287" lon="5.70144">
        <ele>267</ele>
        <time>2010-05-21T12:54:29Z</time>
      </trkpt>
      <trkpt lat="47.10298" lon="5.70141">
        <ele>267</ele>
        <time>2010-05-21T12:54:31Z</time>
      </trkpt>
      <trkpt lat="47.10308" lon="5.7014">
        <ele>272</ele>
        <time>2010-05-21T12:54:33Z</time>
      </trkpt>
      <trkpt lat="47.10318" lon="5.70138">
        <ele>272</ele>
        <time>2010-05-21T12:54:35Z</time>
      </trkpt>
      <trkpt lat="47.10329" lon="5.70136">
        <ele>272</ele>
        <time>2010-05-21T12:54:37Z</time>
      </trkpt>
      <trkpt lat="47.1034" lon="5.70132">
        <ele>272</ele>
        <time>2010-05-21T12:54:39Z</time>
      </trkpt>
      <trkpt lat="47.1035" lon="5.70131">
        <ele>272</ele>
        <time>2010-05-21T12:54:41Z</time>
      </trkpt>
      <trkpt lat="47.10363" lon="5.70128">
        <ele>281</ele>
        <time>2010-05-21T12:54:44Z</time>
      </trkpt>
      <trkpt lat="47.10373" lon="5.70124">
        <ele>281</ele>
        <time>2010-05-21T12:54:46Z</time>
      </trkpt>
      <trkpt lat="47.10383" lon="5.7012">
        <ele>281</ele>
        <time>2010-05-21T12:54:48Z</time>
      </trkpt>
      <trkpt lat="47.10394" lon="5.70118">
        <ele>281</ele>
        <time>2010-05-21T12:54:50Z</time>
      </trkpt>
      <trkpt lat="47.10405" lon="5.70114">
        <ele>281</ele>
        <time>2010-05-21T12:54:52Z</time>
      </trkpt>
      <trkpt lat="47.10416" lon="5.7011">
        <ele>281</ele>
        <time>2010-05-21T12:54:54Z</time>
      </trkpt>
      <trkpt lat="47.10427" lon="5.70108">
        <ele>281</ele>
        <time>2010-05-21T12:54:56Z</time>
      </trkpt>
      <trkpt lat="47.10438" lon="5.70104">
        <ele>281</ele>
        <time>2010-05-21T12:54:58Z</time>
      </trkpt>
      <trkpt lat="47.10449" lon="5.70101">
        <ele>281</ele>
        <time>2010-05-21T12:55:00Z</time>
      </trkpt>
      <trkpt lat="47.10462" lon="5.70099">
        <ele>281</ele>
        <time>2010-05-21T12:55:02Z</time>
      </trkpt>
      <trkpt lat="47.10473" lon="5.70096">
        <ele>281</ele>
        <time>2010-05-21T12:55:04Z</time>
      </trkpt>
      <trkpt lat="47.10484" lon="5.70093">
        <ele>281</ele>
        <time>2010-05-21T12:55:06Z</time>
      </trkpt>
      <trkpt lat="47.10496" lon="5.70091">
        <ele>274</ele>
        <time>2010-05-21T12:55:08Z</time>
      </trkpt>
      <trkpt lat="47.10507" lon="5.70088">
        <ele>274</ele>
        <time>2010-05-21T12:55:10Z</time>
      </trkpt>
      <trkpt lat="47.10518" lon="5.70085">
        <ele>274</ele>
        <time>2010-05-21T12:55:12Z</time>
      </trkpt>
      <trkpt lat="47.10529" lon="5.70083">
        <ele>274</ele>
        <time>2010-05-21T12:55:14Z</time>
      </trkpt>
      <trkpt lat="47.1054" lon="5.70079">
        <ele>274</ele>
        <time>2010-05-21T12:55:16Z</time>
      </trkpt>
      <trkpt lat="47.10551" lon="5.70076">
        <ele>274</ele>
        <time>2010-05-21T12:55:18Z</time>
      </trkpt>
      <trkpt lat="47.10563" lon="5.70075">
        <ele>274</ele>
        <time>2010-05-21T12:55:20Z</time>
      </trkpt>
      <trkpt lat="47.10573" lon="5.70072">
        <ele>274</ele>
        <time>2010-05-21T12:55:22Z</time>
      </trkpt>
      <trkpt lat="47.10585" lon="5.70068">
        <ele>274</ele>
        <time>2010-05-21T12:55:24Z</time>
      </trkpt>
      <trkpt lat="47.10596" lon="5.70065">
        <ele>274</ele>
        <time>2010-05-21T12:55:26Z</time>
      </trkpt>
      <trkpt lat="47.10607" lon="5.70063">
        <ele>274</ele>
        <time>2010-05-21T12:55:28Z</time>
      </trkpt>
      <trkpt lat="47.10619" lon="5.70059">
        <ele>269</ele>
        <time>2010-05-21T12:55:30Z</time>
      </trkpt>
      <trkpt lat="47.1063" lon="5.70057">
        <ele>269</ele>
        <time>2010-05-21T12:55:32Z</time>
      </trkpt>
      <trkpt lat="47.10641" lon="5.70054">
        <ele>269</ele>
        <time>2010-05-21T12:55:34Z</time>
      </trkpt>
      <trkpt lat="47.10654" lon="5.70051">
        <ele>269</ele>
        <time>2010-05-21T12:55:36Z</time>
      </trkpt>
      <trkpt lat="47.10665" lon="5.70048">
        <ele>269</ele>
        <time>2010-05-21T12:55:38Z</time>
      </trkpt>
      <trkpt lat="47.10678" lon="5.70046">
        <ele>269</ele>
        <time>2010-05-21T12:55:40Z</time>
      </trkpt>
      <trkpt lat="47.10691" lon="5.70044">
        <ele>269</ele>
        <time>2010-05-21T12:55:42Z</time>
      </trkpt>
      <trkpt lat="47.10705" lon="5.7004">
        <ele>269</ele>
        <time>2010-05-21T12:55:44Z</time>
      </trkpt>
      <trkpt lat="47.10719" lon="5.70036">
        <ele>269</ele>
        <time>2010-05-21T12:55:46Z</time>
      </trkpt>
      <trkpt lat="47.10733" lon="5.70032">
        <ele>264</ele>
        <time>2010-05-21T12:55:48Z</time>
      </trkpt>
      <trkpt lat="47.10749" lon="5.70029">
        <ele>264</ele>
        <time>2010-05-21T12:55:50Z</time>
      </trkpt>
      <trkpt lat="47.10764" lon="5.70025">
        <ele>264</ele>
        <time>2010-05-21T12:55:52Z</time>
      </trkpt>
      <trkpt lat="47.10779" lon="5.70021">
        <ele>264</ele>
        <time>2010-05-21T12:55:54Z</time>
      </trkpt>
      <trkpt lat="47.10795" lon="5.70018">
        <ele>264</ele>
        <time>2010-05-21T12:55:56Z</time>
      </trkpt>
      <trkpt lat="47.10809" lon="5.70013">
        <ele>264</ele>
        <time>2010-05-21T12:55:58Z</time>
      </trkpt>
      <trkpt lat="47.10824" lon="5.70011">
        <ele>264</ele>
        <time>2010-05-21T12:56:00Z</time>
      </trkpt>
      <trkpt lat="47.10839" lon="5.70007">
        <ele>264</ele>
        <time>2010-05-21T12:56:02Z</time>
      </trkpt>
      <trkpt lat="47.10854" lon="5.70003">
        <ele>264</ele>
        <time>2010-05-21T12:56:04Z</time>
      </trkpt>
      <trkpt lat="47.10868" lon="5.7">
        <ele>264</ele>
        <time>2010-05-21T12:56:06Z</time>
      </trkpt>
      <trkpt lat="47.10882" lon="5.69996">
        <ele>264</ele>
        <time>2010-05-21T12:56:08Z</time>
      </trkpt>
      <trkpt lat="47.10895" lon="5.69993">
        <ele>264</ele>
        <time>2010-05-21T12:56:10Z</time>
      </trkpt>
      <trkpt lat="47.10909" lon="5.69989">
        <ele>264</ele>
        <time>2010-05-21T12:56:12Z</time>
      </trkpt>
      <trkpt lat="47.10922" lon="5.69986">
        <ele>264</ele>
        <time>2010-05-21T12:56:14Z</time>
      </trkpt>
      <trkpt lat="47.10934" lon="5.69984">
        <ele>264</ele>
        <time>2010-05-21T12:56:16Z</time>
      </trkpt>
      <trkpt lat="47.10946" lon="5.6998">
        <ele>264</ele>
        <time>2010-05-21T12:56:18Z</time>
      </trkpt>
      <trkpt lat="47.10957" lon="5.69978">
        <ele>264</ele>
        <time>2010-05-21T12:56:20Z</time>
      </trkpt>
      <trkpt lat="47.10967" lon="5.69976">
        <ele>264</ele>
        <time>2010-05-21T12:56:22Z</time>
      </trkpt>
      <trkpt lat="47.10976" lon="5.69973">
        <ele>264</ele>
        <time>2010-05-21T12:56:24Z</time>
      </trkpt>
      <trkpt lat="47.10986" lon="5.69971">
        <ele>264</ele>
        <time>2010-05-21T12:56:26Z</time>
      </trkpt>
      <trkpt lat="47.10996" lon="5.69969">
        <ele>264</ele>
        <time>2010-05-21T12:56:28Z</time>
      </trkpt>
      <trkpt lat="47.11006" lon="5.69966">
        <ele>264</ele>
        <time>2010-05-21T12:56:30Z</time>
      </trkpt>
      <trkpt lat="47.11016" lon="5.69963">
        <ele>264</ele>
        <time>2010-05-21T12:56:32Z</time>
      </trkpt>
      <trkpt lat="47.11026" lon="5.6996">
        <ele>264</ele>
        <time>2010-05-21T12:56:34Z</time>
      </trkpt>
      <trkpt lat="47.11037" lon="5.69957">
        <ele>264</ele>
        <time>2010-05-21T12:56:36Z</time>
      </trkpt>
      <trkpt lat="47.11047" lon="5.69955">
        <ele>264</ele>
        <time>2010-05-21T12:56:38Z</time>
      </trkpt>
      <trkpt lat="47.11058" lon="5.69952">
        <ele>269</ele>
        <time>2010-05-21T12:56:40Z</time>
      </trkpt>
      <trkpt lat="47.11068" lon="5.6995">
        <ele>269</ele>
        <time>2010-05-21T12:56:42Z</time>
      </trkpt>
      <trkpt lat="47.11079" lon="5.69947">
        <ele>269</ele>
        <time>2010-05-21T12:56:44Z</time>
      </trkpt>
      <trkpt lat="47.1109" lon="5.69945">
        <ele>269</ele>
        <time>2010-05-21T12:56:46Z</time>
      </trkpt>
      <trkpt lat="47.11099" lon="5.69942">
        <ele>269</ele>
        <time>2010-05-21T12:56:48Z</time>
      </trkpt>
      <trkpt lat="47.11111" lon="5.6994">
        <ele>269</ele>
        <time>2010-05-21T12:56:50Z</time>
      </trkpt>
      <trkpt lat="47.11121" lon="5.69937">
        <ele>269</ele>
        <time>2010-05-21T12:56:52Z</time>
      </trkpt>
      <trkpt lat="47.11132" lon="5.69934">
        <ele>269</ele>
        <time>2010-05-21T12:56:54Z</time>
      </trkpt>
      <trkpt lat="47.11144" lon="5.69932">
        <ele>269</ele>
        <time>2010-05-21T12:56:56Z</time>
      </trkpt>
      <trkpt lat="47.11155" lon="5.69929">
        <ele>269</ele>
        <time>2010-05-21T12:56:58Z</time>
      </trkpt>
      <trkpt lat="47.11167" lon="5.69926">
        <ele>269</ele>
        <time>2010-05-21T12:57:00Z</time>
      </trkpt>
      <trkpt lat="47.11179" lon="5.69923">
        <ele>269</ele>
        <time>2010-05-21T12:57:02Z</time>
      </trkpt>
      <trkpt lat="47.11191" lon="5.6992">
        <ele>269</ele>
        <time>2010-05-21T12:57:04Z</time>
      </trkpt>
      <trkpt lat="47.11203" lon="5.69916">
        <ele>269</ele>
        <time>2010-05-21T12:57:06Z</time>
      </trkpt>
      <trkpt lat="47.11214" lon="5.69914">
        <ele>275</ele>
        <time>2010-05-21T12:57:08Z</time>
      </trkpt>
      <trkpt lat="47.11225" lon="5.69912">
        <ele>275</ele>
        <time>2010-05-21T12:57:10Z</time>
      </trkpt>
      <trkpt lat="47.11237" lon="5.69909">
        <ele>275</ele>
        <time>2010-05-21T12:57:12Z</time>
      </trkpt>
      <trkpt lat="47.11248" lon="5.69906">
        <ele>275</ele>
        <time>2010-05-21T12:57:14Z</time>
      </trkpt>
      <trkpt lat="47.11261" lon="5.69904">
        <ele>275</ele>
        <time>2010-05-21T12:57:16Z</time>
      </trkpt>
      <trkpt lat="47.11272" lon="5.69901">
        <ele>275</ele>
        <time>2010-05-21T12:57:18Z</time>
      </trkpt>
      <trkpt lat="47.11285" lon="5.69897">
        <ele>275</ele>
        <time>2010-05-21T12:57:20Z</time>
      </trkpt>
      <trkpt lat="47.11298" lon="5.69893">
        <ele>275</ele>
        <time>2010-05-21T12:57:22Z</time>
      </trkpt>
      <trkpt lat="47.11312" lon="5.69889">
        <ele>275</ele>
        <time>2010-05-21T12:57:24Z</time>
      </trkpt>
      <trkpt lat="47.11324" lon="5.69887">
        <ele>275</ele>
        <time>2010-05-21T12:57:26Z</time>
      </trkpt>
      <trkpt lat="47.11336" lon="5.69884">
        <ele>281</ele>
        <time>2010-05-21T12:57:28Z</time>
      </trkpt>
      <trkpt lat="47.11348" lon="5.6988">
        <ele>281</ele>
        <time>2010-05-21T12:57:30Z</time>
      </trkpt>
      <trkpt lat="47.11361" lon="5.69877">
        <ele>281</ele>
        <time>2010-05-21T12:57:32Z</time>
      </trkpt>
      <trkpt lat="47.11374" lon="5.69874">
        <ele>281</ele>
        <time>2010-05-21T12:57:34Z</time>
      </trkpt>
      <trkpt lat="47.11386" lon="5.69872">
        <ele>281</ele>
        <time>2010-05-21T12:57:36Z</time>
      </trkpt>
      <trkpt lat="47.11399" lon="5.69868">
        <ele>281</ele>
        <time>2010-05-21T12:57:38Z</time>
      </trkpt>
      <trkpt lat="47.11412" lon="5.69864">
        <ele>281</ele>
        <time>2010-05-21T12:57:40Z</time>
      </trkpt>
      <trkpt lat="47.11425" lon="5.6986">
        <ele>281</ele>
        <time>2010-05-21T12:57:42Z</time>
      </trkpt>
      <trkpt lat="47.11437" lon="5.69856">
        <ele>281</ele>
        <time>2010-05-21T12:57:44Z</time>
      </trkpt>
      <trkpt lat="47.1145" lon="5.69854">
        <ele>281</ele>
        <time>2010-05-21T12:57:46Z</time>
      </trkpt>
      <trkpt lat="47.11463" lon="5.6985">
        <ele>281</ele>
        <time>2010-05-21T12:57:48Z</time>
      </trkpt>
      <trkpt lat="47.11475" lon="5.69845">
        <ele>281</ele>
        <time>2010-05-21T12:57:50Z</time>
      </trkpt>
      <trkpt lat="47.11488" lon="5.69843">
        <ele>275</ele>
        <time>2010-05-21T12:57:52Z</time>
      </trkpt>
      <trkpt lat="47.115" lon="5.6984">
        <ele>275</ele>
        <time>2010-05-21T12:57:54Z</time>
      </trkpt>
      <trkpt lat="47.11513" lon="5.69836">
        <ele>275</ele>
        <time>2010-05-21T12:57:56Z</time>
      </trkpt>
      <trkpt lat="47.11528" lon="5.69834">
        <ele>275</ele>
        <time>2010-05-21T12:57:58Z</time>
      </trkpt>
      <trkpt lat="47.11541" lon="5.69831">
        <ele>275</ele>
        <time>2010-05-21T12:58:00Z</time>
      </trkpt>
      <trkpt lat="47.11554" lon="5.69827">
        <ele>275</ele>
        <time>2010-05-21T12:58:02Z</time>
      </trkpt>
      <trkpt lat="47.11567" lon="5.69824">
        <ele>275</ele>
        <time>2010-05-21T12:58:04Z</time>
      </trkpt>
      <trkpt lat="47.1158" lon="5.69821">
        <ele>275</ele>
        <time>2010-05-21T12:58:06Z</time>
      </trkpt>
      <trkpt lat="47.11594" lon="5.69818">
        <ele>269</ele>
        <time>2010-05-21T12:58:08Z</time>
      </trkpt>
      <trkpt lat="47.11606" lon="5.69816">
        <ele>269</ele>
        <time>2010-05-21T12:58:10Z</time>
      </trkpt>
      <trkpt lat="47.11619" lon="5.69813">
        <ele>269</ele>
        <time>2010-05-21T12:58:12Z</time>
      </trkpt>
      <trkpt lat="47.11631" lon="5.6981">
        <ele>269</ele>
        <time>2010-05-21T12:58:14Z</time>
      </trkpt>
      <trkpt lat="47.11642" lon="5.69805">
        <ele>269</ele>
        <time>2010-05-21T12:58:16Z</time>
      </trkpt>
      <trkpt lat="47.11654" lon="5.69801">
        <ele>269</ele>
        <time>2010-05-21T12:58:18Z</time>
      </trkpt>
      <trkpt lat="47.11667" lon="5.69797">
        <ele>276</ele>
        <time>2010-05-21T12:58:20Z</time>
      </trkpt>
      <trkpt lat="47.11681" lon="5.69794">
        <ele>276</ele>
        <time>2010-05-21T12:58:22Z</time>
      </trkpt>
      <trkpt lat="47.11694" lon="5.69792">
        <ele>276</ele>
        <time>2010-05-21T12:58:24Z</time>
      </trkpt>
      <trkpt lat="47.11708" lon="5.69789">
        <ele>276</ele>
        <time>2010-05-21T12:58:26Z</time>
      </trkpt>
      <trkpt lat="47.11723" lon="5.69785">
        <ele>276</ele>
        <time>2010-05-21T12:58:28Z</time>
      </trkpt>
      <trkpt lat="47.11738" lon="5.69782">
        <ele>276</ele>
        <time>2010-05-21T12:58:30Z</time>
      </trkpt>
      <trkpt lat="47.11754" lon="5.69777">
        <ele>276</ele>
        <time>2010-05-21T12:58:32Z</time>
      </trkpt>
      <trkpt lat="47.1177" lon="5.69774">
        <ele>276</ele>
        <time>2010-05-21T12:58:34Z</time>
      </trkpt>
      <trkpt lat="47.11786" lon="5.6977">
        <ele>276</ele>
        <time>2010-05-21T12:58:36Z</time>
      </trkpt>
      <trkpt lat="47.11801" lon="5.69767">
        <ele>271</ele>
        <time>2010-05-21T12:58:38Z</time>
      </trkpt>
      <trkpt lat="47.11816" lon="5.69763">
        <ele>271</ele>
        <time>2010-05-21T12:58:40Z</time>
      </trkpt>
      <trkpt lat="47.1183" lon="5.69758">
        <ele>271</ele>
        <time>2010-05-21T12:58:42Z</time>
      </trkpt>
      <trkpt lat="47.11845" lon="5.69753">
        <ele>271</ele>
        <time>2010-05-21T12:58:44Z</time>
      </trkpt>
      <trkpt lat="47.11858" lon="5.6975">
        <ele>271</ele>
        <time>2010-05-21T12:58:46Z</time>
      </trkpt>
      <trkpt lat="47.11872" lon="5.69748">
        <ele>271</ele>
        <time>2010-05-21T12:58:48Z</time>
      </trkpt>
      <trkpt lat="47.11886" lon="5.69745">
        <ele>265</ele>
        <time>2010-05-21T12:58:50Z</time>
      </trkpt>
      <trkpt lat="47.11899" lon="5.69742">
        <ele>265</ele>
        <time>2010-05-21T12:58:52Z</time>
      </trkpt>
      <trkpt lat="47.11913" lon="5.69739">
        <ele>265</ele>
        <time>2010-05-21T12:58:54Z</time>
      </trkpt>
      <trkpt lat="47.11927" lon="5.69734">
        <ele>265</ele>
        <time>2010-05-21T12:58:56Z</time>
      </trkpt>
      <trkpt lat="47.1194" lon="5.6973">
        <ele>265</ele>
        <time>2010-05-21T12:58:58Z</time>
      </trkpt>
      <trkpt lat="47.11953" lon="5.69729">
        <ele>265</ele>
        <time>2010-05-21T12:59:00Z</time>
      </trkpt>
      <trkpt lat="47.11967" lon="5.69725">
        <ele>265</ele>
        <time>2010-05-21T12:59:02Z</time>
      </trkpt>
      <trkpt lat="47.11981" lon="5.69722">
        <ele>265</ele>
        <time>2010-05-21T12:59:04Z</time>
      </trkpt>
      <trkpt lat="47.11995" lon="5.69719">
        <ele>265</ele>
        <time>2010-05-21T12:59:06Z</time>
      </trkpt>
      <trkpt lat="47.1201" lon="5.69716">
        <ele>265</ele>
        <time>2010-05-21T12:59:08Z</time>
      </trkpt>
      <trkpt lat="47.12026" lon="5.69713">
        <ele>265</ele>
        <time>2010-05-21T12:59:10Z</time>
      </trkpt>
      <trkpt lat="47.12042" lon="5.69707">
        <ele>265</ele>
        <time>2010-05-21T12:59:12Z</time>
      </trkpt>
      <trkpt lat="47.12051" lon="5.69704">
        <ele>265</ele>
        <time>2010-05-21T12:59:13Z</time>
      </trkpt>
      <trkpt lat="47.1206" lon="5.69703">
        <ele>265</ele>
        <time>2010-05-21T12:59:14Z</time>
      </trkpt>
      <trkpt lat="47.12078" lon="5.69698">
        <ele>265</ele>
        <time>2010-05-21T12:59:16Z</time>
      </trkpt>
      <trkpt lat="47.12095" lon="5.69695">
        <ele>265</ele>
        <time>2010-05-21T12:59:18Z</time>
      </trkpt>
      <trkpt lat="47.1211" lon="5.69692">
        <ele>265</ele>
        <time>2010-05-21T12:59:20Z</time>
      </trkpt>
      <trkpt lat="47.12125" lon="5.69687">
        <ele>265</ele>
        <time>2010-05-21T12:59:22Z</time>
      </trkpt>
      <trkpt lat="47.12139" lon="5.69684">
        <ele>265</ele>
        <time>2010-05-21T12:59:24Z</time>
      </trkpt>
      <trkpt lat="47.12155" lon="5.69681">
        <ele>265</ele>
        <time>2010-05-21T12:59:26Z</time>
      </trkpt>
      <trkpt lat="47.1217" lon="5.69677">
        <ele>271</ele>
        <time>2010-05-21T12:59:28Z</time>
      </trkpt>
      <trkpt lat="47.12184" lon="5.69675">
        <ele>271</ele>
        <time>2010-05-21T12:59:30Z</time>
      </trkpt>
      <trkpt lat="47.122" lon="5.6967">
        <ele>271</ele>
        <time>2010-05-21T12:59:32Z</time>
      </trkpt>
      <trkpt lat="47.12216" lon="5.69666">
        <ele>271</ele>
        <time>2010-05-21T12:59:34Z</time>
      </trkpt>
      <trkpt lat="47.12232" lon="5.69661">
        <ele>271</ele>
        <time>2010-05-21T12:59:36Z</time>
      </trkpt>
      <trkpt lat="47.12248" lon="5.69658">
        <ele>271</ele>
        <time>2010-05-21T12:59:38Z</time>
      </trkpt>
      <trkpt lat="47.12265" lon="5.69655">
        <ele>271</ele>
        <time>2010-05-21T12:59:40Z</time>
      </trkpt>
      <trkpt lat="47.12281" lon="5.69651">
        <ele>271</ele>
        <time>2010-05-21T12:59:42Z</time>
      </trkpt>
      <trkpt lat="47.12297" lon="5.69647">
        <ele>271</ele>
        <time>2010-05-21T12:59:44Z</time>
      </trkpt>
      <trkpt lat="47.12314" lon="5.69643">
        <ele>271</ele>
        <time>2010-05-21T12:59:46Z</time>
      </trkpt>
      <trkpt lat="47.12323" lon="5.6964">
        <ele>271</ele>
        <time>2010-05-21T12:59:47Z</time>
      </trkpt>
      <trkpt lat="47.12339" lon="5.69634">
        <ele>271</ele>
        <time>2010-05-21T12:59:49Z</time>
      </trkpt>
      <trkpt lat="47.12355" lon="5.6963">
        <ele>271</ele>
        <time>2010-05-21T12:59:51Z</time>
      </trkpt>
      <trkpt lat="47.12372" lon="5.69626">
        <ele>271</ele>
        <time>2010-05-21T12:59:53Z</time>
      </trkpt>
      <trkpt lat="47.12388" lon="5.69625">
        <ele>271</ele>
        <time>2010-05-21T12:59:55Z</time>
      </trkpt>
      <trkpt lat="47.12398" lon="5.69624">
        <ele>271</ele>
        <time>2010-05-21T12:59:56Z</time>
      </trkpt>
      <trkpt lat="47.12407" lon="5.69623">
        <ele>271</ele>
        <time>2010-05-21T12:59:57Z</time>
      </trkpt>
      <trkpt lat="47.12425" lon="5.69621">
        <ele>271</ele>
        <time>2010-05-21T12:59:59Z</time>
      </trkpt>
      <trkpt lat="47.12434" lon="5.69619">
        <ele>271</ele>
        <time>2010-05-21T13:00:00Z</time>
      </trkpt>
      <trkpt lat="47.12443" lon="5.69616">
        <ele>271</ele>
        <time>2010-05-21T13:00:01Z</time>
      </trkpt>
      <trkpt lat="47.12452" lon="5.69612">
        <ele>271</ele>
        <time>2010-05-21T13:00:02Z</time>
      </trkpt>
      <trkpt lat="47.1246" lon="5.69607">
        <ele>271</ele>
        <time>2010-05-21T13:00:03Z</time>
      </trkpt>
      <trkpt lat="47.12468" lon="5.69599">
        <ele>271</ele>
        <time>2010-05-21T13:00:04Z</time>
      </trkpt>
      <trkpt lat="47.12475" lon="5.6959">
        <ele>271</ele>
        <time>2010-05-21T13:00:05Z</time>
      </trkpt>
      <trkpt lat="47.12482" lon="5.6958">
        <ele>264</ele>
        <time>2010-05-21T13:00:06Z</time>
      </trkpt>
      <trkpt lat="47.12487" lon="5.69567">
        <ele>264</ele>
        <time>2010-05-21T13:00:07Z</time>
      </trkpt>
      <trkpt lat="47.12491" lon="5.69553">
        <ele>264</ele>
        <time>2010-05-21T13:00:08Z</time>
      </trkpt>
      <trkpt lat="47.12493" lon="5.69536">
        <ele>264</ele>
        <time>2010-05-21T13:00:09Z</time>
      </trkpt>
      <trkpt lat="47.12496" lon="5.6952">
        <ele>258</ele>
        <time>2010-05-21T13:00:10Z</time>
      </trkpt>
      <trkpt lat="47.125" lon="5.69506">
        <ele>258</ele>
        <time>2010-05-21T13:00:11Z</time>
      </trkpt>
      <trkpt lat="47.12504" lon="5.69492">
        <ele>258</ele>
        <time>2010-05-21T13:00:12Z</time>
      </trkpt>
      <trkpt lat="47.12508" lon="5.69477">
        <ele>258</ele>
        <time>2010-05-21T13:00:13Z</time>
      </trkpt>
      <trkpt lat="47.12511" lon="5.69464">
        <ele>258</ele>
        <time>2010-05-21T13:00:14Z</time>
      </trkpt>
      <trkpt lat="47.12515" lon="5.69451">
        <ele>258</ele>
        <time>2010-05-21T13:00:15Z</time>
      </trkpt>
      <trkpt lat="47.12519" lon="5.69439">
        <ele>251</ele>
        <time>2010-05-21T13:00:16Z</time>
      </trkpt>
      <trkpt lat="47.12529" lon="5.69418">
        <ele>251</ele>
        <time>2010-05-21T13:00:18Z</time>
      </trkpt>
      <trkpt lat="47.12535" lon="5.69407">
        <ele>251</ele>
        <time>2010-05-21T13:00:19Z</time>
      </trkpt>
      <trkpt lat="47.12542" lon="5.69397">
        <ele>251</ele>
        <time>2010-05-21T13:00:20Z</time>
      </trkpt>
      <trkpt lat="47.12549" lon="5.69386">
        <ele>246</ele>
        <time>2010-05-21T13:00:21Z</time>
      </trkpt>
      <trkpt lat="47.12556" lon="5.69377">
        <ele>246</ele>
        <time>2010-05-21T13:00:22Z</time>
      </trkpt>
      <trkpt lat="47.12563" lon="5.69367">
        <ele>246</ele>
        <time>2010-05-21T13:00:23Z</time>
      </trkpt>
      <trkpt lat="47.1257" lon="5.69358">
        <ele>246</ele>
        <time>2010-05-21T13:00:24Z</time>
      </trkpt>
      <trkpt lat="47.12577" lon="5.69349">
        <ele>246</ele>
        <time>2010-05-21T13:00:25Z</time>
      </trkpt>
      <trkpt lat="47.12585" lon="5.6934">
        <ele>241</ele>
        <time>2010-05-21T13:00:26Z</time>
      </trkpt>
      <trkpt lat="47.12594" lon="5.69331">
        <ele>241</ele>
        <time>2010-05-21T13:00:27Z</time>
      </trkpt>
      <trkpt lat="47.12604" lon="5.69323">
        <ele>241</ele>
        <time>2010-05-21T13:00:28Z</time>
      </trkpt>
      <trkpt lat="47.12613" lon="5.69316">
        <ele>241</ele>
        <time>2010-05-21T13:00:29Z</time>
      </trkpt>
      <trkpt lat="47.12624" lon="5.69312">
        <ele>241</ele>
        <time>2010-05-21T13:00:30Z</time>
      </trkpt>
      <trkpt lat="47.12636" lon="5.69308">
        <ele>241</ele>
        <time>2010-05-21T13:00:31Z</time>
      </trkpt>
      <trkpt lat="47.12648" lon="5.69305">
        <ele>235</ele>
        <time>2010-05-21T13:00:32Z</time>
      </trkpt>
      <trkpt lat="47.12658" lon="5.69301">
        <ele>235</ele>
        <time>2010-05-21T13:00:33Z</time>
      </trkpt>
      <trkpt lat="47.12669" lon="5.69297">
        <ele>235</ele>
        <time>2010-05-21T13:00:34Z</time>
      </trkpt>
      <trkpt lat="47.1268" lon="5.69295">
        <ele>235</ele>
        <time>2010-05-21T13:00:35Z</time>
      </trkpt>
      <trkpt lat="47.1269" lon="5.69291">
        <ele>235</ele>
        <time>2010-05-21T13:00:36Z</time>
      </trkpt>
      <trkpt lat="47.127" lon="5.69289">
        <ele>235</ele>
        <time>2010-05-21T13:00:37Z</time>
      </trkpt>
      <trkpt lat="47.12709" lon="5.69288">
        <ele>230</ele>
        <time>2010-05-21T13:00:38Z</time>
      </trkpt>
      <trkpt lat="47.12718" lon="5.69288">
        <ele>230</ele>
        <time>2010-05-21T13:00:39Z</time>
      </trkpt>
      <trkpt lat="47.12727" lon="5.69289">
        <ele>230</ele>
        <time>2010-05-21T13:00:40Z</time>
      </trkpt>
      <trkpt lat="47.12745" lon="5.69292">
        <ele>230</ele>
        <time>2010-05-21T13:00:42Z</time>
      </trkpt>
      <trkpt lat="47.1276" lon="5.69295">
        <ele>230</ele>
        <time>2010-05-21T13:00:44Z</time>
      </trkpt>
      <trkpt lat="47.12774" lon="5.69297">
        <ele>230</ele>
        <time>2010-05-21T13:00:46Z</time>
      </trkpt>
      <trkpt lat="47.12788" lon="5.69298">
        <ele>224</ele>
        <time>2010-05-21T13:00:48Z</time>
      </trkpt>
      <trkpt lat="47.12802" lon="5.69299">
        <ele>224</ele>
        <time>2010-05-21T13:00:50Z</time>
      </trkpt>
      <trkpt lat="47.12816" lon="5.693">
        <ele>224</ele>
        <time>2010-05-21T13:00:52Z</time>
      </trkpt>
      <trkpt lat="47.12831" lon="5.693">
        <ele>224</ele>
        <time>2010-05-21T13:00:54Z</time>
      </trkpt>
      <trkpt lat="47.12846" lon="5.69302">
        <ele>224</ele>
        <time>2010-05-21T13:00:56Z</time>
      </trkpt>
      <trkpt lat="47.12861" lon="5.69302">
        <ele>224</ele>
        <time>2010-05-21T13:00:58Z</time>
      </trkpt>
      <trkpt lat="47.12875" lon="5.69302">
        <ele>224</ele>
        <time>2010-05-21T13:01:00Z</time>
      </trkpt>
      <trkpt lat="47.12889" lon="5.69302">
        <ele>224</ele>
        <time>2010-05-21T13:01:02Z</time>
      </trkpt>
      <trkpt lat="47.12903" lon="5.69301">
        <ele>224</ele>
        <time>2010-05-21T13:01:04Z</time>
      </trkpt>
      <trkpt lat="47.12918" lon="5.69299">
        <ele>224</ele>
        <time>2010-05-21T13:01:06Z</time>
      </trkpt>
      <trkpt lat="47.12932" lon="5.69298">
        <ele>224</ele>
        <time>2010-05-21T13:01:08Z</time>
      </trkpt>
      <trkpt lat="47.12947" lon="5.69294">
        <ele>224</ele>
        <time>2010-05-21T13:01:10Z</time>
      </trkpt>
      <trkpt lat="47.1296" lon="5.69289">
        <ele>224</ele>
        <time>2010-05-21T13:01:12Z</time>
      </trkpt>
      <trkpt lat="47.12974" lon="5.69285">
        <ele>224</ele>
        <time>2010-05-21T13:01:14Z</time>
      </trkpt>
      <trkpt lat="47.12986" lon="5.69281">
        <ele>224</ele>
        <time>2010-05-21T13:01:16Z</time>
      </trkpt>
      <trkpt lat="47.12998" lon="5.69278">
        <ele>224</ele>
        <time>2010-05-21T13:01:18Z</time>
      </trkpt>
      <trkpt lat="47.13009" lon="5.69273">
        <ele>224</ele>
        <time>2010-05-21T13:01:20Z</time>
      </trkpt>
      <trkpt lat="47.1302" lon="5.69271">
        <ele>224</ele>
        <time>2010-05-21T13:01:22Z</time>
      </trkpt>
      <trkpt lat="47.1303" lon="5.69267">
        <ele>224</ele>
        <time>2010-05-21T13:01:24Z</time>
      </trkpt>
      <trkpt lat="47.13041" lon="5.69266">
        <ele>224</ele>
        <time>2010-05-21T13:01:26Z</time>
      </trkpt>
      <trkpt lat="47.13051" lon="5.69265">
        <ele>224</ele>
        <time>2010-05-21T13:01:28Z</time>
      </trkpt>
      <trkpt lat="47.13061" lon="5.69265">
        <ele>224</ele>
        <time>2010-05-21T13:01:30Z</time>
      </trkpt>
      <trkpt lat="47.13071" lon="5.69266">
        <ele>224</ele>
        <time>2010-05-21T13:01:32Z</time>
      </trkpt>
      <trkpt lat="47.1308" lon="5.69265">
        <ele>224</ele>
        <time>2010-05-21T13:01:34Z</time>
      </trkpt>
      <trkpt lat="47.13093" lon="5.69267">
        <ele>224</ele>
        <time>2010-05-21T13:01:37Z</time>
      </trkpt>
      <trkpt lat="47.13103" lon="5.69267">
        <ele>224</ele>
        <time>2010-05-21T13:01:39Z</time>
      </trkpt>
      <trkpt lat="47.13112" lon="5.69268">
        <ele>224</ele>
        <time>2010-05-21T13:01:41Z</time>
      </trkpt>
      <trkpt lat="47.13123" lon="5.69266">
        <ele>224</ele>
        <time>2010-05-21T13:01:44Z</time>
      </trkpt>
      <trkpt lat="47.13133" lon="5.69264">
        <ele>224</ele>
        <time>2010-05-21T13:01:47Z</time>
      </trkpt>
      <trkpt lat="47.13143" lon="5.69262">
        <ele>224</ele>
        <time>2010-05-21T13:01:51Z</time>
      </trkpt>
      <trkpt lat="47.13151" lon="5.69253">
        <ele>218</ele>
        <time>2010-05-21T13:03:45Z</time>
      </trkpt>
      <trkpt lat="47.13148" lon="5.69236">
        <ele>218</ele>
        <time>2010-05-21T13:03:49Z</time>
      </trkpt>
      <trkpt lat="47.13144" lon="5.69221">
        <ele>218</ele>
        <time>2010-05-21T13:03:52Z</time>
      </trkpt>
      <trkpt lat="47.1314" lon="5.69207">
        <ele>218</ele>
        <time>2010-05-21T13:03:55Z</time>
      </trkpt>
      <trkpt lat="47.13136" lon="5.69191">
        <ele>218</ele>
        <time>2010-05-21T13:03:58Z</time>
      </trkpt>
      <trkpt lat="47.13132" lon="5.69175">
        <ele>218</ele>
        <time>2010-05-21T13:04:01Z</time>
      </trkpt>
      <trkpt lat="47.13128" lon="5.69159">
        <ele>218</ele>
        <time>2010-05-21T13:04:04Z</time>
      </trkpt>
      <trkpt lat="47.13124" lon="5.69146">
        <ele>218</ele>
        <time>2010-05-21T13:04:07Z</time>
      </trkpt>
      <trkpt lat="47.1312" lon="5.6913">
        <ele>218</ele>
        <time>2010-05-21T13:04:10Z</time>
      </trkpt>
      <trkpt lat="47.13115" lon="5.69117">
        <ele>218</ele>
        <time>2010-05-21T13:04:13Z</time>
      </trkpt>
      <trkpt lat="47.13109" lon="5.69103">
        <ele>218</ele>
        <time>2010-05-21T13:04:16Z</time>
      </trkpt>
      <trkpt lat="47.13102" lon="5.69093">
        <ele>218</ele>
        <time>2010-05-21T13:04:19Z</time>
      </trkpt>
      <trkpt lat="47.13095" lon="5.6908">
        <ele>218</ele>
        <time>2010-05-21T13:04:23Z</time>
      </trkpt>
      <trkpt lat="47.1309" lon="5.69067">
        <ele>218</ele>
        <time>2010-05-21T13:04:27Z</time>
      </trkpt>
      <trkpt lat="47.13084" lon="5.69055">
        <ele>218</ele>
        <time>2010-05-21T13:04:30Z</time>
      </trkpt>
      <trkpt lat="47.13082" lon="5.69034">
        <ele>218</ele>
        <time>2010-05-21T13:04:33Z</time>
      </trkpt>
      <trkpt lat="47.13089" lon="5.69017">
        <ele>218</ele>
        <time>2010-05-21T13:04:35Z</time>
      </trkpt>
      <trkpt lat="47.13097" lon="5.68999">
        <ele>224</ele>
        <time>2010-05-21T13:04:37Z</time>
      </trkpt>
      <trkpt lat="47.13108" lon="5.68979">
        <ele>224</ele>
        <time>2010-05-21T13:04:39Z</time>
      </trkpt>
      <trkpt lat="47.13119" lon="5.68961">
        <ele>224</ele>
        <time>2010-05-21T13:04:41Z</time>
      </trkpt>
      <trkpt lat="47.13125" lon="5.68952">
        <ele>224</ele>
        <time>2010-05-21T13:04:42Z</time>
      </trkpt>
      <trkpt lat="47.13138" lon="5.68935">
        <ele>224</ele>
        <time>2010-05-21T13:04:44Z</time>
      </trkpt>
      <trkpt lat="47.1315" lon="5.68918">
        <ele>224</ele>
        <time>2010-05-21T13:04:46Z</time>
      </trkpt>
      <trkpt lat="47.1316" lon="5.689">
        <ele>224</ele>
        <time>2010-05-21T13:04:48Z</time>
      </trkpt>
      <trkpt lat="47.13168" lon="5.68882">
        <ele>224</ele>
        <time>2010-05-21T13:04:50Z</time>
      </trkpt>
      <trkpt lat="47.13174" lon="5.68861">
        <ele>224</ele>
        <time>2010-05-21T13:04:52Z</time>
      </trkpt>
      <trkpt lat="47.13179" lon="5.68841">
        <ele>218</ele>
        <time>2010-05-21T13:04:54Z</time>
      </trkpt>
      <trkpt lat="47.13185" lon="5.68821">
        <ele>218</ele>
        <time>2010-05-21T13:04:56Z</time>
      </trkpt>
      <trkpt lat="47.13191" lon="5.68802">
        <ele>218</ele>
        <time>2010-05-21T13:04:58Z</time>
      </trkpt>
      <trkpt lat="47.13196" lon="5.68782">
        <ele>218</ele>
        <time>2010-05-21T13:05:00Z</time>
      </trkpt>
      <trkpt lat="47.13202" lon="5.68763">
        <ele>218</ele>
        <time>2010-05-21T13:05:02Z</time>
      </trkpt>
      <trkpt lat="47.13208" lon="5.68744">
        <ele>218</ele>
        <time>2010-05-21T13:05:04Z</time>
      </trkpt>
      <trkpt lat="47.13214" lon="5.68726">
        <ele>218</ele>
        <time>2010-05-21T13:05:06Z</time>
      </trkpt>
      <trkpt lat="47.13219" lon="5.68708">
        <ele>218</ele>
        <time>2010-05-21T13:05:08Z</time>
      </trkpt>
      <trkpt lat="47.13223" lon="5.68689">
        <ele>218</ele>
        <time>2010-05-21T13:05:10Z</time>
      </trkpt>
      <trkpt lat="47.13228" lon="5.6867">
        <ele>218</ele>
        <time>2010-05-21T13:05:12Z</time>
      </trkpt>
      <trkpt lat="47.13233" lon="5.6865">
        <ele>213</ele>
        <time>2010-05-21T13:05:14Z</time>
      </trkpt>
      <trkpt lat="47.13235" lon="5.6863">
        <ele>213</ele>
        <time>2010-05-21T13:05:16Z</time>
      </trkpt>
      <trkpt lat="47.13236" lon="5.68609">
        <ele>213</ele>
        <time>2010-05-21T13:05:18Z</time>
      </trkpt>
      <trkpt lat="47.13237" lon="5.6859">
        <ele>213</ele>
        <time>2010-05-21T13:05:20Z</time>
      </trkpt>
      <trkpt lat="47.13237" lon="5.68571">
        <ele>213</ele>
        <time>2010-05-21T13:05:22Z</time>
      </trkpt>
      <trkpt lat="47.13236" lon="5.68553">
        <ele>213</ele>
        <time>2010-05-21T13:05:24Z</time>
      </trkpt>
      <trkpt lat="47.13235" lon="5.68535">
        <ele>213</ele>
        <time>2010-05-21T13:05:26Z</time>
      </trkpt>
      <trkpt lat="47.13234" lon="5.68516">
        <ele>213</ele>
        <time>2010-05-21T13:05:28Z</time>
      </trkpt>
      <trkpt lat="47.13233" lon="5.68499">
        <ele>213</ele>
        <time>2010-05-21T13:05:30Z</time>
      </trkpt>
      <trkpt lat="47.13232" lon="5.68481">
        <ele>213</ele>
        <time>2010-05-21T13:05:32Z</time>
      </trkpt>
      <trkpt lat="47.13231" lon="5.68462">
        <ele>213</ele>
        <time>2010-05-21T13:05:34Z</time>
      </trkpt>
      <trkpt lat="47.13231" lon="5.68443">
        <ele>213</ele>
        <time>2010-05-21T13:05:36Z</time>
      </trkpt>
      <trkpt lat="47.13231" lon="5.68424">
        <ele>213</ele>
        <time>2010-05-21T13:05:38Z</time>
      </trkpt>
      <trkpt lat="47.13233" lon="5.68405">
        <ele>213</ele>
        <time>2010-05-21T13:05:40Z</time>
      </trkpt>
      <trkpt lat="47.13234" lon="5.68387">
        <ele>213</ele>
        <time>2010-05-21T13:05:42Z</time>
      </trkpt>
      <trkpt lat="47.13235" lon="5.68369">
        <ele>213</ele>
        <time>2010-05-21T13:05:44Z</time>
      </trkpt>
      <trkpt lat="47.13236" lon="5.68351">
        <ele>213</ele>
        <time>2010-05-21T13:05:46Z</time>
      </trkpt>
      <trkpt lat="47.13236" lon="5.68333">
        <ele>213</ele>
        <time>2010-05-21T13:05:48Z</time>
      </trkpt>
      <trkpt lat="47.13236" lon="5.68316">
        <ele>213</ele>
        <time>2010-05-21T13:05:50Z</time>
      </trkpt>
      <trkpt lat="47.13236" lon="5.68298">
        <ele>208</ele>
        <time>2010-05-21T13:05:52Z</time>
      </trkpt>
      <trkpt lat="47.13235" lon="5.6828">
        <ele>208</ele>
        <time>2010-05-21T13:05:54Z</time>
      </trkpt>
      <trkpt lat="47.13234" lon="5.68263">
        <ele>208</ele>
        <time>2010-05-21T13:05:56Z</time>
      </trkpt>
      <trkpt lat="47.13233" lon="5.68246">
        <ele>208</ele>
        <time>2010-05-21T13:05:58Z</time>
      </trkpt>
      <trkpt lat="47.13231" lon="5.68228">
        <ele>208</ele>
        <time>2010-05-21T13:06:00Z</time>
      </trkpt>
      <trkpt lat="47.13231" lon="5.68212">
        <ele>208</ele>
        <time>2010-05-21T13:06:02Z</time>
      </trkpt>
      <trkpt lat="47.1323" lon="5.68196">
        <ele>208</ele>
        <time>2010-05-21T13:06:04Z</time>
      </trkpt>
      <trkpt lat="47.13229" lon="5.68179">
        <ele>208</ele>
        <time>2010-05-21T13:06:06Z</time>
      </trkpt>
      <trkpt lat="47.13228" lon="5.68162">
        <ele>208</ele>
        <time>2010-05-21T13:06:08Z</time>
      </trkpt>
      <trkpt lat="47.13227" lon="5.68146">
        <ele>208</ele>
        <time>2010-05-21T13:06:10Z</time>
      </trkpt>
      <trkpt lat="47.13225" lon="5.68129">
        <ele>208</ele>
        <time>2010-05-21T13:06:12Z</time>
      </trkpt>
      <trkpt lat="47.13225" lon="5.68113">
        <ele>208</ele>
        <time>2010-05-21T13:06:14Z</time>
      </trkpt>
      <trkpt lat="47.13223" lon="5.68096">
        <ele>208</ele>
        <time>2010-05-21T13:06:16Z</time>
      </trkpt>
      <trkpt lat="47.13222" lon="5.68079">
        <ele>208</ele>
        <time>2010-05-21T13:06:18Z</time>
      </trkpt>
      <trkpt lat="47.13221" lon="5.68061">
        <ele>208</ele>
        <time>2010-05-21T13:06:20Z</time>
      </trkpt>
      <trkpt lat="47.1322" lon="5.68044">
        <ele>208</ele>
        <time>2010-05-21T13:06:22Z</time>
      </trkpt>
      <trkpt lat="47.13219" lon="5.68026">
        <ele>208</ele>
        <time>2010-05-21T13:06:24Z</time>
      </trkpt>
      <trkpt lat="47.13218" lon="5.68009">
        <ele>208</ele>
        <time>2010-05-21T13:06:26Z</time>
      </trkpt>
      <trkpt lat="47.13217" lon="5.67993">
        <ele>208</ele>
        <time>2010-05-21T13:06:28Z</time>
      </trkpt>
      <trkpt lat="47.13215" lon="5.67976">
        <ele>208</ele>
        <time>2010-05-21T13:06:30Z</time>
      </trkpt>
      <trkpt lat="47.13215" lon="5.6796">
        <ele>208</ele>
        <time>2010-05-21T13:06:32Z</time>
      </trkpt>
      <trkpt lat="47.13214" lon="5.67943">
        <ele>208</ele>
        <time>2010-05-21T13:06:34Z</time>
      </trkpt>
      <trkpt lat="47.13212" lon="5.67926">
        <ele>208</ele>
        <time>2010-05-21T13:06:36Z</time>
      </trkpt>
      <trkpt lat="47.13212" lon="5.67909">
        <ele>208</ele>
        <time>2010-05-21T13:06:38Z</time>
      </trkpt>
      <trkpt lat="47.13211" lon="5.67893">
        <ele>208</ele>
        <time>2010-05-21T13:06:40Z</time>
      </trkpt>
      <trkpt lat="47.13211" lon="5.67875">
        <ele>208</ele>
        <time>2010-05-21T13:06:42Z</time>
      </trkpt>
      <trkpt lat="47.13212" lon="5.67859">
        <ele>208</ele>
        <time>2010-05-21T13:06:44Z</time>
      </trkpt>
      <trkpt lat="47.13214" lon="5.67843">
        <ele>208</ele>
        <time>2010-05-21T13:06:46Z</time>
      </trkpt>
      <trkpt lat="47.13218" lon="5.67827">
        <ele>208</ele>
        <time>2010-05-21T13:06:48Z</time>
      </trkpt>
      <trkpt lat="47.13225" lon="5.67813">
        <ele>208</ele>
        <time>2010-05-21T13:06:50Z</time>
      </trkpt>
      <trkpt lat="47.13233" lon="5.67799">
        <ele>214</ele>
        <time>2010-05-21T13:06:52Z</time>
      </trkpt>
      <trkpt lat="47.13243" lon="5.67787">
        <ele>214</ele>
        <time>2010-05-21T13:06:54Z</time>
      </trkpt>
      <trkpt lat="47.13252" lon="5.67775">
        <ele>214</ele>
        <time>2010-05-21T13:06:56Z</time>
      </trkpt>
      <trkpt lat="47.13262" lon="5.67763">
        <ele>214</ele>
        <time>2010-05-21T13:06:58Z</time>
      </trkpt>
      <trkpt lat="47.13272" lon="5.67751">
        <ele>214</ele>
        <time>2010-05-21T13:07:00Z</time>
      </trkpt>
      <trkpt lat="47.13281" lon="5.67738">
        <ele>214</ele>
        <time>2010-05-21T13:07:02Z</time>
      </trkpt>
      <trkpt lat="47.1329" lon="5.67725">
        <ele>214</ele>
        <time>2010-05-21T13:07:04Z</time>
      </trkpt>
      <trkpt lat="47.13299" lon="5.67713">
        <ele>214</ele>
        <time>2010-05-21T13:07:06Z</time>
      </trkpt>
      <trkpt lat="47.13307" lon="5.677">
        <ele>214</ele>
        <time>2010-05-21T13:07:08Z</time>
      </trkpt>
      <trkpt lat="47.13316" lon="5.67688">
        <ele>214</ele>
        <time>2010-05-21T13:07:10Z</time>
      </trkpt>
      <trkpt lat="47.13325" lon="5.67675">
        <ele>214</ele>
        <time>2010-05-21T13:07:12Z</time>
      </trkpt>
      <trkpt lat="47.13334" lon="5.67663">
        <ele>214</ele>
        <time>2010-05-21T13:07:14Z</time>
      </trkpt>
      <trkpt lat="47.13343" lon="5.67651">
        <ele>214</ele>
        <time>2010-05-21T13:07:16Z</time>
      </trkpt>
      <trkpt lat="47.13352" lon="5.67638">
        <ele>214</ele>
        <time>2010-05-21T13:07:18Z</time>
      </trkpt>
      <trkpt lat="47.13361" lon="5.67625">
        <ele>214</ele>
        <time>2010-05-21T13:07:20Z</time>
      </trkpt>
      <trkpt lat="47.13369" lon="5.67613">
        <ele>214</ele>
        <time>2010-05-21T13:07:22Z</time>
      </trkpt>
      <trkpt lat="47.13377" lon="5.676">
        <ele>214</ele>
        <time>2010-05-21T13:07:24Z</time>
      </trkpt>
      <trkpt lat="47.13387" lon="5.67587">
        <ele>214</ele>
        <time>2010-05-21T13:07:26Z</time>
      </trkpt>
      <trkpt lat="47.13397" lon="5.67574">
        <ele>214</ele>
        <time>2010-05-21T13:07:28Z</time>
      </trkpt>
      <trkpt lat="47.13406" lon="5.6756">
        <ele>214</ele>
        <time>2010-05-21T13:07:30Z</time>
      </trkpt>
      <trkpt lat="47.13415" lon="5.67548">
        <ele>214</ele>
        <time>2010-05-21T13:07:32Z</time>
      </trkpt>
      <trkpt lat="47.13424" lon="5.67535">
        <ele>214</ele>
        <time>2010-05-21T13:07:34Z</time>
      </trkpt>
      <trkpt lat="47.13431" lon="5.67522">
        <ele>214</ele>
        <time>2010-05-21T13:07:36Z</time>
      </trkpt>
      <trkpt lat="47.13439" lon="5.67509">
        <ele>214</ele>
        <time>2010-05-21T13:07:38Z</time>
      </trkpt>
      <trkpt lat="47.13445" lon="5.67494">
        <ele>214</ele>
        <time>2010-05-21T13:07:40Z</time>
      </trkpt>
      <trkpt lat="47.1345" lon="5.67477">
        <ele>214</ele>
        <time>2010-05-21T13:07:42Z</time>
      </trkpt>
      <trkpt lat="47.13455" lon="5.6746">
        <ele>214</ele>
        <time>2010-05-21T13:07:44Z</time>
      </trkpt>
      <trkpt lat="47.13456" lon="5.67442">
        <ele>214</ele>
        <time>2010-05-21T13:07:46Z</time>
      </trkpt>
      <trkpt lat="47.1346" lon="5.67425">
        <ele>214</ele>
        <time>2010-05-21T13:07:48Z</time>
      </trkpt>
      <trkpt lat="47.13463" lon="5.67407">
        <ele>214</ele>
        <time>2010-05-21T13:07:50Z</time>
      </trkpt>
      <trkpt lat="47.13467" lon="5.6739">
        <ele>214</ele>
        <time>2010-05-21T13:07:52Z</time>
      </trkpt>
      <trkpt lat="47.13472" lon="5.67373">
        <ele>214</ele>
        <time>2010-05-21T13:07:54Z</time>
      </trkpt>
      <trkpt lat="47.13476" lon="5.67356">
        <ele>214</ele>
        <time>2010-05-21T13:07:56Z</time>
      </trkpt>
      <trkpt lat="47.13481" lon="5.67339">
        <ele>214</ele>
        <time>2010-05-21T13:07:58Z</time>
      </trkpt>
      <trkpt lat="47.13486" lon="5.67321">
        <ele>214</ele>
        <time>2010-05-21T13:08:00Z</time>
      </trkpt>
      <trkpt lat="47.13491" lon="5.67304">
        <ele>214</ele>
        <time>2010-05-21T13:08:02Z</time>
      </trkpt>
      <trkpt lat="47.13496" lon="5.67285">
        <ele>214</ele>
        <time>2010-05-21T13:08:04Z</time>
      </trkpt>
      <trkpt lat="47.13502" lon="5.67267">
        <ele>214</ele>
        <time>2010-05-21T13:08:06Z</time>
      </trkpt>
      <trkpt lat="47.13507" lon="5.67248">
        <ele>214</ele>
        <time>2010-05-21T13:08:08Z</time>
      </trkpt>
      <trkpt lat="47.13512" lon="5.6723">
        <ele>214</ele>
        <time>2010-05-21T13:08:10Z</time>
      </trkpt>
      <trkpt lat="47.13517" lon="5.67211">
        <ele>214</ele>
        <time>2010-05-21T13:08:12Z</time>
      </trkpt>
      <trkpt lat="47.13523" lon="5.67192">
        <ele>214</ele>
        <time>2010-05-21T13:08:14Z</time>
      </trkpt>
      <trkpt lat="47.13528" lon="5.67173">
        <ele>214</ele>
        <time>2010-05-21T13:08:16Z</time>
      </trkpt>
      <trkpt lat="47.13532" lon="5.67155">
        <ele>214</ele>
        <time>2010-05-21T13:08:18Z</time>
      </trkpt>
      <trkpt lat="47.13538" lon="5.67136">
        <ele>209</ele>
        <time>2010-05-21T13:08:20Z</time>
      </trkpt>
      <trkpt lat="47.13543" lon="5.67116">
        <ele>209</ele>
        <time>2010-05-21T13:08:22Z</time>
      </trkpt>
      <trkpt lat="47.13548" lon="5.67097">
        <ele>209</ele>
        <time>2010-05-21T13:08:24Z</time>
      </trkpt>
      <trkpt lat="47.13553" lon="5.67077">
        <ele>209</ele>
        <time>2010-05-21T13:08:26Z</time>
      </trkpt>
      <trkpt lat="47.13558" lon="5.67057">
        <ele>209</ele>
        <time>2010-05-21T13:08:28Z</time>
      </trkpt>
      <trkpt lat="47.13564" lon="5.67038">
        <ele>209</ele>
        <time>2010-05-21T13:08:30Z</time>
      </trkpt>
      <trkpt lat="47.13569" lon="5.67018">
        <ele>209</ele>
        <time>2010-05-21T13:08:32Z</time>
      </trkpt>
      <trkpt lat="47.13574" lon="5.66999">
        <ele>209</ele>
        <time>2010-05-21T13:08:34Z</time>
      </trkpt>
      <trkpt lat="47.13579" lon="5.6698">
        <ele>209</ele>
        <time>2010-05-21T13:08:36Z</time>
      </trkpt>
      <trkpt lat="47.13584" lon="5.6696">
        <ele>209</ele>
        <time>2010-05-21T13:08:38Z</time>
      </trkpt>
      <trkpt lat="47.13589" lon="5.6694">
        <ele>209</ele>
        <time>2010-05-21T13:08:40Z</time>
      </trkpt>
      <trkpt lat="47.13595" lon="5.66921">
        <ele>209</ele>
        <time>2010-05-21T13:08:42Z</time>
      </trkpt>
      <trkpt lat="47.136" lon="5.66903">
        <ele>209</ele>
        <time>2010-05-21T13:08:44Z</time>
      </trkpt>
      <trkpt lat="47.13605" lon="5.66883">
        <ele>209</ele>
        <time>2010-05-21T13:08:46Z</time>
      </trkpt>
      <trkpt lat="47.1361" lon="5.66864">
        <ele>209</ele>
        <time>2010-05-21T13:08:48Z</time>
      </trkpt>
      <trkpt lat="47.13616" lon="5.66845">
        <ele>209</ele>
        <time>2010-05-21T13:08:50Z</time>
      </trkpt>
      <trkpt lat="47.13621" lon="5.66826">
        <ele>209</ele>
        <time>2010-05-21T13:08:52Z</time>
      </trkpt>
      <trkpt lat="47.13627" lon="5.66807">
        <ele>209</ele>
        <time>2010-05-21T13:08:54Z</time>
      </trkpt>
      <trkpt lat="47.13632" lon="5.66788">
        <ele>209</ele>
        <time>2010-05-21T13:08:56Z</time>
      </trkpt>
      <trkpt lat="47.13637" lon="5.66769">
        <ele>209</ele>
        <time>2010-05-21T13:08:58Z</time>
      </trkpt>
      <trkpt lat="47.13642" lon="5.6675">
        <ele>209</ele>
        <time>2010-05-21T13:09:00Z</time>
      </trkpt>
      <trkpt lat="47.13646" lon="5.6673">
        <ele>209</ele>
        <time>2010-05-21T13:09:02Z</time>
      </trkpt>
      <trkpt lat="47.13651" lon="5.66711">
        <ele>209</ele>
        <time>2010-05-21T13:09:04Z</time>
      </trkpt>
      <trkpt lat="47.13656" lon="5.66691">
        <ele>209</ele>
        <time>2010-05-21T13:09:06Z</time>
      </trkpt>
      <trkpt lat="47.13661" lon="5.66673">
        <ele>209</ele>
        <time>2010-05-21T13:09:08Z</time>
      </trkpt>
      <trkpt lat="47.13665" lon="5.66653">
        <ele>209</ele>
        <time>2010-05-21T13:09:10Z</time>
      </trkpt>
      <trkpt lat="47.1367" lon="5.66633">
        <ele>209</ele>
        <time>2010-05-21T13:09:12Z</time>
      </trkpt>
      <trkpt lat="47.13675" lon="5.66613">
        <ele>209</ele>
        <time>2010-05-21T13:09:14Z</time>
      </trkpt>
      <trkpt lat="47.1368" lon="5.66594">
        <ele>209</ele>
        <time>2010-05-21T13:09:16Z</time>
      </trkpt>
      <trkpt lat="47.13684" lon="5.66576">
        <ele>209</ele>
        <time>2010-05-21T13:09:18Z</time>
      </trkpt>
      <trkpt lat="47.13689" lon="5.66557">
        <ele>209</ele>
        <time>2010-05-21T13:09:20Z</time>
      </trkpt>
      <trkpt lat="47.13693" lon="5.66537">
        <ele>209</ele>
        <time>2010-05-21T13:09:22Z</time>
      </trkpt>
      <trkpt lat="47.13697" lon="5.66517">
        <ele>209</ele>
        <time>2010-05-21T13:09:24Z</time>
      </trkpt>
      <trkpt lat="47.137" lon="5.66497">
        <ele>209</ele>
        <time>2010-05-21T13:09:26Z</time>
      </trkpt>
      <trkpt lat="47.13702" lon="5.66475">
        <ele>209</ele>
        <time>2010-05-21T13:09:28Z</time>
      </trkpt>
      <trkpt lat="47.13703" lon="5.66454">
        <ele>209</ele>
        <time>2010-05-21T13:09:30Z</time>
      </trkpt>
      <trkpt lat="47.13706" lon="5.66434">
        <ele>209</ele>
        <time>2010-05-21T13:09:32Z</time>
      </trkpt>
      <trkpt lat="47.13708" lon="5.66413">
        <ele>209</ele>
        <time>2010-05-21T13:09:34Z</time>
      </trkpt>
      <trkpt lat="47.1371" lon="5.66391">
        <ele>209</ele>
        <time>2010-05-21T13:09:36Z</time>
      </trkpt>
      <trkpt lat="47.13711" lon="5.6637">
        <ele>209</ele>
        <time>2010-05-21T13:09:38Z</time>
      </trkpt>
      <trkpt lat="47.13713" lon="5.66348">
        <ele>209</ele>
        <time>2010-05-21T13:09:40Z</time>
      </trkpt>
      <trkpt lat="47.13716" lon="5.66327">
        <ele>209</ele>
        <time>2010-05-21T13:09:42Z</time>
      </trkpt>
      <trkpt lat="47.13718" lon="5.66305">
        <ele>209</ele>
        <time>2010-05-21T13:09:44Z</time>
      </trkpt>
      <trkpt lat="47.1372" lon="5.66284">
        <ele>209</ele>
        <time>2010-05-21T13:09:46Z</time>
      </trkpt>
      <trkpt lat="47.13721" lon="5.66263">
        <ele>209</ele>
        <time>2010-05-21T13:09:48Z</time>
      </trkpt>
      <trkpt lat="47.13723" lon="5.66241">
        <ele>209</ele>
        <time>2010-05-21T13:09:50Z</time>
      </trkpt>
      <trkpt lat="47.13725" lon="5.6622">
        <ele>209</ele>
        <time>2010-05-21T13:09:52Z</time>
      </trkpt>
      <trkpt lat="47.13727" lon="5.66199">
        <ele>209</ele>
        <time>2010-05-21T13:09:54Z</time>
      </trkpt>
      <trkpt lat="47.13729" lon="5.66178">
        <ele>209</ele>
        <time>2010-05-21T13:09:56Z</time>
      </trkpt>
      <trkpt lat="47.1373" lon="5.66157">
        <ele>209</ele>
        <time>2010-05-21T13:09:58Z</time>
      </trkpt>
      <trkpt lat="47.13732" lon="5.66136">
        <ele>209</ele>
        <time>2010-05-21T13:10:00Z</time>
      </trkpt>
      <trkpt lat="47.13733" lon="5.66115">
        <ele>209</ele>
        <time>2010-05-21T13:10:02Z</time>
      </trkpt>
      <trkpt lat="47.13735" lon="5.66094">
        <ele>209</ele>
        <time>2010-05-21T13:10:04Z</time>
      </trkpt>
      <trkpt lat="47.13737" lon="5.66073">
        <ele>209</ele>
        <time>2010-05-21T13:10:06Z</time>
      </trkpt>
      <trkpt lat="47.13739" lon="5.66051">
        <ele>209</ele>
        <time>2010-05-21T13:10:08Z</time>
      </trkpt>
      <trkpt lat="47.13741" lon="5.66029">
        <ele>209</ele>
        <time>2010-05-21T13:10:10Z</time>
      </trkpt>
      <trkpt lat="47.13744" lon="5.66008">
        <ele>209</ele>
        <time>2010-05-21T13:10:12Z</time>
      </trkpt>
      <trkpt lat="47.13748" lon="5.65986">
        <ele>209</ele>
        <time>2010-05-21T13:10:14Z</time>
      </trkpt>
      <trkpt lat="47.13751" lon="5.65964">
        <ele>209</ele>
        <time>2010-05-21T13:10:16Z</time>
      </trkpt>
      <trkpt lat="47.13754" lon="5.65943">
        <ele>209</ele>
        <time>2010-05-21T13:10:18Z</time>
      </trkpt>
      <trkpt lat="47.13758" lon="5.65922">
        <ele>209</ele>
        <time>2010-05-21T13:10:20Z</time>
      </trkpt>
      <trkpt lat="47.13762" lon="5.65899">
        <ele>209</ele>
        <time>2010-05-21T13:10:22Z</time>
      </trkpt>
      <trkpt lat="47.13765" lon="5.65877">
        <ele>209</ele>
        <time>2010-05-21T13:10:24Z</time>
      </trkpt>
      <trkpt lat="47.13768" lon="5.65854">
        <ele>209</ele>
        <time>2010-05-21T13:10:26Z</time>
      </trkpt>
      <trkpt lat="47.13768" lon="5.65831">
        <ele>209</ele>
        <time>2010-05-21T13:10:28Z</time>
      </trkpt>
      <trkpt lat="47.13767" lon="5.65808">
        <ele>209</ele>
        <time>2010-05-21T13:10:30Z</time>
      </trkpt>
      <trkpt lat="47.13764" lon="5.65786">
        <ele>209</ele>
        <time>2010-05-21T13:10:32Z</time>
      </trkpt>
      <trkpt lat="47.13759" lon="5.65765">
        <ele>209</ele>
        <time>2010-05-21T13:10:34Z</time>
      </trkpt>
      <trkpt lat="47.13756" lon="5.65743">
        <ele>209</ele>
        <time>2010-05-21T13:10:36Z</time>
      </trkpt>
      <trkpt lat="47.13758" lon="5.65721">
        <ele>209</ele>
        <time>2010-05-21T13:10:38Z</time>
      </trkpt>
      <trkpt lat="47.13765" lon="5.65703">
        <ele>209</ele>
        <time>2010-05-21T13:10:40Z</time>
      </trkpt>
      <trkpt lat="47.13776" lon="5.65688">
        <ele>209</ele>
        <time>2010-05-21T13:10:42Z</time>
      </trkpt>
      <trkpt lat="47.13787" lon="5.65673">
        <ele>209</ele>
        <time>2010-05-21T13:10:44Z</time>
      </trkpt>
      <trkpt lat="47.13798" lon="5.65658">
        <ele>209</ele>
        <time>2010-05-21T13:10:46Z</time>
      </trkpt>
      <trkpt lat="47.1381" lon="5.65643">
        <ele>209</ele>
        <time>2010-05-21T13:10:48Z</time>
      </trkpt>
      <trkpt lat="47.13821" lon="5.65629">
        <ele>209</ele>
        <time>2010-05-21T13:10:50Z</time>
      </trkpt>
      <trkpt lat="47.13833" lon="5.65614">
        <ele>209</ele>
        <time>2010-05-21T13:10:52Z</time>
      </trkpt>
      <trkpt lat="47.13844" lon="5.656">
        <ele>209</ele>
        <time>2010-05-21T13:10:54Z</time>
      </trkpt>
      <trkpt lat="47.13855" lon="5.65585">
        <ele>209</ele>
        <time>2010-05-21T13:10:56Z</time>
      </trkpt>
      <trkpt lat="47.13865" lon="5.65571">
        <ele>209</ele>
        <time>2010-05-21T13:10:58Z</time>
      </trkpt>
      <trkpt lat="47.13876" lon="5.65556">
        <ele>209</ele>
        <time>2010-05-21T13:11:00Z</time>
      </trkpt>
      <trkpt lat="47.13887" lon="5.65543">
        <ele>209</ele>
        <time>2010-05-21T13:11:02Z</time>
      </trkpt>
      <trkpt lat="47.13899" lon="5.65531">
        <ele>209</ele>
        <time>2010-05-21T13:11:04Z</time>
      </trkpt>
      <trkpt lat="47.13912" lon="5.65522">
        <ele>209</ele>
        <time>2010-05-21T13:11:06Z</time>
      </trkpt>
      <trkpt lat="47.13926" lon="5.65516">
        <ele>209</ele>
        <time>2010-05-21T13:11:08Z</time>
      </trkpt>
      <trkpt lat="47.13939" lon="5.65514">
        <ele>209</ele>
        <time>2010-05-21T13:11:10Z</time>
      </trkpt>
      <trkpt lat="47.13953" lon="5.65512">
        <ele>209</ele>
        <time>2010-05-21T13:11:12Z</time>
      </trkpt>
      <trkpt lat="47.13966" lon="5.65512">
        <ele>209</ele>
        <time>2010-05-21T13:11:14Z</time>
      </trkpt>
      <trkpt lat="47.13978" lon="5.65511">
        <ele>209</ele>
        <time>2010-05-21T13:11:16Z</time>
      </trkpt>
      <trkpt lat="47.1399" lon="5.6551">
        <ele>209</ele>
        <time>2010-05-21T13:11:18Z</time>
      </trkpt>
      <trkpt lat="47.14001" lon="5.65509">
        <ele>209</ele>
        <time>2010-05-21T13:11:20Z</time>
      </trkpt>
      <trkpt lat="47.14012" lon="5.6551">
        <ele>209</ele>
        <time>2010-05-21T13:11:22Z</time>
      </trkpt>
      <trkpt lat="47.14023" lon="5.6551">
        <ele>209</ele>
        <time>2010-05-21T13:11:24Z</time>
      </trkpt>
      <trkpt lat="47.14034" lon="5.65512">
        <ele>209</ele>
        <time>2010-05-21T13:11:26Z</time>
      </trkpt>
      <trkpt lat="47.14045" lon="5.65514">
        <ele>209</ele>
        <time>2010-05-21T13:11:28Z</time>
      </trkpt>
      <trkpt lat="47.14057" lon="5.65516">
        <ele>209</ele>
        <time>2010-05-21T13:11:30Z</time>
      </trkpt>
      <trkpt lat="47.14066" lon="5.6552">
        <ele>209</ele>
        <time>2010-05-21T13:11:32Z</time>
      </trkpt>
      <trkpt lat="47.14076" lon="5.65524">
        <ele>209</ele>
        <time>2010-05-21T13:11:34Z</time>
      </trkpt>
      <trkpt lat="47.14086" lon="5.65526">
        <ele>209</ele>
        <time>2010-05-21T13:11:36Z</time>
      </trkpt>
      <trkpt lat="47.14096" lon="5.65529">
        <ele>209</ele>
        <time>2010-05-21T13:11:38Z</time>
      </trkpt>
      <trkpt lat="47.14106" lon="5.65533">
        <ele>209</ele>
        <time>2010-05-21T13:11:40Z</time>
      </trkpt>
      <trkpt lat="47.14117" lon="5.65536">
        <ele>209</ele>
        <time>2010-05-21T13:11:42Z</time>
      </trkpt>
      <trkpt lat="47.14128" lon="5.6554">
        <ele>209</ele>
        <time>2010-05-21T13:11:44Z</time>
      </trkpt>
      <trkpt lat="47.14138" lon="5.65543">
        <ele>209</ele>
        <time>2010-05-21T13:11:46Z</time>
      </trkpt>
      <trkpt lat="47.14148" lon="5.65546">
        <ele>209</ele>
        <time>2010-05-21T13:11:48Z</time>
      </trkpt>
      <trkpt lat="47.14158" lon="5.65549">
        <ele>209</ele>
        <time>2010-05-21T13:11:50Z</time>
      </trkpt>
      <trkpt lat="47.14167" lon="5.65551">
        <ele>209</ele>
        <time>2010-05-21T13:11:52Z</time>
      </trkpt>
      <trkpt lat="47.14177" lon="5.65553">
        <ele>209</ele>
        <time>2010-05-21T13:11:54Z</time>
      </trkpt>
      <trkpt lat="47.14188" lon="5.65556">
        <ele>209</ele>
        <time>2010-05-21T13:11:56Z</time>
      </trkpt>
      <trkpt lat="47.14197" lon="5.65558">
        <ele>209</ele>
        <time>2010-05-21T13:11:58Z</time>
      </trkpt>
      <trkpt lat="47.14207" lon="5.6556">
        <ele>209</ele>
        <time>2010-05-21T13:12:00Z</time>
      </trkpt>
      <trkpt lat="47.14217" lon="5.65561">
        <ele>209</ele>
        <time>2010-05-21T13:12:02Z</time>
      </trkpt>
      <trkpt lat="47.14228" lon="5.65564">
        <ele>209</ele>
        <time>2010-05-21T13:12:04Z</time>
      </trkpt>
      <trkpt lat="47.14237" lon="5.65566">
        <ele>209</ele>
        <time>2010-05-21T13:12:06Z</time>
      </trkpt>
      <trkpt lat="47.14247" lon="5.65568">
        <ele>209</ele>
        <time>2010-05-21T13:12:08Z</time>
      </trkpt>
      <trkpt lat="47.14258" lon="5.65569">
        <ele>209</ele>
        <time>2010-05-21T13:12:10Z</time>
      </trkpt>
      <trkpt lat="47.14267" lon="5.65571">
        <ele>209</ele>
        <time>2010-05-21T13:12:12Z</time>
      </trkpt>
      <trkpt lat="47.14278" lon="5.65573">
        <ele>209</ele>
        <time>2010-05-21T13:12:14Z</time>
      </trkpt>
      <trkpt lat="47.14288" lon="5.65575">
        <ele>209</ele>
        <time>2010-05-21T13:12:16Z</time>
      </trkpt>
      <trkpt lat="47.14298" lon="5.65578">
        <ele>209</ele>
        <time>2010-05-21T13:12:18Z</time>
      </trkpt>
      <trkpt lat="47.14308" lon="5.65579">
        <ele>209</ele>
        <time>2010-05-21T13:12:20Z</time>
      </trkpt>
      <trkpt lat="47.14318" lon="5.65581">
        <ele>209</ele>
        <time>2010-05-21T13:12:22Z</time>
      </trkpt>
      <trkpt lat="47.14329" lon="5.65583">
        <ele>209</ele>
        <time>2010-05-21T13:12:24Z</time>
      </trkpt>
      <trkpt lat="47.14339" lon="5.65585">
        <ele>209</ele>
        <time>2010-05-21T13:12:26Z</time>
      </trkpt>
      <trkpt lat="47.14348" lon="5.65586">
        <ele>209</ele>
        <time>2010-05-21T13:12:28Z</time>
      </trkpt>
      <trkpt lat="47.14358" lon="5.65588">
        <ele>209</ele>
        <time>2010-05-21T13:12:30Z</time>
      </trkpt>
      <trkpt lat="47.14368" lon="5.6559">
        <ele>209</ele>
        <time>2010-05-21T13:12:32Z</time>
      </trkpt>
      <trkpt lat="47.14381" lon="5.65592">
        <ele>209</ele>
        <time>2010-05-21T13:12:35Z</time>
      </trkpt>
      <trkpt lat="47.14394" lon="5.65592">
        <ele>215</ele>
        <time>2010-05-21T13:12:38Z</time>
      </trkpt>
      <trkpt lat="47.14406" lon="5.65593">
        <ele>215</ele>
        <time>2010-05-21T13:12:41Z</time>
      </trkpt>
      <trkpt lat="47.14416" lon="5.65595">
        <ele>215</ele>
        <time>2010-05-21T13:12:43Z</time>
      </trkpt>
      <trkpt lat="47.14429" lon="5.65596">
        <ele>215</ele>
        <time>2010-05-21T13:12:46Z</time>
      </trkpt>
      <trkpt lat="47.14441" lon="5.65596">
        <ele>221</ele>
        <time>2010-05-21T13:12:49Z</time>
      </trkpt>
      <trkpt lat="47.14453" lon="5.65598">
        <ele>221</ele>
        <time>2010-05-21T13:12:52Z</time>
      </trkpt>
      <trkpt lat="47.14465" lon="5.65601">
        <ele>221</ele>
        <time>2010-05-21T13:12:55Z</time>
      </trkpt>
      <trkpt lat="47.14478" lon="5.65603">
        <ele>221</ele>
        <time>2010-05-21T13:12:58Z</time>
      </trkpt>
      <trkpt lat="47.14491" lon="5.65605">
        <ele>221</ele>
        <time>2010-05-21T13:13:01Z</time>
      </trkpt>
      <trkpt lat="47.14504" lon="5.65606">
        <ele>221</ele>
        <time>2010-05-21T13:13:04Z</time>
      </trkpt>
      <trkpt lat="47.14513" lon="5.65608">
        <ele>221</ele>
        <time>2010-05-21T13:13:06Z</time>
      </trkpt>
      <trkpt lat="47.14522" lon="5.65609">
        <ele>221</ele>
        <time>2010-05-21T13:13:08Z</time>
      </trkpt>
      <trkpt lat="47.14532" lon="5.65611">
        <ele>221</ele>
        <time>2010-05-21T13:13:10Z</time>
      </trkpt>
      <trkpt lat="47.14541" lon="5.65613">
        <ele>221</ele>
        <time>2010-05-21T13:13:12Z</time>
      </trkpt>
      <trkpt lat="47.14551" lon="5.65614">
        <ele>221</ele>
        <time>2010-05-21T13:13:14Z</time>
      </trkpt>
      <trkpt lat="47.14561" lon="5.65615">
        <ele>221</ele>
        <time>2010-05-21T13:13:16Z</time>
      </trkpt>
      <trkpt lat="47.14571" lon="5.65616">
        <ele>221</ele>
        <time>2010-05-21T13:13:18Z</time>
      </trkpt>
      <trkpt lat="47.14581" lon="5.65618">
        <ele>221</ele>
        <time>2010-05-21T13:13:20Z</time>
      </trkpt>
      <trkpt lat="47.1459" lon="5.6562">
        <ele>221</ele>
        <time>2010-05-21T13:13:22Z</time>
      </trkpt>
      <trkpt lat="47.146" lon="5.65622">
        <ele>221</ele>
        <time>2010-05-21T13:13:24Z</time>
      </trkpt>
      <trkpt lat="47.1461" lon="5.65624">
        <ele>221</ele>
        <time>2010-05-21T13:13:26Z</time>
      </trkpt>
      <trkpt lat="47.1462" lon="5.65627">
        <ele>221</ele>
        <time>2010-05-21T13:13:28Z</time>
      </trkpt>
      <trkpt lat="47.1463" lon="5.65632">
        <ele>221</ele>
        <time>2010-05-21T13:13:30Z</time>
      </trkpt>
      <trkpt lat="47.14639" lon="5.65643">
        <ele>221</ele>
        <time>2010-05-21T13:13:32Z</time>
      </trkpt>
      <trkpt lat="47.14646" lon="5.65656">
        <ele>221</ele>
        <time>2010-05-21T13:13:34Z</time>
      </trkpt>
      <trkpt lat="47.14651" lon="5.65669">
        <ele>221</ele>
        <time>2010-05-21T13:13:36Z</time>
      </trkpt>
      <trkpt lat="47.14654" lon="5.65684">
        <ele>221</ele>
        <time>2010-05-21T13:13:38Z</time>
      </trkpt>
      <trkpt lat="47.14657" lon="5.65703">
        <ele>221</ele>
        <time>2010-05-21T13:13:41Z</time>
      </trkpt>
      <trkpt lat="47.14659" lon="5.65721">
        <ele>221</ele>
        <time>2010-05-21T13:13:44Z</time>
      </trkpt>
      <trkpt lat="47.1466" lon="5.6574">
        <ele>221</ele>
        <time>2010-05-21T13:13:47Z</time>
      </trkpt>
      <trkpt lat="47.1466" lon="5.65758">
        <ele>221</ele>
        <time>2010-05-21T13:13:50Z</time>
      </trkpt>
      <trkpt lat="47.1466" lon="5.65774">
        <ele>221</ele>
        <time>2010-05-21T13:13:53Z</time>
      </trkpt>
      <trkpt lat="47.14661" lon="5.65792">
        <ele>221</ele>
        <time>2010-05-21T13:13:56Z</time>
      </trkpt>
      <trkpt lat="47.1466" lon="5.65809">
        <ele>221</ele>
        <time>2010-05-21T13:13:59Z</time>
      </trkpt>
      <trkpt lat="47.1466" lon="5.65827">
        <ele>221</ele>
        <time>2010-05-21T13:14:02Z</time>
      </trkpt>
      <trkpt lat="47.14661" lon="5.65846">
        <ele>221</ele>
        <time>2010-05-21T13:14:05Z</time>
      </trkpt>
      <trkpt lat="47.1466" lon="5.65864">
        <ele>221</ele>
        <time>2010-05-21T13:14:08Z</time>
      </trkpt>
      <trkpt lat="47.14664" lon="5.6588">
        <ele>221</ele>
        <time>2010-05-21T13:14:11Z</time>
      </trkpt>
      <trkpt lat="47.14671" lon="5.65894">
        <ele>221</ele>
        <time>2010-05-21T13:14:14Z</time>
      </trkpt>
      <trkpt lat="47.14682" lon="5.65903">
        <ele>221</ele>
        <time>2010-05-21T13:14:17Z</time>
      </trkpt>
      <trkpt lat="47.14692" lon="5.65906">
        <ele>221</ele>
        <time>2010-05-21T13:14:20Z</time>
      </trkpt>
      <trkpt lat="47.14703" lon="5.65906">
        <ele>221</ele>
        <time>2010-05-21T13:14:23Z</time>
      </trkpt>
      <trkpt lat="47.14715" lon="5.65907">
        <ele>221</ele>
        <time>2010-05-21T13:14:26Z</time>
      </trkpt>
      <trkpt lat="47.14727" lon="5.65906">
        <ele>221</ele>
        <time>2010-05-21T13:14:29Z</time>
      </trkpt>
      <trkpt lat="47.14737" lon="5.65905">
        <ele>221</ele>
        <time>2010-05-21T13:14:32Z</time>
      </trkpt>
      <trkpt lat="47.14748" lon="5.65905">
        <ele>221</ele>
        <time>2010-05-21T13:14:35Z</time>
      </trkpt>
      <trkpt lat="47.1476" lon="5.65903">
        <ele>221</ele>
        <time>2010-05-21T13:14:38Z</time>
      </trkpt>
      <trkpt lat="47.14769" lon="5.65901">
        <ele>221</ele>
        <time>2010-05-21T13:14:41Z</time>
      </trkpt>
      <trkpt lat="47.14781" lon="5.65899">
        <ele>228</ele>
        <time>2010-05-21T13:14:45Z</time>
      </trkpt>
      <trkpt lat="47.14793" lon="5.65896">
        <ele>228</ele>
        <time>2010-05-21T13:14:49Z</time>
      </trkpt>
      <trkpt lat="47.14803" lon="5.65895">
        <ele>228</ele>
        <time>2010-05-21T13:14:53Z</time>
      </trkpt>
      <trkpt lat="47.14812" lon="5.65894">
        <ele>236</ele>
        <time>2010-05-21T13:14:58Z</time>
      </trkpt>
      <trkpt lat="47.14821" lon="5.6589">
        <ele>236</ele>
        <time>2010-05-21T13:15:24Z</time>
      </trkpt>
      <trkpt lat="47.14831" lon="5.65887">
        <ele>236</ele>
        <time>2010-05-21T13:15:31Z</time>
      </trkpt>
      <trkpt lat="47.1484" lon="5.65886">
        <ele>236</ele>
        <time>2010-05-21T13:15:35Z</time>
      </trkpt>
      <trkpt lat="47.14849" lon="5.65888">
        <ele>236</ele>
        <time>2010-05-21T13:15:38Z</time>
      </trkpt>
      <trkpt lat="47.14859" lon="5.65895">
        <ele>236</ele>
        <time>2010-05-21T13:15:42Z</time>
      </trkpt>
      <trkpt lat="47.14868" lon="5.65898">
        <ele>236</ele>
        <time>2010-05-21T13:15:45Z</time>
      </trkpt>
      <trkpt lat="47.14879" lon="5.65902">
        <ele>242</ele>
        <time>2010-05-21T13:15:49Z</time>
      </trkpt>
      <trkpt lat="47.14891" lon="5.65905">
        <ele>242</ele>
        <time>2010-05-21T13:15:53Z</time>
      </trkpt>
      <trkpt lat="47.14901" lon="5.65905">
        <ele>242</ele>
        <time>2010-05-21T13:15:56Z</time>
      </trkpt>
      <trkpt lat="47.14912" lon="5.65907">
        <ele>242</ele>
        <time>2010-05-21T13:15:59Z</time>
      </trkpt>
      <trkpt lat="47.14922" lon="5.65908">
        <ele>242</ele>
        <time>2010-05-21T13:16:02Z</time>
      </trkpt>
      <trkpt lat="47.14932" lon="5.6591">
        <ele>242</ele>
        <time>2010-05-21T13:16:05Z</time>
      </trkpt>
      <trkpt lat="47.14942" lon="5.65912">
        <ele>242</ele>
        <time>2010-05-21T13:16:08Z</time>
      </trkpt>
      <trkpt lat="47.14953" lon="5.65915">
        <ele>242</ele>
        <time>2010-05-21T13:16:11Z</time>
      </trkpt>
      <trkpt lat="47.14962" lon="5.65922">
        <ele>242</ele>
        <time>2010-05-21T13:16:14Z</time>
      </trkpt>
      <trkpt lat="47.14968" lon="5.65932">
        <ele>242</ele>
        <time>2010-05-21T13:16:17Z</time>
      </trkpt>
      <trkpt lat="47.14973" lon="5.65945">
        <ele>242</ele>
        <time>2010-05-21T13:16:20Z</time>
      </trkpt>
      <trkpt lat="47.14978" lon="5.65958">
        <ele>242</ele>
        <time>2010-05-21T13:16:23Z</time>
      </trkpt>
      <trkpt lat="47.14984" lon="5.65972">
        <ele>242</ele>
        <time>2010-05-21T13:16:26Z</time>
      </trkpt>
      <trkpt lat="47.14989" lon="5.65985">
        <ele>242</ele>
        <time>2010-05-21T13:16:29Z</time>
      </trkpt>
      <trkpt lat="47.14995" lon="5.65999">
        <ele>242</ele>
        <time>2010-05-21T13:16:32Z</time>
      </trkpt>
      <trkpt lat="47.15002" lon="5.66013">
        <ele>242</ele>
        <time>2010-05-21T13:16:35Z</time>
      </trkpt>
      <trkpt lat="47.15008" lon="5.66028">
        <ele>242</ele>
        <time>2010-05-21T13:16:38Z</time>
      </trkpt>
      <trkpt lat="47.15013" lon="5.66042">
        <ele>242</ele>
        <time>2010-05-21T13:16:41Z</time>
      </trkpt>
      <trkpt lat="47.15019" lon="5.66056">
        <ele>242</ele>
        <time>2010-05-21T13:16:44Z</time>
      </trkpt>
      <trkpt lat="47.15025" lon="5.66072">
        <ele>242</ele>
        <time>2010-05-21T13:16:47Z</time>
      </trkpt>
      <trkpt lat="47.15031" lon="5.66086">
        <ele>242</ele>
        <time>2010-05-21T13:16:50Z</time>
      </trkpt>
      <trkpt lat="47.15037" lon="5.661">
        <ele>247</ele>
        <time>2010-05-21T13:16:53Z</time>
      </trkpt>
      <trkpt lat="47.15042" lon="5.66115">
        <ele>247</ele>
        <time>2010-05-21T13:16:56Z</time>
      </trkpt>
      <trkpt lat="47.15051" lon="5.66126">
        <ele>247</ele>
        <time>2010-05-21T13:16:59Z</time>
      </trkpt>
      <trkpt lat="47.1506" lon="5.66134">
        <ele>247</ele>
        <time>2010-05-21T13:17:02Z</time>
      </trkpt>
      <trkpt lat="47.1507" lon="5.66138">
        <ele>247</ele>
        <time>2010-05-21T13:17:05Z</time>
      </trkpt>
      <trkpt lat="47.15081" lon="5.66142">
        <ele>247</ele>
        <time>2010-05-21T13:17:08Z</time>
      </trkpt>
      <trkpt lat="47.15093" lon="5.66146">
        <ele>247</ele>
        <time>2010-05-21T13:17:11Z</time>
      </trkpt>
      <trkpt lat="47.15105" lon="5.66152">
        <ele>247</ele>
        <time>2010-05-21T13:17:14Z</time>
      </trkpt>
      <trkpt lat="47.15116" lon="5.66157">
        <ele>247</ele>
        <time>2010-05-21T13:17:17Z</time>
      </trkpt>
      <trkpt lat="47.15128" lon="5.66161">
        <ele>247</ele>
        <time>2010-05-21T13:17:20Z</time>
      </trkpt>
      <trkpt lat="47.15139" lon="5.66165">
        <ele>247</ele>
        <time>2010-05-21T13:17:23Z</time>
      </trkpt>
      <trkpt lat="47.15151" lon="5.66169">
        <ele>247</ele>
        <time>2010-05-21T13:17:26Z</time>
      </trkpt>
      <trkpt lat="47.15167" lon="5.66176">
        <ele>247</ele>
        <time>2010-05-21T13:17:30Z</time>
      </trkpt>
      <trkpt lat="47.15176" lon="5.66176">
        <ele>247</ele>
        <time>2010-05-21T13:17:33Z</time>
      </trkpt>
      <trkpt lat="47.15185" lon="5.66179">
        <ele>247</ele>
        <time>2010-05-21T13:17:35Z</time>
      </trkpt>
      <trkpt lat="47.15195" lon="5.66187">
        <ele>247</ele>
        <time>2010-05-21T13:17:37Z</time>
      </trkpt>
      <trkpt lat="47.15203" lon="5.66191">
        <ele>247</ele>
        <time>2010-05-21T13:17:39Z</time>
      </trkpt>
      <trkpt lat="47.15212" lon="5.66195">
        <ele>247</ele>
        <time>2010-05-21T13:17:41Z</time>
      </trkpt>
      <trkpt lat="47.15225" lon="5.66201">
        <ele>253</ele>
        <time>2010-05-21T13:17:44Z</time>
      </trkpt>
      <trkpt lat="47.15236" lon="5.66206">
        <ele>253</ele>
        <time>2010-05-21T13:17:47Z</time>
      </trkpt>
      <trkpt lat="47.15247" lon="5.66211">
        <ele>253</ele>
        <time>2010-05-21T13:17:50Z</time>
      </trkpt>
      <trkpt lat="47.15258" lon="5.66215">
        <ele>253</ele>
        <time>2010-05-21T13:17:53Z</time>
      </trkpt>
      <trkpt lat="47.15268" lon="5.6622">
        <ele>253</ele>
        <time>2010-05-21T13:17:56Z</time>
      </trkpt>
      <trkpt lat="47.15278" lon="5.66224">
        <ele>253</ele>
        <time>2010-05-21T13:17:59Z</time>
      </trkpt>
      <trkpt lat="47.15288" lon="5.66228">
        <ele>253</ele>
        <time>2010-05-21T13:18:02Z</time>
      </trkpt>
      <trkpt lat="47.15298" lon="5.66232">
        <ele>258</ele>
        <time>2010-05-21T13:18:05Z</time>
      </trkpt>
      <trkpt lat="47.15309" lon="5.66235">
        <ele>258</ele>
        <time>2010-05-21T13:18:08Z</time>
      </trkpt>
      <trkpt lat="47.15318" lon="5.66239">
        <ele>258</ele>
        <time>2010-05-21T13:18:11Z</time>
      </trkpt>
      <trkpt lat="47.15328" lon="5.66242">
        <ele>258</ele>
        <time>2010-05-21T13:18:14Z</time>
      </trkpt>
      <trkpt lat="47.15338" lon="5.66246">
        <ele>258</ele>
        <time>2010-05-21T13:18:17Z</time>
      </trkpt>
      <trkpt lat="47.15348" lon="5.66249">
        <ele>258</ele>
        <time>2010-05-21T13:18:20Z</time>
      </trkpt>
      <trkpt lat="47.15359" lon="5.66255">
        <ele>258</ele>
        <time>2010-05-21T13:18:23Z</time>
      </trkpt>
      <trkpt lat="47.1537" lon="5.66258">
        <ele>258</ele>
        <time>2010-05-21T13:18:26Z</time>
      </trkpt>
      <trkpt lat="47.15382" lon="5.66263">
        <ele>258</ele>
        <time>2010-05-21T13:18:29Z</time>
      </trkpt>
      <trkpt lat="47.15394" lon="5.66267">
        <ele>258</ele>
        <time>2010-05-21T13:18:32Z</time>
      </trkpt>
      <trkpt lat="47.15407" lon="5.66271">
        <ele>258</ele>
        <time>2010-05-21T13:18:35Z</time>
      </trkpt>
      <trkpt lat="47.15418" lon="5.66272">
        <ele>258</ele>
        <time>2010-05-21T13:18:37Z</time>
      </trkpt>
      <trkpt lat="47.15428" lon="5.66274">
        <ele>258</ele>
        <time>2010-05-21T13:18:39Z</time>
      </trkpt>
      <trkpt lat="47.1544" lon="5.66275">
        <ele>258</ele>
        <time>2010-05-21T13:18:41Z</time>
      </trkpt>
      <trkpt lat="47.15452" lon="5.66276">
        <ele>258</ele>
        <time>2010-05-21T13:18:43Z</time>
      </trkpt>
      <trkpt lat="47.15464" lon="5.66279">
        <ele>258</ele>
        <time>2010-05-21T13:18:45Z</time>
      </trkpt>
      <trkpt lat="47.15478" lon="5.66281">
        <ele>258</ele>
        <time>2010-05-21T13:18:47Z</time>
      </trkpt>
      <trkpt lat="47.15491" lon="5.66283">
        <ele>258</ele>
        <time>2010-05-21T13:18:49Z</time>
      </trkpt>
      <trkpt lat="47.15505" lon="5.66285">
        <ele>258</ele>
        <time>2010-05-21T13:18:51Z</time>
      </trkpt>
      <trkpt lat="47.15519" lon="5.66287">
        <ele>258</ele>
        <time>2010-05-21T13:18:53Z</time>
      </trkpt>
      <trkpt lat="47.15533" lon="5.66289">
        <ele>258</ele>
        <time>2010-05-21T13:18:55Z</time>
      </trkpt>
      <trkpt lat="47.15548" lon="5.66291">
        <ele>258</ele>
        <time>2010-05-21T13:18:57Z</time>
      </trkpt>
      <trkpt lat="47.15563" lon="5.66293">
        <ele>258</ele>
        <time>2010-05-21T13:18:59Z</time>
      </trkpt>
      <trkpt lat="47.15578" lon="5.66295">
        <ele>258</ele>
        <time>2010-05-21T13:19:01Z</time>
      </trkpt>
      <trkpt lat="47.15594" lon="5.66297">
        <ele>258</ele>
        <time>2010-05-21T13:19:03Z</time>
      </trkpt>
      <trkpt lat="47.15609" lon="5.663">
        <ele>258</ele>
        <time>2010-05-21T13:19:05Z</time>
      </trkpt>
      <trkpt lat="47.15624" lon="5.66302">
        <ele>258</ele>
        <time>2010-05-21T13:19:07Z</time>
      </trkpt>
      <trkpt lat="47.1564" lon="5.66304">
        <ele>258</ele>
        <time>2010-05-21T13:19:09Z</time>
      </trkpt>
      <trkpt lat="47.15655" lon="5.66307">
        <ele>253</ele>
        <time>2010-05-21T13:19:11Z</time>
      </trkpt>
      <trkpt lat="47.15671" lon="5.66309">
        <ele>253</ele>
        <time>2010-05-21T13:19:13Z</time>
      </trkpt>
      <trkpt lat="47.15686" lon="5.66311">
        <ele>253</ele>
        <time>2010-05-21T13:19:15Z</time>
      </trkpt>
      <trkpt lat="47.15701" lon="5.66313">
        <ele>253</ele>
        <time>2010-05-21T13:19:17Z</time>
      </trkpt>
      <trkpt lat="47.15717" lon="5.66315">
        <ele>253</ele>
        <time>2010-05-21T13:19:19Z</time>
      </trkpt>
      <trkpt lat="47.15732" lon="5.66316">
        <ele>253</ele>
        <time>2010-05-21T13:19:21Z</time>
      </trkpt>
      <trkpt lat="47.15747" lon="5.66318">
        <ele>253</ele>
        <time>2010-05-21T13:19:23Z</time>
      </trkpt>
      <trkpt lat="47.15763" lon="5.6632">
        <ele>253</ele>
        <time>2010-05-21T13:19:25Z</time>
      </trkpt>
      <trkpt lat="47.15778" lon="5.66323">
        <ele>253</ele>
        <time>2010-05-21T13:19:27Z</time>
      </trkpt>
      <trkpt lat="47.15792" lon="5.66326">
        <ele>253</ele>
        <time>2010-05-21T13:19:29Z</time>
      </trkpt>
      <trkpt lat="47.15807" lon="5.66328">
        <ele>248</ele>
        <time>2010-05-21T13:19:31Z</time>
      </trkpt>
      <trkpt lat="47.15821" lon="5.6633">
        <ele>248</ele>
        <time>2010-05-21T13:19:33Z</time>
      </trkpt>
      <trkpt lat="47.15836" lon="5.66332">
        <ele>248</ele>
        <time>2010-05-21T13:19:35Z</time>
      </trkpt>
      <trkpt lat="47.1585" lon="5.66334">
        <ele>248</ele>
        <time>2010-05-21T13:19:37Z</time>
      </trkpt>
      <trkpt lat="47.15864" lon="5.66336">
        <ele>248</ele>
        <time>2010-05-21T13:19:39Z</time>
      </trkpt>
      <trkpt lat="47.15879" lon="5.66337">
        <ele>248</ele>
        <time>2010-05-21T13:19:41Z</time>
      </trkpt>
      <trkpt lat="47.15893" lon="5.66339">
        <ele>248</ele>
        <time>2010-05-21T13:19:43Z</time>
      </trkpt>
      <trkpt lat="47.15906" lon="5.66341">
        <ele>248</ele>
        <time>2010-05-21T13:19:45Z</time>
      </trkpt>
      <trkpt lat="47.15919" lon="5.66343">
        <ele>248</ele>
        <time>2010-05-21T13:19:47Z</time>
      </trkpt>
      <trkpt lat="47.15932" lon="5.66344">
        <ele>248</ele>
        <time>2010-05-21T13:19:49Z</time>
      </trkpt>
      <trkpt lat="47.15945" lon="5.66347">
        <ele>248</ele>
        <time>2010-05-21T13:19:51Z</time>
      </trkpt>
      <trkpt lat="47.15958" lon="5.66351">
        <ele>248</ele>
        <time>2010-05-21T13:19:53Z</time>
      </trkpt>
      <trkpt lat="47.15971" lon="5.66357">
        <ele>248</ele>
        <time>2010-05-21T13:19:55Z</time>
      </trkpt>
      <trkpt lat="47.15981" lon="5.66364">
        <ele>248</ele>
        <time>2010-05-21T13:19:57Z</time>
      </trkpt>
      <trkpt lat="47.15991" lon="5.66371">
        <ele>248</ele>
        <time>2010-05-21T13:19:59Z</time>
      </trkpt>
      <trkpt lat="47.15999" lon="5.66377">
        <ele>248</ele>
        <time>2010-05-21T13:20:01Z</time>
      </trkpt>
      <trkpt lat="47.16009" lon="5.66385">
        <ele>248</ele>
        <time>2010-05-21T13:20:04Z</time>
      </trkpt>
      <trkpt lat="47.16018" lon="5.66391">
        <ele>248</ele>
        <time>2010-05-21T13:20:07Z</time>
      </trkpt>
      <trkpt lat="47.16029" lon="5.66399">
        <ele>248</ele>
        <time>2010-05-21T13:20:10Z</time>
      </trkpt>
      <trkpt lat="47.16037" lon="5.66408">
        <ele>248</ele>
        <time>2010-05-21T13:20:13Z</time>
      </trkpt>
      <trkpt lat="47.16049" lon="5.66417">
        <ele>248</ele>
        <time>2010-05-21T13:20:16Z</time>
      </trkpt>
      <trkpt lat="47.16059" lon="5.66424">
        <ele>248</ele>
        <time>2010-05-21T13:20:18Z</time>
      </trkpt>
      <trkpt lat="47.1607" lon="5.6643">
        <ele>248</ele>
        <time>2010-05-21T13:20:20Z</time>
      </trkpt>
      <trkpt lat="47.1608" lon="5.66437">
        <ele>248</ele>
        <time>2010-05-21T13:20:22Z</time>
      </trkpt>
      <trkpt lat="47.1609" lon="5.66444">
        <ele>248</ele>
        <time>2010-05-21T13:20:24Z</time>
      </trkpt>
      <trkpt lat="47.16102" lon="5.66453">
        <ele>248</ele>
        <time>2010-05-21T13:20:26Z</time>
      </trkpt>
      <trkpt lat="47.16114" lon="5.66461">
        <ele>248</ele>
        <time>2010-05-21T13:20:28Z</time>
      </trkpt>
      <trkpt lat="47.16127" lon="5.6647">
        <ele>248</ele>
        <time>2010-05-21T13:20:30Z</time>
      </trkpt>
      <trkpt lat="47.1614" lon="5.6648">
        <ele>242</ele>
        <time>2010-05-21T13:20:32Z</time>
      </trkpt>
      <trkpt lat="47.16154" lon="5.6649">
        <ele>242</ele>
        <time>2010-05-21T13:20:34Z</time>
      </trkpt>
      <trkpt lat="47.16168" lon="5.66501">
        <ele>242</ele>
        <time>2010-05-21T13:20:36Z</time>
      </trkpt>
      <trkpt lat="47.16183" lon="5.66511">
        <ele>242</ele>
        <time>2010-05-21T13:20:38Z</time>
      </trkpt>
      <trkpt lat="47.16198" lon="5.66521">
        <ele>242</ele>
        <time>2010-05-21T13:20:40Z</time>
      </trkpt>
      <trkpt lat="47.16213" lon="5.66531">
        <ele>242</ele>
        <time>2010-05-21T13:20:42Z</time>
      </trkpt>
      <trkpt lat="47.16228" lon="5.66541">
        <ele>237</ele>
        <time>2010-05-21T13:20:44Z</time>
      </trkpt>
      <trkpt lat="47.16243" lon="5.6655">
        <ele>237</ele>
        <time>2010-05-21T13:20:46Z</time>
      </trkpt>
      <trkpt lat="47.16258" lon="5.66555">
        <ele>237</ele>
        <time>2010-05-21T13:20:48Z</time>
      </trkpt>
      <trkpt lat="47.16272" lon="5.6656">
        <ele>237</ele>
        <time>2010-05-21T13:20:50Z</time>
      </trkpt>
      <trkpt lat="47.16285" lon="5.66565">
        <ele>237</ele>
        <time>2010-05-21T13:20:52Z</time>
      </trkpt>
      <trkpt lat="47.16298" lon="5.66567">
        <ele>237</ele>
        <time>2010-05-21T13:20:54Z</time>
      </trkpt>
      <trkpt lat="47.16309" lon="5.66567">
        <ele>237</ele>
        <time>2010-05-21T13:20:56Z</time>
      </trkpt>
      <trkpt lat="47.16318" lon="5.66567">
        <ele>237</ele>
        <time>2010-05-21T13:20:58Z</time>
      </trkpt>
      <trkpt lat="47.16331" lon="5.66567">
        <ele>237</ele>
        <time>2010-05-21T13:21:01Z</time>
      </trkpt>
      <trkpt lat="47.1634" lon="5.66567">
        <ele>237</ele>
        <time>2010-05-21T13:21:03Z</time>
      </trkpt>
      <trkpt lat="47.16354" lon="5.66567">
        <ele>237</ele>
        <time>2010-05-21T13:21:06Z</time>
      </trkpt>
      <trkpt lat="47.16363" lon="5.66566">
        <ele>237</ele>
        <time>2010-05-21T13:21:08Z</time>
      </trkpt>
      <trkpt lat="47.16373" lon="5.66565">
        <ele>237</ele>
        <time>2010-05-21T13:21:10Z</time>
      </trkpt>
      <trkpt lat="47.16382" lon="5.66565">
        <ele>237</ele>
        <time>2010-05-21T13:21:12Z</time>
      </trkpt>
      <trkpt lat="47.16391" lon="5.66564">
        <ele>237</ele>
        <time>2010-05-21T13:21:14Z</time>
      </trkpt>
      <trkpt lat="47.16404" lon="5.66561">
        <ele>242</ele>
        <time>2010-05-21T13:21:17Z</time>
      </trkpt>
      <trkpt lat="47.16413" lon="5.6656">
        <ele>242</ele>
        <time>2010-05-21T13:21:19Z</time>
      </trkpt>
      <trkpt lat="47.16423" lon="5.66559">
        <ele>242</ele>
        <time>2010-05-21T13:21:21Z</time>
      </trkpt>
      <trkpt lat="47.16432" lon="5.66559">
        <ele>242</ele>
        <time>2010-05-21T13:21:23Z</time>
      </trkpt>
      <trkpt lat="47.16445" lon="5.6656">
        <ele>242</ele>
        <time>2010-05-21T13:21:26Z</time>
      </trkpt>
      <trkpt lat="47.16457" lon="5.66562">
        <ele>242</ele>
        <time>2010-05-21T13:21:29Z</time>
      </trkpt>
      <trkpt lat="47.1647" lon="5.66566">
        <ele>242</ele>
        <time>2010-05-21T13:21:32Z</time>
      </trkpt>
      <trkpt lat="47.16482" lon="5.66573">
        <ele>242</ele>
        <time>2010-05-21T13:21:35Z</time>
      </trkpt>
      <trkpt lat="47.16493" lon="5.66581">
        <ele>248</ele>
        <time>2010-05-21T13:21:38Z</time>
      </trkpt>
      <trkpt lat="47.16503" lon="5.66592">
        <ele>248</ele>
        <time>2010-05-21T13:21:41Z</time>
      </trkpt>
      <trkpt lat="47.16515" lon="5.66599">
        <ele>248</ele>
        <time>2010-05-21T13:21:44Z</time>
      </trkpt>
      <trkpt lat="47.16527" lon="5.66606">
        <ele>243</ele>
        <time>2010-05-21T13:21:47Z</time>
      </trkpt>
      <trkpt lat="47.16538" lon="5.66613">
        <ele>243</ele>
        <time>2010-05-21T13:21:50Z</time>
      </trkpt>
      <trkpt lat="47.16549" lon="5.66622">
        <ele>243</ele>
        <time>2010-05-21T13:21:53Z</time>
      </trkpt>
      <trkpt lat="47.16561" lon="5.66629">
        <ele>243</ele>
        <time>2010-05-21T13:21:56Z</time>
      </trkpt>
      <trkpt lat="47.16572" lon="5.66637">
        <ele>243</ele>
        <time>2010-05-21T13:21:59Z</time>
      </trkpt>
      <trkpt lat="47.16583" lon="5.66646">
        <ele>243</ele>
        <time>2010-05-21T13:22:02Z</time>
      </trkpt>
      <trkpt lat="47.16594" lon="5.66653">
        <ele>243</ele>
        <time>2010-05-21T13:22:05Z</time>
      </trkpt>
      <trkpt lat="47.16606" lon="5.66662">
        <ele>243</ele>
        <time>2010-05-21T13:22:08Z</time>
      </trkpt>
      <trkpt lat="47.16614" lon="5.66667">
        <ele>243</ele>
        <time>2010-05-21T13:22:10Z</time>
      </trkpt>
      <trkpt lat="47.16622" lon="5.66674">
        <ele>243</ele>
        <time>2010-05-21T13:22:12Z</time>
      </trkpt>
      <trkpt lat="47.16633" lon="5.66685">
        <ele>243</ele>
        <time>2010-05-21T13:22:15Z</time>
      </trkpt>
      <trkpt lat="47.16641" lon="5.66692">
        <ele>243</ele>
        <time>2010-05-21T13:22:17Z</time>
      </trkpt>
      <trkpt lat="47.16648" lon="5.667">
        <ele>243</ele>
        <time>2010-05-21T13:22:19Z</time>
      </trkpt>
      <trkpt lat="47.16655" lon="5.66709">
        <ele>243</ele>
        <time>2010-05-21T13:22:21Z</time>
      </trkpt>
      <trkpt lat="47.16664" lon="5.66717">
        <ele>243</ele>
        <time>2010-05-21T13:22:23Z</time>
      </trkpt>
      <trkpt lat="47.16672" lon="5.66725">
        <ele>243</ele>
        <time>2010-05-21T13:22:25Z</time>
      </trkpt>
      <trkpt lat="47.16679" lon="5.66733">
        <ele>243</ele>
        <time>2010-05-21T13:22:27Z</time>
      </trkpt>
      <trkpt lat="47.16687" lon="5.66742">
        <ele>243</ele>
        <time>2010-05-21T13:22:29Z</time>
      </trkpt>
      <trkpt lat="47.16696" lon="5.66749">
        <ele>249</ele>
        <time>2010-05-21T13:22:31Z</time>
      </trkpt>
      <trkpt lat="47.16704" lon="5.66756">
        <ele>249</ele>
        <time>2010-05-21T13:22:33Z</time>
      </trkpt>
      <trkpt lat="47.16711" lon="5.66764">
        <ele>249</ele>
        <time>2010-05-21T13:22:35Z</time>
      </trkpt>
      <trkpt lat="47.16718" lon="5.66772">
        <ele>249</ele>
        <time>2010-05-21T13:22:37Z</time>
      </trkpt>
      <trkpt lat="47.16728" lon="5.66785">
        <ele>244</ele>
        <time>2010-05-21T13:22:40Z</time>
      </trkpt>
      <trkpt lat="47.1674" lon="5.66796">
        <ele>244</ele>
        <time>2010-05-21T13:22:43Z</time>
      </trkpt>
      <trkpt lat="47.16749" lon="5.66808">
        <ele>244</ele>
        <time>2010-05-21T13:22:46Z</time>
      </trkpt>
      <trkpt lat="47.16757" lon="5.66815">
        <ele>244</ele>
        <time>2010-05-21T13:22:48Z</time>
      </trkpt>
      <trkpt lat="47.16764" lon="5.66824">
        <ele>244</ele>
        <time>2010-05-21T13:22:50Z</time>
      </trkpt>
      <trkpt lat="47.16771" lon="5.66833">
        <ele>244</ele>
        <time>2010-05-21T13:22:52Z</time>
      </trkpt>
      <trkpt lat="47.16778" lon="5.66842">
        <ele>244</ele>
        <time>2010-05-21T13:22:54Z</time>
      </trkpt>
      <trkpt lat="47.16785" lon="5.66853">
        <ele>244</ele>
        <time>2010-05-21T13:22:56Z</time>
      </trkpt>
      <trkpt lat="47.16793" lon="5.66864">
        <ele>244</ele>
        <time>2010-05-21T13:22:58Z</time>
      </trkpt>
      <trkpt lat="47.16799" lon="5.66876">
        <ele>244</ele>
        <time>2010-05-21T13:23:00Z</time>
      </trkpt>
      <trkpt lat="47.16807" lon="5.66886">
        <ele>244</ele>
        <time>2010-05-21T13:23:02Z</time>
      </trkpt>
      <trkpt lat="47.16815" lon="5.66896">
        <ele>244</ele>
        <time>2010-05-21T13:23:04Z</time>
      </trkpt>
      <trkpt lat="47.16824" lon="5.66906">
        <ele>244</ele>
        <time>2010-05-21T13:23:06Z</time>
      </trkpt>
      <trkpt lat="47.16831" lon="5.66916">
        <ele>244</ele>
        <time>2010-05-21T13:23:08Z</time>
      </trkpt>
      <trkpt lat="47.16837" lon="5.66927">
        <ele>244</ele>
        <time>2010-05-21T13:23:10Z</time>
      </trkpt>
      <trkpt lat="47.16843" lon="5.66939">
        <ele>237</ele>
        <time>2010-05-21T13:23:12Z</time>
      </trkpt>
      <trkpt lat="47.16849" lon="5.66948">
        <ele>237</ele>
        <time>2010-05-21T13:23:14Z</time>
      </trkpt>
      <trkpt lat="47.16858" lon="5.66954">
        <ele>243</ele>
        <time>2010-05-21T13:23:16Z</time>
      </trkpt>
      <trkpt lat="47.16867" lon="5.66961">
        <ele>243</ele>
        <time>2010-05-21T13:23:18Z</time>
      </trkpt>
      <trkpt lat="47.16874" lon="5.66969">
        <ele>243</ele>
        <time>2010-05-21T13:23:20Z</time>
      </trkpt>
      <trkpt lat="47.16882" lon="5.66978">
        <ele>243</ele>
        <time>2010-05-21T13:23:22Z</time>
      </trkpt>
      <trkpt lat="47.1689" lon="5.66987">
        <ele>250</ele>
        <time>2010-05-21T13:23:24Z</time>
      </trkpt>
      <trkpt lat="47.16899" lon="5.66998">
        <ele>250</ele>
        <time>2010-05-21T13:23:26Z</time>
      </trkpt>
      <trkpt lat="47.16908" lon="5.67007">
        <ele>250</ele>
        <time>2010-05-21T13:23:28Z</time>
      </trkpt>
      <trkpt lat="47.16916" lon="5.67018">
        <ele>250</ele>
        <time>2010-05-21T13:23:30Z</time>
      </trkpt>
      <trkpt lat="47.16925" lon="5.67031">
        <ele>250</ele>
        <time>2010-05-21T13:23:32Z</time>
      </trkpt>
      <trkpt lat="47.16934" lon="5.67042">
        <ele>250</ele>
        <time>2010-05-21T13:23:34Z</time>
      </trkpt>
      <trkpt lat="47.16945" lon="5.67052">
        <ele>250</ele>
        <time>2010-05-21T13:23:36Z</time>
      </trkpt>
      <trkpt lat="47.16954" lon="5.67062">
        <ele>250</ele>
        <time>2010-05-21T13:23:38Z</time>
      </trkpt>
      <trkpt lat="47.16964" lon="5.67073">
        <ele>250</ele>
        <time>2010-05-21T13:23:40Z</time>
      </trkpt>
      <trkpt lat="47.16974" lon="5.67083">
        <ele>250</ele>
        <time>2010-05-21T13:23:42Z</time>
      </trkpt>
      <trkpt lat="47.16984" lon="5.67093">
        <ele>250</ele>
        <time>2010-05-21T13:23:44Z</time>
      </trkpt>
      <trkpt lat="47.16996" lon="5.67104">
        <ele>250</ele>
        <time>2010-05-21T13:23:46Z</time>
      </trkpt>
      <trkpt lat="47.17008" lon="5.67113">
        <ele>250</ele>
        <time>2010-05-21T13:23:48Z</time>
      </trkpt>
      <trkpt lat="47.1702" lon="5.67124">
        <ele>250</ele>
        <time>2010-05-21T13:23:50Z</time>
      </trkpt>
      <trkpt lat="47.17034" lon="5.67134">
        <ele>250</ele>
        <time>2010-05-21T13:23:52Z</time>
      </trkpt>
      <trkpt lat="47.17047" lon="5.67147">
        <ele>250</ele>
        <time>2010-05-21T13:23:54Z</time>
      </trkpt>
      <trkpt lat="47.17061" lon="5.67158">
        <ele>250</ele>
        <time>2010-05-21T13:23:56Z</time>
      </trkpt>
      <trkpt lat="47.17077" lon="5.67166">
        <ele>250</ele>
        <time>2010-05-21T13:23:58Z</time>
      </trkpt>
      <trkpt lat="47.17093" lon="5.67176">
        <ele>250</ele>
        <time>2010-05-21T13:24:00Z</time>
      </trkpt>
      <trkpt lat="47.17102" lon="5.67181">
        <ele>245</ele>
        <time>2010-05-21T13:24:01Z</time>
      </trkpt>
      <trkpt lat="47.17119" lon="5.67191">
        <ele>245</ele>
        <time>2010-05-21T13:24:03Z</time>
      </trkpt>
      <trkpt lat="47.17128" lon="5.67195">
        <ele>245</ele>
        <time>2010-05-21T13:24:04Z</time>
      </trkpt>
      <trkpt lat="47.17137" lon="5.672">
        <ele>245</ele>
        <time>2010-05-21T13:24:05Z</time>
      </trkpt>
      <trkpt lat="47.17147" lon="5.67204">
        <ele>245</ele>
        <time>2010-05-21T13:24:06Z</time>
      </trkpt>
      <trkpt lat="47.17155" lon="5.67209">
        <ele>245</ele>
        <time>2010-05-21T13:24:07Z</time>
      </trkpt>
      <trkpt lat="47.17164" lon="5.67213">
        <ele>245</ele>
        <time>2010-05-21T13:24:08Z</time>
      </trkpt>
      <trkpt lat="47.17181" lon="5.67223">
        <ele>245</ele>
        <time>2010-05-21T13:24:10Z</time>
      </trkpt>
      <trkpt lat="47.1719" lon="5.67227">
        <ele>245</ele>
        <time>2010-05-21T13:24:11Z</time>
      </trkpt>
      <trkpt lat="47.17199" lon="5.6723">
        <ele>245</ele>
        <time>2010-05-21T13:24:12Z</time>
      </trkpt>
      <trkpt lat="47.17208" lon="5.67235">
        <ele>245</ele>
        <time>2010-05-21T13:24:13Z</time>
      </trkpt>
      <trkpt lat="47.17217" lon="5.67239">
        <ele>245</ele>
        <time>2010-05-21T13:24:14Z</time>
      </trkpt>
      <trkpt lat="47.17226" lon="5.67243">
        <ele>245</ele>
        <time>2010-05-21T13:24:15Z</time>
      </trkpt>
      <trkpt lat="47.17235" lon="5.67248">
        <ele>245</ele>
        <time>2010-05-21T13:24:16Z</time>
      </trkpt>
      <trkpt lat="47.17245" lon="5.67252">
        <ele>245</ele>
        <time>2010-05-21T13:24:17Z</time>
      </trkpt>
      <trkpt lat="47.17254" lon="5.67257">
        <ele>245</ele>
        <time>2010-05-21T13:24:18Z</time>
      </trkpt>
      <trkpt lat="47.17263" lon="5.67261">
        <ele>245</ele>
        <time>2010-05-21T13:24:19Z</time>
      </trkpt>
      <trkpt lat="47.17272" lon="5.67266">
        <ele>245</ele>
        <time>2010-05-21T13:24:20Z</time>
      </trkpt>
      <trkpt lat="47.17281" lon="5.67272">
        <ele>251</ele>
        <time>2010-05-21T13:24:21Z</time>
      </trkpt>
      <trkpt lat="47.1729" lon="5.67276">
        <ele>251</ele>
        <time>2010-05-21T13:24:22Z</time>
      </trkpt>
      <trkpt lat="47.17299" lon="5.67282">
        <ele>251</ele>
        <time>2010-05-21T13:24:23Z</time>
      </trkpt>
      <trkpt lat="47.17307" lon="5.67288">
        <ele>251</ele>
        <time>2010-05-21T13:24:24Z</time>
      </trkpt>
      <trkpt lat="47.17316" lon="5.67294">
        <ele>251</ele>
        <time>2010-05-21T13:24:25Z</time>
      </trkpt>
      <trkpt lat="47.17324" lon="5.67301">
        <ele>251</ele>
        <time>2010-05-21T13:24:26Z</time>
      </trkpt>
      <trkpt lat="47.17333" lon="5.67308">
        <ele>251</ele>
        <time>2010-05-21T13:24:27Z</time>
      </trkpt>
      <trkpt lat="47.17341" lon="5.67314">
        <ele>251</ele>
        <time>2010-05-21T13:24:28Z</time>
      </trkpt>
      <trkpt lat="47.17351" lon="5.67319">
        <ele>251</ele>
        <time>2010-05-21T13:24:29Z</time>
      </trkpt>
      <trkpt lat="47.17359" lon="5.67327">
        <ele>251</ele>
        <time>2010-05-21T13:24:30Z</time>
      </trkpt>
      <trkpt lat="47.17368" lon="5.67333">
        <ele>251</ele>
        <time>2010-05-21T13:24:31Z</time>
      </trkpt>
      <trkpt lat="47.17376" lon="5.67341">
        <ele>245</ele>
        <time>2010-05-21T13:24:32Z</time>
      </trkpt>
      <trkpt lat="47.17385" lon="5.67347">
        <ele>245</ele>
        <time>2010-05-21T13:24:33Z</time>
      </trkpt>
      <trkpt lat="47.17394" lon="5.67355">
        <ele>245</ele>
        <time>2010-05-21T13:24:34Z</time>
      </trkpt>
      <trkpt lat="47.17402" lon="5.67363">
        <ele>245</ele>
        <time>2010-05-21T13:24:35Z</time>
      </trkpt>
      <trkpt lat="47.17411" lon="5.67372">
        <ele>245</ele>
        <time>2010-05-21T13:24:36Z</time>
      </trkpt>
      <trkpt lat="47.17419" lon="5.67381">
        <ele>245</ele>
        <time>2010-05-21T13:24:37Z</time>
      </trkpt>
      <trkpt lat="47.17428" lon="5.67391">
        <ele>240</ele>
        <time>2010-05-21T13:24:38Z</time>
      </trkpt>
      <trkpt lat="47.17436" lon="5.67401">
        <ele>240</ele>
        <time>2010-05-21T13:24:39Z</time>
      </trkpt>
      <trkpt lat="47.17444" lon="5.67412">
        <ele>240</ele>
        <time>2010-05-21T13:24:40Z</time>
      </trkpt>
      <trkpt lat="47.17453" lon="5.67422">
        <ele>240</ele>
        <time>2010-05-21T13:24:41Z</time>
      </trkpt>
      <trkpt lat="47.17461" lon="5.67433">
        <ele>240</ele>
        <time>2010-05-21T13:24:42Z</time>
      </trkpt>
      <trkpt lat="47.17469" lon="5.67444">
        <ele>240</ele>
        <time>2010-05-21T13:24:43Z</time>
      </trkpt>
      <trkpt lat="47.17478" lon="5.67456">
        <ele>240</ele>
        <time>2010-05-21T13:24:44Z</time>
      </trkpt>
      <trkpt lat="47.17487" lon="5.67466">
        <ele>240</ele>
        <time>2010-05-21T13:24:45Z</time>
      </trkpt>
      <trkpt lat="47.17495" lon="5.67477">
        <ele>240</ele>
        <time>2010-05-21T13:24:46Z</time>
      </trkpt>
      <trkpt lat="47.17504" lon="5.67486">
        <ele>240</ele>
        <time>2010-05-21T13:24:47Z</time>
      </trkpt>
      <trkpt lat="47.17514" lon="5.67495">
        <ele>240</ele>
        <time>2010-05-21T13:24:48Z</time>
      </trkpt>
      <trkpt lat="47.17523" lon="5.67502">
        <ele>240</ele>
        <time>2010-05-21T13:24:49Z</time>
      </trkpt>
      <trkpt lat="47.17532" lon="5.6751">
        <ele>240</ele>
        <time>2010-05-21T13:24:50Z</time>
      </trkpt>
      <trkpt lat="47.17541" lon="5.67515">
        <ele>240</ele>
        <time>2010-05-21T13:24:51Z</time>
      </trkpt>
      <trkpt lat="47.1755" lon="5.67521">
        <ele>240</ele>
        <time>2010-05-21T13:24:52Z</time>
      </trkpt>
      <trkpt lat="47.1756" lon="5.67525">
        <ele>240</ele>
        <time>2010-05-21T13:24:53Z</time>
      </trkpt>
      <trkpt lat="47.17568" lon="5.6753">
        <ele>240</ele>
        <time>2010-05-21T13:24:54Z</time>
      </trkpt>
      <trkpt lat="47.17577" lon="5.67535">
        <ele>240</ele>
        <time>2010-05-21T13:24:55Z</time>
      </trkpt>
      <trkpt lat="47.17594" lon="5.67543">
        <ele>240</ele>
        <time>2010-05-21T13:24:57Z</time>
      </trkpt>
      <trkpt lat="47.17602" lon="5.67547">
        <ele>240</ele>
        <time>2010-05-21T13:24:58Z</time>
      </trkpt>
      <trkpt lat="47.17611" lon="5.6755">
        <ele>240</ele>
        <time>2010-05-21T13:24:59Z</time>
      </trkpt>
      <trkpt lat="47.17628" lon="5.67555">
        <ele>240</ele>
        <time>2010-05-21T13:25:01Z</time>
      </trkpt>
      <trkpt lat="47.17637" lon="5.67557">
        <ele>240</ele>
        <time>2010-05-21T13:25:02Z</time>
      </trkpt>
      <trkpt lat="47.17647" lon="5.67557">
        <ele>240</ele>
        <time>2010-05-21T13:25:03Z</time>
      </trkpt>
      <trkpt lat="47.17666" lon="5.67557">
        <ele>240</ele>
        <time>2010-05-21T13:25:05Z</time>
      </trkpt>
      <trkpt lat="47.17675" lon="5.67557">
        <ele>240</ele>
        <time>2010-05-21T13:25:06Z</time>
      </trkpt>
      <trkpt lat="47.17686" lon="5.67556">
        <ele>235</ele>
        <time>2010-05-21T13:25:07Z</time>
      </trkpt>
      <trkpt lat="47.17716" lon="5.67557">
        <ele>235</ele>
        <time>2010-05-21T13:25:10Z</time>
      </trkpt>
      <trkpt lat="47.17727" lon="5.67556">
        <ele>235</ele>
        <time>2010-05-21T13:25:11Z</time>
      </trkpt>
      <trkpt lat="47.17738" lon="5.67556">
        <ele>235</ele>
        <time>2010-05-21T13:25:12Z</time>
      </trkpt>
      <trkpt lat="47.17749" lon="5.67555">
        <ele>235</ele>
        <time>2010-05-21T13:25:13Z</time>
      </trkpt>
      <trkpt lat="47.1776" lon="5.67553">
        <ele>235</ele>
        <time>2010-05-21T13:25:14Z</time>
      </trkpt>
      <trkpt lat="47.1777" lon="5.67552">
        <ele>235</ele>
        <time>2010-05-21T13:25:15Z</time>
      </trkpt>
      <trkpt lat="47.17781" lon="5.67551">
        <ele>235</ele>
        <time>2010-05-21T13:25:16Z</time>
      </trkpt>
      <trkpt lat="47.17791" lon="5.6755">
        <ele>235</ele>
        <time>2010-05-21T13:25:17Z</time>
      </trkpt>
      <trkpt lat="47.17802" lon="5.67548">
        <ele>235</ele>
        <time>2010-05-21T13:25:18Z</time>
      </trkpt>
      <trkpt lat="47.17813" lon="5.67548">
        <ele>235</ele>
        <time>2010-05-21T13:25:19Z</time>
      </trkpt>
      <trkpt lat="47.17823" lon="5.67548">
        <ele>235</ele>
        <time>2010-05-21T13:25:20Z</time>
      </trkpt>
      <trkpt lat="47.17833" lon="5.67546">
        <ele>235</ele>
        <time>2010-05-21T13:25:21Z</time>
      </trkpt>
      <trkpt lat="47.17844" lon="5.67546">
        <ele>235</ele>
        <time>2010-05-21T13:25:22Z</time>
      </trkpt>
      <trkpt lat="47.17855" lon="5.67545">
        <ele>235</ele>
        <time>2010-05-21T13:25:23Z</time>
      </trkpt>
      <trkpt lat="47.17866" lon="5.67547">
        <ele>235</ele>
        <time>2010-05-21T13:25:24Z</time>
      </trkpt>
      <trkpt lat="47.17877" lon="5.67549">
        <ele>235</ele>
        <time>2010-05-21T13:25:25Z</time>
      </trkpt>
      <trkpt lat="47.17888" lon="5.67554">
        <ele>235</ele>
        <time>2010-05-21T13:25:26Z</time>
      </trkpt>
      <trkpt lat="47.17898" lon="5.67557">
        <ele>235</ele>
        <time>2010-05-21T13:25:27Z</time>
      </trkpt>
      <trkpt lat="47.17909" lon="5.67561">
        <ele>235</ele>
        <time>2010-05-21T13:25:28Z</time>
      </trkpt>
      <trkpt lat="47.17919" lon="5.67566">
        <ele>235</ele>
        <time>2010-05-21T13:25:29Z</time>
      </trkpt>
      <trkpt lat="47.17929" lon="5.6757">
        <ele>235</ele>
        <time>2010-05-21T13:25:30Z</time>
      </trkpt>
      <trkpt lat="47.17939" lon="5.67575">
        <ele>235</ele>
        <time>2010-05-21T13:25:31Z</time>
      </trkpt>
      <trkpt lat="47.17948" lon="5.67583">
        <ele>235</ele>
        <time>2010-05-21T13:25:32Z</time>
      </trkpt>
      <trkpt lat="47.17958" lon="5.67592">
        <ele>235</ele>
        <time>2010-05-21T13:25:33Z</time>
      </trkpt>
      <trkpt lat="47.17966" lon="5.67601">
        <ele>235</ele>
        <time>2010-05-21T13:25:34Z</time>
      </trkpt>
      <trkpt lat="47.17974" lon="5.6761">
        <ele>235</ele>
        <time>2010-05-21T13:25:35Z</time>
      </trkpt>
      <trkpt lat="47.17982" lon="5.6762">
        <ele>235</ele>
        <time>2010-05-21T13:25:36Z</time>
      </trkpt>
      <trkpt lat="47.17988" lon="5.6763">
        <ele>235</ele>
        <time>2010-05-21T13:25:37Z</time>
      </trkpt>
      <trkpt lat="47.17994" lon="5.6764">
        <ele>235</ele>
        <time>2010-05-21T13:25:38Z</time>
      </trkpt>
      <trkpt lat="47.18006" lon="5.6766">
        <ele>235</ele>
        <time>2010-05-21T13:25:40Z</time>
      </trkpt>
      <trkpt lat="47.18015" lon="5.6768">
        <ele>235</ele>
        <time>2010-05-21T13:25:42Z</time>
      </trkpt>
      <trkpt lat="47.18023" lon="5.67699">
        <ele>235</ele>
        <time>2010-05-21T13:25:44Z</time>
      </trkpt>
      <trkpt lat="47.18031" lon="5.67719">
        <ele>235</ele>
        <time>2010-05-21T13:25:46Z</time>
      </trkpt>
      <trkpt lat="47.18037" lon="5.67736">
        <ele>235</ele>
        <time>2010-05-21T13:25:48Z</time>
      </trkpt>
      <trkpt lat="47.18042" lon="5.67752">
        <ele>235</ele>
        <time>2010-05-21T13:25:50Z</time>
      </trkpt>
      <trkpt lat="47.18047" lon="5.67768">
        <ele>235</ele>
        <time>2010-05-21T13:25:52Z</time>
      </trkpt>
      <trkpt lat="47.18052" lon="5.67783">
        <ele>235</ele>
        <time>2010-05-21T13:25:54Z</time>
      </trkpt>
      <trkpt lat="47.18056" lon="5.67797">
        <ele>235</ele>
        <time>2010-05-21T13:25:56Z</time>
      </trkpt>
      <trkpt lat="47.18061" lon="5.67811">
        <ele>235</ele>
        <time>2010-05-21T13:25:58Z</time>
      </trkpt>
      <trkpt lat="47.18065" lon="5.67824">
        <ele>240</ele>
        <time>2010-05-21T13:26:00Z</time>
      </trkpt>
      <trkpt lat="47.18069" lon="5.67837">
        <ele>240</ele>
        <time>2010-05-21T13:26:02Z</time>
      </trkpt>
      <trkpt lat="47.18073" lon="5.67849">
        <ele>240</ele>
        <time>2010-05-21T13:26:04Z</time>
      </trkpt>
      <trkpt lat="47.18078" lon="5.67862">
        <ele>240</ele>
        <time>2010-05-21T13:26:06Z</time>
      </trkpt>
      <trkpt lat="47.18082" lon="5.67875">
        <ele>240</ele>
        <time>2010-05-21T13:26:08Z</time>
      </trkpt>
      <trkpt lat="47.18086" lon="5.67888">
        <ele>240</ele>
        <time>2010-05-21T13:26:10Z</time>
      </trkpt>
      <trkpt lat="47.18091" lon="5.67901">
        <ele>240</ele>
        <time>2010-05-21T13:26:12Z</time>
      </trkpt>
      <trkpt lat="47.18097" lon="5.67914">
        <ele>240</ele>
        <time>2010-05-21T13:26:14Z</time>
      </trkpt>
      <trkpt lat="47.18103" lon="5.67928">
        <ele>240</ele>
        <time>2010-05-21T13:26:16Z</time>
      </trkpt>
      <trkpt lat="47.18109" lon="5.67942">
        <ele>240</ele>
        <time>2010-05-21T13:26:18Z</time>
      </trkpt>
      <trkpt lat="47.18115" lon="5.67956">
        <ele>240</ele>
        <time>2010-05-21T13:26:20Z</time>
      </trkpt>
      <trkpt lat="47.18121" lon="5.67971">
        <ele>240</ele>
        <time>2010-05-21T13:26:22Z</time>
      </trkpt>
      <trkpt lat="47.18127" lon="5.67985">
        <ele>240</ele>
        <time>2010-05-21T13:26:24Z</time>
      </trkpt>
      <trkpt lat="47.18133" lon="5.67999">
        <ele>240</ele>
        <time>2010-05-21T13:26:26Z</time>
      </trkpt>
      <trkpt lat="47.1814" lon="5.68013">
        <ele>240</ele>
        <time>2010-05-21T13:26:28Z</time>
      </trkpt>
      <trkpt lat="47.18146" lon="5.68027">
        <ele>240</ele>
        <time>2010-05-21T13:26:30Z</time>
      </trkpt>
      <trkpt lat="47.18152" lon="5.68041">
        <ele>240</ele>
        <time>2010-05-21T13:26:32Z</time>
      </trkpt>
      <trkpt lat="47.18159" lon="5.68053">
        <ele>240</ele>
        <time>2010-05-21T13:26:34Z</time>
      </trkpt>
      <trkpt lat="47.18166" lon="5.68066">
        <ele>240</ele>
        <time>2010-05-21T13:26:36Z</time>
      </trkpt>
      <trkpt lat="47.18173" lon="5.68078">
        <ele>240</ele>
        <time>2010-05-21T13:26:38Z</time>
      </trkpt>
      <trkpt lat="47.18181" lon="5.68093">
        <ele>240</ele>
        <time>2010-05-21T13:26:40Z</time>
      </trkpt>
      <trkpt lat="47.18189" lon="5.68107">
        <ele>240</ele>
        <time>2010-05-21T13:26:42Z</time>
      </trkpt>
      <trkpt lat="47.18198" lon="5.68122">
        <ele>240</ele>
        <time>2010-05-21T13:26:44Z</time>
      </trkpt>
      <trkpt lat="47.18207" lon="5.68138">
        <ele>234</ele>
        <time>2010-05-21T13:26:46Z</time>
      </trkpt>
      <trkpt lat="47.18217" lon="5.68151">
        <ele>234</ele>
        <time>2010-05-21T13:26:48Z</time>
      </trkpt>
      <trkpt lat="47.18229" lon="5.68162">
        <ele>234</ele>
        <time>2010-05-21T13:26:50Z</time>
      </trkpt>
      <trkpt lat="47.18242" lon="5.68168">
        <ele>234</ele>
        <time>2010-05-21T13:26:52Z</time>
      </trkpt>
      <trkpt lat="47.18256" lon="5.68168">
        <ele>234</ele>
        <time>2010-05-21T13:26:54Z</time>
      </trkpt>
      <trkpt lat="47.18271" lon="5.68161">
        <ele>234</ele>
        <time>2010-05-21T13:26:56Z</time>
      </trkpt>
      <trkpt lat="47.18285" lon="5.68152">
        <ele>234</ele>
        <time>2010-05-21T13:26:58Z</time>
      </trkpt>
      <trkpt lat="47.183" lon="5.68142">
        <ele>234</ele>
        <time>2010-05-21T13:27:00Z</time>
      </trkpt>
      <trkpt lat="47.18315" lon="5.68131">
        <ele>234</ele>
        <time>2010-05-21T13:27:02Z</time>
      </trkpt>
      <trkpt lat="47.18332" lon="5.68124">
        <ele>234</ele>
        <time>2010-05-21T13:27:04Z</time>
      </trkpt>
      <trkpt lat="47.1835" lon="5.68122">
        <ele>234</ele>
        <time>2010-05-21T13:27:06Z</time>
      </trkpt>
      <trkpt lat="47.18367" lon="5.68122">
        <ele>234</ele>
        <time>2010-05-21T13:27:08Z</time>
      </trkpt>
      <trkpt lat="47.18385" lon="5.68122">
        <ele>234</ele>
        <time>2010-05-21T13:27:10Z</time>
      </trkpt>
      <trkpt lat="47.18401" lon="5.68122">
        <ele>234</ele>
        <time>2010-05-21T13:27:12Z</time>
      </trkpt>
      <trkpt lat="47.18417" lon="5.68121">
        <ele>234</ele>
        <time>2010-05-21T13:27:14Z</time>
      </trkpt>
      <trkpt lat="47.18432" lon="5.68121">
        <ele>234</ele>
        <time>2010-05-21T13:27:16Z</time>
      </trkpt>
      <trkpt lat="47.18448" lon="5.6812">
        <ele>234</ele>
        <time>2010-05-21T13:27:18Z</time>
      </trkpt>
      <trkpt lat="47.18463" lon="5.6812">
        <ele>234</ele>
        <time>2010-05-21T13:27:20Z</time>
      </trkpt>
      <trkpt lat="47.18477" lon="5.68118">
        <ele>234</ele>
        <time>2010-05-21T13:27:22Z</time>
      </trkpt>
      <trkpt lat="47.18491" lon="5.68116">
        <ele>234</ele>
        <time>2010-05-21T13:27:24Z</time>
      </trkpt>
      <trkpt lat="47.18504" lon="5.68114">
        <ele>234</ele>
        <time>2010-05-21T13:27:26Z</time>
      </trkpt>
      <trkpt lat="47.18516" lon="5.68114">
        <ele>234</ele>
        <time>2010-05-21T13:27:28Z</time>
      </trkpt>
      <trkpt lat="47.18528" lon="5.68113">
        <ele>234</ele>
        <time>2010-05-21T13:27:30Z</time>
      </trkpt>
      <trkpt lat="47.1854" lon="5.68113">
        <ele>234</ele>
        <time>2010-05-21T13:27:32Z</time>
      </trkpt>
      <trkpt lat="47.1855" lon="5.68114">
        <ele>234</ele>
        <time>2010-05-21T13:27:34Z</time>
      </trkpt>
      <trkpt lat="47.1856" lon="5.68115">
        <ele>234</ele>
        <time>2010-05-21T13:27:36Z</time>
      </trkpt>
      <trkpt lat="47.1857" lon="5.68118">
        <ele>234</ele>
        <time>2010-05-21T13:27:38Z</time>
      </trkpt>
      <trkpt lat="47.18579" lon="5.68119">
        <ele>234</ele>
        <time>2010-05-21T13:27:40Z</time>
      </trkpt>
      <trkpt lat="47.18588" lon="5.6812">
        <ele>234</ele>
        <time>2010-05-21T13:27:42Z</time>
      </trkpt>
      <trkpt lat="47.18598" lon="5.68122">
        <ele>234</ele>
        <time>2010-05-21T13:27:44Z</time>
      </trkpt>
      <trkpt lat="47.18607" lon="5.68121">
        <ele>234</ele>
        <time>2010-05-21T13:27:46Z</time>
      </trkpt>
      <trkpt lat="47.1862" lon="5.68123">
        <ele>240</ele>
        <time>2010-05-21T13:27:49Z</time>
      </trkpt>
      <trkpt lat="47.18634" lon="5.68122">
        <ele>240</ele>
        <time>2010-05-21T13:27:52Z</time>
      </trkpt>
      <trkpt lat="47.18643" lon="5.68122">
        <ele>240</ele>
        <time>2010-05-21T13:27:54Z</time>
      </trkpt>
      <trkpt lat="47.18652" lon="5.6812">
        <ele>246</ele>
        <time>2010-05-21T13:27:56Z</time>
      </trkpt>
      <trkpt lat="47.18665" lon="5.68119">
        <ele>246</ele>
        <time>2010-05-21T13:27:59Z</time>
      </trkpt>
      <trkpt lat="47.18678" lon="5.68118">
        <ele>246</ele>
        <time>2010-05-21T13:28:02Z</time>
      </trkpt>
      <trkpt lat="47.1869" lon="5.68118">
        <ele>246</ele>
        <time>2010-05-21T13:28:05Z</time>
      </trkpt>
      <trkpt lat="47.18702" lon="5.68117">
        <ele>246</ele>
        <time>2010-05-21T13:28:08Z</time>
      </trkpt>
      <trkpt lat="47.18713" lon="5.68116">
        <ele>246</ele>
        <time>2010-05-21T13:28:11Z</time>
      </trkpt>
      <trkpt lat="47.18724" lon="5.68115">
        <ele>246</ele>
        <time>2010-05-21T13:28:14Z</time>
      </trkpt>
      <trkpt lat="47.18736" lon="5.68114">
        <ele>246</ele>
        <time>2010-05-21T13:28:17Z</time>
      </trkpt>
      <trkpt lat="47.18747" lon="5.68113">
        <ele>246</ele>
        <time>2010-05-21T13:28:20Z</time>
      </trkpt>
      <trkpt lat="47.18758" lon="5.68112">
        <ele>246</ele>
        <time>2010-05-21T13:28:23Z</time>
      </trkpt>
      <trkpt lat="47.18769" lon="5.68112">
        <ele>246</ele>
        <time>2010-05-21T13:28:26Z</time>
      </trkpt>
      <trkpt lat="47.1878" lon="5.68113">
        <ele>246</ele>
        <time>2010-05-21T13:28:29Z</time>
      </trkpt>
      <trkpt lat="47.18789" lon="5.68115">
        <ele>251</ele>
        <time>2010-05-21T13:28:32Z</time>
      </trkpt>
      <trkpt lat="47.18799" lon="5.6812">
        <ele>251</ele>
        <time>2010-05-21T13:28:35Z</time>
      </trkpt>
      <trkpt lat="47.18808" lon="5.68126">
        <ele>251</ele>
        <time>2010-05-21T13:28:38Z</time>
      </trkpt>
      <trkpt lat="47.18818" lon="5.68132">
        <ele>251</ele>
        <time>2010-05-21T13:28:41Z</time>
      </trkpt>
      <trkpt lat="47.18827" lon="5.6814">
        <ele>251</ele>
        <time>2010-05-21T13:28:44Z</time>
      </trkpt>
      <trkpt lat="47.18837" lon="5.68147">
        <ele>251</ele>
        <time>2010-05-21T13:28:47Z</time>
      </trkpt>
      <trkpt lat="47.18845" lon="5.68155">
        <ele>251</ele>
        <time>2010-05-21T13:28:50Z</time>
      </trkpt>
      <trkpt lat="47.18853" lon="5.68164">
        <ele>251</ele>
        <time>2010-05-21T13:28:53Z</time>
      </trkpt>
      <trkpt lat="47.18862" lon="5.68172">
        <ele>251</ele>
        <time>2010-05-21T13:28:56Z</time>
      </trkpt>
      <trkpt lat="47.18871" lon="5.68179">
        <ele>251</ele>
        <time>2010-05-21T13:28:59Z</time>
      </trkpt>
      <trkpt lat="47.18879" lon="5.68187">
        <ele>251</ele>
        <time>2010-05-21T13:29:02Z</time>
      </trkpt>
      <trkpt lat="47.18887" lon="5.68194">
        <ele>251</ele>
        <time>2010-05-21T13:29:05Z</time>
      </trkpt>
      <trkpt lat="47.18896" lon="5.68202">
        <ele>251</ele>
        <time>2010-05-21T13:29:08Z</time>
      </trkpt>
      <trkpt lat="47.18905" lon="5.68209">
        <ele>251</ele>
        <time>2010-05-21T13:29:11Z</time>
      </trkpt>
      <trkpt lat="47.18914" lon="5.68216">
        <ele>251</ele>
        <time>2010-05-21T13:29:14Z</time>
      </trkpt>
      <trkpt lat="47.18923" lon="5.68222">
        <ele>251</ele>
        <time>2010-05-21T13:29:17Z</time>
      </trkpt>
      <trkpt lat="47.18931" lon="5.68229">
        <ele>251</ele>
        <time>2010-05-21T13:29:20Z</time>
      </trkpt>
      <trkpt lat="47.18939" lon="5.68237">
        <ele>251</ele>
        <time>2010-05-21T13:29:23Z</time>
      </trkpt>
      <trkpt lat="47.18947" lon="5.68242">
        <ele>251</ele>
        <time>2010-05-21T13:29:26Z</time>
      </trkpt>
      <trkpt lat="47.18956" lon="5.68248">
        <ele>251</ele>
        <time>2010-05-21T13:29:29Z</time>
      </trkpt>
      <trkpt lat="47.18964" lon="5.68255">
        <ele>251</ele>
        <time>2010-05-21T13:29:32Z</time>
      </trkpt>
      <trkpt lat="47.18972" lon="5.68262">
        <ele>251</ele>
        <time>2010-05-21T13:29:35Z</time>
      </trkpt>
      <trkpt lat="47.1898" lon="5.68268">
        <ele>251</ele>
        <time>2010-05-21T13:29:38Z</time>
      </trkpt>
      <trkpt lat="47.18988" lon="5.68274">
        <ele>251</ele>
        <time>2010-05-21T13:29:41Z</time>
      </trkpt>
      <trkpt lat="47.18996" lon="5.68281">
        <ele>256</ele>
        <time>2010-05-21T13:29:44Z</time>
      </trkpt>
      <trkpt lat="47.19004" lon="5.68288">
        <ele>256</ele>
        <time>2010-05-21T13:29:47Z</time>
      </trkpt>
      <trkpt lat="47.19012" lon="5.68294">
        <ele>256</ele>
        <time>2010-05-21T13:29:50Z</time>
      </trkpt>
      <trkpt lat="47.19023" lon="5.68302">
        <ele>256</ele>
        <time>2010-05-21T13:29:54Z</time>
      </trkpt>
      <trkpt lat="47.19032" lon="5.6831">
        <ele>256</ele>
        <time>2010-05-21T13:29:58Z</time>
      </trkpt>
      <trkpt lat="47.19043" lon="5.68317">
        <ele>261</ele>
        <time>2010-05-21T13:30:02Z</time>
      </trkpt>
      <trkpt lat="47.19053" lon="5.68326">
        <ele>261</ele>
        <time>2010-05-21T13:30:06Z</time>
      </trkpt>
      <trkpt lat="47.19062" lon="5.68333">
        <ele>261</ele>
        <time>2010-05-21T13:30:10Z</time>
      </trkpt>
      <trkpt lat="47.19072" lon="5.68341">
        <ele>261</ele>
        <time>2010-05-21T13:30:14Z</time>
      </trkpt>
      <trkpt lat="47.19081" lon="5.68349">
        <ele>261</ele>
        <time>2010-05-21T13:30:18Z</time>
      </trkpt>
      <trkpt lat="47.19091" lon="5.68355">
        <ele>261</ele>
        <time>2010-05-21T13:30:22Z</time>
      </trkpt>
      <trkpt lat="47.191" lon="5.68364">
        <ele>267</ele>
        <time>2010-05-21T13:30:26Z</time>
      </trkpt>
      <trkpt lat="47.1911" lon="5.68372">
        <ele>267</ele>
        <time>2010-05-21T13:30:30Z</time>
      </trkpt>
      <trkpt lat="47.1912" lon="5.6838">
        <ele>267</ele>
        <time>2010-05-21T13:30:34Z</time>
      </trkpt>
      <trkpt lat="47.19128" lon="5.68387">
        <ele>267</ele>
        <time>2010-05-21T13:30:37Z</time>
      </trkpt>
      <trkpt lat="47.19138" lon="5.68395">
        <ele>267</ele>
        <time>2010-05-21T13:30:41Z</time>
      </trkpt>
      <trkpt lat="47.19148" lon="5.68404">
        <ele>267</ele>
        <time>2010-05-21T13:30:45Z</time>
      </trkpt>
      <trkpt lat="47.19158" lon="5.68412">
        <ele>267</ele>
        <time>2010-05-21T13:30:49Z</time>
      </trkpt>
      <trkpt lat="47.19168" lon="5.6842">
        <ele>272</ele>
        <time>2010-05-21T13:30:53Z</time>
      </trkpt>
      <trkpt lat="47.19176" lon="5.68426">
        <ele>272</ele>
        <time>2010-05-21T13:30:56Z</time>
      </trkpt>
      <trkpt lat="47.19184" lon="5.68433">
        <ele>272</ele>
        <time>2010-05-21T13:30:59Z</time>
      </trkpt>
      <trkpt lat="47.19193" lon="5.6844">
        <ele>272</ele>
        <time>2010-05-21T13:31:02Z</time>
      </trkpt>
      <trkpt lat="47.19201" lon="5.68448">
        <ele>272</ele>
        <time>2010-05-21T13:31:05Z</time>
      </trkpt>
      <trkpt lat="47.1921" lon="5.68455">
        <ele>272</ele>
        <time>2010-05-21T13:31:08Z</time>
      </trkpt>
      <trkpt lat="47.19219" lon="5.68462">
        <ele>272</ele>
        <time>2010-05-21T13:31:11Z</time>
      </trkpt>
      <trkpt lat="47.19228" lon="5.68468">
        <ele>272</ele>
        <time>2010-05-21T13:31:14Z</time>
      </trkpt>
      <trkpt lat="47.19236" lon="5.68476">
        <ele>272</ele>
        <time>2010-05-21T13:31:17Z</time>
      </trkpt>
      <trkpt lat="47.19246" lon="5.68485">
        <ele>272</ele>
        <time>2010-05-21T13:31:20Z</time>
      </trkpt>
      <trkpt lat="47.19255" lon="5.68492">
        <ele>272</ele>
        <time>2010-05-21T13:31:23Z</time>
      </trkpt>
      <trkpt lat="47.19264" lon="5.68499">
        <ele>277</ele>
        <time>2010-05-21T13:31:26Z</time>
      </trkpt>
      <trkpt lat="47.19273" lon="5.68506">
        <ele>277</ele>
        <time>2010-05-21T13:31:29Z</time>
      </trkpt>
      <trkpt lat="47.19283" lon="5.68513">
        <ele>277</ele>
        <time>2010-05-21T13:31:32Z</time>
      </trkpt>
      <trkpt lat="47.19292" lon="5.68521">
        <ele>277</ele>
        <time>2010-05-21T13:31:35Z</time>
      </trkpt>
      <trkpt lat="47.19301" lon="5.68529">
        <ele>277</ele>
        <time>2010-05-21T13:31:38Z</time>
      </trkpt>
      <trkpt lat="47.19311" lon="5.68538">
        <ele>277</ele>
        <time>2010-05-21T13:31:41Z</time>
      </trkpt>
      <trkpt lat="47.19322" lon="5.68546">
        <ele>277</ele>
        <time>2010-05-21T13:31:44Z</time>
      </trkpt>
      <trkpt lat="47.19331" lon="5.68553">
        <ele>277</ele>
        <time>2010-05-21T13:31:47Z</time>
      </trkpt>
      <trkpt lat="47.1934" lon="5.68561">
        <ele>277</ele>
        <time>2010-05-21T13:31:50Z</time>
      </trkpt>
      <trkpt lat="47.1935" lon="5.68569">
        <ele>277</ele>
        <time>2010-05-21T13:31:53Z</time>
      </trkpt>
      <trkpt lat="47.19359" lon="5.68576">
        <ele>277</ele>
        <time>2010-05-21T13:31:56Z</time>
      </trkpt>
      <trkpt lat="47.19369" lon="5.68583">
        <ele>277</ele>
        <time>2010-05-21T13:31:59Z</time>
      </trkpt>
      <trkpt lat="47.19379" lon="5.68591">
        <ele>277</ele>
        <time>2010-05-21T13:32:02Z</time>
      </trkpt>
      <trkpt lat="47.19389" lon="5.68599">
        <ele>277</ele>
        <time>2010-05-21T13:32:05Z</time>
      </trkpt>
      <trkpt lat="47.19398" lon="5.68606">
        <ele>277</ele>
        <time>2010-05-21T13:32:08Z</time>
      </trkpt>
      <trkpt lat="47.19408" lon="5.68614">
        <ele>283</ele>
        <time>2010-05-21T13:32:11Z</time>
      </trkpt>
      <trkpt lat="47.19417" lon="5.68622">
        <ele>283</ele>
        <time>2010-05-21T13:32:14Z</time>
      </trkpt>
      <trkpt lat="47.19427" lon="5.68631">
        <ele>283</ele>
        <time>2010-05-21T13:32:17Z</time>
      </trkpt>
      <trkpt lat="47.19436" lon="5.68637">
        <ele>283</ele>
        <time>2010-05-21T13:32:20Z</time>
      </trkpt>
      <trkpt lat="47.19446" lon="5.68644">
        <ele>283</ele>
        <time>2010-05-21T13:32:23Z</time>
      </trkpt>
      <trkpt lat="47.19455" lon="5.68652">
        <ele>283</ele>
        <time>2010-05-21T13:32:26Z</time>
      </trkpt>
      <trkpt lat="47.19464" lon="5.68659">
        <ele>288</ele>
        <time>2010-05-21T13:32:29Z</time>
      </trkpt>
      <trkpt lat="47.19473" lon="5.68667">
        <ele>288</ele>
        <time>2010-05-21T13:32:32Z</time>
      </trkpt>
      <trkpt lat="47.19481" lon="5.68674">
        <ele>288</ele>
        <time>2010-05-21T13:32:35Z</time>
      </trkpt>
      <trkpt lat="47.19491" lon="5.6868">
        <ele>288</ele>
        <time>2010-05-21T13:32:38Z</time>
      </trkpt>
      <trkpt lat="47.19499" lon="5.68687">
        <ele>288</ele>
        <time>2010-05-21T13:32:41Z</time>
      </trkpt>
      <trkpt lat="47.19508" lon="5.68692">
        <ele>288</ele>
        <time>2010-05-21T13:32:44Z</time>
      </trkpt>
      <trkpt lat="47.19517" lon="5.68699">
        <ele>293</ele>
        <time>2010-05-21T13:32:47Z</time>
      </trkpt>
      <trkpt lat="47.19527" lon="5.68708">
        <ele>293</ele>
        <time>2010-05-21T13:32:50Z</time>
      </trkpt>
      <trkpt lat="47.19538" lon="5.68717">
        <ele>293</ele>
        <time>2010-05-21T13:32:53Z</time>
      </trkpt>
      <trkpt lat="47.19546" lon="5.68723">
        <ele>293</ele>
        <time>2010-05-21T13:32:55Z</time>
      </trkpt>
      <trkpt lat="47.19555" lon="5.6873">
        <ele>293</ele>
        <time>2010-05-21T13:32:57Z</time>
      </trkpt>
      <trkpt lat="47.19563" lon="5.68735">
        <ele>293</ele>
        <time>2010-05-21T13:32:59Z</time>
      </trkpt>
      <trkpt lat="47.19572" lon="5.68741">
        <ele>293</ele>
        <time>2010-05-21T13:33:01Z</time>
      </trkpt>
      <trkpt lat="47.19581" lon="5.68747">
        <ele>293</ele>
        <time>2010-05-21T13:33:03Z</time>
      </trkpt>
      <trkpt lat="47.19589" lon="5.68752">
        <ele>293</ele>
        <time>2010-05-21T13:33:05Z</time>
      </trkpt>
      <trkpt lat="47.19598" lon="5.68758">
        <ele>293</ele>
        <time>2010-05-21T13:33:07Z</time>
      </trkpt>
      <trkpt lat="47.19607" lon="5.68764">
        <ele>293</ele>
        <time>2010-05-21T13:33:09Z</time>
      </trkpt>
      <trkpt lat="47.19615" lon="5.6877">
        <ele>293</ele>
        <time>2010-05-21T13:33:11Z</time>
      </trkpt>
      <trkpt lat="47.19623" lon="5.68776">
        <ele>293</ele>
        <time>2010-05-21T13:33:13Z</time>
      </trkpt>
      <trkpt lat="47.19632" lon="5.68783">
        <ele>293</ele>
        <time>2010-05-21T13:33:15Z</time>
      </trkpt>
      <trkpt lat="47.19641" lon="5.68789">
        <ele>293</ele>
        <time>2010-05-21T13:33:17Z</time>
      </trkpt>
      <trkpt lat="47.1965" lon="5.68794">
        <ele>293</ele>
        <time>2010-05-21T13:33:19Z</time>
      </trkpt>
      <trkpt lat="47.19658" lon="5.688">
        <ele>293</ele>
        <time>2010-05-21T13:33:21Z</time>
      </trkpt>
      <trkpt lat="47.19667" lon="5.68805">
        <ele>293</ele>
        <time>2010-05-21T13:33:23Z</time>
      </trkpt>
      <trkpt lat="47.19679" lon="5.68813">
        <ele>293</ele>
        <time>2010-05-21T13:33:26Z</time>
      </trkpt>
      <trkpt lat="47.19691" lon="5.6882">
        <ele>293</ele>
        <time>2010-05-21T13:33:29Z</time>
      </trkpt>
      <trkpt lat="47.19702" lon="5.68828">
        <ele>293</ele>
        <time>2010-05-21T13:33:32Z</time>
      </trkpt>
      <trkpt lat="47.19713" lon="5.68835">
        <ele>293</ele>
        <time>2010-05-21T13:33:35Z</time>
      </trkpt>
      <trkpt lat="47.19725" lon="5.68842">
        <ele>293</ele>
        <time>2010-05-21T13:33:38Z</time>
      </trkpt>
      <trkpt lat="47.19737" lon="5.6885">
        <ele>293</ele>
        <time>2010-05-21T13:33:41Z</time>
      </trkpt>
      <trkpt lat="47.1975" lon="5.68857">
        <ele>293</ele>
        <time>2010-05-21T13:33:44Z</time>
      </trkpt>
      <trkpt lat="47.19758" lon="5.68862">
        <ele>293</ele>
        <time>2010-05-21T13:33:46Z</time>
      </trkpt>
      <trkpt lat="47.19767" lon="5.68865">
        <ele>293</ele>
        <time>2010-05-21T13:33:48Z</time>
      </trkpt>
      <trkpt lat="47.19775" lon="5.6887">
        <ele>293</ele>
        <time>2010-05-21T13:33:50Z</time>
      </trkpt>
      <trkpt lat="47.19784" lon="5.68874">
        <ele>293</ele>
        <time>2010-05-21T13:33:52Z</time>
      </trkpt>
      <trkpt lat="47.19793" lon="5.68879">
        <ele>293</ele>
        <time>2010-05-21T13:33:54Z</time>
      </trkpt>
      <trkpt lat="47.19802" lon="5.68884">
        <ele>293</ele>
        <time>2010-05-21T13:33:56Z</time>
      </trkpt>
      <trkpt lat="47.19812" lon="5.68891">
        <ele>293</ele>
        <time>2010-05-21T13:33:58Z</time>
      </trkpt>
      <trkpt lat="47.19821" lon="5.68897">
        <ele>293</ele>
        <time>2010-05-21T13:34:00Z</time>
      </trkpt>
      <trkpt lat="47.19831" lon="5.68904">
        <ele>293</ele>
        <time>2010-05-21T13:34:02Z</time>
      </trkpt>
      <trkpt lat="47.1984" lon="5.68911">
        <ele>293</ele>
        <time>2010-05-21T13:34:04Z</time>
      </trkpt>
      <trkpt lat="47.19849" lon="5.68919">
        <ele>293</ele>
        <time>2010-05-21T13:34:06Z</time>
      </trkpt>
      <trkpt lat="47.19858" lon="5.68928">
        <ele>293</ele>
        <time>2010-05-21T13:34:08Z</time>
      </trkpt>
      <trkpt lat="47.19867" lon="5.68936">
        <ele>293</ele>
        <time>2010-05-21T13:34:10Z</time>
      </trkpt>
      <trkpt lat="47.19876" lon="5.68944">
        <ele>293</ele>
        <time>2010-05-21T13:34:12Z</time>
      </trkpt>
      <trkpt lat="47.19884" lon="5.68952">
        <ele>293</ele>
        <time>2010-05-21T13:34:14Z</time>
      </trkpt>
      <trkpt lat="47.19893" lon="5.6896">
        <ele>293</ele>
        <time>2010-05-21T13:34:16Z</time>
      </trkpt>
      <trkpt lat="47.19901" lon="5.68968">
        <ele>293</ele>
        <time>2010-05-21T13:34:18Z</time>
      </trkpt>
      <trkpt lat="47.1991" lon="5.68978">
        <ele>293</ele>
        <time>2010-05-21T13:34:20Z</time>
      </trkpt>
      <trkpt lat="47.19919" lon="5.68986">
        <ele>293</ele>
        <time>2010-05-21T13:34:22Z</time>
      </trkpt>
      <trkpt lat="47.19928" lon="5.68994">
        <ele>293</ele>
        <time>2010-05-21T13:34:24Z</time>
      </trkpt>
      <trkpt lat="47.19937" lon="5.69002">
        <ele>293</ele>
        <time>2010-05-21T13:34:26Z</time>
      </trkpt>
      <trkpt lat="47.19946" lon="5.69007">
        <ele>293</ele>
        <time>2010-05-21T13:34:28Z</time>
      </trkpt>
      <trkpt lat="47.19955" lon="5.6901">
        <ele>293</ele>
        <time>2010-05-21T13:34:30Z</time>
      </trkpt>
      <trkpt lat="47.19968" lon="5.69013">
        <ele>293</ele>
        <time>2010-05-21T13:34:33Z</time>
      </trkpt>
      <trkpt lat="47.1998" lon="5.69016">
        <ele>293</ele>
        <time>2010-05-21T13:34:36Z</time>
      </trkpt>
      <trkpt lat="47.1999" lon="5.69021">
        <ele>299</ele>
        <time>2010-05-21T13:34:41Z</time>
      </trkpt>
      <trkpt lat="47.19998" lon="5.69012">
        <ele>299</ele>
        <time>2010-05-21T13:42:51Z</time>
      </trkpt>
      <trkpt lat="47.20008" lon="5.69007">
        <ele>299</ele>
        <time>2010-05-21T13:42:55Z</time>
      </trkpt>
      <trkpt lat="47.20017" lon="5.69">
        <ele>299</ele>
        <time>2010-05-21T13:42:58Z</time>
      </trkpt>
      <trkpt lat="47.20029" lon="5.68989">
        <ele>299</ele>
        <time>2010-05-21T13:43:01Z</time>
      </trkpt>
      <trkpt lat="47.20036" lon="5.68981">
        <ele>299</ele>
        <time>2010-05-21T13:43:03Z</time>
      </trkpt>
      <trkpt lat="47.20044" lon="5.68972">
        <ele>299</ele>
        <time>2010-05-21T13:43:05Z</time>
      </trkpt>
      <trkpt lat="47.20051" lon="5.68964">
        <ele>299</ele>
        <time>2010-05-21T13:43:07Z</time>
      </trkpt>
      <trkpt lat="47.20059" lon="5.68954">
        <ele>299</ele>
        <time>2010-05-21T13:43:09Z</time>
      </trkpt>
      <trkpt lat="47.20067" lon="5.68945">
        <ele>299</ele>
        <time>2010-05-21T13:43:11Z</time>
      </trkpt>
      <trkpt lat="47.20074" lon="5.68935">
        <ele>299</ele>
        <time>2010-05-21T13:43:13Z</time>
      </trkpt>
      <trkpt lat="47.20081" lon="5.68926">
        <ele>299</ele>
        <time>2010-05-21T13:43:15Z</time>
      </trkpt>
      <trkpt lat="47.20091" lon="5.68913">
        <ele>299</ele>
        <time>2010-05-21T13:43:18Z</time>
      </trkpt>
      <trkpt lat="47.20101" lon="5.68902">
        <ele>299</ele>
        <time>2010-05-21T13:43:21Z</time>
      </trkpt>
      <trkpt lat="47.20111" lon="5.68891">
        <ele>299</ele>
        <time>2010-05-21T13:43:24Z</time>
      </trkpt>
      <trkpt lat="47.20123" lon="5.68887">
        <ele>299</ele>
        <time>2010-05-21T13:43:27Z</time>
      </trkpt>
      <trkpt lat="47.20134" lon="5.68893">
        <ele>299</ele>
        <time>2010-05-21T13:43:30Z</time>
      </trkpt>
      <trkpt lat="47.20145" lon="5.689">
        <ele>299</ele>
        <time>2010-05-21T13:43:33Z</time>
      </trkpt>
      <trkpt lat="47.20154" lon="5.68903">
        <ele>299</ele>
        <time>2010-05-21T13:43:36Z</time>
      </trkpt>
      <trkpt lat="47.20163" lon="5.68909">
        <ele>299</ele>
        <time>2010-05-21T13:43:40Z</time>
      </trkpt>
      <trkpt lat="47.20173" lon="5.68914">
        <ele>299</ele>
        <time>2010-05-21T13:43:44Z</time>
      </trkpt>
      <trkpt lat="47.20182" lon="5.68919">
        <ele>299</ele>
        <time>2010-05-21T13:43:48Z</time>
      </trkpt>
      <trkpt lat="47.2019" lon="5.68926">
        <ele>299</ele>
        <time>2010-05-21T13:43:52Z</time>
      </trkpt>
      <trkpt lat="47.202" lon="5.68928">
        <ele>299</ele>
        <time>2010-05-21T13:44:16Z</time>
      </trkpt>
      <trkpt lat="47.20206" lon="5.68937">
        <ele>299</ele>
        <time>2010-05-21T13:44:26Z</time>
      </trkpt>
      <trkpt lat="47.20207" lon="5.68952">
        <ele>299</ele>
        <time>2010-05-21T13:44:31Z</time>
      </trkpt>
      <trkpt lat="47.2021" lon="5.68965">
        <ele>299</ele>
        <time>2010-05-21T13:44:42Z</time>
      </trkpt>
      <trkpt lat="47.20215" lon="5.68978">
        <ele>299</ele>
        <time>2010-05-21T13:44:46Z</time>
      </trkpt>
      <trkpt lat="47.2022" lon="5.68991">
        <ele>299</ele>
        <time>2010-05-21T13:44:49Z</time>
      </trkpt>
      <trkpt lat="47.20225" lon="5.69006">
        <ele>299</ele>
        <time>2010-05-21T13:44:52Z</time>
      </trkpt>
      <trkpt lat="47.20231" lon="5.69021">
        <ele>299</ele>
        <time>2010-05-21T13:44:55Z</time>
      </trkpt>
      <trkpt lat="47.20236" lon="5.69035">
        <ele>299</ele>
        <time>2010-05-21T13:44:58Z</time>
      </trkpt>
      <trkpt lat="47.20241" lon="5.6905">
        <ele>299</ele>
        <time>2010-05-21T13:45:01Z</time>
      </trkpt>
      <trkpt lat="47.20246" lon="5.69064">
        <ele>299</ele>
        <time>2010-05-21T13:45:04Z</time>
      </trkpt>
      <trkpt lat="47.20251" lon="5.69077">
        <ele>299</ele>
        <time>2010-05-21T13:45:07Z</time>
      </trkpt>
      <trkpt lat="47.20256" lon="5.69092">
        <ele>299</ele>
        <time>2010-05-21T13:45:10Z</time>
      </trkpt>
      <trkpt lat="47.20261" lon="5.69105">
        <ele>299</ele>
        <time>2010-05-21T13:45:13Z</time>
      </trkpt>
      <trkpt lat="47.20266" lon="5.69119">
        <ele>299</ele>
        <time>2010-05-21T13:45:16Z</time>
      </trkpt>
      <trkpt lat="47.20271" lon="5.69133">
        <ele>299</ele>
        <time>2010-05-21T13:45:19Z</time>
      </trkpt>
      <trkpt lat="47.20275" lon="5.69147">
        <ele>299</ele>
        <time>2010-05-21T13:45:22Z</time>
      </trkpt>
      <trkpt lat="47.2028" lon="5.69161">
        <ele>299</ele>
        <time>2010-05-21T13:45:25Z</time>
      </trkpt>
      <trkpt lat="47.20285" lon="5.69174">
        <ele>299</ele>
        <time>2010-05-21T13:45:28Z</time>
      </trkpt>
      <trkpt lat="47.2029" lon="5.69189">
        <ele>299</ele>
        <time>2010-05-21T13:45:31Z</time>
      </trkpt>
      <trkpt lat="47.20294" lon="5.69202">
        <ele>299</ele>
        <time>2010-05-21T13:45:34Z</time>
      </trkpt>
      <trkpt lat="47.20298" lon="5.69217">
        <ele>299</ele>
        <time>2010-05-21T13:45:37Z</time>
      </trkpt>
      <trkpt lat="47.20303" lon="5.6923">
        <ele>299</ele>
        <time>2010-05-21T13:45:40Z</time>
      </trkpt>
      <trkpt lat="47.20307" lon="5.69244">
        <ele>299</ele>
        <time>2010-05-21T13:45:43Z</time>
      </trkpt>
      <trkpt lat="47.20312" lon="5.69258">
        <ele>299</ele>
        <time>2010-05-21T13:45:46Z</time>
      </trkpt>
      <trkpt lat="47.20317" lon="5.69272">
        <ele>299</ele>
        <time>2010-05-21T13:45:49Z</time>
      </trkpt>
      <trkpt lat="47.20322" lon="5.69287">
        <ele>299</ele>
        <time>2010-05-21T13:45:52Z</time>
      </trkpt>
      <trkpt lat="47.20327" lon="5.69299">
        <ele>299</ele>
        <time>2010-05-21T13:45:55Z</time>
      </trkpt>
      <trkpt lat="47.20333" lon="5.69312">
        <ele>299</ele>
        <time>2010-05-21T13:45:58Z</time>
      </trkpt>
      <trkpt lat="47.20338" lon="5.69324">
        <ele>299</ele>
        <time>2010-05-21T13:46:01Z</time>
      </trkpt>
      <trkpt lat="47.20345" lon="5.69335">
        <ele>299</ele>
        <time>2010-05-21T13:46:04Z</time>
      </trkpt>
      <trkpt lat="47.20353" lon="5.69344">
        <ele>299</ele>
        <time>2010-05-21T13:46:07Z</time>
      </trkpt>
      <trkpt lat="47.20362" lon="5.69357">
        <ele>299</ele>
        <time>2010-05-21T13:46:10Z</time>
      </trkpt>
      <trkpt lat="47.20372" lon="5.69368">
        <ele>299</ele>
        <time>2010-05-21T13:46:13Z</time>
      </trkpt>
      <trkpt lat="47.2038" lon="5.69376">
        <ele>299</ele>
        <time>2010-05-21T13:46:15Z</time>
      </trkpt>
      <trkpt lat="47.2039" lon="5.69386">
        <ele>299</ele>
        <time>2010-05-21T13:46:18Z</time>
      </trkpt>
      <trkpt lat="47.204" lon="5.69397">
        <ele>299</ele>
        <time>2010-05-21T13:46:21Z</time>
      </trkpt>
      <trkpt lat="47.2041" lon="5.69407">
        <ele>299</ele>
        <time>2010-05-21T13:46:24Z</time>
      </trkpt>
      <trkpt lat="47.20422" lon="5.69416">
        <ele>299</ele>
        <time>2010-05-21T13:46:27Z</time>
      </trkpt>
      <trkpt lat="47.20432" lon="5.69424">
        <ele>299</ele>
        <time>2010-05-21T13:46:30Z</time>
      </trkpt>
      <trkpt lat="47.20443" lon="5.6943">
        <ele>299</ele>
        <time>2010-05-21T13:46:33Z</time>
      </trkpt>
      <trkpt lat="47.20452" lon="5.69438">
        <ele>299</ele>
        <time>2010-05-21T13:46:36Z</time>
      </trkpt>
      <trkpt lat="47.20462" lon="5.69444">
        <ele>299</ele>
        <time>2010-05-21T13:46:39Z</time>
      </trkpt>
      <trkpt lat="47.20471" lon="5.6945">
        <ele>299</ele>
        <time>2010-05-21T13:46:42Z</time>
      </trkpt>
      <trkpt lat="47.20481" lon="5.69456">
        <ele>299</ele>
        <time>2010-05-21T13:46:45Z</time>
      </trkpt>
      <trkpt lat="47.20492" lon="5.69461">
        <ele>299</ele>
        <time>2010-05-21T13:46:48Z</time>
      </trkpt>
      <trkpt lat="47.20504" lon="5.69465">
        <ele>299</ele>
        <time>2010-05-21T13:46:51Z</time>
      </trkpt>
      <trkpt lat="47.20515" lon="5.6947">
        <ele>299</ele>
        <time>2010-05-21T13:46:54Z</time>
      </trkpt>
      <trkpt lat="47.20528" lon="5.69473">
        <ele>299</ele>
        <time>2010-05-21T13:46:57Z</time>
      </trkpt>
      <trkpt lat="47.2054" lon="5.69474">
        <ele>306</ele>
        <time>2010-05-21T13:47:00Z</time>
      </trkpt>
      <trkpt lat="47.20549" lon="5.69482">
        <ele>306</ele>
        <time>2010-05-21T13:47:02Z</time>
      </trkpt>
      <trkpt lat="47.20558" lon="5.69486">
        <ele>306</ele>
        <time>2010-05-21T13:47:04Z</time>
      </trkpt>
      <trkpt lat="47.20567" lon="5.69488">
        <ele>306</ele>
        <time>2010-05-21T13:47:06Z</time>
      </trkpt>
      <trkpt lat="47.20577" lon="5.6949">
        <ele>311</ele>
        <time>2010-05-21T13:47:08Z</time>
      </trkpt>
      <trkpt lat="47.20586" lon="5.69492">
        <ele>311</ele>
        <time>2010-05-21T13:47:10Z</time>
      </trkpt>
      <trkpt lat="47.20599" lon="5.69494">
        <ele>311</ele>
        <time>2010-05-21T13:47:13Z</time>
      </trkpt>
      <trkpt lat="47.20608" lon="5.69498">
        <ele>317</ele>
        <time>2010-05-21T13:47:15Z</time>
      </trkpt>
      <trkpt lat="47.20621" lon="5.695">
        <ele>317</ele>
        <time>2010-05-21T13:47:18Z</time>
      </trkpt>
      <trkpt lat="47.20634" lon="5.69504">
        <ele>317</ele>
        <time>2010-05-21T13:47:21Z</time>
      </trkpt>
      <trkpt lat="47.20646" lon="5.69506">
        <ele>323</ele>
        <time>2010-05-21T13:47:24Z</time>
      </trkpt>
      <trkpt lat="47.20657" lon="5.69511">
        <ele>323</ele>
        <time>2010-05-21T13:47:27Z</time>
      </trkpt>
      <trkpt lat="47.20665" lon="5.69518">
        <ele>323</ele>
        <time>2010-05-21T13:47:29Z</time>
      </trkpt>
      <trkpt lat="47.20678" lon="5.6953">
        <ele>323</ele>
        <time>2010-05-21T13:47:32Z</time>
      </trkpt>
      <trkpt lat="47.20686" lon="5.6954">
        <ele>315</ele>
        <time>2010-05-21T13:47:34Z</time>
      </trkpt>
      <trkpt lat="47.20693" lon="5.69548">
        <ele>315</ele>
        <time>2010-05-21T13:47:36Z</time>
      </trkpt>
      <trkpt lat="47.20702" lon="5.69558">
        <ele>315</ele>
        <time>2010-05-21T13:47:39Z</time>
      </trkpt>
      <trkpt lat="47.20711" lon="5.69569">
        <ele>315</ele>
        <time>2010-05-21T13:47:42Z</time>
      </trkpt>
      <trkpt lat="47.2072" lon="5.69581">
        <ele>307</ele>
        <time>2010-05-21T13:47:45Z</time>
      </trkpt>
      <trkpt lat="47.20728" lon="5.69595">
        <ele>307</ele>
        <time>2010-05-21T13:47:48Z</time>
      </trkpt>
      <trkpt lat="47.20736" lon="5.69609">
        <ele>298</ele>
        <time>2010-05-21T13:47:51Z</time>
      </trkpt>
      <trkpt lat="47.20743" lon="5.69624">
        <ele>298</ele>
        <time>2010-05-21T13:47:54Z</time>
      </trkpt>
      <trkpt lat="47.20749" lon="5.6964">
        <ele>298</ele>
        <time>2010-05-21T13:47:57Z</time>
      </trkpt>
      <trkpt lat="47.20755" lon="5.69655">
        <ele>290</ele>
        <time>2010-05-21T13:48:00Z</time>
      </trkpt>
      <trkpt lat="47.2076" lon="5.69669">
        <ele>290</ele>
        <time>2010-05-21T13:48:03Z</time>
      </trkpt>
      <trkpt lat="47.20766" lon="5.69684">
        <ele>290</ele>
        <time>2010-05-21T13:48:06Z</time>
      </trkpt>
      <trkpt lat="47.20771" lon="5.69698">
        <ele>290</ele>
        <time>2010-05-21T13:48:09Z</time>
      </trkpt>
      <trkpt lat="47.20775" lon="5.69712">
        <ele>290</ele>
        <time>2010-05-21T13:48:12Z</time>
      </trkpt>
      <trkpt lat="47.2078" lon="5.69726">
        <ele>290</ele>
        <time>2010-05-21T13:48:15Z</time>
      </trkpt>
      <trkpt lat="47.20788" lon="5.69738">
        <ele>290</ele>
        <time>2010-05-21T13:48:18Z</time>
      </trkpt>
      <trkpt lat="47.20794" lon="5.6975">
        <ele>290</ele>
        <time>2010-05-21T13:48:21Z</time>
      </trkpt>
      <trkpt lat="47.208" lon="5.69763">
        <ele>290</ele>
        <time>2010-05-21T13:48:24Z</time>
      </trkpt>
      <trkpt lat="47.20804" lon="5.69776">
        <ele>290</ele>
        <time>2010-05-21T13:48:27Z</time>
      </trkpt>
      <trkpt lat="47.20808" lon="5.69791">
        <ele>290</ele>
        <time>2010-05-21T13:48:30Z</time>
      </trkpt>
      <trkpt lat="47.20812" lon="5.69807">
        <ele>290</ele>
        <time>2010-05-21T13:48:33Z</time>
      </trkpt>
      <trkpt lat="47.20817" lon="5.69821">
        <ele>290</ele>
        <time>2010-05-21T13:48:36Z</time>
      </trkpt>
      <trkpt lat="47.2082" lon="5.69836">
        <ele>290</ele>
        <time>2010-05-21T13:48:39Z</time>
      </trkpt>
      <trkpt lat="47.20825" lon="5.69852">
        <ele>296</ele>
        <time>2010-05-21T13:48:42Z</time>
      </trkpt>
      <trkpt lat="47.20828" lon="5.69868">
        <ele>296</ele>
        <time>2010-05-21T13:48:45Z</time>
      </trkpt>
      <trkpt lat="47.20836" lon="5.69885">
        <ele>296</ele>
        <time>2010-05-21T13:48:48Z</time>
      </trkpt>
      <trkpt lat="47.2084" lon="5.69897">
        <ele>296</ele>
        <time>2010-05-21T13:48:50Z</time>
      </trkpt>
      <trkpt lat="47.20844" lon="5.69908">
        <ele>296</ele>
        <time>2010-05-21T13:48:52Z</time>
      </trkpt>
      <trkpt lat="47.20848" lon="5.6992">
        <ele>296</ele>
        <time>2010-05-21T13:48:54Z</time>
      </trkpt>
      <trkpt lat="47.20855" lon="5.69938">
        <ele>296</ele>
        <time>2010-05-21T13:48:57Z</time>
      </trkpt>
      <trkpt lat="47.20858" lon="5.69951">
        <ele>296</ele>
        <time>2010-05-21T13:48:59Z</time>
      </trkpt>
      <trkpt lat="47.20861" lon="5.69965">
        <ele>296</ele>
        <time>2010-05-21T13:49:01Z</time>
      </trkpt>
      <trkpt lat="47.20865" lon="5.69979">
        <ele>296</ele>
        <time>2010-05-21T13:49:03Z</time>
      </trkpt>
      <trkpt lat="47.20869" lon="5.69995">
        <ele>291</ele>
        <time>2010-05-21T13:49:05Z</time>
      </trkpt>
      <trkpt lat="47.20872" lon="5.70009">
        <ele>291</ele>
        <time>2010-05-21T13:49:07Z</time>
      </trkpt>
      <trkpt lat="47.20875" lon="5.70025">
        <ele>291</ele>
        <time>2010-05-21T13:49:09Z</time>
      </trkpt>
      <trkpt lat="47.20879" lon="5.70043">
        <ele>291</ele>
        <time>2010-05-21T13:49:11Z</time>
      </trkpt>
      <trkpt lat="47.20883" lon="5.70064">
        <ele>291</ele>
        <time>2010-05-21T13:49:13Z</time>
      </trkpt>
      <trkpt lat="47.20887" lon="5.70085">
        <ele>291</ele>
        <time>2010-05-21T13:49:15Z</time>
      </trkpt>
      <trkpt lat="47.20894" lon="5.70105">
        <ele>291</ele>
        <time>2010-05-21T13:49:17Z</time>
      </trkpt>
      <trkpt lat="47.20902" lon="5.70125">
        <ele>285</ele>
        <time>2010-05-21T13:49:19Z</time>
      </trkpt>
      <trkpt lat="47.20913" lon="5.70141">
        <ele>285</ele>
        <time>2010-05-21T13:49:21Z</time>
      </trkpt>
      <trkpt lat="47.20925" lon="5.70154">
        <ele>285</ele>
        <time>2010-05-21T13:49:23Z</time>
      </trkpt>
      <trkpt lat="47.20935" lon="5.70168">
        <ele>285</ele>
        <time>2010-05-21T13:49:25Z</time>
      </trkpt>
      <trkpt lat="47.20945" lon="5.70181">
        <ele>285</ele>
        <time>2010-05-21T13:49:27Z</time>
      </trkpt>
      <trkpt lat="47.20953" lon="5.70194">
        <ele>285</ele>
        <time>2010-05-21T13:49:29Z</time>
      </trkpt>
      <trkpt lat="47.20959" lon="5.70209">
        <ele>285</ele>
        <time>2010-05-21T13:49:31Z</time>
      </trkpt>
      <trkpt lat="47.20964" lon="5.70224">
        <ele>285</ele>
        <time>2010-05-21T13:49:33Z</time>
      </trkpt>
      <trkpt lat="47.20967" lon="5.70238">
        <ele>285</ele>
        <time>2010-05-21T13:49:35Z</time>
      </trkpt>
      <trkpt lat="47.20969" lon="5.70251">
        <ele>285</ele>
        <time>2010-05-21T13:49:37Z</time>
      </trkpt>
      <trkpt lat="47.2097" lon="5.70267">
        <ele>285</ele>
        <time>2010-05-21T13:49:39Z</time>
      </trkpt>
      <trkpt lat="47.20972" lon="5.7028">
        <ele>285</ele>
        <time>2010-05-21T13:49:41Z</time>
      </trkpt>
      <trkpt lat="47.20974" lon="5.70295">
        <ele>285</ele>
        <time>2010-05-21T13:49:43Z</time>
      </trkpt>
      <trkpt lat="47.20975" lon="5.70308">
        <ele>285</ele>
        <time>2010-05-21T13:49:45Z</time>
      </trkpt>
      <trkpt lat="47.20977" lon="5.70322">
        <ele>285</ele>
        <time>2010-05-21T13:49:47Z</time>
      </trkpt>
      <trkpt lat="47.20978" lon="5.70335">
        <ele>285</ele>
        <time>2010-05-21T13:49:49Z</time>
      </trkpt>
      <trkpt lat="47.2098" lon="5.70349">
        <ele>285</ele>
        <time>2010-05-21T13:49:51Z</time>
      </trkpt>
      <trkpt lat="47.20982" lon="5.70363">
        <ele>285</ele>
        <time>2010-05-21T13:49:53Z</time>
      </trkpt>
      <trkpt lat="47.20984" lon="5.70383">
        <ele>285</ele>
        <time>2010-05-21T13:49:56Z</time>
      </trkpt>
      <trkpt lat="47.20987" lon="5.70401">
        <ele>285</ele>
        <time>2010-05-21T13:49:59Z</time>
      </trkpt>
      <trkpt lat="47.20989" lon="5.70419">
        <ele>285</ele>
        <time>2010-05-21T13:50:02Z</time>
      </trkpt>
      <trkpt lat="47.20991" lon="5.70438">
        <ele>285</ele>
        <time>2010-05-21T13:50:05Z</time>
      </trkpt>
      <trkpt lat="47.20993" lon="5.70455">
        <ele>285</ele>
        <time>2010-05-21T13:50:08Z</time>
      </trkpt>
      <trkpt lat="47.20995" lon="5.70472">
        <ele>285</ele>
        <time>2010-05-21T13:50:11Z</time>
      </trkpt>
      <trkpt lat="47.20997" lon="5.7049">
        <ele>290</ele>
        <time>2010-05-21T13:50:14Z</time>
      </trkpt>
      <trkpt lat="47.20998" lon="5.70507">
        <ele>290</ele>
        <time>2010-05-21T13:50:17Z</time>
      </trkpt>
      <trkpt lat="47.20999" lon="5.70525">
        <ele>290</ele>
        <time>2010-05-21T13:50:20Z</time>
      </trkpt>
      <trkpt lat="47.21" lon="5.70543">
        <ele>290</ele>
        <time>2010-05-21T13:50:23Z</time>
      </trkpt>
      <trkpt lat="47.21" lon="5.70561">
        <ele>290</ele>
        <time>2010-05-21T13:50:26Z</time>
      </trkpt>
      <trkpt lat="47.21" lon="5.70578">
        <ele>290</ele>
        <time>2010-05-21T13:50:29Z</time>
      </trkpt>
      <trkpt lat="47.20999" lon="5.70597">
        <ele>290</ele>
        <time>2010-05-21T13:50:32Z</time>
      </trkpt>
      <trkpt lat="47.21001" lon="5.70612">
        <ele>290</ele>
        <time>2010-05-21T13:50:35Z</time>
      </trkpt>
      <trkpt lat="47.21012" lon="5.70614">
        <ele>290</ele>
        <time>2010-05-21T13:50:39Z</time>
      </trkpt>
      <trkpt lat="47.2102" lon="5.70608">
        <ele>290</ele>
        <time>2010-05-21T13:50:41Z</time>
      </trkpt>
      <trkpt lat="47.21029" lon="5.706">
        <ele>290</ele>
        <time>2010-05-21T13:50:43Z</time>
      </trkpt>
      <trkpt lat="47.21038" lon="5.7059">
        <ele>290</ele>
        <time>2010-05-21T13:50:45Z</time>
      </trkpt>
      <trkpt lat="47.21047" lon="5.7058">
        <ele>290</ele>
        <time>2010-05-21T13:50:47Z</time>
      </trkpt>
      <trkpt lat="47.21056" lon="5.70569">
        <ele>290</ele>
        <time>2010-05-21T13:50:49Z</time>
      </trkpt>
      <trkpt lat="47.21066" lon="5.70555">
        <ele>290</ele>
        <time>2010-05-21T13:50:51Z</time>
      </trkpt>
      <trkpt lat="47.21077" lon="5.70541">
        <ele>290</ele>
        <time>2010-05-21T13:50:53Z</time>
      </trkpt>
      <trkpt lat="47.2109" lon="5.70525">
        <ele>290</ele>
        <time>2010-05-21T13:50:55Z</time>
      </trkpt>
      <trkpt lat="47.21104" lon="5.70509">
        <ele>285</ele>
        <time>2010-05-21T13:50:57Z</time>
      </trkpt>
      <trkpt lat="47.21112" lon="5.70502">
        <ele>285</ele>
        <time>2010-05-21T13:50:58Z</time>
      </trkpt>
      <trkpt lat="47.21121" lon="5.70496">
        <ele>285</ele>
        <time>2010-05-21T13:50:59Z</time>
      </trkpt>
      <trkpt lat="47.21129" lon="5.70491">
        <ele>285</ele>
        <time>2010-05-21T13:51:00Z</time>
      </trkpt>
      <trkpt lat="47.21139" lon="5.70487">
        <ele>285</ele>
        <time>2010-05-21T13:51:01Z</time>
      </trkpt>
      <trkpt lat="47.21149" lon="5.70484">
        <ele>285</ele>
        <time>2010-05-21T13:51:02Z</time>
      </trkpt>
      <trkpt lat="47.21158" lon="5.70481">
        <ele>285</ele>
        <time>2010-05-21T13:51:03Z</time>
      </trkpt>
      <trkpt lat="47.21168" lon="5.70478">
        <ele>285</ele>
        <time>2010-05-21T13:51:04Z</time>
      </trkpt>
      <trkpt lat="47.21178" lon="5.70474">
        <ele>285</ele>
        <time>2010-05-21T13:51:05Z</time>
      </trkpt>
      <trkpt lat="47.21187" lon="5.70472">
        <ele>285</ele>
        <time>2010-05-21T13:51:06Z</time>
      </trkpt>
      <trkpt lat="47.21196" lon="5.70468">
        <ele>285</ele>
        <time>2010-05-21T13:51:07Z</time>
      </trkpt>
      <trkpt lat="47.21205" lon="5.70463">
        <ele>285</ele>
        <time>2010-05-21T13:51:08Z</time>
      </trkpt>
      <trkpt lat="47.21213" lon="5.7046">
        <ele>285</ele>
        <time>2010-05-21T13:51:09Z</time>
      </trkpt>
      <trkpt lat="47.21222" lon="5.70456">
        <ele>285</ele>
        <time>2010-05-21T13:51:10Z</time>
      </trkpt>
      <trkpt lat="47.21231" lon="5.70452">
        <ele>285</ele>
        <time>2010-05-21T13:51:11Z</time>
      </trkpt>
      <trkpt lat="47.21248" lon="5.70445">
        <ele>285</ele>
        <time>2010-05-21T13:51:13Z</time>
      </trkpt>
      <trkpt lat="47.21256" lon="5.7044">
        <ele>285</ele>
        <time>2010-05-21T13:51:14Z</time>
      </trkpt>
      <trkpt lat="47.21265" lon="5.70437">
        <ele>285</ele>
        <time>2010-05-21T13:51:15Z</time>
      </trkpt>
      <trkpt lat="47.21281" lon="5.70429">
        <ele>285</ele>
        <time>2010-05-21T13:51:17Z</time>
      </trkpt>
      <trkpt lat="47.21298" lon="5.70422">
        <ele>285</ele>
        <time>2010-05-21T13:51:19Z</time>
      </trkpt>
      <trkpt lat="47.21314" lon="5.70416">
        <ele>280</ele>
        <time>2010-05-21T13:51:21Z</time>
      </trkpt>
      <trkpt lat="47.21332" lon="5.70412">
        <ele>280</ele>
        <time>2010-05-21T13:51:23Z</time>
      </trkpt>
      <trkpt lat="47.21341" lon="5.70412">
        <ele>280</ele>
        <time>2010-05-21T13:51:24Z</time>
      </trkpt>
      <trkpt lat="47.2135" lon="5.70415">
        <ele>280</ele>
        <time>2010-05-21T13:51:25Z</time>
      </trkpt>
      <trkpt lat="47.2136" lon="5.70419">
        <ele>280</ele>
        <time>2010-05-21T13:51:26Z</time>
      </trkpt>
      <trkpt lat="47.21368" lon="5.70423">
        <ele>280</ele>
        <time>2010-05-21T13:51:27Z</time>
      </trkpt>
      <trkpt lat="47.21377" lon="5.70428">
        <ele>280</ele>
        <time>2010-05-21T13:51:28Z</time>
      </trkpt>
      <trkpt lat="47.21394" lon="5.70437">
        <ele>280</ele>
        <time>2010-05-21T13:51:30Z</time>
      </trkpt>
      <trkpt lat="47.21402" lon="5.70441">
        <ele>280</ele>
        <time>2010-05-21T13:51:31Z</time>
      </trkpt>
      <trkpt lat="47.21418" lon="5.7045">
        <ele>280</ele>
        <time>2010-05-21T13:51:33Z</time>
      </trkpt>
      <trkpt lat="47.21434" lon="5.7046">
        <ele>280</ele>
        <time>2010-05-21T13:51:35Z</time>
      </trkpt>
      <trkpt lat="47.2145" lon="5.70469">
        <ele>280</ele>
        <time>2010-05-21T13:51:37Z</time>
      </trkpt>
      <trkpt lat="47.21459" lon="5.70473">
        <ele>280</ele>
        <time>2010-05-21T13:51:38Z</time>
      </trkpt>
      <trkpt lat="47.21475" lon="5.70481">
        <ele>280</ele>
        <time>2010-05-21T13:51:40Z</time>
      </trkpt>
      <trkpt lat="47.2149" lon="5.7049">
        <ele>280</ele>
        <time>2010-05-21T13:51:42Z</time>
      </trkpt>
      <trkpt lat="47.21505" lon="5.70497">
        <ele>280</ele>
        <time>2010-05-21T13:51:44Z</time>
      </trkpt>
      <trkpt lat="47.21519" lon="5.70504">
        <ele>280</ele>
        <time>2010-05-21T13:51:46Z</time>
      </trkpt>
      <trkpt lat="47.21533" lon="5.70511">
        <ele>280</ele>
        <time>2010-05-21T13:51:48Z</time>
      </trkpt>
      <trkpt lat="47.21546" lon="5.70517">
        <ele>280</ele>
        <time>2010-05-21T13:51:50Z</time>
      </trkpt>
      <trkpt lat="47.21558" lon="5.70524">
        <ele>280</ele>
        <time>2010-05-21T13:51:52Z</time>
      </trkpt>
      <trkpt lat="47.2157" lon="5.7053">
        <ele>280</ele>
        <time>2010-05-21T13:51:54Z</time>
      </trkpt>
      <trkpt lat="47.21582" lon="5.70536">
        <ele>280</ele>
        <time>2010-05-21T13:51:56Z</time>
      </trkpt>
      <trkpt lat="47.21593" lon="5.70543">
        <ele>280</ele>
        <time>2010-05-21T13:51:58Z</time>
      </trkpt>
      <trkpt lat="47.21606" lon="5.70549">
        <ele>280</ele>
        <time>2010-05-21T13:52:00Z</time>
      </trkpt>
      <trkpt lat="47.21617" lon="5.70554">
        <ele>280</ele>
        <time>2010-05-21T13:52:02Z</time>
      </trkpt>
      <trkpt lat="47.21629" lon="5.7056">
        <ele>280</ele>
        <time>2010-05-21T13:52:04Z</time>
      </trkpt>
      <trkpt lat="47.21641" lon="5.70563">
        <ele>280</ele>
        <time>2010-05-21T13:52:06Z</time>
      </trkpt>
      <trkpt lat="47.21653" lon="5.70565">
        <ele>280</ele>
        <time>2010-05-21T13:52:08Z</time>
      </trkpt>
      <trkpt lat="47.21666" lon="5.70566">
        <ele>280</ele>
        <time>2010-05-21T13:52:10Z</time>
      </trkpt>
      <trkpt lat="47.21677" lon="5.70565">
        <ele>280</ele>
        <time>2010-05-21T13:52:12Z</time>
      </trkpt>
      <trkpt lat="47.21689" lon="5.70563">
        <ele>280</ele>
        <time>2010-05-21T13:52:14Z</time>
      </trkpt>
      <trkpt lat="47.217" lon="5.70561">
        <ele>280</ele>
        <time>2010-05-21T13:52:16Z</time>
      </trkpt>
      <trkpt lat="47.21712" lon="5.70561">
        <ele>280</ele>
        <time>2010-05-21T13:52:18Z</time>
      </trkpt>
      <trkpt lat="47.21724" lon="5.70561">
        <ele>280</ele>
        <time>2010-05-21T13:52:20Z</time>
      </trkpt>
      <trkpt lat="47.21736" lon="5.70563">
        <ele>280</ele>
        <time>2010-05-21T13:52:22Z</time>
      </trkpt>
      <trkpt lat="47.21748" lon="5.70567">
        <ele>280</ele>
        <time>2010-05-21T13:52:24Z</time>
      </trkpt>
      <trkpt lat="47.21759" lon="5.70572">
        <ele>280</ele>
        <time>2010-05-21T13:52:26Z</time>
      </trkpt>
      <trkpt lat="47.2177" lon="5.70578">
        <ele>280</ele>
        <time>2010-05-21T13:52:28Z</time>
      </trkpt>
      <trkpt lat="47.21779" lon="5.70585">
        <ele>280</ele>
        <time>2010-05-21T13:52:30Z</time>
      </trkpt>
      <trkpt lat="47.21789" lon="5.70591">
        <ele>280</ele>
        <time>2010-05-21T13:52:32Z</time>
      </trkpt>
      <trkpt lat="47.21798" lon="5.70596">
        <ele>280</ele>
        <time>2010-05-21T13:52:34Z</time>
      </trkpt>
      <trkpt lat="47.21807" lon="5.70603">
        <ele>280</ele>
        <time>2010-05-21T13:52:36Z</time>
      </trkpt>
      <trkpt lat="47.21817" lon="5.70608">
        <ele>280</ele>
        <time>2010-05-21T13:52:38Z</time>
      </trkpt>
      <trkpt lat="47.21826" lon="5.70614">
        <ele>280</ele>
        <time>2010-05-21T13:52:40Z</time>
      </trkpt>
      <trkpt lat="47.21835" lon="5.7062">
        <ele>280</ele>
        <time>2010-05-21T13:52:42Z</time>
      </trkpt>
      <trkpt lat="47.21843" lon="5.70626">
        <ele>280</ele>
        <time>2010-05-21T13:52:44Z</time>
      </trkpt>
      <trkpt lat="47.21855" lon="5.70634">
        <ele>280</ele>
        <time>2010-05-21T13:52:47Z</time>
      </trkpt>
      <trkpt lat="47.21866" lon="5.70645">
        <ele>285</ele>
        <time>2010-05-21T13:52:50Z</time>
      </trkpt>
      <trkpt lat="47.21874" lon="5.70658">
        <ele>285</ele>
        <time>2010-05-21T13:52:53Z</time>
      </trkpt>
      <trkpt lat="47.2188" lon="5.70669">
        <ele>285</ele>
        <time>2010-05-21T13:52:55Z</time>
      </trkpt>
      <trkpt lat="47.21883" lon="5.70682">
        <ele>285</ele>
        <time>2010-05-21T13:52:57Z</time>
      </trkpt>
      <trkpt lat="47.21888" lon="5.70694">
        <ele>285</ele>
        <time>2010-05-21T13:52:59Z</time>
      </trkpt>
      <trkpt lat="47.21893" lon="5.70707">
        <ele>285</ele>
        <time>2010-05-21T13:53:01Z</time>
      </trkpt>
      <trkpt lat="47.21899" lon="5.7072">
        <ele>285</ele>
        <time>2010-05-21T13:53:03Z</time>
      </trkpt>
      <trkpt lat="47.21906" lon="5.70732">
        <ele>285</ele>
        <time>2010-05-21T13:53:05Z</time>
      </trkpt>
      <trkpt lat="47.21912" lon="5.70745">
        <ele>285</ele>
        <time>2010-05-21T13:53:07Z</time>
      </trkpt>
      <trkpt lat="47.2192" lon="5.70757">
        <ele>285</ele>
        <time>2010-05-21T13:53:09Z</time>
      </trkpt>
      <trkpt lat="47.21927" lon="5.7077">
        <ele>285</ele>
        <time>2010-05-21T13:53:11Z</time>
      </trkpt>
      <trkpt lat="47.21935" lon="5.70782">
        <ele>285</ele>
        <time>2010-05-21T13:53:13Z</time>
      </trkpt>
      <trkpt lat="47.21945" lon="5.70795">
        <ele>285</ele>
        <time>2010-05-21T13:53:15Z</time>
      </trkpt>
      <trkpt lat="47.21954" lon="5.70808">
        <ele>285</ele>
        <time>2010-05-21T13:53:17Z</time>
      </trkpt>
      <trkpt lat="47.21966" lon="5.7082">
        <ele>285</ele>
        <time>2010-05-21T13:53:19Z</time>
      </trkpt>
      <trkpt lat="47.21982" lon="5.70831">
        <ele>285</ele>
        <time>2010-05-21T13:53:21Z</time>
      </trkpt>
      <trkpt lat="47.21991" lon="5.70835">
        <ele>285</ele>
        <time>2010-05-21T13:53:22Z</time>
      </trkpt>
      <trkpt lat="47.22" lon="5.7084">
        <ele>285</ele>
        <time>2010-05-21T13:53:23Z</time>
      </trkpt>
      <trkpt lat="47.22016" lon="5.70846">
        <ele>285</ele>
        <time>2010-05-21T13:53:25Z</time>
      </trkpt>
      <trkpt lat="47.22026" lon="5.70848">
        <ele>285</ele>
        <time>2010-05-21T13:53:26Z</time>
      </trkpt>
      <trkpt lat="47.22036" lon="5.70848">
        <ele>285</ele>
        <time>2010-05-21T13:53:27Z</time>
      </trkpt>
      <trkpt lat="47.22048" lon="5.70847">
        <ele>285</ele>
        <time>2010-05-21T13:53:28Z</time>
      </trkpt>
      <trkpt lat="47.22059" lon="5.70844">
        <ele>285</ele>
        <time>2010-05-21T13:53:29Z</time>
      </trkpt>
      <trkpt lat="47.22071" lon="5.70841">
        <ele>285</ele>
        <time>2010-05-21T13:53:30Z</time>
      </trkpt>
      <trkpt lat="47.22083" lon="5.70838">
        <ele>285</ele>
        <time>2010-05-21T13:53:31Z</time>
      </trkpt>
      <trkpt lat="47.22095" lon="5.70834">
        <ele>285</ele>
        <time>2010-05-21T13:53:32Z</time>
      </trkpt>
      <trkpt lat="47.22107" lon="5.7083">
        <ele>278</ele>
        <time>2010-05-21T13:53:33Z</time>
      </trkpt>
      <trkpt lat="47.2212" lon="5.70826">
        <ele>278</ele>
        <time>2010-05-21T13:53:34Z</time>
      </trkpt>
      <trkpt lat="47.22133" lon="5.70823">
        <ele>278</ele>
        <time>2010-05-21T13:53:35Z</time>
      </trkpt>
      <trkpt lat="47.22147" lon="5.70818">
        <ele>273</ele>
        <time>2010-05-21T13:53:36Z</time>
      </trkpt>
      <trkpt lat="47.2216" lon="5.70814">
        <ele>273</ele>
        <time>2010-05-21T13:53:37Z</time>
      </trkpt>
      <trkpt lat="47.22173" lon="5.70808">
        <ele>273</ele>
        <time>2010-05-21T13:53:38Z</time>
      </trkpt>
      <trkpt lat="47.22185" lon="5.708">
        <ele>267</ele>
        <time>2010-05-21T13:53:39Z</time>
      </trkpt>
      <trkpt lat="47.22196" lon="5.70793">
        <ele>267</ele>
        <time>2010-05-21T13:53:40Z</time>
      </trkpt>
      <trkpt lat="47.22207" lon="5.70787">
        <ele>267</ele>
        <time>2010-05-21T13:53:41Z</time>
      </trkpt>
      <trkpt lat="47.22217" lon="5.70781">
        <ele>261</ele>
        <time>2010-05-21T13:53:42Z</time>
      </trkpt>
      <trkpt lat="47.22227" lon="5.70773">
        <ele>261</ele>
        <time>2010-05-21T13:53:43Z</time>
      </trkpt>
      <trkpt lat="47.22238" lon="5.70763">
        <ele>261</ele>
        <time>2010-05-21T13:53:44Z</time>
      </trkpt>
      <trkpt lat="47.22248" lon="5.7075">
        <ele>253</ele>
        <time>2010-05-21T13:53:45Z</time>
      </trkpt>
      <trkpt lat="47.22258" lon="5.70737">
        <ele>253</ele>
        <time>2010-05-21T13:53:46Z</time>
      </trkpt>
      <trkpt lat="47.22267" lon="5.70721">
        <ele>253</ele>
        <time>2010-05-21T13:53:47Z</time>
      </trkpt>
      <trkpt lat="47.22276" lon="5.70707">
        <ele>247</ele>
        <time>2010-05-21T13:53:48Z</time>
      </trkpt>
      <trkpt lat="47.22284" lon="5.70692">
        <ele>247</ele>
        <time>2010-05-21T13:53:49Z</time>
      </trkpt>
      <trkpt lat="47.22293" lon="5.70677">
        <ele>247</ele>
        <time>2010-05-21T13:53:50Z</time>
      </trkpt>
      <trkpt lat="47.22301" lon="5.70662">
        <ele>247</ele>
        <time>2010-05-21T13:53:51Z</time>
      </trkpt>
      <trkpt lat="47.22308" lon="5.70649">
        <ele>241</ele>
        <time>2010-05-21T13:53:52Z</time>
      </trkpt>
      <trkpt lat="47.22316" lon="5.70636">
        <ele>241</ele>
        <time>2010-05-21T13:53:53Z</time>
      </trkpt>
      <trkpt lat="47.22324" lon="5.70625">
        <ele>241</ele>
        <time>2010-05-21T13:53:54Z</time>
      </trkpt>
      <trkpt lat="47.22331" lon="5.70616">
        <ele>241</ele>
        <time>2010-05-21T13:53:55Z</time>
      </trkpt>
      <trkpt lat="47.22346" lon="5.70605">
        <ele>241</ele>
        <time>2010-05-21T13:53:57Z</time>
      </trkpt>
      <trkpt lat="47.22358" lon="5.70599">
        <ele>241</ele>
        <time>2010-05-21T13:53:59Z</time>
      </trkpt>
      <trkpt lat="47.2237" lon="5.70593">
        <ele>236</ele>
        <time>2010-05-21T13:54:01Z</time>
      </trkpt>
      <trkpt lat="47.2238" lon="5.70585">
        <ele>236</ele>
        <time>2010-05-21T13:54:03Z</time>
      </trkpt>
      <trkpt lat="47.22388" lon="5.70576">
        <ele>236</ele>
        <time>2010-05-21T13:54:05Z</time>
      </trkpt>
      <trkpt lat="47.22398" lon="5.70564">
        <ele>236</ele>
        <time>2010-05-21T13:54:08Z</time>
      </trkpt>
      <trkpt lat="47.22406" lon="5.70554">
        <ele>236</ele>
        <time>2010-05-21T13:54:11Z</time>
      </trkpt>
      <trkpt lat="47.22414" lon="5.70547">
        <ele>242</ele>
        <time>2010-05-21T13:54:14Z</time>
      </trkpt>
      <trkpt lat="47.22424" lon="5.70543">
        <ele>242</ele>
        <time>2010-05-21T13:54:17Z</time>
      </trkpt>
      <trkpt lat="47.22432" lon="5.70538">
        <ele>242</ele>
        <time>2010-05-21T13:54:20Z</time>
      </trkpt>
      <trkpt lat="47.22442" lon="5.70533">
        <ele>242</ele>
        <time>2010-05-21T13:54:23Z</time>
      </trkpt>
      <trkpt lat="47.2245" lon="5.70525">
        <ele>242</ele>
        <time>2010-05-21T13:54:26Z</time>
      </trkpt>
      <trkpt lat="47.22458" lon="5.70518">
        <ele>248</ele>
        <time>2010-05-21T13:54:29Z</time>
      </trkpt>
      <trkpt lat="47.22466" lon="5.70511">
        <ele>248</ele>
        <time>2010-05-21T13:54:32Z</time>
      </trkpt>
      <trkpt lat="47.22473" lon="5.70503">
        <ele>248</ele>
        <time>2010-05-21T13:54:35Z</time>
      </trkpt>
      <trkpt lat="47.22479" lon="5.70488">
        <ele>248</ele>
        <time>2010-05-21T13:54:39Z</time>
      </trkpt>
      <trkpt lat="47.22481" lon="5.70472">
        <ele>248</ele>
        <time>2010-05-21T13:54:43Z</time>
      </trkpt>
      <trkpt lat="47.22481" lon="5.70457">
        <ele>248</ele>
        <time>2010-05-21T13:54:46Z</time>
      </trkpt>
      <trkpt lat="47.22483" lon="5.7044">
        <ele>248</ele>
        <time>2010-05-21T13:54:49Z</time>
      </trkpt>
      <trkpt lat="47.22486" lon="5.70423">
        <ele>248</ele>
        <time>2010-05-21T13:54:52Z</time>
      </trkpt>
      <trkpt lat="47.22494" lon="5.70407">
        <ele>248</ele>
        <time>2010-05-21T13:54:55Z</time>
      </trkpt>
      <trkpt lat="47.225" lon="5.70397">
        <ele>248</ele>
        <time>2010-05-21T13:54:57Z</time>
      </trkpt>
      <trkpt lat="47.22508" lon="5.70384">
        <ele>248</ele>
        <time>2010-05-21T13:55:00Z</time>
      </trkpt>
      <trkpt lat="47.22515" lon="5.70374">
        <ele>248</ele>
        <time>2010-05-21T13:55:03Z</time>
      </trkpt>
      <trkpt lat="47.22522" lon="5.70364">
        <ele>248</ele>
        <time>2010-05-21T13:55:08Z</time>
      </trkpt>
      <trkpt lat="47.22524" lon="5.70349">
        <ele>248</ele>
        <time>2010-05-21T13:55:14Z</time>
      </trkpt>
      <trkpt lat="47.22532" lon="5.70343">
        <ele>248</ele>
        <time>2010-05-21T14:00:22Z</time>
      </trkpt>
      <trkpt lat="47.22523" lon="5.70336">
        <ele>248</ele>
        <time>2010-05-21T14:03:36Z</time>
      </trkpt>
      <trkpt lat="47.2252" lon="5.70322">
        <ele>248</ele>
        <time>2010-05-21T14:03:40Z</time>
      </trkpt>
      <trkpt lat="47.22518" lon="5.70308">
        <ele>248</ele>
        <time>2010-05-21T14:03:43Z</time>
      </trkpt>
      <trkpt lat="47.22516" lon="5.70289">
        <ele>248</ele>
        <time>2010-05-21T14:03:46Z</time>
      </trkpt>
      <trkpt lat="47.22514" lon="5.70276">
        <ele>248</ele>
        <time>2010-05-21T14:03:48Z</time>
      </trkpt>
      <trkpt lat="47.22511" lon="5.7026">
        <ele>248</ele>
        <time>2010-05-21T14:03:50Z</time>
      </trkpt>
      <trkpt lat="47.22508" lon="5.70243">
        <ele>248</ele>
        <time>2010-05-21T14:03:52Z</time>
      </trkpt>
      <trkpt lat="47.22503" lon="5.70225">
        <ele>248</ele>
        <time>2010-05-21T14:03:54Z</time>
      </trkpt>
      <trkpt lat="47.22499" lon="5.70207">
        <ele>248</ele>
        <time>2010-05-21T14:03:56Z</time>
      </trkpt>
      <trkpt lat="47.22494" lon="5.70189">
        <ele>248</ele>
        <time>2010-05-21T14:03:58Z</time>
      </trkpt>
      <trkpt lat="47.22491" lon="5.7017">
        <ele>248</ele>
        <time>2010-05-21T14:04:00Z</time>
      </trkpt>
      <trkpt lat="47.22488" lon="5.70153">
        <ele>248</ele>
        <time>2010-05-21T14:04:02Z</time>
      </trkpt>
      <trkpt lat="47.22483" lon="5.70136">
        <ele>248</ele>
        <time>2010-05-21T14:04:04Z</time>
      </trkpt>
      <trkpt lat="47.22479" lon="5.70119">
        <ele>248</ele>
        <time>2010-05-21T14:04:06Z</time>
      </trkpt>
      <trkpt lat="47.22475" lon="5.70104">
        <ele>248</ele>
        <time>2010-05-21T14:04:08Z</time>
      </trkpt>
      <trkpt lat="47.22471" lon="5.70089">
        <ele>248</ele>
        <time>2010-05-21T14:04:10Z</time>
      </trkpt>
      <trkpt lat="47.22467" lon="5.70074">
        <ele>248</ele>
        <time>2010-05-21T14:04:12Z</time>
      </trkpt>
      <trkpt lat="47.22464" lon="5.70058">
        <ele>248</ele>
        <time>2010-05-21T14:04:14Z</time>
      </trkpt>
      <trkpt lat="47.2246" lon="5.70045">
        <ele>248</ele>
        <time>2010-05-21T14:04:16Z</time>
      </trkpt>
      <trkpt lat="47.22456" lon="5.7003">
        <ele>248</ele>
        <time>2010-05-21T14:04:18Z</time>
      </trkpt>
      <trkpt lat="47.22451" lon="5.70013">
        <ele>248</ele>
        <time>2010-05-21T14:04:20Z</time>
      </trkpt>
      <trkpt lat="47.22447" lon="5.69995">
        <ele>248</ele>
        <time>2010-05-21T14:04:22Z</time>
      </trkpt>
      <trkpt lat="47.22442" lon="5.69976">
        <ele>248</ele>
        <time>2010-05-21T14:04:24Z</time>
      </trkpt>
      <trkpt lat="47.22436" lon="5.69954">
        <ele>248</ele>
        <time>2010-05-21T14:04:26Z</time>
      </trkpt>
      <trkpt lat="47.2243" lon="5.69931">
        <ele>248</ele>
        <time>2010-05-21T14:04:28Z</time>
      </trkpt>
      <trkpt lat="47.22423" lon="5.69908">
        <ele>248</ele>
        <time>2010-05-21T14:04:30Z</time>
      </trkpt>
      <trkpt lat="47.22418" lon="5.69886">
        <ele>248</ele>
        <time>2010-05-21T14:04:32Z</time>
      </trkpt>
      <trkpt lat="47.22412" lon="5.69865">
        <ele>248</ele>
        <time>2010-05-21T14:04:34Z</time>
      </trkpt>
      <trkpt lat="47.22407" lon="5.69845">
        <ele>248</ele>
        <time>2010-05-21T14:04:36Z</time>
      </trkpt>
      <trkpt lat="47.22402" lon="5.69825">
        <ele>248</ele>
        <time>2010-05-21T14:04:38Z</time>
      </trkpt>
      <trkpt lat="47.22396" lon="5.69807">
        <ele>248</ele>
        <time>2010-05-21T14:04:40Z</time>
      </trkpt>
      <trkpt lat="47.22391" lon="5.69787">
        <ele>248</ele>
        <time>2010-05-21T14:04:42Z</time>
      </trkpt>
      <trkpt lat="47.22386" lon="5.69767">
        <ele>248</ele>
        <time>2010-05-21T14:04:44Z</time>
      </trkpt>
      <trkpt lat="47.2238" lon="5.69748">
        <ele>248</ele>
        <time>2010-05-21T14:04:46Z</time>
      </trkpt>
      <trkpt lat="47.22376" lon="5.69727">
        <ele>248</ele>
        <time>2010-05-21T14:04:48Z</time>
      </trkpt>
      <trkpt lat="47.22371" lon="5.69706">
        <ele>248</ele>
        <time>2010-05-21T14:04:50Z</time>
      </trkpt>
      <trkpt lat="47.22367" lon="5.69686">
        <ele>248</ele>
        <time>2010-05-21T14:04:52Z</time>
      </trkpt>
      <trkpt lat="47.22363" lon="5.69665">
        <ele>248</ele>
        <time>2010-05-21T14:04:54Z</time>
      </trkpt>
      <trkpt lat="47.22358" lon="5.69645">
        <ele>248</ele>
        <time>2010-05-21T14:04:56Z</time>
      </trkpt>
      <trkpt lat="47.22354" lon="5.69624">
        <ele>248</ele>
        <time>2010-05-21T14:04:58Z</time>
      </trkpt>
      <trkpt lat="47.2235" lon="5.69604">
        <ele>248</ele>
        <time>2010-05-21T14:05:00Z</time>
      </trkpt>
      <trkpt lat="47.22347" lon="5.69583">
        <ele>248</ele>
        <time>2010-05-21T14:05:02Z</time>
      </trkpt>
      <trkpt lat="47.22344" lon="5.69562">
        <ele>243</ele>
        <time>2010-05-21T14:05:04Z</time>
      </trkpt>
      <trkpt lat="47.22341" lon="5.6954">
        <ele>243</ele>
        <time>2010-05-21T14:05:06Z</time>
      </trkpt>
      <trkpt lat="47.22338" lon="5.69517">
        <ele>243</ele>
        <time>2010-05-21T14:05:08Z</time>
      </trkpt>
      <trkpt lat="47.22335" lon="5.69493">
        <ele>243</ele>
        <time>2010-05-21T14:05:10Z</time>
      </trkpt>
      <trkpt lat="47.22331" lon="5.69469">
        <ele>243</ele>
        <time>2010-05-21T14:05:12Z</time>
      </trkpt>
      <trkpt lat="47.22328" lon="5.69447">
        <ele>243</ele>
        <time>2010-05-21T14:05:14Z</time>
      </trkpt>
      <trkpt lat="47.22326" lon="5.69424">
        <ele>243</ele>
        <time>2010-05-21T14:05:16Z</time>
      </trkpt>
      <trkpt lat="47.22323" lon="5.69403">
        <ele>243</ele>
        <time>2010-05-21T14:05:18Z</time>
      </trkpt>
      <trkpt lat="47.2232" lon="5.6938">
        <ele>243</ele>
        <time>2010-05-21T14:05:20Z</time>
      </trkpt>
      <trkpt lat="47.22317" lon="5.69358">
        <ele>243</ele>
        <time>2010-05-21T14:05:22Z</time>
      </trkpt>
      <trkpt lat="47.22314" lon="5.69335">
        <ele>243</ele>
        <time>2010-05-21T14:05:24Z</time>
      </trkpt>
      <trkpt lat="47.22311" lon="5.69313">
        <ele>243</ele>
        <time>2010-05-21T14:05:26Z</time>
      </trkpt>
      <trkpt lat="47.22307" lon="5.69289">
        <ele>243</ele>
        <time>2010-05-21T14:05:28Z</time>
      </trkpt>
      <trkpt lat="47.22304" lon="5.69266">
        <ele>243</ele>
        <time>2010-05-21T14:05:30Z</time>
      </trkpt>
      <trkpt lat="47.22301" lon="5.69242">
        <ele>243</ele>
        <time>2010-05-21T14:05:32Z</time>
      </trkpt>
      <trkpt lat="47.22298" lon="5.69218">
        <ele>243</ele>
        <time>2010-05-21T14:05:34Z</time>
      </trkpt>
      <trkpt lat="47.22294" lon="5.69194">
        <ele>243</ele>
        <time>2010-05-21T14:05:36Z</time>
      </trkpt>
      <trkpt lat="47.2229" lon="5.6917">
        <ele>243</ele>
        <time>2010-05-21T14:05:38Z</time>
      </trkpt>
      <trkpt lat="47.22287" lon="5.69146">
        <ele>243</ele>
        <time>2010-05-21T14:05:40Z</time>
      </trkpt>
      <trkpt lat="47.22284" lon="5.69122">
        <ele>243</ele>
        <time>2010-05-21T14:05:42Z</time>
      </trkpt>
      <trkpt lat="47.22281" lon="5.69099">
        <ele>243</ele>
        <time>2010-05-21T14:05:44Z</time>
      </trkpt>
      <trkpt lat="47.22278" lon="5.69076">
        <ele>243</ele>
        <time>2010-05-21T14:05:46Z</time>
      </trkpt>
      <trkpt lat="47.22275" lon="5.69053">
        <ele>243</ele>
        <time>2010-05-21T14:05:48Z</time>
      </trkpt>
      <trkpt lat="47.22272" lon="5.69031">
        <ele>243</ele>
        <time>2010-05-21T14:05:50Z</time>
      </trkpt>
      <trkpt lat="47.2227" lon="5.69008">
        <ele>243</ele>
        <time>2010-05-21T14:05:52Z</time>
      </trkpt>
      <trkpt lat="47.2227" lon="5.68987">
        <ele>243</ele>
        <time>2010-05-21T14:05:54Z</time>
      </trkpt>
      <trkpt lat="47.22269" lon="5.68964">
        <ele>243</ele>
        <time>2010-05-21T14:05:56Z</time>
      </trkpt>
      <trkpt lat="47.22268" lon="5.68943">
        <ele>243</ele>
        <time>2010-05-21T14:05:58Z</time>
      </trkpt>
      <trkpt lat="47.22268" lon="5.6892">
        <ele>243</ele>
        <time>2010-05-21T14:06:00Z</time>
      </trkpt>
      <trkpt lat="47.22267" lon="5.68899">
        <ele>243</ele>
        <time>2010-05-21T14:06:02Z</time>
      </trkpt>
      <trkpt lat="47.22266" lon="5.68878">
        <ele>243</ele>
        <time>2010-05-21T14:06:04Z</time>
      </trkpt>
      <trkpt lat="47.22265" lon="5.68858">
        <ele>243</ele>
        <time>2010-05-21T14:06:06Z</time>
      </trkpt>
      <trkpt lat="47.22265" lon="5.68839">
        <ele>243</ele>
        <time>2010-05-21T14:06:08Z</time>
      </trkpt>
      <trkpt lat="47.22265" lon="5.68822">
        <ele>243</ele>
        <time>2010-05-21T14:06:10Z</time>
      </trkpt>
      <trkpt lat="47.22266" lon="5.68804">
        <ele>243</ele>
        <time>2010-05-21T14:06:12Z</time>
      </trkpt>
      <trkpt lat="47.22268" lon="5.68788">
        <ele>243</ele>
        <time>2010-05-21T14:06:14Z</time>
      </trkpt>
      <trkpt lat="47.22272" lon="5.68773">
        <ele>243</ele>
        <time>2010-05-21T14:06:16Z</time>
      </trkpt>
      <trkpt lat="47.22276" lon="5.68757">
        <ele>243</ele>
        <time>2010-05-21T14:06:18Z</time>
      </trkpt>
      <trkpt lat="47.2228" lon="5.68742">
        <ele>243</ele>
        <time>2010-05-21T14:06:20Z</time>
      </trkpt>
      <trkpt lat="47.22284" lon="5.68727">
        <ele>243</ele>
        <time>2010-05-21T14:06:22Z</time>
      </trkpt>
      <trkpt lat="47.22289" lon="5.68713">
        <ele>243</ele>
        <time>2010-05-21T14:06:24Z</time>
      </trkpt>
      <trkpt lat="47.22293" lon="5.68699">
        <ele>243</ele>
        <time>2010-05-21T14:06:26Z</time>
      </trkpt>
      <trkpt lat="47.22299" lon="5.68682">
        <ele>243</ele>
        <time>2010-05-21T14:06:29Z</time>
      </trkpt>
      <trkpt lat="47.22306" lon="5.68667">
        <ele>249</ele>
        <time>2010-05-21T14:06:32Z</time>
      </trkpt>
      <trkpt lat="47.22314" lon="5.68653">
        <ele>249</ele>
        <time>2010-05-21T14:06:35Z</time>
      </trkpt>
      <trkpt lat="47.22322" lon="5.68643">
        <ele>249</ele>
        <time>2010-05-21T14:06:38Z</time>
      </trkpt>
      <trkpt lat="47.22327" lon="5.6863">
        <ele>249</ele>
        <time>2010-05-21T14:06:41Z</time>
      </trkpt>
      <trkpt lat="47.22332" lon="5.68617">
        <ele>249</ele>
        <time>2010-05-21T14:06:44Z</time>
      </trkpt>
      <trkpt lat="47.22336" lon="5.68599">
        <ele>249</ele>
        <time>2010-05-21T14:06:47Z</time>
      </trkpt>
      <trkpt lat="47.22339" lon="5.68583">
        <ele>249</ele>
        <time>2010-05-21T14:06:49Z</time>
      </trkpt>
      <trkpt lat="47.22342" lon="5.68565">
        <ele>249</ele>
        <time>2010-05-21T14:06:51Z</time>
      </trkpt>
      <trkpt lat="47.22345" lon="5.68545">
        <ele>249</ele>
        <time>2010-05-21T14:06:53Z</time>
      </trkpt>
      <trkpt lat="47.22349" lon="5.68522">
        <ele>249</ele>
        <time>2010-05-21T14:06:55Z</time>
      </trkpt>
      <trkpt lat="47.22352" lon="5.68499">
        <ele>249</ele>
        <time>2010-05-21T14:06:57Z</time>
      </trkpt>
      <trkpt lat="47.22355" lon="5.68477">
        <ele>249</ele>
        <time>2010-05-21T14:06:59Z</time>
      </trkpt>
      <trkpt lat="47.22358" lon="5.68454">
        <ele>249</ele>
        <time>2010-05-21T14:07:01Z</time>
      </trkpt>
      <trkpt lat="47.22359" lon="5.68432">
        <ele>249</ele>
        <time>2010-05-21T14:07:03Z</time>
      </trkpt>
      <trkpt lat="47.22358" lon="5.6841">
        <ele>249</ele>
        <time>2010-05-21T14:07:05Z</time>
      </trkpt>
      <trkpt lat="47.22358" lon="5.68389">
        <ele>249</ele>
        <time>2010-05-21T14:07:07Z</time>
      </trkpt>
      <trkpt lat="47.22358" lon="5.6837">
        <ele>249</ele>
        <time>2010-05-21T14:07:09Z</time>
      </trkpt>
      <trkpt lat="47.22358" lon="5.68352">
        <ele>249</ele>
        <time>2010-05-21T14:07:11Z</time>
      </trkpt>
      <trkpt lat="47.22359" lon="5.68335">
        <ele>249</ele>
        <time>2010-05-21T14:07:13Z</time>
      </trkpt>
      <trkpt lat="47.2236" lon="5.68318">
        <ele>249</ele>
        <time>2010-05-21T14:07:15Z</time>
      </trkpt>
      <trkpt lat="47.22361" lon="5.683">
        <ele>249</ele>
        <time>2010-05-21T14:07:17Z</time>
      </trkpt>
      <trkpt lat="47.22365" lon="5.68282">
        <ele>249</ele>
        <time>2010-05-21T14:07:19Z</time>
      </trkpt>
      <trkpt lat="47.2237" lon="5.68265">
        <ele>249</ele>
        <time>2010-05-21T14:07:21Z</time>
      </trkpt>
      <trkpt lat="47.22379" lon="5.6825">
        <ele>249</ele>
        <time>2010-05-21T14:07:23Z</time>
      </trkpt>
      <trkpt lat="47.22387" lon="5.68236">
        <ele>249</ele>
        <time>2010-05-21T14:07:25Z</time>
      </trkpt>
      <trkpt lat="47.22396" lon="5.68222">
        <ele>249</ele>
        <time>2010-05-21T14:07:27Z</time>
      </trkpt>
      <trkpt lat="47.22404" lon="5.68209">
        <ele>249</ele>
        <time>2010-05-21T14:07:29Z</time>
      </trkpt>
      <trkpt lat="47.22413" lon="5.68195">
        <ele>249</ele>
        <time>2010-05-21T14:07:31Z</time>
      </trkpt>
      <trkpt lat="47.22422" lon="5.68182">
        <ele>249</ele>
        <time>2010-05-21T14:07:33Z</time>
      </trkpt>
      <trkpt lat="47.22431" lon="5.68168">
        <ele>249</ele>
        <time>2010-05-21T14:07:35Z</time>
      </trkpt>
      <trkpt lat="47.22439" lon="5.68155">
        <ele>244</ele>
        <time>2010-05-21T14:07:37Z</time>
      </trkpt>
      <trkpt lat="47.22448" lon="5.6814">
        <ele>244</ele>
        <time>2010-05-21T14:07:39Z</time>
      </trkpt>
      <trkpt lat="47.22457" lon="5.68127">
        <ele>244</ele>
        <time>2010-05-21T14:07:41Z</time>
      </trkpt>
      <trkpt lat="47.22465" lon="5.68114">
        <ele>244</ele>
        <time>2010-05-21T14:07:43Z</time>
      </trkpt>
      <trkpt lat="47.22474" lon="5.68101">
        <ele>244</ele>
        <time>2010-05-21T14:07:45Z</time>
      </trkpt>
      <trkpt lat="47.22482" lon="5.68087">
        <ele>244</ele>
        <time>2010-05-21T14:07:47Z</time>
      </trkpt>
      <trkpt lat="47.22491" lon="5.68073">
        <ele>244</ele>
        <time>2010-05-21T14:07:49Z</time>
      </trkpt>
      <trkpt lat="47.225" lon="5.6806">
        <ele>244</ele>
        <time>2010-05-21T14:07:51Z</time>
      </trkpt>
      <trkpt lat="47.2251" lon="5.68045">
        <ele>244</ele>
        <time>2010-05-21T14:07:53Z</time>
      </trkpt>
      <trkpt lat="47.2252" lon="5.68031">
        <ele>244</ele>
        <time>2010-05-21T14:07:55Z</time>
      </trkpt>
      <trkpt lat="47.22532" lon="5.68018">
        <ele>244</ele>
        <time>2010-05-21T14:07:57Z</time>
      </trkpt>
      <trkpt lat="47.22545" lon="5.68009">
        <ele>244</ele>
        <time>2010-05-21T14:07:59Z</time>
      </trkpt>
      <trkpt lat="47.22557" lon="5.68">
        <ele>244</ele>
        <time>2010-05-21T14:08:01Z</time>
      </trkpt>
      <trkpt lat="47.2257" lon="5.67991">
        <ele>244</ele>
        <time>2010-05-21T14:08:03Z</time>
      </trkpt>
      <trkpt lat="47.22581" lon="5.67983">
        <ele>244</ele>
        <time>2010-05-21T14:08:05Z</time>
      </trkpt>
      <trkpt lat="47.22593" lon="5.67975">
        <ele>244</ele>
        <time>2010-05-21T14:08:07Z</time>
      </trkpt>
      <trkpt lat="47.22604" lon="5.67967">
        <ele>244</ele>
        <time>2010-05-21T14:08:09Z</time>
      </trkpt>
      <trkpt lat="47.22615" lon="5.6796">
        <ele>244</ele>
        <time>2010-05-21T14:08:11Z</time>
      </trkpt>
      <trkpt lat="47.22625" lon="5.67952">
        <ele>244</ele>
        <time>2010-05-21T14:08:13Z</time>
      </trkpt>
      <trkpt lat="47.22636" lon="5.67944">
        <ele>244</ele>
        <time>2010-05-21T14:08:15Z</time>
      </trkpt>
      <trkpt lat="47.22646" lon="5.67937">
        <ele>244</ele>
        <time>2010-05-21T14:08:17Z</time>
      </trkpt>
      <trkpt lat="47.22656" lon="5.67929">
        <ele>244</ele>
        <time>2010-05-21T14:08:19Z</time>
      </trkpt>
      <trkpt lat="47.22666" lon="5.67922">
        <ele>244</ele>
        <time>2010-05-21T14:08:21Z</time>
      </trkpt>
      <trkpt lat="47.22677" lon="5.67914">
        <ele>244</ele>
        <time>2010-05-21T14:08:23Z</time>
      </trkpt>
      <trkpt lat="47.22687" lon="5.67907">
        <ele>244</ele>
        <time>2010-05-21T14:08:25Z</time>
      </trkpt>
      <trkpt lat="47.22697" lon="5.679">
        <ele>244</ele>
        <time>2010-05-21T14:08:27Z</time>
      </trkpt>
      <trkpt lat="47.22708" lon="5.67893">
        <ele>244</ele>
        <time>2010-05-21T14:08:29Z</time>
      </trkpt>
      <trkpt lat="47.2272" lon="5.67886">
        <ele>244</ele>
        <time>2010-05-21T14:08:31Z</time>
      </trkpt>
      <trkpt lat="47.22731" lon="5.67881">
        <ele>244</ele>
        <time>2010-05-21T14:08:33Z</time>
      </trkpt>
      <trkpt lat="47.22743" lon="5.67875">
        <ele>244</ele>
        <time>2010-05-21T14:08:35Z</time>
      </trkpt>
      <trkpt lat="47.22754" lon="5.67872">
        <ele>244</ele>
        <time>2010-05-21T14:08:37Z</time>
      </trkpt>
      <trkpt lat="47.22765" lon="5.67869">
        <ele>244</ele>
        <time>2010-05-21T14:08:39Z</time>
      </trkpt>
      <trkpt lat="47.22775" lon="5.67866">
        <ele>244</ele>
        <time>2010-05-21T14:08:41Z</time>
      </trkpt>
      <trkpt lat="47.22784" lon="5.67864">
        <ele>244</ele>
        <time>2010-05-21T14:08:43Z</time>
      </trkpt>
      <trkpt lat="47.22793" lon="5.6786">
        <ele>249</ele>
        <time>2010-05-21T14:08:45Z</time>
      </trkpt>
      <trkpt lat="47.22803" lon="5.67857">
        <ele>249</ele>
        <time>2010-05-21T14:08:47Z</time>
      </trkpt>
      <trkpt lat="47.22812" lon="5.67855">
        <ele>249</ele>
        <time>2010-05-21T14:08:49Z</time>
      </trkpt>
      <trkpt lat="47.22821" lon="5.67853">
        <ele>249</ele>
        <time>2010-05-21T14:08:51Z</time>
      </trkpt>
      <trkpt lat="47.22834" lon="5.67849">
        <ele>249</ele>
        <time>2010-05-21T14:08:54Z</time>
      </trkpt>
      <trkpt lat="47.22843" lon="5.67846">
        <ele>249</ele>
        <time>2010-05-21T14:08:56Z</time>
      </trkpt>
      <trkpt lat="47.22856" lon="5.67841">
        <ele>249</ele>
        <time>2010-05-21T14:08:59Z</time>
      </trkpt>
      <trkpt lat="47.22864" lon="5.67838">
        <ele>249</ele>
        <time>2010-05-21T14:09:01Z</time>
      </trkpt>
      <trkpt lat="47.22876" lon="5.67832">
        <ele>249</ele>
        <time>2010-05-21T14:09:04Z</time>
      </trkpt>
      <trkpt lat="47.22885" lon="5.67829">
        <ele>249</ele>
        <time>2010-05-21T14:09:06Z</time>
      </trkpt>
      <trkpt lat="47.22894" lon="5.67825">
        <ele>249</ele>
        <time>2010-05-21T14:09:08Z</time>
      </trkpt>
      <trkpt lat="47.22903" lon="5.67821">
        <ele>249</ele>
        <time>2010-05-21T14:09:10Z</time>
      </trkpt>
      <trkpt lat="47.22913" lon="5.67816">
        <ele>249</ele>
        <time>2010-05-21T14:09:12Z</time>
      </trkpt>
      <trkpt lat="47.22923" lon="5.67812">
        <ele>249</ele>
        <time>2010-05-21T14:09:14Z</time>
      </trkpt>
      <trkpt lat="47.22934" lon="5.67807">
        <ele>249</ele>
        <time>2010-05-21T14:09:16Z</time>
      </trkpt>
      <trkpt lat="47.22944" lon="5.67804">
        <ele>249</ele>
        <time>2010-05-21T14:09:18Z</time>
      </trkpt>
      <trkpt lat="47.22954" lon="5.67799">
        <ele>249</ele>
        <time>2010-05-21T14:09:20Z</time>
      </trkpt>
      <trkpt lat="47.22964" lon="5.67794">
        <ele>249</ele>
        <time>2010-05-21T14:09:22Z</time>
      </trkpt>
      <trkpt lat="47.22975" lon="5.67787">
        <ele>249</ele>
        <time>2010-05-21T14:09:24Z</time>
      </trkpt>
      <trkpt lat="47.22985" lon="5.6778">
        <ele>249</ele>
        <time>2010-05-21T14:09:26Z</time>
      </trkpt>
      <trkpt lat="47.22997" lon="5.67772">
        <ele>249</ele>
        <time>2010-05-21T14:09:28Z</time>
      </trkpt>
      <trkpt lat="47.23007" lon="5.67765">
        <ele>249</ele>
        <time>2010-05-21T14:09:30Z</time>
      </trkpt>
      <trkpt lat="47.23017" lon="5.67757">
        <ele>249</ele>
        <time>2010-05-21T14:09:32Z</time>
      </trkpt>
      <trkpt lat="47.23028" lon="5.6775">
        <ele>249</ele>
        <time>2010-05-21T14:09:34Z</time>
      </trkpt>
      <trkpt lat="47.23038" lon="5.67742">
        <ele>249</ele>
        <time>2010-05-21T14:09:36Z</time>
      </trkpt>
      <trkpt lat="47.23049" lon="5.67734">
        <ele>249</ele>
        <time>2010-05-21T14:09:38Z</time>
      </trkpt>
      <trkpt lat="47.2306" lon="5.67725">
        <ele>249</ele>
        <time>2010-05-21T14:09:40Z</time>
      </trkpt>
      <trkpt lat="47.23072" lon="5.67716">
        <ele>249</ele>
        <time>2010-05-21T14:09:42Z</time>
      </trkpt>
      <trkpt lat="47.23085" lon="5.67707">
        <ele>249</ele>
        <time>2010-05-21T14:09:44Z</time>
      </trkpt>
      <trkpt lat="47.231" lon="5.67695">
        <ele>249</ele>
        <time>2010-05-21T14:09:46Z</time>
      </trkpt>
      <trkpt lat="47.23108" lon="5.67689">
        <ele>249</ele>
        <time>2010-05-21T14:09:47Z</time>
      </trkpt>
      <trkpt lat="47.23123" lon="5.67676">
        <ele>249</ele>
        <time>2010-05-21T14:09:49Z</time>
      </trkpt>
      <trkpt lat="47.23139" lon="5.67665">
        <ele>249</ele>
        <time>2010-05-21T14:09:51Z</time>
      </trkpt>
      <trkpt lat="47.23155" lon="5.67656">
        <ele>249</ele>
        <time>2010-05-21T14:09:53Z</time>
      </trkpt>
      <trkpt lat="47.2317" lon="5.67648">
        <ele>249</ele>
        <time>2010-05-21T14:09:55Z</time>
      </trkpt>
      <trkpt lat="47.23185" lon="5.67643">
        <ele>249</ele>
        <time>2010-05-21T14:09:57Z</time>
      </trkpt>
      <trkpt lat="47.232" lon="5.67638">
        <ele>249</ele>
        <time>2010-05-21T14:09:59Z</time>
      </trkpt>
      <trkpt lat="47.23215" lon="5.67635">
        <ele>249</ele>
        <time>2010-05-21T14:10:01Z</time>
      </trkpt>
      <trkpt lat="47.2323" lon="5.6763">
        <ele>249</ele>
        <time>2010-05-21T14:10:03Z</time>
      </trkpt>
      <trkpt lat="47.23244" lon="5.67627">
        <ele>249</ele>
        <time>2010-05-21T14:10:05Z</time>
      </trkpt>
      <trkpt lat="47.23259" lon="5.67624">
        <ele>249</ele>
        <time>2010-05-21T14:10:07Z</time>
      </trkpt>
      <trkpt lat="47.23273" lon="5.67621">
        <ele>249</ele>
        <time>2010-05-21T14:10:09Z</time>
      </trkpt>
      <trkpt lat="47.23287" lon="5.67619">
        <ele>249</ele>
        <time>2010-05-21T14:10:11Z</time>
      </trkpt>
      <trkpt lat="47.23301" lon="5.67616">
        <ele>249</ele>
        <time>2010-05-21T14:10:13Z</time>
      </trkpt>
      <trkpt lat="47.23314" lon="5.67613">
        <ele>249</ele>
        <time>2010-05-21T14:10:15Z</time>
      </trkpt>
      <trkpt lat="47.23327" lon="5.6761">
        <ele>249</ele>
        <time>2010-05-21T14:10:17Z</time>
      </trkpt>
      <trkpt lat="47.23339" lon="5.67609">
        <ele>249</ele>
        <time>2010-05-21T14:10:19Z</time>
      </trkpt>
      <trkpt lat="47.2335" lon="5.67605">
        <ele>249</ele>
        <time>2010-05-21T14:10:21Z</time>
      </trkpt>
      <trkpt lat="47.23363" lon="5.67601">
        <ele>249</ele>
        <time>2010-05-21T14:10:23Z</time>
      </trkpt>
      <trkpt lat="47.23375" lon="5.67596">
        <ele>249</ele>
        <time>2010-05-21T14:10:25Z</time>
      </trkpt>
      <trkpt lat="47.23388" lon="5.67591">
        <ele>249</ele>
        <time>2010-05-21T14:10:27Z</time>
      </trkpt>
      <trkpt lat="47.23402" lon="5.67586">
        <ele>249</ele>
        <time>2010-05-21T14:10:29Z</time>
      </trkpt>
      <trkpt lat="47.23416" lon="5.67581">
        <ele>249</ele>
        <time>2010-05-21T14:10:31Z</time>
      </trkpt>
      <trkpt lat="47.2343" lon="5.67575">
        <ele>249</ele>
        <time>2010-05-21T14:10:33Z</time>
      </trkpt>
      <trkpt lat="47.23443" lon="5.67571">
        <ele>249</ele>
        <time>2010-05-21T14:10:35Z</time>
      </trkpt>
      <trkpt lat="47.23457" lon="5.67565">
        <ele>249</ele>
        <time>2010-05-21T14:10:37Z</time>
      </trkpt>
      <trkpt lat="47.23471" lon="5.67558">
        <ele>249</ele>
        <time>2010-05-21T14:10:39Z</time>
      </trkpt>
      <trkpt lat="47.23486" lon="5.67553">
        <ele>249</ele>
        <time>2010-05-21T14:10:41Z</time>
      </trkpt>
      <trkpt lat="47.23501" lon="5.67549">
        <ele>249</ele>
        <time>2010-05-21T14:10:43Z</time>
      </trkpt>
      <trkpt lat="47.23517" lon="5.67548">
        <ele>249</ele>
        <time>2010-05-21T14:10:45Z</time>
      </trkpt>
      <trkpt lat="47.23533" lon="5.67548">
        <ele>249</ele>
        <time>2010-05-21T14:10:47Z</time>
      </trkpt>
      <trkpt lat="47.23547" lon="5.67548">
        <ele>249</ele>
        <time>2010-05-21T14:10:49Z</time>
      </trkpt>
      <trkpt lat="47.23559" lon="5.67549">
        <ele>249</ele>
        <time>2010-05-21T14:10:51Z</time>
      </trkpt>
      <trkpt lat="47.23571" lon="5.67548">
        <ele>249</ele>
        <time>2010-05-21T14:10:53Z</time>
      </trkpt>
      <trkpt lat="47.23585" lon="5.67547">
        <ele>249</ele>
        <time>2010-05-21T14:10:55Z</time>
      </trkpt>
      <trkpt lat="47.23598" lon="5.67545">
        <ele>249</ele>
        <time>2010-05-21T14:10:57Z</time>
      </trkpt>
      <trkpt lat="47.23612" lon="5.67541">
        <ele>249</ele>
        <time>2010-05-21T14:10:59Z</time>
      </trkpt>
      <trkpt lat="47.23626" lon="5.67537">
        <ele>249</ele>
        <time>2010-05-21T14:11:01Z</time>
      </trkpt>
      <trkpt lat="47.23641" lon="5.67531">
        <ele>249</ele>
        <time>2010-05-21T14:11:03Z</time>
      </trkpt>
      <trkpt lat="47.23657" lon="5.67529">
        <ele>249</ele>
        <time>2010-05-21T14:11:05Z</time>
      </trkpt>
      <trkpt lat="47.23674" lon="5.67525">
        <ele>249</ele>
        <time>2010-05-21T14:11:07Z</time>
      </trkpt>
      <trkpt lat="47.23691" lon="5.67522">
        <ele>249</ele>
        <time>2010-05-21T14:11:09Z</time>
      </trkpt>
      <trkpt lat="47.23709" lon="5.67518">
        <ele>249</ele>
        <time>2010-05-21T14:11:11Z</time>
      </trkpt>
      <trkpt lat="47.23718" lon="5.67515">
        <ele>249</ele>
        <time>2010-05-21T14:11:12Z</time>
      </trkpt>
      <trkpt lat="47.23727" lon="5.67511">
        <ele>249</ele>
        <time>2010-05-21T14:11:13Z</time>
      </trkpt>
      <trkpt lat="47.23735" lon="5.67504">
        <ele>249</ele>
        <time>2010-05-21T14:11:14Z</time>
      </trkpt>
      <trkpt lat="47.23743" lon="5.67496">
        <ele>249</ele>
        <time>2010-05-21T14:11:15Z</time>
      </trkpt>
      <trkpt lat="47.2375" lon="5.67487">
        <ele>243</ele>
        <time>2010-05-21T14:11:16Z</time>
      </trkpt>
      <trkpt lat="47.23758" lon="5.67477">
        <ele>243</ele>
        <time>2010-05-21T14:11:17Z</time>
      </trkpt>
      <trkpt lat="47.23765" lon="5.67468">
        <ele>243</ele>
        <time>2010-05-21T14:11:18Z</time>
      </trkpt>
      <trkpt lat="47.23773" lon="5.67457">
        <ele>243</ele>
        <time>2010-05-21T14:11:19Z</time>
      </trkpt>
      <trkpt lat="47.23781" lon="5.67445">
        <ele>243</ele>
        <time>2010-05-21T14:11:20Z</time>
      </trkpt>
      <trkpt lat="47.23789" lon="5.67434">
        <ele>243</ele>
        <time>2010-05-21T14:11:21Z</time>
      </trkpt>
      <trkpt lat="47.23797" lon="5.67424">
        <ele>238</ele>
        <time>2010-05-21T14:11:22Z</time>
      </trkpt>
      <trkpt lat="47.23805" lon="5.67413">
        <ele>238</ele>
        <time>2010-05-21T14:11:23Z</time>
      </trkpt>
      <trkpt lat="47.23812" lon="5.67402">
        <ele>238</ele>
        <time>2010-05-21T14:11:24Z</time>
      </trkpt>
      <trkpt lat="47.2382" lon="5.6739">
        <ele>238</ele>
        <time>2010-05-21T14:11:25Z</time>
      </trkpt>
      <trkpt lat="47.23829" lon="5.6738">
        <ele>238</ele>
        <time>2010-05-21T14:11:26Z</time>
      </trkpt>
      <trkpt lat="47.23837" lon="5.67369">
        <ele>238</ele>
        <time>2010-05-21T14:11:27Z</time>
      </trkpt>
      <trkpt lat="47.23845" lon="5.67359">
        <ele>232</ele>
        <time>2010-05-21T14:11:28Z</time>
      </trkpt>
      <trkpt lat="47.23853" lon="5.67348">
        <ele>232</ele>
        <time>2010-05-21T14:11:29Z</time>
      </trkpt>
      <trkpt lat="47.23859" lon="5.67336">
        <ele>232</ele>
        <time>2010-05-21T14:11:30Z</time>
      </trkpt>
      <trkpt lat="47.23867" lon="5.67325">
        <ele>232</ele>
        <time>2010-05-21T14:11:31Z</time>
      </trkpt>
      <trkpt lat="47.23874" lon="5.67314">
        <ele>232</ele>
        <time>2010-05-21T14:11:32Z</time>
      </trkpt>
      <trkpt lat="47.23882" lon="5.67302">
        <ele>232</ele>
        <time>2010-05-21T14:11:33Z</time>
      </trkpt>
      <trkpt lat="47.23889" lon="5.67292">
        <ele>232</ele>
        <time>2010-05-21T14:11:34Z</time>
      </trkpt>
      <trkpt lat="47.23897" lon="5.67282">
        <ele>227</ele>
        <time>2010-05-21T14:11:35Z</time>
      </trkpt>
      <trkpt lat="47.23904" lon="5.67271">
        <ele>227</ele>
        <time>2010-05-21T14:11:36Z</time>
      </trkpt>
      <trkpt lat="47.23911" lon="5.67261">
        <ele>227</ele>
        <time>2010-05-21T14:11:37Z</time>
      </trkpt>
      <trkpt lat="47.23919" lon="5.67251">
        <ele>227</ele>
        <time>2010-05-21T14:11:38Z</time>
      </trkpt>
      <trkpt lat="47.23925" lon="5.67241">
        <ele>227</ele>
        <time>2010-05-21T14:11:39Z</time>
      </trkpt>
      <trkpt lat="47.23932" lon="5.67232">
        <ele>227</ele>
        <time>2010-05-21T14:11:40Z</time>
      </trkpt>
      <trkpt lat="47.23939" lon="5.67223">
        <ele>227</ele>
        <time>2010-05-21T14:11:41Z</time>
      </trkpt>
      <trkpt lat="47.23946" lon="5.67214">
        <ele>227</ele>
        <time>2010-05-21T14:11:42Z</time>
      </trkpt>
      <trkpt lat="47.23958" lon="5.67196">
        <ele>227</ele>
        <time>2010-05-21T14:11:44Z</time>
      </trkpt>
      <trkpt lat="47.23971" lon="5.67179">
        <ele>227</ele>
        <time>2010-05-21T14:11:46Z</time>
      </trkpt>
      <trkpt lat="47.23982" lon="5.67162">
        <ele>227</ele>
        <time>2010-05-21T14:11:48Z</time>
      </trkpt>
      <trkpt lat="47.23995" lon="5.67145">
        <ele>222</ele>
        <time>2010-05-21T14:11:50Z</time>
      </trkpt>
      <trkpt lat="47.24006" lon="5.67125">
        <ele>222</ele>
        <time>2010-05-21T14:11:52Z</time>
      </trkpt>
      <trkpt lat="47.24017" lon="5.67106">
        <ele>222</ele>
        <time>2010-05-21T14:11:54Z</time>
      </trkpt>
      <trkpt lat="47.24023" lon="5.67097">
        <ele>222</ele>
        <time>2010-05-21T14:11:55Z</time>
      </trkpt>
      <trkpt lat="47.24034" lon="5.67078">
        <ele>222</ele>
        <time>2010-05-21T14:11:57Z</time>
      </trkpt>
      <trkpt lat="47.24044" lon="5.67062">
        <ele>222</ele>
        <time>2010-05-21T14:11:59Z</time>
      </trkpt>
      <trkpt lat="47.24051" lon="5.67051">
        <ele>216</ele>
        <time>2010-05-21T14:12:01Z</time>
      </trkpt>
      <trkpt lat="47.24058" lon="5.67039">
        <ele>216</ele>
        <time>2010-05-21T14:12:04Z</time>
      </trkpt>
      <trkpt lat="47.24064" lon="5.67027">
        <ele>216</ele>
        <time>2010-05-21T14:12:07Z</time>
      </trkpt>
      <trkpt lat="47.24072" lon="5.67018">
        <ele>216</ele>
        <time>2010-05-21T14:12:41Z</time>
      </trkpt>
      <trkpt lat="47.24074" lon="5.67003">
        <ele>216</ele>
        <time>2010-05-21T14:12:44Z</time>
      </trkpt>
      <trkpt lat="47.24073" lon="5.6699">
        <ele>216</ele>
        <time>2010-05-21T14:12:46Z</time>
      </trkpt>
      <trkpt lat="47.24072" lon="5.66971">
        <ele>216</ele>
        <time>2010-05-21T14:12:49Z</time>
      </trkpt>
      <trkpt lat="47.2407" lon="5.66952">
        <ele>216</ele>
        <time>2010-05-21T14:12:52Z</time>
      </trkpt>
      <trkpt lat="47.24069" lon="5.66935">
        <ele>216</ele>
        <time>2010-05-21T14:12:55Z</time>
      </trkpt>
      <trkpt lat="47.24068" lon="5.66917">
        <ele>216</ele>
        <time>2010-05-21T14:12:58Z</time>
      </trkpt>
      <trkpt lat="47.24067" lon="5.66903">
        <ele>216</ele>
        <time>2010-05-21T14:13:00Z</time>
      </trkpt>
      <trkpt lat="47.24066" lon="5.66887">
        <ele>216</ele>
        <time>2010-05-21T14:13:02Z</time>
      </trkpt>
      <trkpt lat="47.24064" lon="5.66871">
        <ele>216</ele>
        <time>2010-05-21T14:13:04Z</time>
      </trkpt>
      <trkpt lat="47.24062" lon="5.66855">
        <ele>216</ele>
        <time>2010-05-21T14:13:06Z</time>
      </trkpt>
      <trkpt lat="47.24061" lon="5.66838">
        <ele>216</ele>
        <time>2010-05-21T14:13:08Z</time>
      </trkpt>
      <trkpt lat="47.24061" lon="5.66821">
        <ele>216</ele>
        <time>2010-05-21T14:13:10Z</time>
      </trkpt>
      <trkpt lat="47.24064" lon="5.66804">
        <ele>216</ele>
        <time>2010-05-21T14:13:12Z</time>
      </trkpt>
      <trkpt lat="47.24067" lon="5.66788">
        <ele>216</ele>
        <time>2010-05-21T14:13:14Z</time>
      </trkpt>
      <trkpt lat="47.24072" lon="5.66771">
        <ele>216</ele>
        <time>2010-05-21T14:13:16Z</time>
      </trkpt>
      <trkpt lat="47.24076" lon="5.66758">
        <ele>216</ele>
        <time>2010-05-21T14:13:18Z</time>
      </trkpt>
      <trkpt lat="47.24081" lon="5.66744">
        <ele>216</ele>
        <time>2010-05-21T14:13:20Z</time>
      </trkpt>
      <trkpt lat="47.24085" lon="5.66732">
        <ele>216</ele>
        <time>2010-05-21T14:13:22Z</time>
      </trkpt>
      <trkpt lat="47.24089" lon="5.6672">
        <ele>216</ele>
        <time>2010-05-21T14:13:24Z</time>
      </trkpt>
      <trkpt lat="47.24096" lon="5.66703">
        <ele>216</ele>
        <time>2010-05-21T14:13:27Z</time>
      </trkpt>
      <trkpt lat="47.24102" lon="5.66687">
        <ele>216</ele>
        <time>2010-05-21T14:13:30Z</time>
      </trkpt>
      <trkpt lat="47.24107" lon="5.66671">
        <ele>216</ele>
        <time>2010-05-21T14:13:33Z</time>
      </trkpt>
      <trkpt lat="47.24113" lon="5.66655">
        <ele>222</ele>
        <time>2010-05-21T14:13:36Z</time>
      </trkpt>
      <trkpt lat="47.24118" lon="5.66638">
        <ele>222</ele>
        <time>2010-05-21T14:13:39Z</time>
      </trkpt>
      <trkpt lat="47.24123" lon="5.66623">
        <ele>222</ele>
        <time>2010-05-21T14:13:42Z</time>
      </trkpt>
      <trkpt lat="47.24128" lon="5.6661">
        <ele>222</ele>
        <time>2010-05-21T14:13:45Z</time>
      </trkpt>
      <trkpt lat="47.24134" lon="5.66595">
        <ele>222</ele>
        <time>2010-05-21T14:13:48Z</time>
      </trkpt>
      <trkpt lat="47.2414" lon="5.66578">
        <ele>228</ele>
        <time>2010-05-21T14:13:51Z</time>
      </trkpt>
      <trkpt lat="47.24147" lon="5.66562">
        <ele>228</ele>
        <time>2010-05-21T14:13:54Z</time>
      </trkpt>
      <trkpt lat="47.24152" lon="5.66545">
        <ele>228</ele>
        <time>2010-05-21T14:13:57Z</time>
      </trkpt>
      <trkpt lat="47.2415" lon="5.66527">
        <ele>228</ele>
        <time>2010-05-21T14:14:00Z</time>
      </trkpt>
      <trkpt lat="47.24144" lon="5.66516">
        <ele>228</ele>
        <time>2010-05-21T14:14:02Z</time>
      </trkpt>
      <trkpt lat="47.24137" lon="5.66508">
        <ele>228</ele>
        <time>2010-05-21T14:14:04Z</time>
      </trkpt>
      <trkpt lat="47.24127" lon="5.66497">
        <ele>228</ele>
        <time>2010-05-21T14:14:07Z</time>
      </trkpt>
      <trkpt lat="47.24118" lon="5.66487">
        <ele>228</ele>
        <time>2010-05-21T14:14:10Z</time>
      </trkpt>
      <trkpt lat="47.2411" lon="5.66476">
        <ele>228</ele>
        <time>2010-05-21T14:14:13Z</time>
      </trkpt>
      <trkpt lat="47.24102" lon="5.66466">
        <ele>228</ele>
        <time>2010-05-21T14:14:16Z</time>
      </trkpt>
      <trkpt lat="47.24092" lon="5.66456">
        <ele>228</ele>
        <time>2010-05-21T14:14:19Z</time>
      </trkpt>
      <trkpt lat="47.24084" lon="5.66445">
        <ele>228</ele>
        <time>2010-05-21T14:14:22Z</time>
      </trkpt>
      <trkpt lat="47.24075" lon="5.66435">
        <ele>228</ele>
        <time>2010-05-21T14:14:25Z</time>
      </trkpt>
      <trkpt lat="47.24067" lon="5.66426">
        <ele>228</ele>
        <time>2010-05-21T14:14:28Z</time>
      </trkpt>
      <trkpt lat="47.24059" lon="5.66416">
        <ele>228</ele>
        <time>2010-05-21T14:14:31Z</time>
      </trkpt>
      <trkpt lat="47.2405" lon="5.66406">
        <ele>228</ele>
        <time>2010-05-21T14:14:34Z</time>
      </trkpt>
      <trkpt lat="47.24042" lon="5.66397">
        <ele>228</ele>
        <time>2010-05-21T14:14:37Z</time>
      </trkpt>
      <trkpt lat="47.24034" lon="5.66387">
        <ele>228</ele>
        <time>2010-05-21T14:14:40Z</time>
      </trkpt>
      <trkpt lat="47.24026" lon="5.66378">
        <ele>228</ele>
        <time>2010-05-21T14:14:43Z</time>
      </trkpt>
      <trkpt lat="47.24018" lon="5.66368">
        <ele>228</ele>
        <time>2010-05-21T14:14:46Z</time>
      </trkpt>
      <trkpt lat="47.24011" lon="5.66359">
        <ele>228</ele>
        <time>2010-05-21T14:14:49Z</time>
      </trkpt>
      <trkpt lat="47.24004" lon="5.6635">
        <ele>228</ele>
        <time>2010-05-21T14:14:52Z</time>
      </trkpt>
      <trkpt lat="47.23998" lon="5.66336">
        <ele>228</ele>
        <time>2010-05-21T14:14:56Z</time>
      </trkpt>
      <trkpt lat="47.23992" lon="5.66325">
        <ele>228</ele>
        <time>2010-05-21T14:14:59Z</time>
      </trkpt>
      <trkpt lat="47.23987" lon="5.66314">
        <ele>228</ele>
        <time>2010-05-21T14:15:02Z</time>
      </trkpt>
      <trkpt lat="47.23981" lon="5.66302">
        <ele>233</ele>
        <time>2010-05-21T14:15:05Z</time>
      </trkpt>
      <trkpt lat="47.23974" lon="5.6629">
        <ele>233</ele>
        <time>2010-05-21T14:15:08Z</time>
      </trkpt>
      <trkpt lat="47.23968" lon="5.66276">
        <ele>233</ele>
        <time>2010-05-21T14:15:11Z</time>
      </trkpt>
      <trkpt lat="47.23962" lon="5.66263">
        <ele>233</ele>
        <time>2010-05-21T14:15:14Z</time>
      </trkpt>
      <trkpt lat="47.23955" lon="5.66249">
        <ele>233</ele>
        <time>2010-05-21T14:15:17Z</time>
      </trkpt>
      <trkpt lat="47.23947" lon="5.66233">
        <ele>233</ele>
        <time>2010-05-21T14:15:20Z</time>
      </trkpt>
      <trkpt lat="47.23941" lon="5.66216">
        <ele>233</ele>
        <time>2010-05-21T14:15:23Z</time>
      </trkpt>
      <trkpt lat="47.23935" lon="5.66199">
        <ele>233</ele>
        <time>2010-05-21T14:15:26Z</time>
      </trkpt>
      <trkpt lat="47.2393" lon="5.66188">
        <ele>233</ele>
        <time>2010-05-21T14:15:28Z</time>
      </trkpt>
      <trkpt lat="47.23925" lon="5.66176">
        <ele>233</ele>
        <time>2010-05-21T14:15:30Z</time>
      </trkpt>
      <trkpt lat="47.2392" lon="5.66164">
        <ele>233</ele>
        <time>2010-05-21T14:15:32Z</time>
      </trkpt>
      <trkpt lat="47.23915" lon="5.66152">
        <ele>233</ele>
        <time>2010-05-21T14:15:34Z</time>
      </trkpt>
      <trkpt lat="47.2391" lon="5.66139">
        <ele>233</ele>
        <time>2010-05-21T14:15:36Z</time>
      </trkpt>
      <trkpt lat="47.23904" lon="5.66127">
        <ele>233</ele>
        <time>2010-05-21T14:15:38Z</time>
      </trkpt>
      <trkpt lat="47.23899" lon="5.66114">
        <ele>233</ele>
        <time>2010-05-21T14:15:40Z</time>
      </trkpt>
      <trkpt lat="47.23892" lon="5.66099">
        <ele>233</ele>
        <time>2010-05-21T14:15:42Z</time>
      </trkpt>
      <trkpt lat="47.23886" lon="5.66086">
        <ele>233</ele>
        <time>2010-05-21T14:15:44Z</time>
      </trkpt>
      <trkpt lat="47.2388" lon="5.66072">
        <ele>233</ele>
        <time>2010-05-21T14:15:46Z</time>
      </trkpt>
      <trkpt lat="47.23875" lon="5.66057">
        <ele>233</ele>
        <time>2010-05-21T14:15:48Z</time>
      </trkpt>
      <trkpt lat="47.23869" lon="5.66043">
        <ele>233</ele>
        <time>2010-05-21T14:15:50Z</time>
      </trkpt>
      <trkpt lat="47.23864" lon="5.66029">
        <ele>233</ele>
        <time>2010-05-21T14:15:52Z</time>
      </trkpt>
      <trkpt lat="47.23859" lon="5.66015">
        <ele>233</ele>
        <time>2010-05-21T14:15:54Z</time>
      </trkpt>
      <trkpt lat="47.23853" lon="5.66001">
        <ele>233</ele>
        <time>2010-05-21T14:15:56Z</time>
      </trkpt>
      <trkpt lat="47.23848" lon="5.65987">
        <ele>233</ele>
        <time>2010-05-21T14:15:58Z</time>
      </trkpt>
      <trkpt lat="47.23843" lon="5.65974">
        <ele>233</ele>
        <time>2010-05-21T14:16:00Z</time>
      </trkpt>
      <trkpt lat="47.23839" lon="5.6596">
        <ele>233</ele>
        <time>2010-05-21T14:16:02Z</time>
      </trkpt>
      <trkpt lat="47.23834" lon="5.65947">
        <ele>233</ele>
        <time>2010-05-21T14:16:04Z</time>
      </trkpt>
      <trkpt lat="47.23831" lon="5.65933">
        <ele>233</ele>
        <time>2010-05-21T14:16:06Z</time>
      </trkpt>
      <trkpt lat="47.23826" lon="5.6592">
        <ele>233</ele>
        <time>2010-05-21T14:16:08Z</time>
      </trkpt>
      <trkpt lat="47.23822" lon="5.65907">
        <ele>233</ele>
        <time>2010-05-21T14:16:10Z</time>
      </trkpt>
      <trkpt lat="47.23818" lon="5.65894">
        <ele>233</ele>
        <time>2010-05-21T14:16:12Z</time>
      </trkpt>
      <trkpt lat="47.23815" lon="5.6588">
        <ele>233</ele>
        <time>2010-05-21T14:16:14Z</time>
      </trkpt>
      <trkpt lat="47.23811" lon="5.65867">
        <ele>233</ele>
        <time>2010-05-21T14:16:16Z</time>
      </trkpt>
      <trkpt lat="47.23807" lon="5.65852">
        <ele>233</ele>
        <time>2010-05-21T14:16:18Z</time>
      </trkpt>
      <trkpt lat="47.23804" lon="5.65838">
        <ele>233</ele>
        <time>2010-05-21T14:16:20Z</time>
      </trkpt>
      <trkpt lat="47.23801" lon="5.65825">
        <ele>233</ele>
        <time>2010-05-21T14:16:22Z</time>
      </trkpt>
      <trkpt lat="47.23798" lon="5.6581">
        <ele>233</ele>
        <time>2010-05-21T14:16:24Z</time>
      </trkpt>
      <trkpt lat="47.23795" lon="5.65796">
        <ele>233</ele>
        <time>2010-05-21T14:16:26Z</time>
      </trkpt>
      <trkpt lat="47.23793" lon="5.65781">
        <ele>233</ele>
        <time>2010-05-21T14:16:28Z</time>
      </trkpt>
      <trkpt lat="47.23792" lon="5.65766">
        <ele>233</ele>
        <time>2010-05-21T14:16:30Z</time>
      </trkpt>
      <trkpt lat="47.2379" lon="5.65752">
        <ele>233</ele>
        <time>2010-05-21T14:16:32Z</time>
      </trkpt>
      <trkpt lat="47.23789" lon="5.65737">
        <ele>238</ele>
        <time>2010-05-21T14:16:34Z</time>
      </trkpt>
      <trkpt lat="47.23788" lon="5.65723">
        <ele>238</ele>
        <time>2010-05-21T14:16:36Z</time>
      </trkpt>
      <trkpt lat="47.23787" lon="5.65709">
        <ele>238</ele>
        <time>2010-05-21T14:16:38Z</time>
      </trkpt>
      <trkpt lat="47.23785" lon="5.65694">
        <ele>238</ele>
        <time>2010-05-21T14:16:40Z</time>
      </trkpt>
      <trkpt lat="47.23784" lon="5.65681">
        <ele>238</ele>
        <time>2010-05-21T14:16:42Z</time>
      </trkpt>
      <trkpt lat="47.23783" lon="5.65666">
        <ele>238</ele>
        <time>2010-05-21T14:16:44Z</time>
      </trkpt>
      <trkpt lat="47.23781" lon="5.65653">
        <ele>238</ele>
        <time>2010-05-21T14:16:46Z</time>
      </trkpt>
      <trkpt lat="47.2378" lon="5.65639">
        <ele>238</ele>
        <time>2010-05-21T14:16:48Z</time>
      </trkpt>
      <trkpt lat="47.23777" lon="5.65619">
        <ele>238</ele>
        <time>2010-05-21T14:16:51Z</time>
      </trkpt>
      <trkpt lat="47.23776" lon="5.65599">
        <ele>238</ele>
        <time>2010-05-21T14:16:54Z</time>
      </trkpt>
      <trkpt lat="47.23772" lon="5.6558">
        <ele>238</ele>
        <time>2010-05-21T14:16:57Z</time>
      </trkpt>
      <trkpt lat="47.23771" lon="5.65567">
        <ele>238</ele>
        <time>2010-05-21T14:16:59Z</time>
      </trkpt>
      <trkpt lat="47.23769" lon="5.65553">
        <ele>238</ele>
        <time>2010-05-21T14:17:01Z</time>
      </trkpt>
      <trkpt lat="47.23766" lon="5.6554">
        <ele>238</ele>
        <time>2010-05-21T14:17:03Z</time>
      </trkpt>
      <trkpt lat="47.23764" lon="5.65526">
        <ele>243</ele>
        <time>2010-05-21T14:17:05Z</time>
      </trkpt>
      <trkpt lat="47.23761" lon="5.65512">
        <ele>243</ele>
        <time>2010-05-21T14:17:07Z</time>
      </trkpt>
      <trkpt lat="47.23758" lon="5.65499">
        <ele>243</ele>
        <time>2010-05-21T14:17:09Z</time>
      </trkpt>
      <trkpt lat="47.23756" lon="5.65485">
        <ele>243</ele>
        <time>2010-05-21T14:17:11Z</time>
      </trkpt>
      <trkpt lat="47.23752" lon="5.65472">
        <ele>243</ele>
        <time>2010-05-21T14:17:13Z</time>
      </trkpt>
      <trkpt lat="47.23749" lon="5.65458">
        <ele>243</ele>
        <time>2010-05-21T14:17:15Z</time>
      </trkpt>
      <trkpt lat="47.23744" lon="5.65446">
        <ele>243</ele>
        <time>2010-05-21T14:17:17Z</time>
      </trkpt>
      <trkpt lat="47.23739" lon="5.65433">
        <ele>243</ele>
        <time>2010-05-21T14:17:19Z</time>
      </trkpt>
      <trkpt lat="47.23735" lon="5.6542">
        <ele>243</ele>
        <time>2010-05-21T14:17:21Z</time>
      </trkpt>
      <trkpt lat="47.2373" lon="5.65409">
        <ele>243</ele>
        <time>2010-05-21T14:17:23Z</time>
      </trkpt>
      <trkpt lat="47.23725" lon="5.65397">
        <ele>243</ele>
        <time>2010-05-21T14:17:25Z</time>
      </trkpt>
      <trkpt lat="47.2372" lon="5.65385">
        <ele>243</ele>
        <time>2010-05-21T14:17:27Z</time>
      </trkpt>
      <trkpt lat="47.23711" lon="5.6537">
        <ele>243</ele>
        <time>2010-05-21T14:17:30Z</time>
      </trkpt>
      <trkpt lat="47.23704" lon="5.6536">
        <ele>243</ele>
        <time>2010-05-21T14:17:32Z</time>
      </trkpt>
      <trkpt lat="47.23696" lon="5.65352">
        <ele>243</ele>
        <time>2010-05-21T14:17:34Z</time>
      </trkpt>
      <trkpt lat="47.23686" lon="5.65346">
        <ele>243</ele>
        <time>2010-05-21T14:17:36Z</time>
      </trkpt>
      <trkpt lat="47.23675" lon="5.6534">
        <ele>243</ele>
        <time>2010-05-21T14:17:38Z</time>
      </trkpt>
      <trkpt lat="47.23664" lon="5.65334">
        <ele>243</ele>
        <time>2010-05-21T14:17:40Z</time>
      </trkpt>
      <trkpt lat="47.23652" lon="5.65329">
        <ele>243</ele>
        <time>2010-05-21T14:17:42Z</time>
      </trkpt>
      <trkpt lat="47.23641" lon="5.65322">
        <ele>243</ele>
        <time>2010-05-21T14:17:44Z</time>
      </trkpt>
      <trkpt lat="47.23631" lon="5.65313">
        <ele>243</ele>
        <time>2010-05-21T14:17:46Z</time>
      </trkpt>
      <trkpt lat="47.23623" lon="5.65304">
        <ele>243</ele>
        <time>2010-05-21T14:17:48Z</time>
      </trkpt>
      <trkpt lat="47.23615" lon="5.65295">
        <ele>243</ele>
        <time>2010-05-21T14:17:50Z</time>
      </trkpt>
      <trkpt lat="47.23607" lon="5.65287">
        <ele>243</ele>
        <time>2010-05-21T14:17:52Z</time>
      </trkpt>
      <trkpt lat="47.23601" lon="5.65277">
        <ele>243</ele>
        <time>2010-05-21T14:17:54Z</time>
      </trkpt>
      <trkpt lat="47.23591" lon="5.65263">
        <ele>249</ele>
        <time>2010-05-21T14:17:57Z</time>
      </trkpt>
      <trkpt lat="47.23583" lon="5.65251">
        <ele>249</ele>
        <time>2010-05-21T14:18:00Z</time>
      </trkpt>
      <trkpt lat="47.23575" lon="5.65238">
        <ele>249</ele>
        <time>2010-05-21T14:18:03Z</time>
      </trkpt>
      <trkpt lat="47.23568" lon="5.65227">
        <ele>249</ele>
        <time>2010-05-21T14:18:06Z</time>
      </trkpt>
      <trkpt lat="47.23561" lon="5.65216">
        <ele>249</ele>
        <time>2010-05-21T14:18:09Z</time>
      </trkpt>
      <trkpt lat="47.23555" lon="5.65206">
        <ele>255</ele>
        <time>2010-05-21T14:18:12Z</time>
      </trkpt>
      <trkpt lat="47.23548" lon="5.65194">
        <ele>255</ele>
        <time>2010-05-21T14:18:15Z</time>
      </trkpt>
      <trkpt lat="47.23541" lon="5.65182">
        <ele>255</ele>
        <time>2010-05-21T14:18:18Z</time>
      </trkpt>
      <trkpt lat="47.23533" lon="5.6517">
        <ele>255</ele>
        <time>2010-05-21T14:18:21Z</time>
      </trkpt>
      <trkpt lat="47.23524" lon="5.65155">
        <ele>255</ele>
        <time>2010-05-21T14:18:24Z</time>
      </trkpt>
      <trkpt lat="47.23516" lon="5.65142">
        <ele>255</ele>
        <time>2010-05-21T14:18:27Z</time>
      </trkpt>
      <trkpt lat="47.23508" lon="5.65129">
        <ele>255</ele>
        <time>2010-05-21T14:18:30Z</time>
      </trkpt>
      <trkpt lat="47.23499" lon="5.65117">
        <ele>255</ele>
        <time>2010-05-21T14:18:33Z</time>
      </trkpt>
      <trkpt lat="47.2349" lon="5.65105">
        <ele>261</ele>
        <time>2010-05-21T14:18:36Z</time>
      </trkpt>
      <trkpt lat="47.23482" lon="5.65094">
        <ele>261</ele>
        <time>2010-05-21T14:18:39Z</time>
      </trkpt>
      <trkpt lat="47.23478" lon="5.65082">
        <ele>261</ele>
        <time>2010-05-21T14:18:42Z</time>
      </trkpt>
      <trkpt lat="47.23467" lon="5.65071">
        <ele>261</ele>
        <time>2010-05-21T14:18:45Z</time>
      </trkpt>
      <trkpt lat="47.23457" lon="5.65058">
        <ele>266</ele>
        <time>2010-05-21T14:18:48Z</time>
      </trkpt>
      <trkpt lat="47.23448" lon="5.65046">
        <ele>266</ele>
        <time>2010-05-21T14:18:51Z</time>
      </trkpt>
      <trkpt lat="47.2344" lon="5.65034">
        <ele>266</ele>
        <time>2010-05-21T14:18:54Z</time>
      </trkpt>
      <trkpt lat="47.23433" lon="5.65021">
        <ele>266</ele>
        <time>2010-05-21T14:18:57Z</time>
      </trkpt>
      <trkpt lat="47.23426" lon="5.6501">
        <ele>266</ele>
        <time>2010-05-21T14:19:00Z</time>
      </trkpt>
      <trkpt lat="47.23419" lon="5.64998">
        <ele>266</ele>
        <time>2010-05-21T14:19:03Z</time>
      </trkpt>
      <trkpt lat="47.23412" lon="5.64986">
        <ele>266</ele>
        <time>2010-05-21T14:19:06Z</time>
      </trkpt>
      <trkpt lat="47.23406" lon="5.64975">
        <ele>266</ele>
        <time>2010-05-21T14:19:09Z</time>
      </trkpt>
      <trkpt lat="47.23398" lon="5.64961">
        <ele>266</ele>
        <time>2010-05-21T14:19:13Z</time>
      </trkpt>
      <trkpt lat="47.23391" lon="5.6495">
        <ele>266</ele>
        <time>2010-05-21T14:19:16Z</time>
      </trkpt>
      <trkpt lat="47.23383" lon="5.64939">
        <ele>266</ele>
        <time>2010-05-21T14:19:19Z</time>
      </trkpt>
      <trkpt lat="47.23376" lon="5.64928">
        <ele>266</ele>
        <time>2010-05-21T14:19:22Z</time>
      </trkpt>
      <trkpt lat="47.23369" lon="5.64916">
        <ele>266</ele>
        <time>2010-05-21T14:19:25Z</time>
      </trkpt>
      <trkpt lat="47.23362" lon="5.64905">
        <ele>266</ele>
        <time>2010-05-21T14:19:28Z</time>
      </trkpt>
      <trkpt lat="47.23355" lon="5.64894">
        <ele>266</ele>
        <time>2010-05-21T14:19:31Z</time>
      </trkpt>
      <trkpt lat="47.23347" lon="5.64883">
        <ele>266</ele>
        <time>2010-05-21T14:19:34Z</time>
      </trkpt>
      <trkpt lat="47.23341" lon="5.64873">
        <ele>266</ele>
        <time>2010-05-21T14:19:37Z</time>
      </trkpt>
      <trkpt lat="47.23333" lon="5.64862">
        <ele>266</ele>
        <time>2010-05-21T14:19:40Z</time>
      </trkpt>
      <trkpt lat="47.23325" lon="5.64852">
        <ele>266</ele>
        <time>2010-05-21T14:19:43Z</time>
      </trkpt>
      <trkpt lat="47.23319" lon="5.64841">
        <ele>272</ele>
        <time>2010-05-21T14:19:46Z</time>
      </trkpt>
      <trkpt lat="47.23311" lon="5.6483">
        <ele>272</ele>
        <time>2010-05-21T14:19:49Z</time>
      </trkpt>
      <trkpt lat="47.23304" lon="5.64819">
        <ele>272</ele>
        <time>2010-05-21T14:19:52Z</time>
      </trkpt>
      <trkpt lat="47.23296" lon="5.64809">
        <ele>272</ele>
        <time>2010-05-21T14:19:55Z</time>
      </trkpt>
      <trkpt lat="47.23289" lon="5.64799">
        <ele>272</ele>
        <time>2010-05-21T14:19:58Z</time>
      </trkpt>
      <trkpt lat="47.23282" lon="5.64788">
        <ele>272</ele>
        <time>2010-05-21T14:20:01Z</time>
      </trkpt>
      <trkpt lat="47.23274" lon="5.64778">
        <ele>272</ele>
        <time>2010-05-21T14:20:04Z</time>
      </trkpt>
      <trkpt lat="47.23267" lon="5.64767">
        <ele>272</ele>
        <time>2010-05-21T14:20:07Z</time>
      </trkpt>
      <trkpt lat="47.23259" lon="5.64757">
        <ele>272</ele>
        <time>2010-05-21T14:20:10Z</time>
      </trkpt>
      <trkpt lat="47.23251" lon="5.64748">
        <ele>277</ele>
        <time>2010-05-21T14:20:13Z</time>
      </trkpt>
      <trkpt lat="47.23243" lon="5.64738">
        <ele>277</ele>
        <time>2010-05-21T14:20:16Z</time>
      </trkpt>
      <trkpt lat="47.23235" lon="5.64729">
        <ele>277</ele>
        <time>2010-05-21T14:20:19Z</time>
      </trkpt>
      <trkpt lat="47.23227" lon="5.6472">
        <ele>277</ele>
        <time>2010-05-21T14:20:22Z</time>
      </trkpt>
      <trkpt lat="47.23219" lon="5.64712">
        <ele>277</ele>
        <time>2010-05-21T14:20:25Z</time>
      </trkpt>
      <trkpt lat="47.2321" lon="5.64703">
        <ele>277</ele>
        <time>2010-05-21T14:20:28Z</time>
      </trkpt>
      <trkpt lat="47.23202" lon="5.64693">
        <ele>284</ele>
        <time>2010-05-21T14:20:32Z</time>
      </trkpt>
      <trkpt lat="47.23191" lon="5.64685">
        <ele>284</ele>
        <time>2010-05-21T14:20:36Z</time>
      </trkpt>
      <trkpt lat="47.23181" lon="5.64677">
        <ele>284</ele>
        <time>2010-05-21T14:20:39Z</time>
      </trkpt>
      <trkpt lat="47.23172" lon="5.64669">
        <ele>284</ele>
        <time>2010-05-21T14:20:42Z</time>
      </trkpt>
      <trkpt lat="47.2316" lon="5.64661">
        <ele>291</ele>
        <time>2010-05-21T14:20:45Z</time>
      </trkpt>
      <trkpt lat="47.2315" lon="5.64652">
        <ele>291</ele>
        <time>2010-05-21T14:20:48Z</time>
      </trkpt>
      <trkpt lat="47.2314" lon="5.64642">
        <ele>291</ele>
        <time>2010-05-21T14:20:51Z</time>
      </trkpt>
      <trkpt lat="47.23131" lon="5.64633">
        <ele>291</ele>
        <time>2010-05-21T14:20:53Z</time>
      </trkpt>
      <trkpt lat="47.23122" lon="5.64625">
        <ele>291</ele>
        <time>2010-05-21T14:20:55Z</time>
      </trkpt>
      <trkpt lat="47.23111" lon="5.64617">
        <ele>291</ele>
        <time>2010-05-21T14:20:57Z</time>
      </trkpt>
      <trkpt lat="47.23099" lon="5.64607">
        <ele>291</ele>
        <time>2010-05-21T14:20:59Z</time>
      </trkpt>
      <trkpt lat="47.23084" lon="5.64597">
        <ele>291</ele>
        <time>2010-05-21T14:21:01Z</time>
      </trkpt>
      <trkpt lat="47.23071" lon="5.64588">
        <ele>291</ele>
        <time>2010-05-21T14:21:03Z</time>
      </trkpt>
      <trkpt lat="47.23057" lon="5.64575">
        <ele>291</ele>
        <time>2010-05-21T14:21:05Z</time>
      </trkpt>
      <trkpt lat="47.23048" lon="5.6457">
        <ele>291</ele>
        <time>2010-05-21T14:21:06Z</time>
      </trkpt>
      <trkpt lat="47.23039" lon="5.64563">
        <ele>291</ele>
        <time>2010-05-21T14:21:07Z</time>
      </trkpt>
      <trkpt lat="47.23031" lon="5.64557">
        <ele>291</ele>
        <time>2010-05-21T14:21:08Z</time>
      </trkpt>
      <trkpt lat="47.23022" lon="5.64551">
        <ele>291</ele>
        <time>2010-05-21T14:21:09Z</time>
      </trkpt>
      <trkpt lat="47.23014" lon="5.64544">
        <ele>291</ele>
        <time>2010-05-21T14:21:10Z</time>
      </trkpt>
      <trkpt lat="47.23006" lon="5.64538">
        <ele>291</ele>
        <time>2010-05-21T14:21:11Z</time>
      </trkpt>
      <trkpt lat="47.22998" lon="5.64532">
        <ele>291</ele>
        <time>2010-05-21T14:21:12Z</time>
      </trkpt>
      <trkpt lat="47.2299" lon="5.64526">
        <ele>291</ele>
        <time>2010-05-21T14:21:13Z</time>
      </trkpt>
      <trkpt lat="47.22982" lon="5.64518">
        <ele>291</ele>
        <time>2010-05-21T14:21:14Z</time>
      </trkpt>
      <trkpt lat="47.22967" lon="5.64505">
        <ele>291</ele>
        <time>2010-05-21T14:21:16Z</time>
      </trkpt>
      <trkpt lat="47.22957" lon="5.64498">
        <ele>291</ele>
        <time>2010-05-21T14:21:17Z</time>
      </trkpt>
      <trkpt lat="47.22948" lon="5.64491">
        <ele>291</ele>
        <time>2010-05-21T14:21:18Z</time>
      </trkpt>
      <trkpt lat="47.22938" lon="5.64483">
        <ele>291</ele>
        <time>2010-05-21T14:21:19Z</time>
      </trkpt>
      <trkpt lat="47.22928" lon="5.64476">
        <ele>291</ele>
        <time>2010-05-21T14:21:20Z</time>
      </trkpt>
      <trkpt lat="47.22918" lon="5.64469">
        <ele>291</ele>
        <time>2010-05-21T14:21:21Z</time>
      </trkpt>
      <trkpt lat="47.22907" lon="5.64461">
        <ele>291</ele>
        <time>2010-05-21T14:21:22Z</time>
      </trkpt>
      <trkpt lat="47.22897" lon="5.64454">
        <ele>284</ele>
        <time>2010-05-21T14:21:23Z</time>
      </trkpt>
      <trkpt lat="47.22887" lon="5.64447">
        <ele>284</ele>
        <time>2010-05-21T14:21:24Z</time>
      </trkpt>
      <trkpt lat="47.22876" lon="5.64441">
        <ele>284</ele>
        <time>2010-05-21T14:21:25Z</time>
      </trkpt>
      <trkpt lat="47.22865" lon="5.64435">
        <ele>284</ele>
        <time>2010-05-21T14:21:26Z</time>
      </trkpt>
      <trkpt lat="47.22854" lon="5.64429">
        <ele>284</ele>
        <time>2010-05-21T14:21:27Z</time>
      </trkpt>
      <trkpt lat="47.22844" lon="5.64423">
        <ele>279</ele>
        <time>2010-05-21T14:21:28Z</time>
      </trkpt>
      <trkpt lat="47.22832" lon="5.64417">
        <ele>279</ele>
        <time>2010-05-21T14:21:29Z</time>
      </trkpt>
      <trkpt lat="47.22817" lon="5.64412">
        <ele>279</ele>
        <time>2010-05-21T14:21:30Z</time>
      </trkpt>
      <trkpt lat="47.22804" lon="5.64405">
        <ele>272</ele>
        <time>2010-05-21T14:21:31Z</time>
      </trkpt>
      <trkpt lat="47.22792" lon="5.64399">
        <ele>272</ele>
        <time>2010-05-21T14:21:32Z</time>
      </trkpt>
      <trkpt lat="47.2278" lon="5.64393">
        <ele>272</ele>
        <time>2010-05-21T14:21:33Z</time>
      </trkpt>
      <trkpt lat="47.22768" lon="5.64387">
        <ele>267</ele>
        <time>2010-05-21T14:21:34Z</time>
      </trkpt>
      <trkpt lat="47.22756" lon="5.64381">
        <ele>267</ele>
        <time>2010-05-21T14:21:35Z</time>
      </trkpt>
      <trkpt lat="47.22745" lon="5.64375">
        <ele>267</ele>
        <time>2010-05-21T14:21:36Z</time>
      </trkpt>
      <trkpt lat="47.22734" lon="5.64368">
        <ele>267</ele>
        <time>2010-05-21T14:21:37Z</time>
      </trkpt>
      <trkpt lat="47.22723" lon="5.64361">
        <ele>267</ele>
        <time>2010-05-21T14:21:38Z</time>
      </trkpt>
      <trkpt lat="47.22711" lon="5.64355">
        <ele>261</ele>
        <time>2010-05-21T14:21:39Z</time>
      </trkpt>
      <trkpt lat="47.22699" lon="5.64349">
        <ele>261</ele>
        <time>2010-05-21T14:21:40Z</time>
      </trkpt>
      <trkpt lat="47.22687" lon="5.64343">
        <ele>261</ele>
        <time>2010-05-21T14:21:41Z</time>
      </trkpt>
      <trkpt lat="47.22675" lon="5.64338">
        <ele>261</ele>
        <time>2010-05-21T14:21:42Z</time>
      </trkpt>
      <trkpt lat="47.22663" lon="5.64334">
        <ele>261</ele>
        <time>2010-05-21T14:21:43Z</time>
      </trkpt>
      <trkpt lat="47.2265" lon="5.64332">
        <ele>261</ele>
        <time>2010-05-21T14:21:44Z</time>
      </trkpt>
      <trkpt lat="47.22638" lon="5.6433">
        <ele>261</ele>
        <time>2010-05-21T14:21:45Z</time>
      </trkpt>
      <trkpt lat="47.22625" lon="5.64328">
        <ele>256</ele>
        <time>2010-05-21T14:21:46Z</time>
      </trkpt>
      <trkpt lat="47.22613" lon="5.64326">
        <ele>256</ele>
        <time>2010-05-21T14:21:47Z</time>
      </trkpt>
      <trkpt lat="47.226" lon="5.64325">
        <ele>256</ele>
        <time>2010-05-21T14:21:48Z</time>
      </trkpt>
      <trkpt lat="47.22587" lon="5.64324">
        <ele>256</ele>
        <time>2010-05-21T14:21:49Z</time>
      </trkpt>
      <trkpt lat="47.22574" lon="5.64322">
        <ele>251</ele>
        <time>2010-05-21T14:21:50Z</time>
      </trkpt>
      <trkpt lat="47.22562" lon="5.6432">
        <ele>251</ele>
        <time>2010-05-21T14:21:51Z</time>
      </trkpt>
      <trkpt lat="47.22549" lon="5.64318">
        <ele>251</ele>
        <time>2010-05-21T14:21:52Z</time>
      </trkpt>
      <trkpt lat="47.22536" lon="5.64316">
        <ele>251</ele>
        <time>2010-05-21T14:21:53Z</time>
      </trkpt>
      <trkpt lat="47.22523" lon="5.64314">
        <ele>251</ele>
        <time>2010-05-21T14:21:54Z</time>
      </trkpt>
      <trkpt lat="47.2251" lon="5.64311">
        <ele>251</ele>
        <time>2010-05-21T14:21:55Z</time>
      </trkpt>
      <trkpt lat="47.22498" lon="5.64307">
        <ele>245</ele>
        <time>2010-05-21T14:21:56Z</time>
      </trkpt>
      <trkpt lat="47.22485" lon="5.64304">
        <ele>245</ele>
        <time>2010-05-21T14:21:57Z</time>
      </trkpt>
      <trkpt lat="47.22473" lon="5.64298">
        <ele>245</ele>
        <time>2010-05-21T14:21:58Z</time>
      </trkpt>
      <trkpt lat="47.22461" lon="5.64292">
        <ele>245</ele>
        <time>2010-05-21T14:21:59Z</time>
      </trkpt>
      <trkpt lat="47.22449" lon="5.64284">
        <ele>245</ele>
        <time>2010-05-21T14:22:00Z</time>
      </trkpt>
      <trkpt lat="47.22439" lon="5.64276">
        <ele>245</ele>
        <time>2010-05-21T14:22:01Z</time>
      </trkpt>
      <trkpt lat="47.22429" lon="5.64268">
        <ele>245</ele>
        <time>2010-05-21T14:22:02Z</time>
      </trkpt>
      <trkpt lat="47.22419" lon="5.6426">
        <ele>245</ele>
        <time>2010-05-21T14:22:03Z</time>
      </trkpt>
      <trkpt lat="47.2241" lon="5.64252">
        <ele>240</ele>
        <time>2010-05-21T14:22:04Z</time>
      </trkpt>
      <trkpt lat="47.22401" lon="5.64243">
        <ele>240</ele>
        <time>2010-05-21T14:22:05Z</time>
      </trkpt>
      <trkpt lat="47.22391" lon="5.64235">
        <ele>240</ele>
        <time>2010-05-21T14:22:06Z</time>
      </trkpt>
      <trkpt lat="47.22381" lon="5.64226">
        <ele>240</ele>
        <time>2010-05-21T14:22:07Z</time>
      </trkpt>
      <trkpt lat="47.22371" lon="5.64218">
        <ele>240</ele>
        <time>2010-05-21T14:22:08Z</time>
      </trkpt>
      <trkpt lat="47.22362" lon="5.64209">
        <ele>240</ele>
        <time>2010-05-21T14:22:09Z</time>
      </trkpt>
      <trkpt lat="47.22352" lon="5.642">
        <ele>240</ele>
        <time>2010-05-21T14:22:10Z</time>
      </trkpt>
      <trkpt lat="47.22342" lon="5.64192">
        <ele>240</ele>
        <time>2010-05-21T14:22:11Z</time>
      </trkpt>
      <trkpt lat="47.22333" lon="5.64183">
        <ele>240</ele>
        <time>2010-05-21T14:22:12Z</time>
      </trkpt>
      <trkpt lat="47.22323" lon="5.64174">
        <ele>235</ele>
        <time>2010-05-21T14:22:13Z</time>
      </trkpt>
      <trkpt lat="47.22313" lon="5.64165">
        <ele>235</ele>
        <time>2010-05-21T14:22:14Z</time>
      </trkpt>
      <trkpt lat="47.22303" lon="5.64157">
        <ele>235</ele>
        <time>2010-05-21T14:22:15Z</time>
      </trkpt>
      <trkpt lat="47.22294" lon="5.64148">
        <ele>235</ele>
        <time>2010-05-21T14:22:16Z</time>
      </trkpt>
      <trkpt lat="47.22284" lon="5.64141">
        <ele>235</ele>
        <time>2010-05-21T14:22:17Z</time>
      </trkpt>
      <trkpt lat="47.22276" lon="5.64134">
        <ele>235</ele>
        <time>2010-05-21T14:22:18Z</time>
      </trkpt>
      <trkpt lat="47.22262" lon="5.64122">
        <ele>235</ele>
        <time>2010-05-21T14:22:20Z</time>
      </trkpt>
      <trkpt lat="47.22251" lon="5.64113">
        <ele>235</ele>
        <time>2010-05-21T14:22:22Z</time>
      </trkpt>
      <trkpt lat="47.22242" lon="5.64108">
        <ele>235</ele>
        <time>2010-05-21T14:22:24Z</time>
      </trkpt>
      <trkpt lat="47.22234" lon="5.64102">
        <ele>235</ele>
        <time>2010-05-21T14:23:49Z</time>
      </trkpt>
      <trkpt lat="47.22227" lon="5.64093">
        <ele>235</ele>
        <time>2010-05-21T14:23:53Z</time>
      </trkpt>
      <trkpt lat="47.22216" lon="5.64085">
        <ele>235</ele>
        <time>2010-05-21T14:23:57Z</time>
      </trkpt>
      <trkpt lat="47.22206" lon="5.64077">
        <ele>235</ele>
        <time>2010-05-21T14:24:00Z</time>
      </trkpt>
      <trkpt lat="47.22194" lon="5.64069">
        <ele>235</ele>
        <time>2010-05-21T14:24:03Z</time>
      </trkpt>
      <trkpt lat="47.22182" lon="5.6406">
        <ele>235</ele>
        <time>2010-05-21T14:24:06Z</time>
      </trkpt>
      <trkpt lat="47.22173" lon="5.64055">
        <ele>235</ele>
        <time>2010-05-21T14:24:08Z</time>
      </trkpt>
      <trkpt lat="47.22161" lon="5.64047">
        <ele>235</ele>
        <time>2010-05-21T14:24:11Z</time>
      </trkpt>
      <trkpt lat="47.22153" lon="5.64041">
        <ele>235</ele>
        <time>2010-05-21T14:24:13Z</time>
      </trkpt>
      <trkpt lat="47.22143" lon="5.64036">
        <ele>235</ele>
        <time>2010-05-21T14:24:15Z</time>
      </trkpt>
      <trkpt lat="47.22134" lon="5.64032">
        <ele>235</ele>
        <time>2010-05-21T14:24:17Z</time>
      </trkpt>
      <trkpt lat="47.22124" lon="5.6403">
        <ele>229</ele>
        <time>2010-05-21T14:24:19Z</time>
      </trkpt>
      <trkpt lat="47.22112" lon="5.64028">
        <ele>229</ele>
        <time>2010-05-21T14:24:21Z</time>
      </trkpt>
      <trkpt lat="47.22101" lon="5.64025">
        <ele>229</ele>
        <time>2010-05-21T14:24:23Z</time>
      </trkpt>
      <trkpt lat="47.22089" lon="5.64023">
        <ele>229</ele>
        <time>2010-05-21T14:24:25Z</time>
      </trkpt>
      <trkpt lat="47.22077" lon="5.64021">
        <ele>229</ele>
        <time>2010-05-21T14:24:27Z</time>
      </trkpt>
      <trkpt lat="47.22066" lon="5.64019">
        <ele>229</ele>
        <time>2010-05-21T14:24:29Z</time>
      </trkpt>
      <trkpt lat="47.22057" lon="5.64018">
        <ele>229</ele>
        <time>2010-05-21T14:24:31Z</time>
      </trkpt>
      <trkpt lat="47.22046" lon="5.64016">
        <ele>229</ele>
        <time>2010-05-21T14:24:33Z</time>
      </trkpt>
      <trkpt lat="47.22036" lon="5.64013">
        <ele>229</ele>
        <time>2010-05-21T14:24:35Z</time>
      </trkpt>
      <trkpt lat="47.22027" lon="5.64009">
        <ele>229</ele>
        <time>2010-05-21T14:24:37Z</time>
      </trkpt>
      <trkpt lat="47.22018" lon="5.64006">
        <ele>229</ele>
        <time>2010-05-21T14:24:39Z</time>
      </trkpt>
      <trkpt lat="47.22008" lon="5.64003">
        <ele>229</ele>
        <time>2010-05-21T14:24:41Z</time>
      </trkpt>
      <trkpt lat="47.21997" lon="5.63999">
        <ele>235</ele>
        <time>2010-05-21T14:24:43Z</time>
      </trkpt>
      <trkpt lat="47.21988" lon="5.63996">
        <ele>235</ele>
        <time>2010-05-21T14:24:45Z</time>
      </trkpt>
      <trkpt lat="47.21977" lon="5.63995">
        <ele>235</ele>
        <time>2010-05-21T14:24:47Z</time>
      </trkpt>
      <trkpt lat="47.21967" lon="5.63994">
        <ele>235</ele>
        <time>2010-05-21T14:24:49Z</time>
      </trkpt>
      <trkpt lat="47.21956" lon="5.63996">
        <ele>235</ele>
        <time>2010-05-21T14:24:51Z</time>
      </trkpt>
      <trkpt lat="47.21946" lon="5.63996">
        <ele>235</ele>
        <time>2010-05-21T14:24:53Z</time>
      </trkpt>
      <trkpt lat="47.21934" lon="5.63997">
        <ele>235</ele>
        <time>2010-05-21T14:24:55Z</time>
      </trkpt>
      <trkpt lat="47.21924" lon="5.63998">
        <ele>235</ele>
        <time>2010-05-21T14:24:57Z</time>
      </trkpt>
      <trkpt lat="47.21912" lon="5.63999">
        <ele>235</ele>
        <time>2010-05-21T14:24:59Z</time>
      </trkpt>
      <trkpt lat="47.21901" lon="5.64">
        <ele>235</ele>
        <time>2010-05-21T14:25:01Z</time>
      </trkpt>
      <trkpt lat="47.2189" lon="5.64">
        <ele>235</ele>
        <time>2010-05-21T14:25:03Z</time>
      </trkpt>
      <trkpt lat="47.21878" lon="5.64001">
        <ele>235</ele>
        <time>2010-05-21T14:25:05Z</time>
      </trkpt>
      <trkpt lat="47.21866" lon="5.64002">
        <ele>235</ele>
        <time>2010-05-21T14:25:07Z</time>
      </trkpt>
      <trkpt lat="47.21855" lon="5.64003">
        <ele>235</ele>
        <time>2010-05-21T14:25:09Z</time>
      </trkpt>
      <trkpt lat="47.21843" lon="5.64004">
        <ele>230</ele>
        <time>2010-05-21T14:25:11Z</time>
      </trkpt>
      <trkpt lat="47.21831" lon="5.64006">
        <ele>230</ele>
        <time>2010-05-21T14:25:13Z</time>
      </trkpt>
      <trkpt lat="47.2182" lon="5.64011">
        <ele>230</ele>
        <time>2010-05-21T14:25:15Z</time>
      </trkpt>
      <trkpt lat="47.21809" lon="5.64015">
        <ele>230</ele>
        <time>2010-05-21T14:25:17Z</time>
      </trkpt>
      <trkpt lat="47.21798" lon="5.64021">
        <ele>230</ele>
        <time>2010-05-21T14:25:19Z</time>
      </trkpt>
      <trkpt lat="47.21787" lon="5.64025">
        <ele>230</ele>
        <time>2010-05-21T14:25:21Z</time>
      </trkpt>
      <trkpt lat="47.21771" lon="5.64027">
        <ele>230</ele>
        <time>2010-05-21T14:25:23Z</time>
      </trkpt>
      <trkpt lat="47.21754" lon="5.64027">
        <ele>230</ele>
        <time>2010-05-21T14:25:25Z</time>
      </trkpt>
      <trkpt lat="47.21745" lon="5.64027">
        <ele>230</ele>
        <time>2010-05-21T14:25:26Z</time>
      </trkpt>
      <trkpt lat="47.21727" lon="5.64027">
        <ele>230</ele>
        <time>2010-05-21T14:25:28Z</time>
      </trkpt>
      <trkpt lat="47.21709" lon="5.64026">
        <ele>230</ele>
        <time>2010-05-21T14:25:30Z</time>
      </trkpt>
      <trkpt lat="47.217" lon="5.64026">
        <ele>224</ele>
        <time>2010-05-21T14:25:31Z</time>
      </trkpt>
      <trkpt lat="47.21689" lon="5.64026">
        <ele>224</ele>
        <time>2010-05-21T14:25:32Z</time>
      </trkpt>
      <trkpt lat="47.2168" lon="5.64026">
        <ele>224</ele>
        <time>2010-05-21T14:25:33Z</time>
      </trkpt>
      <trkpt lat="47.2167" lon="5.64026">
        <ele>224</ele>
        <time>2010-05-21T14:25:34Z</time>
      </trkpt>
      <trkpt lat="47.21659" lon="5.64026">
        <ele>224</ele>
        <time>2010-05-21T14:25:35Z</time>
      </trkpt>
      <trkpt lat="47.21649" lon="5.64025">
        <ele>224</ele>
        <time>2010-05-21T14:25:36Z</time>
      </trkpt>
      <trkpt lat="47.21639" lon="5.64025">
        <ele>224</ele>
        <time>2010-05-21T14:25:37Z</time>
      </trkpt>
      <trkpt lat="47.21629" lon="5.64025">
        <ele>224</ele>
        <time>2010-05-21T14:25:38Z</time>
      </trkpt>
      <trkpt lat="47.21619" lon="5.64024">
        <ele>224</ele>
        <time>2010-05-21T14:25:39Z</time>
      </trkpt>
      <trkpt lat="47.2161" lon="5.64024">
        <ele>224</ele>
        <time>2010-05-21T14:25:40Z</time>
      </trkpt>
      <trkpt lat="47.216" lon="5.64023">
        <ele>224</ele>
        <time>2010-05-21T14:25:41Z</time>
      </trkpt>
      <trkpt lat="47.21591" lon="5.64023">
        <ele>219</ele>
        <time>2010-05-21T14:25:42Z</time>
      </trkpt>
      <trkpt lat="47.21582" lon="5.64022">
        <ele>219</ele>
        <time>2010-05-21T14:25:43Z</time>
      </trkpt>
      <trkpt lat="47.21573" lon="5.6402">
        <ele>219</ele>
        <time>2010-05-21T14:25:44Z</time>
      </trkpt>
      <trkpt lat="47.21555" lon="5.64015">
        <ele>219</ele>
        <time>2010-05-21T14:25:46Z</time>
      </trkpt>
      <trkpt lat="47.21538" lon="5.6401">
        <ele>219</ele>
        <time>2010-05-21T14:25:48Z</time>
      </trkpt>
      <trkpt lat="47.21522" lon="5.64004">
        <ele>219</ele>
        <time>2010-05-21T14:25:50Z</time>
      </trkpt>
      <trkpt lat="47.21508" lon="5.63997">
        <ele>219</ele>
        <time>2010-05-21T14:25:52Z</time>
      </trkpt>
      <trkpt lat="47.21495" lon="5.63992">
        <ele>219</ele>
        <time>2010-05-21T14:25:54Z</time>
      </trkpt>
      <trkpt lat="47.21482" lon="5.63986">
        <ele>219</ele>
        <time>2010-05-21T14:25:56Z</time>
      </trkpt>
      <trkpt lat="47.2147" lon="5.63979">
        <ele>219</ele>
        <time>2010-05-21T14:25:58Z</time>
      </trkpt>
      <trkpt lat="47.21458" lon="5.63973">
        <ele>219</ele>
        <time>2010-05-21T14:26:00Z</time>
      </trkpt>
      <trkpt lat="47.21448" lon="5.63964">
        <ele>219</ele>
        <time>2010-05-21T14:26:02Z</time>
      </trkpt>
      <trkpt lat="47.21438" lon="5.63953">
        <ele>219</ele>
        <time>2010-05-21T14:26:04Z</time>
      </trkpt>
      <trkpt lat="47.21429" lon="5.63943">
        <ele>219</ele>
        <time>2010-05-21T14:26:06Z</time>
      </trkpt>
      <trkpt lat="47.21421" lon="5.63932">
        <ele>219</ele>
        <time>2010-05-21T14:26:08Z</time>
      </trkpt>
      <trkpt lat="47.21413" lon="5.63921">
        <ele>219</ele>
        <time>2010-05-21T14:26:10Z</time>
      </trkpt>
      <trkpt lat="47.21405" lon="5.6391">
        <ele>219</ele>
        <time>2010-05-21T14:26:12Z</time>
      </trkpt>
      <trkpt lat="47.21398" lon="5.639">
        <ele>219</ele>
        <time>2010-05-21T14:26:14Z</time>
      </trkpt>
      <trkpt lat="47.21391" lon="5.63891">
        <ele>219</ele>
        <time>2010-05-21T14:26:16Z</time>
      </trkpt>
      <trkpt lat="47.21384" lon="5.63881">
        <ele>224</ele>
        <time>2010-05-21T14:26:18Z</time>
      </trkpt>
      <trkpt lat="47.21377" lon="5.63871">
        <ele>224</ele>
        <time>2010-05-21T14:26:20Z</time>
      </trkpt>
      <trkpt lat="47.21371" lon="5.63862">
        <ele>224</ele>
        <time>2010-05-21T14:26:22Z</time>
      </trkpt>
      <trkpt lat="47.21363" lon="5.63854">
        <ele>224</ele>
        <time>2010-05-21T14:26:24Z</time>
      </trkpt>
      <trkpt lat="47.21352" lon="5.63843">
        <ele>224</ele>
        <time>2010-05-21T14:26:27Z</time>
      </trkpt>
      <trkpt lat="47.21344" lon="5.63837">
        <ele>224</ele>
        <time>2010-05-21T14:26:29Z</time>
      </trkpt>
      <trkpt lat="47.21333" lon="5.63828">
        <ele>224</ele>
        <time>2010-05-21T14:26:32Z</time>
      </trkpt>
      <trkpt lat="47.21325" lon="5.63821">
        <ele>224</ele>
        <time>2010-05-21T14:26:34Z</time>
      </trkpt>
      <trkpt lat="47.21313" lon="5.63813">
        <ele>224</ele>
        <time>2010-05-21T14:26:37Z</time>
      </trkpt>
      <trkpt lat="47.21301" lon="5.63804">
        <ele>229</ele>
        <time>2010-05-21T14:26:40Z</time>
      </trkpt>
      <trkpt lat="47.21293" lon="5.63798">
        <ele>229</ele>
        <time>2010-05-21T14:26:42Z</time>
      </trkpt>
      <trkpt lat="47.21282" lon="5.63786">
        <ele>229</ele>
        <time>2010-05-21T14:26:45Z</time>
      </trkpt>
      <trkpt lat="47.21273" lon="5.63773">
        <ele>229</ele>
        <time>2010-05-21T14:26:48Z</time>
      </trkpt>
      <trkpt lat="47.21265" lon="5.63756">
        <ele>229</ele>
        <time>2010-05-21T14:26:51Z</time>
      </trkpt>
      <trkpt lat="47.2126" lon="5.63738">
        <ele>229</ele>
        <time>2010-05-21T14:26:54Z</time>
      </trkpt>
      <trkpt lat="47.21256" lon="5.63725">
        <ele>229</ele>
        <time>2010-05-21T14:26:56Z</time>
      </trkpt>
      <trkpt lat="47.21252" lon="5.63713">
        <ele>229</ele>
        <time>2010-05-21T14:26:58Z</time>
      </trkpt>
      <trkpt lat="47.21249" lon="5.637">
        <ele>235</ele>
        <time>2010-05-21T14:27:00Z</time>
      </trkpt>
      <trkpt lat="47.21246" lon="5.63688">
        <ele>235</ele>
        <time>2010-05-21T14:27:02Z</time>
      </trkpt>
      <trkpt lat="47.21243" lon="5.63675">
        <ele>235</ele>
        <time>2010-05-21T14:27:04Z</time>
      </trkpt>
      <trkpt lat="47.21237" lon="5.63657">
        <ele>235</ele>
        <time>2010-05-21T14:27:07Z</time>
      </trkpt>
      <trkpt lat="47.21232" lon="5.63639">
        <ele>235</ele>
        <time>2010-05-21T14:27:10Z</time>
      </trkpt>
      <trkpt lat="47.21229" lon="5.63626">
        <ele>235</ele>
        <time>2010-05-21T14:27:12Z</time>
      </trkpt>
      <trkpt lat="47.21224" lon="5.63608">
        <ele>235</ele>
        <time>2010-05-21T14:27:15Z</time>
      </trkpt>
      <trkpt lat="47.21221" lon="5.63596">
        <ele>241</ele>
        <time>2010-05-21T14:27:17Z</time>
      </trkpt>
      <trkpt lat="47.21216" lon="5.63578">
        <ele>241</ele>
        <time>2010-05-21T14:27:20Z</time>
      </trkpt>
      <trkpt lat="47.21213" lon="5.63565">
        <ele>241</ele>
        <time>2010-05-21T14:27:22Z</time>
      </trkpt>
      <trkpt lat="47.21207" lon="5.63548">
        <ele>241</ele>
        <time>2010-05-21T14:27:25Z</time>
      </trkpt>
      <trkpt lat="47.21202" lon="5.63531">
        <ele>241</ele>
        <time>2010-05-21T14:27:28Z</time>
      </trkpt>
      <trkpt lat="47.21198" lon="5.63515">
        <ele>241</ele>
        <time>2010-05-21T14:27:31Z</time>
      </trkpt>
      <trkpt lat="47.21194" lon="5.63499">
        <ele>241</ele>
        <time>2010-05-21T14:27:34Z</time>
      </trkpt>
      <trkpt lat="47.21189" lon="5.63483">
        <ele>246</ele>
        <time>2010-05-21T14:27:37Z</time>
      </trkpt>
      <trkpt lat="47.21185" lon="5.63467">
        <ele>246</ele>
        <time>2010-05-21T14:27:40Z</time>
      </trkpt>
      <trkpt lat="47.21181" lon="5.6345">
        <ele>246</ele>
        <time>2010-05-21T14:27:43Z</time>
      </trkpt>
      <trkpt lat="47.21176" lon="5.63433">
        <ele>246</ele>
        <time>2010-05-21T14:27:46Z</time>
      </trkpt>
      <trkpt lat="47.21172" lon="5.63416">
        <ele>246</ele>
        <time>2010-05-21T14:27:49Z</time>
      </trkpt>
      <trkpt lat="47.21166" lon="5.63398">
        <ele>246</ele>
        <time>2010-05-21T14:27:52Z</time>
      </trkpt>
      <trkpt lat="47.21162" lon="5.6338">
        <ele>246</ele>
        <time>2010-05-21T14:27:55Z</time>
      </trkpt>
      <trkpt lat="47.21159" lon="5.63368">
        <ele>246</ele>
        <time>2010-05-21T14:27:57Z</time>
      </trkpt>
      <trkpt lat="47.21153" lon="5.63351">
        <ele>246</ele>
        <time>2010-05-21T14:28:00Z</time>
      </trkpt>
      <trkpt lat="47.21148" lon="5.63339">
        <ele>246</ele>
        <time>2010-05-21T14:28:02Z</time>
      </trkpt>
      <trkpt lat="47.21142" lon="5.63323">
        <ele>246</ele>
        <time>2010-05-21T14:28:05Z</time>
      </trkpt>
      <trkpt lat="47.21134" lon="5.63307">
        <ele>246</ele>
        <time>2010-05-21T14:28:08Z</time>
      </trkpt>
      <trkpt lat="47.21126" lon="5.63292">
        <ele>251</ele>
        <time>2010-05-21T14:28:11Z</time>
      </trkpt>
      <trkpt lat="47.21118" lon="5.63278">
        <ele>251</ele>
        <time>2010-05-21T14:28:14Z</time>
      </trkpt>
      <trkpt lat="47.2111" lon="5.63263">
        <ele>251</ele>
        <time>2010-05-21T14:28:17Z</time>
      </trkpt>
      <trkpt lat="47.21103" lon="5.63249">
        <ele>251</ele>
        <time>2010-05-21T14:28:20Z</time>
      </trkpt>
      <trkpt lat="47.21097" lon="5.63233">
        <ele>251</ele>
        <time>2010-05-21T14:28:23Z</time>
      </trkpt>
      <trkpt lat="47.21093" lon="5.63221">
        <ele>251</ele>
        <time>2010-05-21T14:28:25Z</time>
      </trkpt>
      <trkpt lat="47.2109" lon="5.63209">
        <ele>251</ele>
        <time>2010-05-21T14:28:27Z</time>
      </trkpt>
      <trkpt lat="47.21087" lon="5.63195">
        <ele>251</ele>
        <time>2010-05-21T14:28:29Z</time>
      </trkpt>
      <trkpt lat="47.21084" lon="5.63182">
        <ele>251</ele>
        <time>2010-05-21T14:28:31Z</time>
      </trkpt>
      <trkpt lat="47.21081" lon="5.63166">
        <ele>251</ele>
        <time>2010-05-21T14:28:33Z</time>
      </trkpt>
      <trkpt lat="47.21079" lon="5.63151">
        <ele>251</ele>
        <time>2010-05-21T14:28:35Z</time>
      </trkpt>
      <trkpt lat="47.21077" lon="5.63136">
        <ele>251</ele>
        <time>2010-05-21T14:28:37Z</time>
      </trkpt>
      <trkpt lat="47.21076" lon="5.63119">
        <ele>251</ele>
        <time>2010-05-21T14:28:39Z</time>
      </trkpt>
      <trkpt lat="47.21075" lon="5.63102">
        <ele>251</ele>
        <time>2010-05-21T14:28:41Z</time>
      </trkpt>
      <trkpt lat="47.21074" lon="5.63085">
        <ele>251</ele>
        <time>2010-05-21T14:28:43Z</time>
      </trkpt>
      <trkpt lat="47.21074" lon="5.63067">
        <ele>251</ele>
        <time>2010-05-21T14:28:45Z</time>
      </trkpt>
      <trkpt lat="47.21075" lon="5.63049">
        <ele>251</ele>
        <time>2010-05-21T14:28:47Z</time>
      </trkpt>
      <trkpt lat="47.21075" lon="5.6303">
        <ele>251</ele>
        <time>2010-05-21T14:28:49Z</time>
      </trkpt>
      <trkpt lat="47.21074" lon="5.63011">
        <ele>251</ele>
        <time>2010-05-21T14:28:51Z</time>
      </trkpt>
      <trkpt lat="47.21074" lon="5.62993">
        <ele>251</ele>
        <time>2010-05-21T14:28:53Z</time>
      </trkpt>
      <trkpt lat="47.21072" lon="5.62975">
        <ele>251</ele>
        <time>2010-05-21T14:28:55Z</time>
      </trkpt>
      <trkpt lat="47.21069" lon="5.62958">
        <ele>251</ele>
        <time>2010-05-21T14:28:57Z</time>
      </trkpt>
      <trkpt lat="47.21065" lon="5.62942">
        <ele>251</ele>
        <time>2010-05-21T14:28:59Z</time>
      </trkpt>
      <trkpt lat="47.21059" lon="5.62927">
        <ele>251</ele>
        <time>2010-05-21T14:29:01Z</time>
      </trkpt>
      <trkpt lat="47.21052" lon="5.62913">
        <ele>251</ele>
        <time>2010-05-21T14:29:03Z</time>
      </trkpt>
      <trkpt lat="47.21046" lon="5.629">
        <ele>251</ele>
        <time>2010-05-21T14:29:05Z</time>
      </trkpt>
      <trkpt lat="47.21039" lon="5.62887">
        <ele>256</ele>
        <time>2010-05-21T14:29:07Z</time>
      </trkpt>
      <trkpt lat="47.21031" lon="5.62875">
        <ele>256</ele>
        <time>2010-05-21T14:29:09Z</time>
      </trkpt>
      <trkpt lat="47.21024" lon="5.62864">
        <ele>256</ele>
        <time>2010-05-21T14:29:11Z</time>
      </trkpt>
      <trkpt lat="47.21016" lon="5.62853">
        <ele>256</ele>
        <time>2010-05-21T14:29:13Z</time>
      </trkpt>
      <trkpt lat="47.21008" lon="5.62841">
        <ele>256</ele>
        <time>2010-05-21T14:29:15Z</time>
      </trkpt>
      <trkpt lat="47.21" lon="5.62831">
        <ele>256</ele>
        <time>2010-05-21T14:29:17Z</time>
      </trkpt>
      <trkpt lat="47.20992" lon="5.62822">
        <ele>256</ele>
        <time>2010-05-21T14:29:19Z</time>
      </trkpt>
      <trkpt lat="47.20985" lon="5.62812">
        <ele>256</ele>
        <time>2010-05-21T14:29:21Z</time>
      </trkpt>
      <trkpt lat="47.20978" lon="5.62802">
        <ele>256</ele>
        <time>2010-05-21T14:29:23Z</time>
      </trkpt>
      <trkpt lat="47.2097" lon="5.62792">
        <ele>256</ele>
        <time>2010-05-21T14:29:25Z</time>
      </trkpt>
      <trkpt lat="47.20964" lon="5.62782">
        <ele>256</ele>
        <time>2010-05-21T14:29:27Z</time>
      </trkpt>
      <trkpt lat="47.20957" lon="5.62773">
        <ele>256</ele>
        <time>2010-05-21T14:29:29Z</time>
      </trkpt>
      <trkpt lat="47.20949" lon="5.62762">
        <ele>256</ele>
        <time>2010-05-21T14:29:31Z</time>
      </trkpt>
      <trkpt lat="47.20943" lon="5.62752">
        <ele>262</ele>
        <time>2010-05-21T14:29:33Z</time>
      </trkpt>
      <trkpt lat="47.20936" lon="5.62742">
        <ele>262</ele>
        <time>2010-05-21T14:29:35Z</time>
      </trkpt>
      <trkpt lat="47.20929" lon="5.62733">
        <ele>262</ele>
        <time>2010-05-21T14:29:37Z</time>
      </trkpt>
      <trkpt lat="47.20921" lon="5.62723">
        <ele>262</ele>
        <time>2010-05-21T14:29:39Z</time>
      </trkpt>
      <trkpt lat="47.20914" lon="5.62713">
        <ele>262</ele>
        <time>2010-05-21T14:29:41Z</time>
      </trkpt>
      <trkpt lat="47.20907" lon="5.62702">
        <ele>262</ele>
        <time>2010-05-21T14:29:43Z</time>
      </trkpt>
      <trkpt lat="47.20899" lon="5.62692">
        <ele>262</ele>
        <time>2010-05-21T14:29:45Z</time>
      </trkpt>
      <trkpt lat="47.20891" lon="5.62682">
        <ele>262</ele>
        <time>2010-05-21T14:29:47Z</time>
      </trkpt>
      <trkpt lat="47.20884" lon="5.62672">
        <ele>267</ele>
        <time>2010-05-21T14:29:49Z</time>
      </trkpt>
      <trkpt lat="47.20878" lon="5.62662">
        <ele>267</ele>
        <time>2010-05-21T14:29:51Z</time>
      </trkpt>
      <trkpt lat="47.2087" lon="5.62652">
        <ele>267</ele>
        <time>2010-05-21T14:29:53Z</time>
      </trkpt>
      <trkpt lat="47.20863" lon="5.62642">
        <ele>267</ele>
        <time>2010-05-21T14:29:55Z</time>
      </trkpt>
      <trkpt lat="47.20856" lon="5.62632">
        <ele>267</ele>
        <time>2010-05-21T14:29:57Z</time>
      </trkpt>
      <trkpt lat="47.20848" lon="5.62622">
        <ele>267</ele>
        <time>2010-05-21T14:29:59Z</time>
      </trkpt>
      <trkpt lat="47.20841" lon="5.62612">
        <ele>267</ele>
        <time>2010-05-21T14:30:01Z</time>
      </trkpt>
      <trkpt lat="47.20834" lon="5.62603">
        <ele>273</ele>
        <time>2010-05-21T14:30:03Z</time>
      </trkpt>
      <trkpt lat="47.20827" lon="5.62592">
        <ele>273</ele>
        <time>2010-05-21T14:30:05Z</time>
      </trkpt>
      <trkpt lat="47.2082" lon="5.62583">
        <ele>273</ele>
        <time>2010-05-21T14:30:07Z</time>
      </trkpt>
      <trkpt lat="47.20813" lon="5.62572">
        <ele>273</ele>
        <time>2010-05-21T14:30:09Z</time>
      </trkpt>
      <trkpt lat="47.20806" lon="5.62562">
        <ele>273</ele>
        <time>2010-05-21T14:30:11Z</time>
      </trkpt>
      <trkpt lat="47.208" lon="5.6255">
        <ele>273</ele>
        <time>2010-05-21T14:30:13Z</time>
      </trkpt>
      <trkpt lat="47.20794" lon="5.62539">
        <ele>278</ele>
        <time>2010-05-21T14:30:15Z</time>
      </trkpt>
      <trkpt lat="47.20788" lon="5.62527">
        <ele>278</ele>
        <time>2010-05-21T14:30:17Z</time>
      </trkpt>
      <trkpt lat="47.20783" lon="5.62515">
        <ele>278</ele>
        <time>2010-05-21T14:30:19Z</time>
      </trkpt>
      <trkpt lat="47.20777" lon="5.62504">
        <ele>278</ele>
        <time>2010-05-21T14:30:21Z</time>
      </trkpt>
      <trkpt lat="47.2077" lon="5.62486">
        <ele>278</ele>
        <time>2010-05-21T14:30:24Z</time>
      </trkpt>
      <trkpt lat="47.20765" lon="5.62474">
        <ele>278</ele>
        <time>2010-05-21T14:30:26Z</time>
      </trkpt>
      <trkpt lat="47.2076" lon="5.62461">
        <ele>278</ele>
        <time>2010-05-21T14:30:28Z</time>
      </trkpt>
      <trkpt lat="47.20754" lon="5.62448">
        <ele>278</ele>
        <time>2010-05-21T14:30:30Z</time>
      </trkpt>
      <trkpt lat="47.20749" lon="5.62436">
        <ele>278</ele>
        <time>2010-05-21T14:30:32Z</time>
      </trkpt>
      <trkpt lat="47.20744" lon="5.62424">
        <ele>278</ele>
        <time>2010-05-21T14:30:34Z</time>
      </trkpt>
      <trkpt lat="47.20739" lon="5.62412">
        <ele>278</ele>
        <time>2010-05-21T14:30:36Z</time>
      </trkpt>
      <trkpt lat="47.20735" lon="5.62399">
        <ele>278</ele>
        <time>2010-05-21T14:30:38Z</time>
      </trkpt>
      <trkpt lat="47.2073" lon="5.62387">
        <ele>278</ele>
        <time>2010-05-21T14:30:40Z</time>
      </trkpt>
      <trkpt lat="47.20725" lon="5.62374">
        <ele>283</ele>
        <time>2010-05-21T14:30:42Z</time>
      </trkpt>
      <trkpt lat="47.20718" lon="5.62362">
        <ele>283</ele>
        <time>2010-05-21T14:30:44Z</time>
      </trkpt>
      <trkpt lat="47.20713" lon="5.62348">
        <ele>283</ele>
        <time>2010-05-21T14:30:46Z</time>
      </trkpt>
      <trkpt lat="47.20706" lon="5.62335">
        <ele>283</ele>
        <time>2010-05-21T14:30:48Z</time>
      </trkpt>
      <trkpt lat="47.207" lon="5.6232">
        <ele>283</ele>
        <time>2010-05-21T14:30:50Z</time>
      </trkpt>
      <trkpt lat="47.20694" lon="5.62305">
        <ele>283</ele>
        <time>2010-05-21T14:30:52Z</time>
      </trkpt>
      <trkpt lat="47.20687" lon="5.62288">
        <ele>283</ele>
        <time>2010-05-21T14:30:54Z</time>
      </trkpt>
      <trkpt lat="47.20681" lon="5.62271">
        <ele>283</ele>
        <time>2010-05-21T14:30:56Z</time>
      </trkpt>
      <trkpt lat="47.20675" lon="5.62255">
        <ele>283</ele>
        <time>2010-05-21T14:30:58Z</time>
      </trkpt>
      <trkpt lat="47.20669" lon="5.62239">
        <ele>283</ele>
        <time>2010-05-21T14:31:00Z</time>
      </trkpt>
      <trkpt lat="47.20662" lon="5.62223">
        <ele>283</ele>
        <time>2010-05-21T14:31:02Z</time>
      </trkpt>
      <trkpt lat="47.20656" lon="5.62207">
        <ele>283</ele>
        <time>2010-05-21T14:31:04Z</time>
      </trkpt>
      <trkpt lat="47.20648" lon="5.62191">
        <ele>283</ele>
        <time>2010-05-21T14:31:06Z</time>
      </trkpt>
      <trkpt lat="47.20642" lon="5.62176">
        <ele>283</ele>
        <time>2010-05-21T14:31:08Z</time>
      </trkpt>
      <trkpt lat="47.20634" lon="5.6216">
        <ele>283</ele>
        <time>2010-05-21T14:31:10Z</time>
      </trkpt>
      <trkpt lat="47.20625" lon="5.62146">
        <ele>283</ele>
        <time>2010-05-21T14:31:12Z</time>
      </trkpt>
      <trkpt lat="47.20616" lon="5.62132">
        <ele>278</ele>
        <time>2010-05-21T14:31:14Z</time>
      </trkpt>
      <trkpt lat="47.20607" lon="5.62116">
        <ele>278</ele>
        <time>2010-05-21T14:31:16Z</time>
      </trkpt>
      <trkpt lat="47.20597" lon="5.62102">
        <ele>278</ele>
        <time>2010-05-21T14:31:18Z</time>
      </trkpt>
      <trkpt lat="47.20588" lon="5.62088">
        <ele>278</ele>
        <time>2010-05-21T14:31:20Z</time>
      </trkpt>
      <trkpt lat="47.20578" lon="5.62073">
        <ele>278</ele>
        <time>2010-05-21T14:31:22Z</time>
      </trkpt>
      <trkpt lat="47.20569" lon="5.6206">
        <ele>278</ele>
        <time>2010-05-21T14:31:24Z</time>
      </trkpt>
      <trkpt lat="47.20559" lon="5.62045">
        <ele>278</ele>
        <time>2010-05-21T14:31:26Z</time>
      </trkpt>
      <trkpt lat="47.20549" lon="5.62032">
        <ele>278</ele>
        <time>2010-05-21T14:31:28Z</time>
      </trkpt>
      <trkpt lat="47.20539" lon="5.62018">
        <ele>278</ele>
        <time>2010-05-21T14:31:30Z</time>
      </trkpt>
      <trkpt lat="47.20529" lon="5.62004">
        <ele>278</ele>
        <time>2010-05-21T14:31:32Z</time>
      </trkpt>
      <trkpt lat="47.20519" lon="5.6199">
        <ele>278</ele>
        <time>2010-05-21T14:31:34Z</time>
      </trkpt>
      <trkpt lat="47.20509" lon="5.61975">
        <ele>278</ele>
        <time>2010-05-21T14:31:36Z</time>
      </trkpt>
      <trkpt lat="47.20499" lon="5.61961">
        <ele>278</ele>
        <time>2010-05-21T14:31:38Z</time>
      </trkpt>
      <trkpt lat="47.2049" lon="5.61947">
        <ele>278</ele>
        <time>2010-05-21T14:31:40Z</time>
      </trkpt>
      <trkpt lat="47.20479" lon="5.61934">
        <ele>278</ele>
        <time>2010-05-21T14:31:42Z</time>
      </trkpt>
      <trkpt lat="47.20469" lon="5.61921">
        <ele>278</ele>
        <time>2010-05-21T14:31:44Z</time>
      </trkpt>
      <trkpt lat="47.2046" lon="5.61907">
        <ele>278</ele>
        <time>2010-05-21T14:31:46Z</time>
      </trkpt>
      <trkpt lat="47.20451" lon="5.61894">
        <ele>278</ele>
        <time>2010-05-21T14:31:48Z</time>
      </trkpt>
      <trkpt lat="47.20441" lon="5.61878">
        <ele>278</ele>
        <time>2010-05-21T14:31:50Z</time>
      </trkpt>
      <trkpt lat="47.20433" lon="5.61864">
        <ele>278</ele>
        <time>2010-05-21T14:31:52Z</time>
      </trkpt>
      <trkpt lat="47.20425" lon="5.6185">
        <ele>278</ele>
        <time>2010-05-21T14:31:54Z</time>
      </trkpt>
      <trkpt lat="47.20417" lon="5.61834">
        <ele>278</ele>
        <time>2010-05-21T14:31:56Z</time>
      </trkpt>
      <trkpt lat="47.2041" lon="5.6182">
        <ele>278</ele>
        <time>2010-05-21T14:31:58Z</time>
      </trkpt>
      <trkpt lat="47.20402" lon="5.61805">
        <ele>278</ele>
        <time>2010-05-21T14:32:00Z</time>
      </trkpt>
      <trkpt lat="47.20395" lon="5.61789">
        <ele>278</ele>
        <time>2010-05-21T14:32:02Z</time>
      </trkpt>
      <trkpt lat="47.20387" lon="5.61775">
        <ele>278</ele>
        <time>2010-05-21T14:32:04Z</time>
      </trkpt>
      <trkpt lat="47.2038" lon="5.6176">
        <ele>278</ele>
        <time>2010-05-21T14:32:06Z</time>
      </trkpt>
      <trkpt lat="47.20373" lon="5.61745">
        <ele>278</ele>
        <time>2010-05-21T14:32:08Z</time>
      </trkpt>
      <trkpt lat="47.20365" lon="5.6173">
        <ele>278</ele>
        <time>2010-05-21T14:32:10Z</time>
      </trkpt>
      <trkpt lat="47.20357" lon="5.61716">
        <ele>278</ele>
        <time>2010-05-21T14:32:12Z</time>
      </trkpt>
      <trkpt lat="47.2035" lon="5.61701">
        <ele>278</ele>
        <time>2010-05-21T14:32:14Z</time>
      </trkpt>
      <trkpt lat="47.20342" lon="5.61687">
        <ele>278</ele>
        <time>2010-05-21T14:32:16Z</time>
      </trkpt>
      <trkpt lat="47.20334" lon="5.61673">
        <ele>278</ele>
        <time>2010-05-21T14:32:18Z</time>
      </trkpt>
      <trkpt lat="47.20326" lon="5.61658">
        <ele>278</ele>
        <time>2010-05-21T14:32:20Z</time>
      </trkpt>
      <trkpt lat="47.20317" lon="5.61644">
        <ele>278</ele>
        <time>2010-05-21T14:32:22Z</time>
      </trkpt>
      <trkpt lat="47.20308" lon="5.61629">
        <ele>278</ele>
        <time>2010-05-21T14:32:24Z</time>
      </trkpt>
      <trkpt lat="47.203" lon="5.61614">
        <ele>278</ele>
        <time>2010-05-21T14:32:26Z</time>
      </trkpt>
      <trkpt lat="47.20292" lon="5.616">
        <ele>278</ele>
        <time>2010-05-21T14:32:28Z</time>
      </trkpt>
      <trkpt lat="47.20283" lon="5.61584">
        <ele>278</ele>
        <time>2010-05-21T14:32:30Z</time>
      </trkpt>
      <trkpt lat="47.20275" lon="5.61567">
        <ele>278</ele>
        <time>2010-05-21T14:32:32Z</time>
      </trkpt>
      <trkpt lat="47.20266" lon="5.61552">
        <ele>278</ele>
        <time>2010-05-21T14:32:34Z</time>
      </trkpt>
      <trkpt lat="47.20258" lon="5.61537">
        <ele>278</ele>
        <time>2010-05-21T14:32:36Z</time>
      </trkpt>
      <trkpt lat="47.20249" lon="5.61523">
        <ele>278</ele>
        <time>2010-05-21T14:32:38Z</time>
      </trkpt>
      <trkpt lat="47.20242" lon="5.61508">
        <ele>278</ele>
        <time>2010-05-21T14:32:40Z</time>
      </trkpt>
      <trkpt lat="47.20234" lon="5.61496">
        <ele>278</ele>
        <time>2010-05-21T14:32:42Z</time>
      </trkpt>
      <trkpt lat="47.20228" lon="5.61484">
        <ele>278</ele>
        <time>2010-05-21T14:32:44Z</time>
      </trkpt>
      <trkpt lat="47.20222" lon="5.61472">
        <ele>278</ele>
        <time>2010-05-21T14:32:46Z</time>
      </trkpt>
      <trkpt lat="47.20215" lon="5.61462">
        <ele>278</ele>
        <time>2010-05-21T14:32:48Z</time>
      </trkpt>
      <trkpt lat="47.20209" lon="5.61452">
        <ele>278</ele>
        <time>2010-05-21T14:32:50Z</time>
      </trkpt>
      <trkpt lat="47.20202" lon="5.61443">
        <ele>278</ele>
        <time>2010-05-21T14:32:52Z</time>
      </trkpt>
      <trkpt lat="47.20195" lon="5.61433">
        <ele>278</ele>
        <time>2010-05-21T14:32:54Z</time>
      </trkpt>
      <trkpt lat="47.20188" lon="5.61424">
        <ele>283</ele>
        <time>2010-05-21T14:32:56Z</time>
      </trkpt>
      <trkpt lat="47.2018" lon="5.61415">
        <ele>283</ele>
        <time>2010-05-21T14:32:58Z</time>
      </trkpt>
      <trkpt lat="47.20173" lon="5.61406">
        <ele>283</ele>
        <time>2010-05-21T14:33:00Z</time>
      </trkpt>
      <trkpt lat="47.20165" lon="5.61398">
        <ele>283</ele>
        <time>2010-05-21T14:33:02Z</time>
      </trkpt>
      <trkpt lat="47.20154" lon="5.61386">
        <ele>283</ele>
        <time>2010-05-21T14:33:05Z</time>
      </trkpt>
      <trkpt lat="47.20144" lon="5.61375">
        <ele>283</ele>
        <time>2010-05-21T14:33:08Z</time>
      </trkpt>
      <trkpt lat="47.20136" lon="5.61365">
        <ele>283</ele>
        <time>2010-05-21T14:33:11Z</time>
      </trkpt>
      <trkpt lat="47.2013" lon="5.61355">
        <ele>283</ele>
        <time>2010-05-21T14:33:15Z</time>
      </trkpt>
      <trkpt lat="47.2012" lon="5.6135">
        <ele>274</ele>
        <time>2010-05-21T14:34:51Z</time>
      </trkpt>
      <trkpt lat="47.20112" lon="5.61341">
        <ele>274</ele>
        <time>2010-05-21T14:34:55Z</time>
      </trkpt>
      <trkpt lat="47.20103" lon="5.61332">
        <ele>274</ele>
        <time>2010-05-21T14:34:58Z</time>
      </trkpt>
      <trkpt lat="47.20093" lon="5.6132">
        <ele>274</ele>
        <time>2010-05-21T14:35:01Z</time>
      </trkpt>
      <trkpt lat="47.20084" lon="5.6131">
        <ele>274</ele>
        <time>2010-05-21T14:35:03Z</time>
      </trkpt>
      <trkpt lat="47.20076" lon="5.613">
        <ele>274</ele>
        <time>2010-05-21T14:35:05Z</time>
      </trkpt>
      <trkpt lat="47.20066" lon="5.61287">
        <ele>274</ele>
        <time>2010-05-21T14:35:07Z</time>
      </trkpt>
      <trkpt lat="47.20056" lon="5.61275">
        <ele>274</ele>
        <time>2010-05-21T14:35:09Z</time>
      </trkpt>
      <trkpt lat="47.20046" lon="5.61259">
        <ele>274</ele>
        <time>2010-05-21T14:35:11Z</time>
      </trkpt>
      <trkpt lat="47.20036" lon="5.61243">
        <ele>274</ele>
        <time>2010-05-21T14:35:13Z</time>
      </trkpt>
      <trkpt lat="47.20026" lon="5.61227">
        <ele>274</ele>
        <time>2010-05-21T14:35:15Z</time>
      </trkpt>
      <trkpt lat="47.20016" lon="5.61209">
        <ele>274</ele>
        <time>2010-05-21T14:35:17Z</time>
      </trkpt>
      <trkpt lat="47.20007" lon="5.61191">
        <ele>274</ele>
        <time>2010-05-21T14:35:19Z</time>
      </trkpt>
      <trkpt lat="47.19997" lon="5.61172">
        <ele>274</ele>
        <time>2010-05-21T14:35:21Z</time>
      </trkpt>
      <trkpt lat="47.19986" lon="5.61153">
        <ele>274</ele>
        <time>2010-05-21T14:35:23Z</time>
      </trkpt>
      <trkpt lat="47.19975" lon="5.61134">
        <ele>274</ele>
        <time>2010-05-21T14:35:25Z</time>
      </trkpt>
      <trkpt lat="47.19969" lon="5.61123">
        <ele>274</ele>
        <time>2010-05-21T14:35:26Z</time>
      </trkpt>
      <trkpt lat="47.19964" lon="5.61111">
        <ele>274</ele>
        <time>2010-05-21T14:35:27Z</time>
      </trkpt>
      <trkpt lat="47.19958" lon="5.611">
        <ele>274</ele>
        <time>2010-05-21T14:35:28Z</time>
      </trkpt>
      <trkpt lat="47.19951" lon="5.61089">
        <ele>274</ele>
        <time>2010-05-21T14:35:29Z</time>
      </trkpt>
      <trkpt lat="47.19944" lon="5.61077">
        <ele>274</ele>
        <time>2010-05-21T14:35:30Z</time>
      </trkpt>
      <trkpt lat="47.19937" lon="5.61065">
        <ele>274</ele>
        <time>2010-05-21T14:35:31Z</time>
      </trkpt>
      <trkpt lat="47.19931" lon="5.61053">
        <ele>274</ele>
        <time>2010-05-21T14:35:32Z</time>
      </trkpt>
      <trkpt lat="47.19924" lon="5.61039">
        <ele>274</ele>
        <time>2010-05-21T14:35:33Z</time>
      </trkpt>
      <trkpt lat="47.19917" lon="5.61027">
        <ele>268</ele>
        <time>2010-05-21T14:35:34Z</time>
      </trkpt>
      <trkpt lat="47.19909" lon="5.61013">
        <ele>268</ele>
        <time>2010-05-21T14:35:35Z</time>
      </trkpt>
      <trkpt lat="47.19902" lon="5.61001">
        <ele>268</ele>
        <time>2010-05-21T14:35:36Z</time>
      </trkpt>
      <trkpt lat="47.19895" lon="5.60987">
        <ele>268</ele>
        <time>2010-05-21T14:35:37Z</time>
      </trkpt>
      <trkpt lat="47.19888" lon="5.60975">
        <ele>268</ele>
        <time>2010-05-21T14:35:38Z</time>
      </trkpt>
      <trkpt lat="47.19881" lon="5.60961">
        <ele>268</ele>
        <time>2010-05-21T14:35:39Z</time>
      </trkpt>
      <trkpt lat="47.19874" lon="5.60949">
        <ele>268</ele>
        <time>2010-05-21T14:35:40Z</time>
      </trkpt>
      <trkpt lat="47.19867" lon="5.60936">
        <ele>268</ele>
        <time>2010-05-21T14:35:41Z</time>
      </trkpt>
      <trkpt lat="47.1986" lon="5.60922">
        <ele>268</ele>
        <time>2010-05-21T14:35:42Z</time>
      </trkpt>
      <trkpt lat="47.19854" lon="5.60909">
        <ele>268</ele>
        <time>2010-05-21T14:35:43Z</time>
      </trkpt>
      <trkpt lat="47.19847" lon="5.60895">
        <ele>268</ele>
        <time>2010-05-21T14:35:44Z</time>
      </trkpt>
      <trkpt lat="47.19842" lon="5.6088">
        <ele>268</ele>
        <time>2010-05-21T14:35:45Z</time>
      </trkpt>
      <trkpt lat="47.19836" lon="5.60866">
        <ele>268</ele>
        <time>2010-05-21T14:35:46Z</time>
      </trkpt>
      <trkpt lat="47.19832" lon="5.60851">
        <ele>268</ele>
        <time>2010-05-21T14:35:47Z</time>
      </trkpt>
      <trkpt lat="47.19828" lon="5.60836">
        <ele>268</ele>
        <time>2010-05-21T14:35:48Z</time>
      </trkpt>
      <trkpt lat="47.19824" lon="5.60822">
        <ele>263</ele>
        <time>2010-05-21T14:35:49Z</time>
      </trkpt>
      <trkpt lat="47.19819" lon="5.60807">
        <ele>263</ele>
        <time>2010-05-21T14:35:50Z</time>
      </trkpt>
      <trkpt lat="47.19816" lon="5.60792">
        <ele>263</ele>
        <time>2010-05-21T14:35:51Z</time>
      </trkpt>
      <trkpt lat="47.19812" lon="5.60778">
        <ele>263</ele>
        <time>2010-05-21T14:35:52Z</time>
      </trkpt>
      <trkpt lat="47.19808" lon="5.60763">
        <ele>263</ele>
        <time>2010-05-21T14:35:53Z</time>
      </trkpt>
      <trkpt lat="47.19803" lon="5.60748">
        <ele>263</ele>
        <time>2010-05-21T14:35:54Z</time>
      </trkpt>
      <trkpt lat="47.19799" lon="5.60734">
        <ele>263</ele>
        <time>2010-05-21T14:35:55Z</time>
      </trkpt>
      <trkpt lat="47.19795" lon="5.60719">
        <ele>263</ele>
        <time>2010-05-21T14:35:56Z</time>
      </trkpt>
      <trkpt lat="47.19792" lon="5.60704">
        <ele>263</ele>
        <time>2010-05-21T14:35:57Z</time>
      </trkpt>
      <trkpt lat="47.19788" lon="5.6069">
        <ele>263</ele>
        <time>2010-05-21T14:35:58Z</time>
      </trkpt>
      <trkpt lat="47.19784" lon="5.60676">
        <ele>263</ele>
        <time>2010-05-21T14:35:59Z</time>
      </trkpt>
      <trkpt lat="47.1978" lon="5.60663">
        <ele>263</ele>
        <time>2010-05-21T14:36:00Z</time>
      </trkpt>
      <trkpt lat="47.19776" lon="5.6065">
        <ele>263</ele>
        <time>2010-05-21T14:36:01Z</time>
      </trkpt>
      <trkpt lat="47.19771" lon="5.60639">
        <ele>263</ele>
        <time>2010-05-21T14:36:02Z</time>
      </trkpt>
      <trkpt lat="47.19765" lon="5.60628">
        <ele>263</ele>
        <time>2010-05-21T14:36:03Z</time>
      </trkpt>
      <trkpt lat="47.19754" lon="5.60612">
        <ele>263</ele>
        <time>2010-05-21T14:36:05Z</time>
      </trkpt>
      <trkpt lat="47.19741" lon="5.606">
        <ele>263</ele>
        <time>2010-05-21T14:36:07Z</time>
      </trkpt>
      <trkpt lat="47.19729" lon="5.60593">
        <ele>263</ele>
        <time>2010-05-21T14:36:09Z</time>
      </trkpt>
      <trkpt lat="47.19718" lon="5.60585">
        <ele>268</ele>
        <time>2010-05-21T14:36:11Z</time>
      </trkpt>
      <trkpt lat="47.19707" lon="5.60578">
        <ele>268</ele>
        <time>2010-05-21T14:36:13Z</time>
      </trkpt>
      <trkpt lat="47.19696" lon="5.6057">
        <ele>268</ele>
        <time>2010-05-21T14:36:15Z</time>
      </trkpt>
      <trkpt lat="47.19686" lon="5.60563">
        <ele>268</ele>
        <time>2010-05-21T14:36:17Z</time>
      </trkpt>
      <trkpt lat="47.19676" lon="5.60558">
        <ele>268</ele>
        <time>2010-05-21T14:36:19Z</time>
      </trkpt>
      <trkpt lat="47.19667" lon="5.60551">
        <ele>268</ele>
        <time>2010-05-21T14:36:21Z</time>
      </trkpt>
      <trkpt lat="47.19658" lon="5.60544">
        <ele>268</ele>
        <time>2010-05-21T14:36:23Z</time>
      </trkpt>
      <trkpt lat="47.19649" lon="5.60539">
        <ele>268</ele>
        <time>2010-05-21T14:36:25Z</time>
      </trkpt>
      <trkpt lat="47.1964" lon="5.60534">
        <ele>268</ele>
        <time>2010-05-21T14:36:27Z</time>
      </trkpt>
      <trkpt lat="47.1963" lon="5.60526">
        <ele>268</ele>
        <time>2010-05-21T14:36:29Z</time>
      </trkpt>
      <trkpt lat="47.1962" lon="5.6052">
        <ele>274</ele>
        <time>2010-05-21T14:36:31Z</time>
      </trkpt>
      <trkpt lat="47.19611" lon="5.60514">
        <ele>274</ele>
        <time>2010-05-21T14:36:33Z</time>
      </trkpt>
      <trkpt lat="47.19601" lon="5.60507">
        <ele>274</ele>
        <time>2010-05-21T14:36:35Z</time>
      </trkpt>
      <trkpt lat="47.19591" lon="5.60499">
        <ele>274</ele>
        <time>2010-05-21T14:36:37Z</time>
      </trkpt>
      <trkpt lat="47.19581" lon="5.60491">
        <ele>274</ele>
        <time>2010-05-21T14:36:39Z</time>
      </trkpt>
      <trkpt lat="47.19569" lon="5.60482">
        <ele>274</ele>
        <time>2010-05-21T14:36:41Z</time>
      </trkpt>
      <trkpt lat="47.19556" lon="5.60472">
        <ele>274</ele>
        <time>2010-05-21T14:36:43Z</time>
      </trkpt>
      <trkpt lat="47.19543" lon="5.60463">
        <ele>274</ele>
        <time>2010-05-21T14:36:45Z</time>
      </trkpt>
      <trkpt lat="47.1953" lon="5.60454">
        <ele>274</ele>
        <time>2010-05-21T14:36:47Z</time>
      </trkpt>
      <trkpt lat="47.19516" lon="5.60444">
        <ele>274</ele>
        <time>2010-05-21T14:36:49Z</time>
      </trkpt>
      <trkpt lat="47.19503" lon="5.60433">
        <ele>274</ele>
        <time>2010-05-21T14:36:51Z</time>
      </trkpt>
      <trkpt lat="47.19492" lon="5.60424">
        <ele>274</ele>
        <time>2010-05-21T14:36:53Z</time>
      </trkpt>
      <trkpt lat="47.19481" lon="5.60413">
        <ele>274</ele>
        <time>2010-05-21T14:36:55Z</time>
      </trkpt>
      <trkpt lat="47.19473" lon="5.60402">
        <ele>274</ele>
        <time>2010-05-21T14:36:57Z</time>
      </trkpt>
      <trkpt lat="47.19465" lon="5.60392">
        <ele>274</ele>
        <time>2010-05-21T14:36:59Z</time>
      </trkpt>
      <trkpt lat="47.19458" lon="5.60381">
        <ele>274</ele>
        <time>2010-05-21T14:37:01Z</time>
      </trkpt>
      <trkpt lat="47.19451" lon="5.60369">
        <ele>274</ele>
        <time>2010-05-21T14:37:03Z</time>
      </trkpt>
      <trkpt lat="47.19445" lon="5.60358">
        <ele>274</ele>
        <time>2010-05-21T14:37:05Z</time>
      </trkpt>
      <trkpt lat="47.19438" lon="5.60348">
        <ele>274</ele>
        <time>2010-05-21T14:37:07Z</time>
      </trkpt>
      <trkpt lat="47.19431" lon="5.60339">
        <ele>281</ele>
        <time>2010-05-21T14:37:09Z</time>
      </trkpt>
      <trkpt lat="47.19425" lon="5.60329">
        <ele>281</ele>
        <time>2010-05-21T14:37:11Z</time>
      </trkpt>
      <trkpt lat="47.19418" lon="5.60315">
        <ele>281</ele>
        <time>2010-05-21T14:37:14Z</time>
      </trkpt>
      <trkpt lat="47.19412" lon="5.60301">
        <ele>281</ele>
        <time>2010-05-21T14:37:17Z</time>
      </trkpt>
      <trkpt lat="47.19405" lon="5.60288">
        <ele>289</ele>
        <time>2010-05-21T14:37:20Z</time>
      </trkpt>
      <trkpt lat="47.19397" lon="5.60277">
        <ele>289</ele>
        <time>2010-05-21T14:37:23Z</time>
      </trkpt>
      <trkpt lat="47.1939" lon="5.60264">
        <ele>289</ele>
        <time>2010-05-21T14:37:26Z</time>
      </trkpt>
      <trkpt lat="47.19385" lon="5.60253">
        <ele>297</ele>
        <time>2010-05-21T14:37:29Z</time>
      </trkpt>
      <trkpt lat="47.19375" lon="5.60242">
        <ele>297</ele>
        <time>2010-05-21T14:37:32Z</time>
      </trkpt>
      <trkpt lat="47.19368" lon="5.60233">
        <ele>297</ele>
        <time>2010-05-21T14:37:35Z</time>
      </trkpt>
      <trkpt lat="47.19361" lon="5.60222">
        <ele>297</ele>
        <time>2010-05-21T14:37:38Z</time>
      </trkpt>
      <trkpt lat="47.19354" lon="5.6021">
        <ele>297</ele>
        <time>2010-05-21T14:37:41Z</time>
      </trkpt>
      <trkpt lat="47.19347" lon="5.602">
        <ele>297</ele>
        <time>2010-05-21T14:37:44Z</time>
      </trkpt>
      <trkpt lat="47.19339" lon="5.60191">
        <ele>297</ele>
        <time>2010-05-21T14:37:47Z</time>
      </trkpt>
      <trkpt lat="47.19331" lon="5.6018">
        <ele>297</ele>
        <time>2010-05-21T14:37:50Z</time>
      </trkpt>
      <trkpt lat="47.19323" lon="5.6017">
        <ele>297</ele>
        <time>2010-05-21T14:37:53Z</time>
      </trkpt>
      <trkpt lat="47.19314" lon="5.60158">
        <ele>297</ele>
        <time>2010-05-21T14:37:56Z</time>
      </trkpt>
      <trkpt lat="47.19306" lon="5.60148">
        <ele>297</ele>
        <time>2010-05-21T14:37:59Z</time>
      </trkpt>
      <trkpt lat="47.19297" lon="5.60137">
        <ele>297</ele>
        <time>2010-05-21T14:38:02Z</time>
      </trkpt>
      <trkpt lat="47.19288" lon="5.60126">
        <ele>292</ele>
        <time>2010-05-21T14:38:05Z</time>
      </trkpt>
      <trkpt lat="47.19277" lon="5.60113">
        <ele>292</ele>
        <time>2010-05-21T14:38:08Z</time>
      </trkpt>
      <trkpt lat="47.19269" lon="5.60104">
        <ele>292</ele>
        <time>2010-05-21T14:38:10Z</time>
      </trkpt>
      <trkpt lat="47.19259" lon="5.60092">
        <ele>292</ele>
        <time>2010-05-21T14:38:12Z</time>
      </trkpt>
      <trkpt lat="47.19248" lon="5.6008">
        <ele>292</ele>
        <time>2010-05-21T14:38:14Z</time>
      </trkpt>
      <trkpt lat="47.19236" lon="5.60066">
        <ele>286</ele>
        <time>2010-05-21T14:38:16Z</time>
      </trkpt>
      <trkpt lat="47.19223" lon="5.60054">
        <ele>286</ele>
        <time>2010-05-21T14:38:18Z</time>
      </trkpt>
      <trkpt lat="47.1921" lon="5.6004">
        <ele>286</ele>
        <time>2010-05-21T14:38:20Z</time>
      </trkpt>
      <trkpt lat="47.19197" lon="5.60024">
        <ele>286</ele>
        <time>2010-05-21T14:38:22Z</time>
      </trkpt>
      <trkpt lat="47.19182" lon="5.60007">
        <ele>286</ele>
        <time>2010-05-21T14:38:24Z</time>
      </trkpt>
      <trkpt lat="47.19175" lon="5.59998">
        <ele>281</ele>
        <time>2010-05-21T14:38:25Z</time>
      </trkpt>
      <trkpt lat="47.19168" lon="5.59989">
        <ele>281</ele>
        <time>2010-05-21T14:38:26Z</time>
      </trkpt>
      <trkpt lat="47.1916" lon="5.59979">
        <ele>281</ele>
        <time>2010-05-21T14:38:27Z</time>
      </trkpt>
      <trkpt lat="47.19154" lon="5.5997">
        <ele>281</ele>
        <time>2010-05-21T14:38:28Z</time>
      </trkpt>
      <trkpt lat="47.19147" lon="5.5996">
        <ele>281</ele>
        <time>2010-05-21T14:38:29Z</time>
      </trkpt>
      <trkpt lat="47.1914" lon="5.59951">
        <ele>281</ele>
        <time>2010-05-21T14:38:30Z</time>
      </trkpt>
      <trkpt lat="47.19131" lon="5.59941">
        <ele>281</ele>
        <time>2010-05-21T14:38:31Z</time>
      </trkpt>
      <trkpt lat="47.19121" lon="5.59932">
        <ele>281</ele>
        <time>2010-05-21T14:38:32Z</time>
      </trkpt>
      <trkpt lat="47.19111" lon="5.59922">
        <ele>281</ele>
        <time>2010-05-21T14:38:33Z</time>
      </trkpt>
      <trkpt lat="47.19102" lon="5.59911">
        <ele>281</ele>
        <time>2010-05-21T14:38:34Z</time>
      </trkpt>
      <trkpt lat="47.19092" lon="5.59901">
        <ele>281</ele>
        <time>2010-05-21T14:38:35Z</time>
      </trkpt>
      <trkpt lat="47.19083" lon="5.5989">
        <ele>281</ele>
        <time>2010-05-21T14:38:36Z</time>
      </trkpt>
      <trkpt lat="47.19075" lon="5.5988">
        <ele>281</ele>
        <time>2010-05-21T14:38:37Z</time>
      </trkpt>
      <trkpt lat="47.19066" lon="5.59869">
        <ele>275</ele>
        <time>2010-05-21T14:38:38Z</time>
      </trkpt>
      <trkpt lat="47.19058" lon="5.59858">
        <ele>275</ele>
        <time>2010-05-21T14:38:39Z</time>
      </trkpt>
      <trkpt lat="47.19049" lon="5.59848">
        <ele>275</ele>
        <time>2010-05-21T14:38:40Z</time>
      </trkpt>
      <trkpt lat="47.1904" lon="5.59837">
        <ele>275</ele>
        <time>2010-05-21T14:38:41Z</time>
      </trkpt>
      <trkpt lat="47.19031" lon="5.59827">
        <ele>275</ele>
        <time>2010-05-21T14:38:42Z</time>
      </trkpt>
      <trkpt lat="47.19021" lon="5.59815">
        <ele>275</ele>
        <time>2010-05-21T14:38:43Z</time>
      </trkpt>
      <trkpt lat="47.19012" lon="5.59804">
        <ele>275</ele>
        <time>2010-05-21T14:38:44Z</time>
      </trkpt>
      <trkpt lat="47.19002" lon="5.59793">
        <ele>275</ele>
        <time>2010-05-21T14:38:45Z</time>
      </trkpt>
      <trkpt lat="47.18993" lon="5.59782">
        <ele>275</ele>
        <time>2010-05-21T14:38:46Z</time>
      </trkpt>
      <trkpt lat="47.18983" lon="5.59772">
        <ele>275</ele>
        <time>2010-05-21T14:38:47Z</time>
      </trkpt>
      <trkpt lat="47.18974" lon="5.5976">
        <ele>269</ele>
        <time>2010-05-21T14:38:48Z</time>
      </trkpt>
      <trkpt lat="47.18965" lon="5.5975">
        <ele>269</ele>
        <time>2010-05-21T14:38:49Z</time>
      </trkpt>
      <trkpt lat="47.18955" lon="5.5974">
        <ele>269</ele>
        <time>2010-05-21T14:38:50Z</time>
      </trkpt>
      <trkpt lat="47.18944" lon="5.5973">
        <ele>269</ele>
        <time>2010-05-21T14:38:51Z</time>
      </trkpt>
      <trkpt lat="47.18933" lon="5.5972">
        <ele>269</ele>
        <time>2010-05-21T14:38:52Z</time>
      </trkpt>
      <trkpt lat="47.18922" lon="5.59711">
        <ele>269</ele>
        <time>2010-05-21T14:38:53Z</time>
      </trkpt>
      <trkpt lat="47.18912" lon="5.59701">
        <ele>269</ele>
        <time>2010-05-21T14:38:54Z</time>
      </trkpt>
      <trkpt lat="47.18901" lon="5.59692">
        <ele>263</ele>
        <time>2010-05-21T14:38:55Z</time>
      </trkpt>
      <trkpt lat="47.18892" lon="5.59684">
        <ele>263</ele>
        <time>2010-05-21T14:38:56Z</time>
      </trkpt>
      <trkpt lat="47.18882" lon="5.59675">
        <ele>263</ele>
        <time>2010-05-21T14:38:57Z</time>
      </trkpt>
      <trkpt lat="47.18873" lon="5.59667">
        <ele>263</ele>
        <time>2010-05-21T14:38:58Z</time>
      </trkpt>
      <trkpt lat="47.18864" lon="5.59659">
        <ele>263</ele>
        <time>2010-05-21T14:38:59Z</time>
      </trkpt>
      <trkpt lat="47.18856" lon="5.59651">
        <ele>263</ele>
        <time>2010-05-21T14:39:00Z</time>
      </trkpt>
      <trkpt lat="47.18848" lon="5.59644">
        <ele>263</ele>
        <time>2010-05-21T14:39:01Z</time>
      </trkpt>
      <trkpt lat="47.1884" lon="5.59637">
        <ele>263</ele>
        <time>2010-05-21T14:39:02Z</time>
      </trkpt>
      <trkpt lat="47.18832" lon="5.5963">
        <ele>263</ele>
        <time>2010-05-21T14:39:03Z</time>
      </trkpt>
      <trkpt lat="47.18818" lon="5.59617">
        <ele>263</ele>
        <time>2010-05-21T14:39:05Z</time>
      </trkpt>
      <trkpt lat="47.18805" lon="5.59604">
        <ele>263</ele>
        <time>2010-05-21T14:39:07Z</time>
      </trkpt>
      <trkpt lat="47.18794" lon="5.59589">
        <ele>263</ele>
        <time>2010-05-21T14:39:09Z</time>
      </trkpt>
      <trkpt lat="47.18783" lon="5.59576">
        <ele>263</ele>
        <time>2010-05-21T14:39:11Z</time>
      </trkpt>
      <trkpt lat="47.18773" lon="5.59562">
        <ele>263</ele>
        <time>2010-05-21T14:39:13Z</time>
      </trkpt>
      <trkpt lat="47.18764" lon="5.59549">
        <ele>263</ele>
        <time>2010-05-21T14:39:15Z</time>
      </trkpt>
      <trkpt lat="47.18754" lon="5.59537">
        <ele>263</ele>
        <time>2010-05-21T14:39:17Z</time>
      </trkpt>
      <trkpt lat="47.18746" lon="5.59526">
        <ele>270</ele>
        <time>2010-05-21T14:39:19Z</time>
      </trkpt>
      <trkpt lat="47.18737" lon="5.59515">
        <ele>270</ele>
        <time>2010-05-21T14:39:21Z</time>
      </trkpt>
      <trkpt lat="47.18728" lon="5.59503">
        <ele>270</ele>
        <time>2010-05-21T14:39:23Z</time>
      </trkpt>
      <trkpt lat="47.1872" lon="5.59493">
        <ele>270</ele>
        <time>2010-05-21T14:39:25Z</time>
      </trkpt>
      <trkpt lat="47.18711" lon="5.59483">
        <ele>270</ele>
        <time>2010-05-21T14:39:27Z</time>
      </trkpt>
      <trkpt lat="47.18704" lon="5.59473">
        <ele>276</ele>
        <time>2010-05-21T14:39:29Z</time>
      </trkpt>
      <trkpt lat="47.18697" lon="5.59463">
        <ele>276</ele>
        <time>2010-05-21T14:39:31Z</time>
      </trkpt>
      <trkpt lat="47.18689" lon="5.59452">
        <ele>276</ele>
        <time>2010-05-21T14:39:33Z</time>
      </trkpt>
      <trkpt lat="47.18681" lon="5.59442">
        <ele>276</ele>
        <time>2010-05-21T14:39:35Z</time>
      </trkpt>
      <trkpt lat="47.18674" lon="5.59431">
        <ele>276</ele>
        <time>2010-05-21T14:39:37Z</time>
      </trkpt>
      <trkpt lat="47.18666" lon="5.59422">
        <ele>276</ele>
        <time>2010-05-21T14:39:39Z</time>
      </trkpt>
      <trkpt lat="47.18658" lon="5.59412">
        <ele>276</ele>
        <time>2010-05-21T14:39:41Z</time>
      </trkpt>
      <trkpt lat="47.1865" lon="5.59403">
        <ele>276</ele>
        <time>2010-05-21T14:39:43Z</time>
      </trkpt>
      <trkpt lat="47.18641" lon="5.59394">
        <ele>276</ele>
        <time>2010-05-21T14:39:45Z</time>
      </trkpt>
      <trkpt lat="47.18633" lon="5.59385">
        <ele>276</ele>
        <time>2010-05-21T14:39:47Z</time>
      </trkpt>
      <trkpt lat="47.18623" lon="5.59376">
        <ele>276</ele>
        <time>2010-05-21T14:39:49Z</time>
      </trkpt>
      <trkpt lat="47.18614" lon="5.59368">
        <ele>276</ele>
        <time>2010-05-21T14:39:51Z</time>
      </trkpt>
      <trkpt lat="47.18606" lon="5.5936">
        <ele>276</ele>
        <time>2010-05-21T14:39:53Z</time>
      </trkpt>
      <trkpt lat="47.18596" lon="5.59351">
        <ele>276</ele>
        <time>2010-05-21T14:39:55Z</time>
      </trkpt>
      <trkpt lat="47.18587" lon="5.59341">
        <ele>276</ele>
        <time>2010-05-21T14:39:57Z</time>
      </trkpt>
      <trkpt lat="47.18576" lon="5.59332">
        <ele>276</ele>
        <time>2010-05-21T14:39:59Z</time>
      </trkpt>
      <trkpt lat="47.18566" lon="5.59323">
        <ele>276</ele>
        <time>2010-05-21T14:40:01Z</time>
      </trkpt>
      <trkpt lat="47.18554" lon="5.59313">
        <ele>276</ele>
        <time>2010-05-21T14:40:03Z</time>
      </trkpt>
      <trkpt lat="47.18542" lon="5.59302">
        <ele>276</ele>
        <time>2010-05-21T14:40:05Z</time>
      </trkpt>
      <trkpt lat="47.18529" lon="5.59291">
        <ele>276</ele>
        <time>2010-05-21T14:40:07Z</time>
      </trkpt>
      <trkpt lat="47.18516" lon="5.59279">
        <ele>276</ele>
        <time>2010-05-21T14:40:09Z</time>
      </trkpt>
      <trkpt lat="47.18502" lon="5.59266">
        <ele>276</ele>
        <time>2010-05-21T14:40:11Z</time>
      </trkpt>
      <trkpt lat="47.18488" lon="5.59253">
        <ele>276</ele>
        <time>2010-05-21T14:40:13Z</time>
      </trkpt>
      <trkpt lat="47.18474" lon="5.59237">
        <ele>276</ele>
        <time>2010-05-21T14:40:15Z</time>
      </trkpt>
      <trkpt lat="47.18461" lon="5.59219">
        <ele>276</ele>
        <time>2010-05-21T14:40:17Z</time>
      </trkpt>
      <trkpt lat="47.18454" lon="5.59209">
        <ele>276</ele>
        <time>2010-05-21T14:40:18Z</time>
      </trkpt>
      <trkpt lat="47.18448" lon="5.59199">
        <ele>276</ele>
        <time>2010-05-21T14:40:19Z</time>
      </trkpt>
      <trkpt lat="47.18443" lon="5.59188">
        <ele>276</ele>
        <time>2010-05-21T14:40:20Z</time>
      </trkpt>
      <trkpt lat="47.18437" lon="5.59176">
        <ele>271</ele>
        <time>2010-05-21T14:40:21Z</time>
      </trkpt>
      <trkpt lat="47.18431" lon="5.59164">
        <ele>271</ele>
        <time>2010-05-21T14:40:22Z</time>
      </trkpt>
      <trkpt lat="47.18426" lon="5.59153">
        <ele>271</ele>
        <time>2010-05-21T14:40:23Z</time>
      </trkpt>
      <trkpt lat="47.18421" lon="5.5914">
        <ele>271</ele>
        <time>2010-05-21T14:40:24Z</time>
      </trkpt>
      <trkpt lat="47.18415" lon="5.59127">
        <ele>271</ele>
        <time>2010-05-21T14:40:25Z</time>
      </trkpt>
      <trkpt lat="47.1841" lon="5.59114">
        <ele>271</ele>
        <time>2010-05-21T14:40:26Z</time>
      </trkpt>
      <trkpt lat="47.18405" lon="5.59102">
        <ele>271</ele>
        <time>2010-05-21T14:40:27Z</time>
      </trkpt>
      <trkpt lat="47.18399" lon="5.59088">
        <ele>271</ele>
        <time>2010-05-21T14:40:28Z</time>
      </trkpt>
      <trkpt lat="47.18394" lon="5.59075">
        <ele>271</ele>
        <time>2010-05-21T14:40:29Z</time>
      </trkpt>
      <trkpt lat="47.18389" lon="5.59061">
        <ele>271</ele>
        <time>2010-05-21T14:40:30Z</time>
      </trkpt>
      <trkpt lat="47.18384" lon="5.59048">
        <ele>271</ele>
        <time>2010-05-21T14:40:31Z</time>
      </trkpt>
      <trkpt lat="47.18379" lon="5.59033">
        <ele>271</ele>
        <time>2010-05-21T14:40:32Z</time>
      </trkpt>
      <trkpt lat="47.18374" lon="5.59019">
        <ele>271</ele>
        <time>2010-05-21T14:40:33Z</time>
      </trkpt>
      <trkpt lat="47.1837" lon="5.59004">
        <ele>271</ele>
        <time>2010-05-21T14:40:34Z</time>
      </trkpt>
      <trkpt lat="47.18366" lon="5.58988">
        <ele>265</ele>
        <time>2010-05-21T14:40:35Z</time>
      </trkpt>
      <trkpt lat="47.18362" lon="5.58971">
        <ele>265</ele>
        <time>2010-05-21T14:40:36Z</time>
      </trkpt>
      <trkpt lat="47.18358" lon="5.58955">
        <ele>265</ele>
        <time>2010-05-21T14:40:37Z</time>
      </trkpt>
      <trkpt lat="47.18355" lon="5.58938">
        <ele>265</ele>
        <time>2010-05-21T14:40:38Z</time>
      </trkpt>
      <trkpt lat="47.18352" lon="5.58921">
        <ele>265</ele>
        <time>2010-05-21T14:40:39Z</time>
      </trkpt>
      <trkpt lat="47.1835" lon="5.58903">
        <ele>265</ele>
        <time>2010-05-21T14:40:40Z</time>
      </trkpt>
      <trkpt lat="47.18347" lon="5.58885">
        <ele>265</ele>
        <time>2010-05-21T14:40:41Z</time>
      </trkpt>
      <trkpt lat="47.18344" lon="5.58867">
        <ele>265</ele>
        <time>2010-05-21T14:40:42Z</time>
      </trkpt>
      <trkpt lat="47.18342" lon="5.58849">
        <ele>260</ele>
        <time>2010-05-21T14:40:43Z</time>
      </trkpt>
      <trkpt lat="47.1834" lon="5.5883">
        <ele>260</ele>
        <time>2010-05-21T14:40:44Z</time>
      </trkpt>
      <trkpt lat="47.18338" lon="5.58811">
        <ele>260</ele>
        <time>2010-05-21T14:40:45Z</time>
      </trkpt>
      <trkpt lat="47.18335" lon="5.58793">
        <ele>260</ele>
        <time>2010-05-21T14:40:46Z</time>
      </trkpt>
      <trkpt lat="47.18332" lon="5.58774">
        <ele>260</ele>
        <time>2010-05-21T14:40:47Z</time>
      </trkpt>
      <trkpt lat="47.18328" lon="5.58756">
        <ele>260</ele>
        <time>2010-05-21T14:40:48Z</time>
      </trkpt>
      <trkpt lat="47.18324" lon="5.58738">
        <ele>260</ele>
        <time>2010-05-21T14:40:49Z</time>
      </trkpt>
      <trkpt lat="47.18319" lon="5.58719">
        <ele>260</ele>
        <time>2010-05-21T14:40:50Z</time>
      </trkpt>
      <trkpt lat="47.18314" lon="5.58701">
        <ele>254</ele>
        <time>2010-05-21T14:40:51Z</time>
      </trkpt>
      <trkpt lat="47.18309" lon="5.58682">
        <ele>254</ele>
        <time>2010-05-21T14:40:52Z</time>
      </trkpt>
      <trkpt lat="47.18304" lon="5.58664">
        <ele>254</ele>
        <time>2010-05-21T14:40:53Z</time>
      </trkpt>
      <trkpt lat="47.18298" lon="5.58646">
        <ele>254</ele>
        <time>2010-05-21T14:40:54Z</time>
      </trkpt>
      <trkpt lat="47.18291" lon="5.58628">
        <ele>254</ele>
        <time>2010-05-21T14:40:55Z</time>
      </trkpt>
      <trkpt lat="47.18285" lon="5.58612">
        <ele>254</ele>
        <time>2010-05-21T14:40:56Z</time>
      </trkpt>
      <trkpt lat="47.18276" lon="5.58596">
        <ele>254</ele>
        <time>2010-05-21T14:40:57Z</time>
      </trkpt>
      <trkpt lat="47.18267" lon="5.58581">
        <ele>254</ele>
        <time>2010-05-21T14:40:58Z</time>
      </trkpt>
      <trkpt lat="47.18257" lon="5.58566">
        <ele>249</ele>
        <time>2010-05-21T14:40:59Z</time>
      </trkpt>
      <trkpt lat="47.18247" lon="5.58552">
        <ele>249</ele>
        <time>2010-05-21T14:41:00Z</time>
      </trkpt>
      <trkpt lat="47.18237" lon="5.58538">
        <ele>249</ele>
        <time>2010-05-21T14:41:01Z</time>
      </trkpt>
      <trkpt lat="47.18227" lon="5.58524">
        <ele>249</ele>
        <time>2010-05-21T14:41:02Z</time>
      </trkpt>
      <trkpt lat="47.18217" lon="5.58511">
        <ele>249</ele>
        <time>2010-05-21T14:41:03Z</time>
      </trkpt>
      <trkpt lat="47.18206" lon="5.58496">
        <ele>249</ele>
        <time>2010-05-21T14:41:04Z</time>
      </trkpt>
      <trkpt lat="47.18197" lon="5.58483">
        <ele>249</ele>
        <time>2010-05-21T14:41:05Z</time>
      </trkpt>
      <trkpt lat="47.18187" lon="5.58469">
        <ele>249</ele>
        <time>2010-05-21T14:41:06Z</time>
      </trkpt>
      <trkpt lat="47.18177" lon="5.58457">
        <ele>249</ele>
        <time>2010-05-21T14:41:07Z</time>
      </trkpt>
      <trkpt lat="47.18168" lon="5.58443">
        <ele>249</ele>
        <time>2010-05-21T14:41:08Z</time>
      </trkpt>
      <trkpt lat="47.18158" lon="5.58431">
        <ele>249</ele>
        <time>2010-05-21T14:41:09Z</time>
      </trkpt>
      <trkpt lat="47.18149" lon="5.58419">
        <ele>249</ele>
        <time>2010-05-21T14:41:10Z</time>
      </trkpt>
      <trkpt lat="47.1814" lon="5.58406">
        <ele>249</ele>
        <time>2010-05-21T14:41:11Z</time>
      </trkpt>
      <trkpt lat="47.18132" lon="5.58395">
        <ele>249</ele>
        <time>2010-05-21T14:41:12Z</time>
      </trkpt>
      <trkpt lat="47.18123" lon="5.58383">
        <ele>249</ele>
        <time>2010-05-21T14:41:13Z</time>
      </trkpt>
      <trkpt lat="47.18116" lon="5.5837">
        <ele>249</ele>
        <time>2010-05-21T14:41:14Z</time>
      </trkpt>
      <trkpt lat="47.18108" lon="5.58358">
        <ele>249</ele>
        <time>2010-05-21T14:41:15Z</time>
      </trkpt>
      <trkpt lat="47.18101" lon="5.58344">
        <ele>249</ele>
        <time>2010-05-21T14:41:16Z</time>
      </trkpt>
      <trkpt lat="47.18095" lon="5.58331">
        <ele>249</ele>
        <time>2010-05-21T14:41:17Z</time>
      </trkpt>
      <trkpt lat="47.18089" lon="5.58317">
        <ele>249</ele>
        <time>2010-05-21T14:41:18Z</time>
      </trkpt>
      <trkpt lat="47.18084" lon="5.58304">
        <ele>249</ele>
        <time>2010-05-21T14:41:19Z</time>
      </trkpt>
      <trkpt lat="47.1808" lon="5.58292">
        <ele>249</ele>
        <time>2010-05-21T14:41:20Z</time>
      </trkpt>
      <trkpt lat="47.18071" lon="5.58273">
        <ele>249</ele>
        <time>2010-05-21T14:41:22Z</time>
      </trkpt>
      <trkpt lat="47.18063" lon="5.58259">
        <ele>249</ele>
        <time>2010-05-21T14:41:24Z</time>
      </trkpt>
      <trkpt lat="47.18054" lon="5.58246">
        <ele>249</ele>
        <time>2010-05-21T14:41:27Z</time>
      </trkpt>
      <trkpt lat="47.18049" lon="5.58236">
        <ele>249</ele>
        <time>2010-05-21T14:41:31Z</time>
      </trkpt>
      <trkpt lat="47.18041" lon="5.58228">
        <ele>249</ele>
        <time>2010-05-21T14:41:52Z</time>
      </trkpt>
      <trkpt lat="47.18032" lon="5.58223">
        <ele>249</ele>
        <time>2010-05-21T14:41:55Z</time>
      </trkpt>
      <trkpt lat="47.18023" lon="5.58213">
        <ele>249</ele>
        <time>2010-05-21T14:41:58Z</time>
      </trkpt>
      <trkpt lat="47.18015" lon="5.58207">
        <ele>249</ele>
        <time>2010-05-21T14:42:00Z</time>
      </trkpt>
      <trkpt lat="47.18007" lon="5.58198">
        <ele>249</ele>
        <time>2010-05-21T14:42:02Z</time>
      </trkpt>
      <trkpt lat="47.17999" lon="5.58185">
        <ele>249</ele>
        <time>2010-05-21T14:42:04Z</time>
      </trkpt>
      <trkpt lat="47.17993" lon="5.58169">
        <ele>249</ele>
        <time>2010-05-21T14:42:06Z</time>
      </trkpt>
      <trkpt lat="47.17987" lon="5.5815">
        <ele>249</ele>
        <time>2010-05-21T14:42:08Z</time>
      </trkpt>
      <trkpt lat="47.1798" lon="5.58132">
        <ele>249</ele>
        <time>2010-05-21T14:42:10Z</time>
      </trkpt>
      <trkpt lat="47.17972" lon="5.58115">
        <ele>249</ele>
        <time>2010-05-21T14:42:12Z</time>
      </trkpt>
      <trkpt lat="47.17961" lon="5.581">
        <ele>249</ele>
        <time>2010-05-21T14:42:14Z</time>
      </trkpt>
      <trkpt lat="47.1795" lon="5.58085">
        <ele>249</ele>
        <time>2010-05-21T14:42:16Z</time>
      </trkpt>
      <trkpt lat="47.17937" lon="5.58071">
        <ele>249</ele>
        <time>2010-05-21T14:42:18Z</time>
      </trkpt>
      <trkpt lat="47.17925" lon="5.58057">
        <ele>249</ele>
        <time>2010-05-21T14:42:20Z</time>
      </trkpt>
      <trkpt lat="47.17912" lon="5.58044">
        <ele>244</ele>
        <time>2010-05-21T14:42:22Z</time>
      </trkpt>
      <trkpt lat="47.17899" lon="5.58033">
        <ele>244</ele>
        <time>2010-05-21T14:42:24Z</time>
      </trkpt>
      <trkpt lat="47.17886" lon="5.58026">
        <ele>244</ele>
        <time>2010-05-21T14:42:26Z</time>
      </trkpt>
      <trkpt lat="47.17873" lon="5.5803">
        <ele>244</ele>
        <time>2010-05-21T14:42:28Z</time>
      </trkpt>
      <trkpt lat="47.17863" lon="5.58042">
        <ele>244</ele>
        <time>2010-05-21T14:42:30Z</time>
      </trkpt>
      <trkpt lat="47.17855" lon="5.58051">
        <ele>244</ele>
        <time>2010-05-21T14:42:32Z</time>
      </trkpt>
      <trkpt lat="47.17845" lon="5.58058">
        <ele>244</ele>
        <time>2010-05-21T14:42:34Z</time>
      </trkpt>
      <trkpt lat="47.17835" lon="5.58061">
        <ele>244</ele>
        <time>2010-05-21T14:42:36Z</time>
      </trkpt>
      <trkpt lat="47.17825" lon="5.58063">
        <ele>244</ele>
        <time>2010-05-21T14:42:38Z</time>
      </trkpt>
      <trkpt lat="47.17815" lon="5.58065">
        <ele>244</ele>
        <time>2010-05-21T14:42:40Z</time>
      </trkpt>
      <trkpt lat="47.17804" lon="5.58066">
        <ele>250</ele>
        <time>2010-05-21T14:42:43Z</time>
      </trkpt>
      <trkpt lat="47.17793" lon="5.58066">
        <ele>250</ele>
        <time>2010-05-21T14:42:45Z</time>
      </trkpt>
      <trkpt lat="47.17783" lon="5.58063">
        <ele>250</ele>
        <time>2010-05-21T14:42:47Z</time>
      </trkpt>
      <trkpt lat="47.17775" lon="5.5806">
        <ele>250</ele>
        <time>2010-05-21T14:42:49Z</time>
      </trkpt>
      <trkpt lat="47.17765" lon="5.58056">
        <ele>250</ele>
        <time>2010-05-21T14:42:51Z</time>
      </trkpt>
      <trkpt lat="47.17756" lon="5.58052">
        <ele>250</ele>
        <time>2010-05-21T14:42:53Z</time>
      </trkpt>
      <trkpt lat="47.17748" lon="5.58048">
        <ele>250</ele>
        <time>2010-05-21T14:42:55Z</time>
      </trkpt>
      <trkpt lat="47.17735" lon="5.58041">
        <ele>250</ele>
        <time>2010-05-21T14:42:58Z</time>
      </trkpt>
      <trkpt lat="47.17723" lon="5.58034">
        <ele>250</ele>
        <time>2010-05-21T14:43:01Z</time>
      </trkpt>
      <trkpt lat="47.17711" lon="5.58026">
        <ele>250</ele>
        <time>2010-05-21T14:43:04Z</time>
      </trkpt>
      <trkpt lat="47.17702" lon="5.58019">
        <ele>250</ele>
        <time>2010-05-21T14:43:06Z</time>
      </trkpt>
      <trkpt lat="47.17694" lon="5.5801">
        <ele>250</ele>
        <time>2010-05-21T14:43:08Z</time>
      </trkpt>
      <trkpt lat="47.17686" lon="5.58">
        <ele>250</ele>
        <time>2010-05-21T14:43:10Z</time>
      </trkpt>
      <trkpt lat="47.17678" lon="5.5799">
        <ele>250</ele>
        <time>2010-05-21T14:43:12Z</time>
      </trkpt>
      <trkpt lat="47.17672" lon="5.57979">
        <ele>250</ele>
        <time>2010-05-21T14:43:14Z</time>
      </trkpt>
      <trkpt lat="47.17667" lon="5.57968">
        <ele>250</ele>
        <time>2010-05-21T14:43:16Z</time>
      </trkpt>
      <trkpt lat="47.1766" lon="5.57957">
        <ele>255</ele>
        <time>2010-05-21T14:43:18Z</time>
      </trkpt>
      <trkpt lat="47.17653" lon="5.57941">
        <ele>255</ele>
        <time>2010-05-21T14:43:21Z</time>
      </trkpt>
      <trkpt lat="47.17647" lon="5.57929">
        <ele>255</ele>
        <time>2010-05-21T14:43:23Z</time>
      </trkpt>
      <trkpt lat="47.17642" lon="5.57917">
        <ele>255</ele>
        <time>2010-05-21T14:43:25Z</time>
      </trkpt>
      <trkpt lat="47.17636" lon="5.57903">
        <ele>255</ele>
        <time>2010-05-21T14:43:27Z</time>
      </trkpt>
      <trkpt lat="47.17631" lon="5.57889">
        <ele>255</ele>
        <time>2010-05-21T14:43:29Z</time>
      </trkpt>
      <trkpt lat="47.17626" lon="5.57875">
        <ele>255</ele>
        <time>2010-05-21T14:43:31Z</time>
      </trkpt>
      <trkpt lat="47.17621" lon="5.57861">
        <ele>255</ele>
        <time>2010-05-21T14:43:33Z</time>
      </trkpt>
      <trkpt lat="47.17615" lon="5.57847">
        <ele>255</ele>
        <time>2010-05-21T14:43:35Z</time>
      </trkpt>
      <trkpt lat="47.1761" lon="5.57831">
        <ele>255</ele>
        <time>2010-05-21T14:43:37Z</time>
      </trkpt>
      <trkpt lat="47.17605" lon="5.57817">
        <ele>255</ele>
        <time>2010-05-21T14:43:39Z</time>
      </trkpt>
      <trkpt lat="47.17599" lon="5.57803">
        <ele>255</ele>
        <time>2010-05-21T14:43:41Z</time>
      </trkpt>
      <trkpt lat="47.17594" lon="5.57787">
        <ele>255</ele>
        <time>2010-05-21T14:43:43Z</time>
      </trkpt>
      <trkpt lat="47.17588" lon="5.57773">
        <ele>255</ele>
        <time>2010-05-21T14:43:45Z</time>
      </trkpt>
      <trkpt lat="47.17583" lon="5.57758">
        <ele>255</ele>
        <time>2010-05-21T14:43:47Z</time>
      </trkpt>
      <trkpt lat="47.17577" lon="5.57745">
        <ele>255</ele>
        <time>2010-05-21T14:43:49Z</time>
      </trkpt>
      <trkpt lat="47.17573" lon="5.57733">
        <ele>255</ele>
        <time>2010-05-21T14:43:51Z</time>
      </trkpt>
      <trkpt lat="47.17569" lon="5.5772">
        <ele>255</ele>
        <time>2010-05-21T14:43:53Z</time>
      </trkpt>
      <trkpt lat="47.17563" lon="5.57702">
        <ele>255</ele>
        <time>2010-05-21T14:43:56Z</time>
      </trkpt>
      <trkpt lat="47.17558" lon="5.5769">
        <ele>255</ele>
        <time>2010-05-21T14:43:58Z</time>
      </trkpt>
      <trkpt lat="47.17555" lon="5.57678">
        <ele>255</ele>
        <time>2010-05-21T14:44:00Z</time>
      </trkpt>
      <trkpt lat="47.17549" lon="5.5766">
        <ele>255</ele>
        <time>2010-05-21T14:44:03Z</time>
      </trkpt>
      <trkpt lat="47.17544" lon="5.57648">
        <ele>255</ele>
        <time>2010-05-21T14:44:05Z</time>
      </trkpt>
      <trkpt lat="47.1754" lon="5.57636">
        <ele>255</ele>
        <time>2010-05-21T14:44:07Z</time>
      </trkpt>
      <trkpt lat="47.17536" lon="5.57625">
        <ele>255</ele>
        <time>2010-05-21T14:44:09Z</time>
      </trkpt>
      <trkpt lat="47.1753" lon="5.57609">
        <ele>262</ele>
        <time>2010-05-21T14:44:12Z</time>
      </trkpt>
      <trkpt lat="47.17523" lon="5.57592">
        <ele>262</ele>
        <time>2010-05-21T14:44:15Z</time>
      </trkpt>
      <trkpt lat="47.17519" lon="5.5758">
        <ele>262</ele>
        <time>2010-05-21T14:44:17Z</time>
      </trkpt>
      <trkpt lat="47.17515" lon="5.57568">
        <ele>262</ele>
        <time>2010-05-21T14:44:19Z</time>
      </trkpt>
      <trkpt lat="47.17509" lon="5.57552">
        <ele>262</ele>
        <time>2010-05-21T14:44:22Z</time>
      </trkpt>
      <trkpt lat="47.17503" lon="5.57536">
        <ele>267</ele>
        <time>2010-05-21T14:44:25Z</time>
      </trkpt>
      <trkpt lat="47.17496" lon="5.57521">
        <ele>267</ele>
        <time>2010-05-21T14:44:28Z</time>
      </trkpt>
      <trkpt lat="47.17489" lon="5.57506">
        <ele>267</ele>
        <time>2010-05-21T14:44:31Z</time>
      </trkpt>
      <trkpt lat="47.17482" lon="5.57491">
        <ele>267</ele>
        <time>2010-05-21T14:44:34Z</time>
      </trkpt>
      <trkpt lat="47.17476" lon="5.57475">
        <ele>267</ele>
        <time>2010-05-21T14:44:37Z</time>
      </trkpt>
      <trkpt lat="47.1747" lon="5.57463">
        <ele>267</ele>
        <time>2010-05-21T14:44:39Z</time>
      </trkpt>
      <trkpt lat="47.17465" lon="5.5745">
        <ele>267</ele>
        <time>2010-05-21T14:44:41Z</time>
      </trkpt>
      <trkpt lat="47.17458" lon="5.57435">
        <ele>267</ele>
        <time>2010-05-21T14:44:43Z</time>
      </trkpt>
      <trkpt lat="47.17451" lon="5.5742">
        <ele>267</ele>
        <time>2010-05-21T14:44:45Z</time>
      </trkpt>
      <trkpt lat="47.17444" lon="5.57404">
        <ele>267</ele>
        <time>2010-05-21T14:44:47Z</time>
      </trkpt>
      <trkpt lat="47.17435" lon="5.57386">
        <ele>267</ele>
        <time>2010-05-21T14:44:49Z</time>
      </trkpt>
      <trkpt lat="47.17427" lon="5.57367">
        <ele>267</ele>
        <time>2010-05-21T14:44:51Z</time>
      </trkpt>
      <trkpt lat="47.17417" lon="5.57348">
        <ele>267</ele>
        <time>2010-05-21T14:44:53Z</time>
      </trkpt>
      <trkpt lat="47.17406" lon="5.57329">
        <ele>267</ele>
        <time>2010-05-21T14:44:55Z</time>
      </trkpt>
      <trkpt lat="47.174" lon="5.57319">
        <ele>267</ele>
        <time>2010-05-21T14:44:56Z</time>
      </trkpt>
      <trkpt lat="47.17387" lon="5.57302">
        <ele>261</ele>
        <time>2010-05-21T14:44:58Z</time>
      </trkpt>
      <trkpt lat="47.17373" lon="5.57286">
        <ele>261</ele>
        <time>2010-05-21T14:45:00Z</time>
      </trkpt>
      <trkpt lat="47.17365" lon="5.57278">
        <ele>261</ele>
        <time>2010-05-21T14:45:01Z</time>
      </trkpt>
      <trkpt lat="47.17357" lon="5.5727">
        <ele>261</ele>
        <time>2010-05-21T14:45:02Z</time>
      </trkpt>
      <trkpt lat="47.17349" lon="5.57264">
        <ele>261</ele>
        <time>2010-05-21T14:45:03Z</time>
      </trkpt>
      <trkpt lat="47.17341" lon="5.57256">
        <ele>261</ele>
        <time>2010-05-21T14:45:04Z</time>
      </trkpt>
      <trkpt lat="47.17333" lon="5.57249">
        <ele>261</ele>
        <time>2010-05-21T14:45:05Z</time>
      </trkpt>
      <trkpt lat="47.17324" lon="5.57243">
        <ele>261</ele>
        <time>2010-05-21T14:45:06Z</time>
      </trkpt>
      <trkpt lat="47.17316" lon="5.57237">
        <ele>256</ele>
        <time>2010-05-21T14:45:07Z</time>
      </trkpt>
      <trkpt lat="47.17307" lon="5.57231">
        <ele>256</ele>
        <time>2010-05-21T14:45:08Z</time>
      </trkpt>
      <trkpt lat="47.17299" lon="5.57225">
        <ele>256</ele>
        <time>2010-05-21T14:45:09Z</time>
      </trkpt>
      <trkpt lat="47.17289" lon="5.5722">
        <ele>256</ele>
        <time>2010-05-21T14:45:10Z</time>
      </trkpt>
      <trkpt lat="47.17281" lon="5.57214">
        <ele>256</ele>
        <time>2010-05-21T14:45:11Z</time>
      </trkpt>
      <trkpt lat="47.17272" lon="5.57209">
        <ele>256</ele>
        <time>2010-05-21T14:45:12Z</time>
      </trkpt>
      <trkpt lat="47.17263" lon="5.57203">
        <ele>256</ele>
        <time>2010-05-21T14:45:13Z</time>
      </trkpt>
      <trkpt lat="47.17254" lon="5.57196">
        <ele>256</ele>
        <time>2010-05-21T14:45:14Z</time>
      </trkpt>
      <trkpt lat="47.17247" lon="5.57189">
        <ele>256</ele>
        <time>2010-05-21T14:45:15Z</time>
      </trkpt>
      <trkpt lat="47.17239" lon="5.57181">
        <ele>251</ele>
        <time>2010-05-21T14:45:16Z</time>
      </trkpt>
      <trkpt lat="47.17231" lon="5.57171">
        <ele>251</ele>
        <time>2010-05-21T14:45:17Z</time>
      </trkpt>
      <trkpt lat="47.17224" lon="5.57159">
        <ele>251</ele>
        <time>2010-05-21T14:45:18Z</time>
      </trkpt>
      <trkpt lat="47.17219" lon="5.57147">
        <ele>251</ele>
        <time>2010-05-21T14:45:19Z</time>
      </trkpt>
      <trkpt lat="47.17214" lon="5.57133">
        <ele>251</ele>
        <time>2010-05-21T14:45:20Z</time>
      </trkpt>
      <trkpt lat="47.1721" lon="5.5712">
        <ele>251</ele>
        <time>2010-05-21T14:45:21Z</time>
      </trkpt>
      <trkpt lat="47.17206" lon="5.57106">
        <ele>251</ele>
        <time>2010-05-21T14:45:22Z</time>
      </trkpt>
      <trkpt lat="47.17203" lon="5.5709">
        <ele>251</ele>
        <time>2010-05-21T14:45:23Z</time>
      </trkpt>
      <trkpt lat="47.17199" lon="5.57076">
        <ele>251</ele>
        <time>2010-05-21T14:45:24Z</time>
      </trkpt>
      <trkpt lat="47.17196" lon="5.57061">
        <ele>251</ele>
        <time>2010-05-21T14:45:25Z</time>
      </trkpt>
      <trkpt lat="47.17193" lon="5.57046">
        <ele>251</ele>
        <time>2010-05-21T14:45:26Z</time>
      </trkpt>
      <trkpt lat="47.17189" lon="5.57031">
        <ele>251</ele>
        <time>2010-05-21T14:45:27Z</time>
      </trkpt>
      <trkpt lat="47.17185" lon="5.57017">
        <ele>251</ele>
        <time>2010-05-21T14:45:28Z</time>
      </trkpt>
      <trkpt lat="47.1718" lon="5.57002">
        <ele>251</ele>
        <time>2010-05-21T14:45:29Z</time>
      </trkpt>
      <trkpt lat="47.17175" lon="5.56988">
        <ele>251</ele>
        <time>2010-05-21T14:45:30Z</time>
      </trkpt>
      <trkpt lat="47.17169" lon="5.56975">
        <ele>251</ele>
        <time>2010-05-21T14:45:31Z</time>
      </trkpt>
      <trkpt lat="47.17163" lon="5.56963">
        <ele>251</ele>
        <time>2010-05-21T14:45:32Z</time>
      </trkpt>
      <trkpt lat="47.17156" lon="5.5695">
        <ele>251</ele>
        <time>2010-05-21T14:45:33Z</time>
      </trkpt>
      <trkpt lat="47.17149" lon="5.56939">
        <ele>251</ele>
        <time>2010-05-21T14:45:34Z</time>
      </trkpt>
      <trkpt lat="47.17142" lon="5.56929">
        <ele>251</ele>
        <time>2010-05-21T14:45:35Z</time>
      </trkpt>
      <trkpt lat="47.17134" lon="5.56918">
        <ele>251</ele>
        <time>2010-05-21T14:45:36Z</time>
      </trkpt>
      <trkpt lat="47.17126" lon="5.56908">
        <ele>251</ele>
        <time>2010-05-21T14:45:37Z</time>
      </trkpt>
      <trkpt lat="47.17118" lon="5.56899">
        <ele>251</ele>
        <time>2010-05-21T14:45:38Z</time>
      </trkpt>
      <trkpt lat="47.17111" lon="5.56889">
        <ele>251</ele>
        <time>2010-05-21T14:45:39Z</time>
      </trkpt>
      <trkpt lat="47.17102" lon="5.56879">
        <ele>246</ele>
        <time>2010-05-21T14:45:40Z</time>
      </trkpt>
      <trkpt lat="47.17093" lon="5.56869">
        <ele>246</ele>
        <time>2010-05-21T14:45:41Z</time>
      </trkpt>
      <trkpt lat="47.17084" lon="5.5686">
        <ele>246</ele>
        <time>2010-05-21T14:45:42Z</time>
      </trkpt>
      <trkpt lat="47.17075" lon="5.5685">
        <ele>246</ele>
        <time>2010-05-21T14:45:43Z</time>
      </trkpt>
      <trkpt lat="47.17065" lon="5.56841">
        <ele>246</ele>
        <time>2010-05-21T14:45:44Z</time>
      </trkpt>
      <trkpt lat="47.17054" lon="5.56833">
        <ele>246</ele>
        <time>2010-05-21T14:45:45Z</time>
      </trkpt>
      <trkpt lat="47.17043" lon="5.56825">
        <ele>246</ele>
        <time>2010-05-21T14:45:46Z</time>
      </trkpt>
      <trkpt lat="47.17032" lon="5.56817">
        <ele>246</ele>
        <time>2010-05-21T14:45:47Z</time>
      </trkpt>
      <trkpt lat="47.1702" lon="5.56809">
        <ele>241</ele>
        <time>2010-05-21T14:45:48Z</time>
      </trkpt>
      <trkpt lat="47.17008" lon="5.56802">
        <ele>241</ele>
        <time>2010-05-21T14:45:49Z</time>
      </trkpt>
      <trkpt lat="47.16996" lon="5.56795">
        <ele>241</ele>
        <time>2010-05-21T14:45:50Z</time>
      </trkpt>
      <trkpt lat="47.16984" lon="5.56787">
        <ele>241</ele>
        <time>2010-05-21T14:45:51Z</time>
      </trkpt>
      <trkpt lat="47.16972" lon="5.56779">
        <ele>241</ele>
        <time>2010-05-21T14:45:52Z</time>
      </trkpt>
      <trkpt lat="47.1696" lon="5.56772">
        <ele>241</ele>
        <time>2010-05-21T14:45:53Z</time>
      </trkpt>
      <trkpt lat="47.16949" lon="5.56765">
        <ele>241</ele>
        <time>2010-05-21T14:45:54Z</time>
      </trkpt>
      <trkpt lat="47.16938" lon="5.56759">
        <ele>241</ele>
        <time>2010-05-21T14:45:55Z</time>
      </trkpt>
      <trkpt lat="47.16927" lon="5.56752">
        <ele>241</ele>
        <time>2010-05-21T14:45:56Z</time>
      </trkpt>
      <trkpt lat="47.16917" lon="5.56744">
        <ele>241</ele>
        <time>2010-05-21T14:45:57Z</time>
      </trkpt>
      <trkpt lat="47.16908" lon="5.56735">
        <ele>241</ele>
        <time>2010-05-21T14:45:58Z</time>
      </trkpt>
      <trkpt lat="47.16899" lon="5.56726">
        <ele>241</ele>
        <time>2010-05-21T14:45:59Z</time>
      </trkpt>
      <trkpt lat="47.16891" lon="5.56717">
        <ele>241</ele>
        <time>2010-05-21T14:46:00Z</time>
      </trkpt>
      <trkpt lat="47.16883" lon="5.56708">
        <ele>241</ele>
        <time>2010-05-21T14:46:01Z</time>
      </trkpt>
      <trkpt lat="47.16875" lon="5.567">
        <ele>241</ele>
        <time>2010-05-21T14:46:02Z</time>
      </trkpt>
      <trkpt lat="47.16867" lon="5.56692">
        <ele>241</ele>
        <time>2010-05-21T14:46:03Z</time>
      </trkpt>
      <trkpt lat="47.1686" lon="5.56684">
        <ele>241</ele>
        <time>2010-05-21T14:46:04Z</time>
      </trkpt>
      <trkpt lat="47.16846" lon="5.56669">
        <ele>241</ele>
        <time>2010-05-21T14:46:06Z</time>
      </trkpt>
      <trkpt lat="47.16832" lon="5.56654">
        <ele>241</ele>
        <time>2010-05-21T14:46:08Z</time>
      </trkpt>
      <trkpt lat="47.16818" lon="5.56638">
        <ele>241</ele>
        <time>2010-05-21T14:46:10Z</time>
      </trkpt>
      <trkpt lat="47.16803" lon="5.56625">
        <ele>241</ele>
        <time>2010-05-21T14:46:12Z</time>
      </trkpt>
      <trkpt lat="47.16795" lon="5.56618">
        <ele>241</ele>
        <time>2010-05-21T14:46:13Z</time>
      </trkpt>
      <trkpt lat="47.16787" lon="5.56611">
        <ele>241</ele>
        <time>2010-05-21T14:46:14Z</time>
      </trkpt>
      <trkpt lat="47.16779" lon="5.56605">
        <ele>241</ele>
        <time>2010-05-21T14:46:15Z</time>
      </trkpt>
      <trkpt lat="47.16771" lon="5.56599">
        <ele>241</ele>
        <time>2010-05-21T14:46:16Z</time>
      </trkpt>
      <trkpt lat="47.16763" lon="5.56592">
        <ele>241</ele>
        <time>2010-05-21T14:46:17Z</time>
      </trkpt>
      <trkpt lat="47.16755" lon="5.56585">
        <ele>241</ele>
        <time>2010-05-21T14:46:18Z</time>
      </trkpt>
      <trkpt lat="47.16745" lon="5.56579">
        <ele>241</ele>
        <time>2010-05-21T14:46:19Z</time>
      </trkpt>
      <trkpt lat="47.16737" lon="5.56573">
        <ele>235</ele>
        <time>2010-05-21T14:46:20Z</time>
      </trkpt>
      <trkpt lat="47.16728" lon="5.56567">
        <ele>235</ele>
        <time>2010-05-21T14:46:21Z</time>
      </trkpt>
      <trkpt lat="47.16719" lon="5.5656">
        <ele>235</ele>
        <time>2010-05-21T14:46:22Z</time>
      </trkpt>
      <trkpt lat="47.16711" lon="5.56554">
        <ele>235</ele>
        <time>2010-05-21T14:46:23Z</time>
      </trkpt>
      <trkpt lat="47.16696" lon="5.56544">
        <ele>235</ele>
        <time>2010-05-21T14:46:25Z</time>
      </trkpt>
      <trkpt lat="47.16681" lon="5.56535">
        <ele>235</ele>
        <time>2010-05-21T14:46:27Z</time>
      </trkpt>
      <trkpt lat="47.16668" lon="5.56528">
        <ele>235</ele>
        <time>2010-05-21T14:46:29Z</time>
      </trkpt>
      <trkpt lat="47.16658" lon="5.56523">
        <ele>235</ele>
        <time>2010-05-21T14:46:31Z</time>
      </trkpt>
      <trkpt lat="47.1665" lon="5.56515">
        <ele>235</ele>
        <time>2010-05-21T14:46:35Z</time>
      </trkpt>
      <trkpt lat="47.16639" lon="5.56514">
        <ele>235</ele>
        <time>2010-05-21T14:47:57Z</time>
      </trkpt>
      <trkpt lat="47.1663" lon="5.56514">
        <ele>235</ele>
        <time>2010-05-21T14:48:00Z</time>
      </trkpt>
      <trkpt lat="47.16619" lon="5.56516">
        <ele>235</ele>
        <time>2010-05-21T14:48:03Z</time>
      </trkpt>
      <trkpt lat="47.16606" lon="5.56518">
        <ele>235</ele>
        <time>2010-05-21T14:48:06Z</time>
      </trkpt>
      <trkpt lat="47.16597" lon="5.5652">
        <ele>235</ele>
        <time>2010-05-21T14:48:08Z</time>
      </trkpt>
      <trkpt lat="47.16586" lon="5.5652">
        <ele>235</ele>
        <time>2010-05-21T14:48:10Z</time>
      </trkpt>
      <trkpt lat="47.16575" lon="5.56518">
        <ele>229</ele>
        <time>2010-05-21T14:48:12Z</time>
      </trkpt>
      <trkpt lat="47.16565" lon="5.56513">
        <ele>229</ele>
        <time>2010-05-21T14:48:14Z</time>
      </trkpt>
      <trkpt lat="47.16554" lon="5.56506">
        <ele>229</ele>
        <time>2010-05-21T14:48:16Z</time>
      </trkpt>
      <trkpt lat="47.16543" lon="5.56502">
        <ele>229</ele>
        <time>2010-05-21T14:48:18Z</time>
      </trkpt>
      <trkpt lat="47.16531" lon="5.56496">
        <ele>229</ele>
        <time>2010-05-21T14:48:20Z</time>
      </trkpt>
      <trkpt lat="47.16519" lon="5.56489">
        <ele>229</ele>
        <time>2010-05-21T14:48:22Z</time>
      </trkpt>
      <trkpt lat="47.16507" lon="5.56484">
        <ele>229</ele>
        <time>2010-05-21T14:48:24Z</time>
      </trkpt>
      <trkpt lat="47.16497" lon="5.56479">
        <ele>229</ele>
        <time>2010-05-21T14:48:26Z</time>
      </trkpt>
      <trkpt lat="47.16486" lon="5.56476">
        <ele>229</ele>
        <time>2010-05-21T14:48:28Z</time>
      </trkpt>
      <trkpt lat="47.16475" lon="5.56473">
        <ele>229</ele>
        <time>2010-05-21T14:48:30Z</time>
      </trkpt>
      <trkpt lat="47.16463" lon="5.56473">
        <ele>229</ele>
        <time>2010-05-21T14:48:32Z</time>
      </trkpt>
      <trkpt lat="47.16452" lon="5.56478">
        <ele>229</ele>
        <time>2010-05-21T14:48:34Z</time>
      </trkpt>
      <trkpt lat="47.16442" lon="5.56483">
        <ele>229</ele>
        <time>2010-05-21T14:48:36Z</time>
      </trkpt>
      <trkpt lat="47.16429" lon="5.56486">
        <ele>229</ele>
        <time>2010-05-21T14:48:38Z</time>
      </trkpt>
      <trkpt lat="47.16418" lon="5.56483">
        <ele>229</ele>
        <time>2010-05-21T14:48:40Z</time>
      </trkpt>
      <trkpt lat="47.16404" lon="5.56477">
        <ele>229</ele>
        <time>2010-05-21T14:48:42Z</time>
      </trkpt>
      <trkpt lat="47.16387" lon="5.56471">
        <ele>229</ele>
        <time>2010-05-21T14:48:44Z</time>
      </trkpt>
      <trkpt lat="47.16378" lon="5.56469">
        <ele>229</ele>
        <time>2010-05-21T14:48:45Z</time>
      </trkpt>
      <trkpt lat="47.16369" lon="5.56464">
        <ele>229</ele>
        <time>2010-05-21T14:48:46Z</time>
      </trkpt>
      <trkpt lat="47.16361" lon="5.56461">
        <ele>229</ele>
        <time>2010-05-21T14:48:47Z</time>
      </trkpt>
      <trkpt lat="47.16344" lon="5.56457">
        <ele>229</ele>
        <time>2010-05-21T14:48:49Z</time>
      </trkpt>
      <trkpt lat="47.16326" lon="5.56456">
        <ele>229</ele>
        <time>2010-05-21T14:48:51Z</time>
      </trkpt>
      <trkpt lat="47.1631" lon="5.56457">
        <ele>229</ele>
        <time>2010-05-21T14:48:53Z</time>
      </trkpt>
      <trkpt lat="47.16295" lon="5.56457">
        <ele>229</ele>
        <time>2010-05-21T14:48:55Z</time>
      </trkpt>
      <trkpt lat="47.1628" lon="5.56458">
        <ele>229</ele>
        <time>2010-05-21T14:48:57Z</time>
      </trkpt>
      <trkpt lat="47.16265" lon="5.56459">
        <ele>229</ele>
        <time>2010-05-21T14:48:59Z</time>
      </trkpt>
      <trkpt lat="47.16252" lon="5.56461">
        <ele>229</ele>
        <time>2010-05-21T14:49:01Z</time>
      </trkpt>
      <trkpt lat="47.16238" lon="5.56463">
        <ele>229</ele>
        <time>2010-05-21T14:49:03Z</time>
      </trkpt>
      <trkpt lat="47.16225" lon="5.56468">
        <ele>229</ele>
        <time>2010-05-21T14:49:05Z</time>
      </trkpt>
      <trkpt lat="47.16214" lon="5.56472">
        <ele>229</ele>
        <time>2010-05-21T14:49:07Z</time>
      </trkpt>
      <trkpt lat="47.16203" lon="5.56478">
        <ele>229</ele>
        <time>2010-05-21T14:49:09Z</time>
      </trkpt>
      <trkpt lat="47.16192" lon="5.56482">
        <ele>229</ele>
        <time>2010-05-21T14:49:11Z</time>
      </trkpt>
      <trkpt lat="47.16182" lon="5.56486">
        <ele>229</ele>
        <time>2010-05-21T14:49:13Z</time>
      </trkpt>
      <trkpt lat="47.16173" lon="5.56489">
        <ele>229</ele>
        <time>2010-05-21T14:49:15Z</time>
      </trkpt>
      <trkpt lat="47.16163" lon="5.56494">
        <ele>229</ele>
        <time>2010-05-21T14:49:17Z</time>
      </trkpt>
      <trkpt lat="47.16154" lon="5.56498">
        <ele>229</ele>
        <time>2010-05-21T14:49:19Z</time>
      </trkpt>
      <trkpt lat="47.16144" lon="5.56505">
        <ele>229</ele>
        <time>2010-05-21T14:49:21Z</time>
      </trkpt>
      <trkpt lat="47.16136" lon="5.5651">
        <ele>234</ele>
        <time>2010-05-21T14:49:23Z</time>
      </trkpt>
      <trkpt lat="47.16127" lon="5.56516">
        <ele>234</ele>
        <time>2010-05-21T14:49:25Z</time>
      </trkpt>
      <trkpt lat="47.16116" lon="5.56526">
        <ele>234</ele>
        <time>2010-05-21T14:49:28Z</time>
      </trkpt>
      <trkpt lat="47.16106" lon="5.56537">
        <ele>241</ele>
        <time>2010-05-21T14:49:31Z</time>
      </trkpt>
      <trkpt lat="47.16097" lon="5.56551">
        <ele>241</ele>
        <time>2010-05-21T14:49:34Z</time>
      </trkpt>
      <trkpt lat="47.16091" lon="5.56561">
        <ele>241</ele>
        <time>2010-05-21T14:49:36Z</time>
      </trkpt>
      <trkpt lat="47.16085" lon="5.56571">
        <ele>241</ele>
        <time>2010-05-21T14:49:38Z</time>
      </trkpt>
      <trkpt lat="47.16079" lon="5.56582">
        <ele>241</ele>
        <time>2010-05-21T14:49:40Z</time>
      </trkpt>
      <trkpt lat="47.16072" lon="5.56593">
        <ele>247</ele>
        <time>2010-05-21T14:49:42Z</time>
      </trkpt>
      <trkpt lat="47.16065" lon="5.56603">
        <ele>247</ele>
        <time>2010-05-21T14:49:44Z</time>
      </trkpt>
      <trkpt lat="47.16057" lon="5.56612">
        <ele>247</ele>
        <time>2010-05-21T14:49:46Z</time>
      </trkpt>
      <trkpt lat="47.16048" lon="5.56621">
        <ele>247</ele>
        <time>2010-05-21T14:49:48Z</time>
      </trkpt>
      <trkpt lat="47.16038" lon="5.5663">
        <ele>247</ele>
        <time>2010-05-21T14:49:50Z</time>
      </trkpt>
      <trkpt lat="47.16028" lon="5.56638">
        <ele>247</ele>
        <time>2010-05-21T14:49:52Z</time>
      </trkpt>
      <trkpt lat="47.16017" lon="5.56644">
        <ele>247</ele>
        <time>2010-05-21T14:49:54Z</time>
      </trkpt>
      <trkpt lat="47.16006" lon="5.5665">
        <ele>247</ele>
        <time>2010-05-21T14:49:56Z</time>
      </trkpt>
      <trkpt lat="47.15994" lon="5.56655">
        <ele>247</ele>
        <time>2010-05-21T14:49:58Z</time>
      </trkpt>
      <trkpt lat="47.15983" lon="5.56659">
        <ele>247</ele>
        <time>2010-05-21T14:50:00Z</time>
      </trkpt>
      <trkpt lat="47.15972" lon="5.56662">
        <ele>241</ele>
        <time>2010-05-21T14:50:02Z</time>
      </trkpt>
      <trkpt lat="47.15961" lon="5.56664">
        <ele>241</ele>
        <time>2010-05-21T14:50:04Z</time>
      </trkpt>
      <trkpt lat="47.15951" lon="5.56665">
        <ele>241</ele>
        <time>2010-05-21T14:50:06Z</time>
      </trkpt>
      <trkpt lat="47.1594" lon="5.56665">
        <ele>241</ele>
        <time>2010-05-21T14:50:08Z</time>
      </trkpt>
      <trkpt lat="47.1593" lon="5.56665">
        <ele>241</ele>
        <time>2010-05-21T14:50:10Z</time>
      </trkpt>
      <trkpt lat="47.15919" lon="5.56664">
        <ele>241</ele>
        <time>2010-05-21T14:50:12Z</time>
      </trkpt>
      <trkpt lat="47.15908" lon="5.56662">
        <ele>241</ele>
        <time>2010-05-21T14:50:14Z</time>
      </trkpt>
      <trkpt lat="47.15898" lon="5.56661">
        <ele>241</ele>
        <time>2010-05-21T14:50:16Z</time>
      </trkpt>
      <trkpt lat="47.15888" lon="5.56659">
        <ele>241</ele>
        <time>2010-05-21T14:50:18Z</time>
      </trkpt>
      <trkpt lat="47.15876" lon="5.56657">
        <ele>241</ele>
        <time>2010-05-21T14:50:20Z</time>
      </trkpt>
      <trkpt lat="47.15864" lon="5.56655">
        <ele>236</ele>
        <time>2010-05-21T14:50:22Z</time>
      </trkpt>
      <trkpt lat="47.1585" lon="5.56653">
        <ele>236</ele>
        <time>2010-05-21T14:50:24Z</time>
      </trkpt>
      <trkpt lat="47.15837" lon="5.5665">
        <ele>236</ele>
        <time>2010-05-21T14:50:26Z</time>
      </trkpt>
      <trkpt lat="47.15823" lon="5.56648">
        <ele>236</ele>
        <time>2010-05-21T14:50:28Z</time>
      </trkpt>
      <trkpt lat="47.15808" lon="5.56646">
        <ele>236</ele>
        <time>2010-05-21T14:50:30Z</time>
      </trkpt>
      <trkpt lat="47.15793" lon="5.56643">
        <ele>236</ele>
        <time>2010-05-21T14:50:32Z</time>
      </trkpt>
      <trkpt lat="47.15777" lon="5.5664">
        <ele>236</ele>
        <time>2010-05-21T14:50:34Z</time>
      </trkpt>
      <trkpt lat="47.1576" lon="5.56638">
        <ele>236</ele>
        <time>2010-05-21T14:50:36Z</time>
      </trkpt>
      <trkpt lat="47.15743" lon="5.56635">
        <ele>236</ele>
        <time>2010-05-21T14:50:38Z</time>
      </trkpt>
      <trkpt lat="47.15725" lon="5.56633">
        <ele>230</ele>
        <time>2010-05-21T14:50:40Z</time>
      </trkpt>
      <trkpt lat="47.15716" lon="5.56632">
        <ele>230</ele>
        <time>2010-05-21T14:50:41Z</time>
      </trkpt>
      <trkpt lat="47.15707" lon="5.56632">
        <ele>230</ele>
        <time>2010-05-21T14:50:42Z</time>
      </trkpt>
      <trkpt lat="47.15698" lon="5.56631">
        <ele>230</ele>
        <time>2010-05-21T14:50:43Z</time>
      </trkpt>
      <trkpt lat="47.15688" lon="5.56632">
        <ele>230</ele>
        <time>2010-05-21T14:50:44Z</time>
      </trkpt>
      <trkpt lat="47.15679" lon="5.56632">
        <ele>230</ele>
        <time>2010-05-21T14:50:45Z</time>
      </trkpt>
      <trkpt lat="47.15669" lon="5.56633">
        <ele>230</ele>
        <time>2010-05-21T14:50:46Z</time>
      </trkpt>
      <trkpt lat="47.1566" lon="5.56634">
        <ele>230</ele>
        <time>2010-05-21T14:50:47Z</time>
      </trkpt>
      <trkpt lat="47.1565" lon="5.56635">
        <ele>230</ele>
        <time>2010-05-21T14:50:48Z</time>
      </trkpt>
      <trkpt lat="47.1564" lon="5.56637">
        <ele>230</ele>
        <time>2010-05-21T14:50:49Z</time>
      </trkpt>
      <trkpt lat="47.1563" lon="5.56638">
        <ele>230</ele>
        <time>2010-05-21T14:50:50Z</time>
      </trkpt>
      <trkpt lat="47.15621" lon="5.56639">
        <ele>230</ele>
        <time>2010-05-21T14:50:51Z</time>
      </trkpt>
      <trkpt lat="47.15611" lon="5.56641">
        <ele>230</ele>
        <time>2010-05-21T14:50:52Z</time>
      </trkpt>
      <trkpt lat="47.15602" lon="5.56643">
        <ele>230</ele>
        <time>2010-05-21T14:50:53Z</time>
      </trkpt>
      <trkpt lat="47.15592" lon="5.56644">
        <ele>230</ele>
        <time>2010-05-21T14:50:54Z</time>
      </trkpt>
      <trkpt lat="47.15575" lon="5.56646">
        <ele>230</ele>
        <time>2010-05-21T14:50:56Z</time>
      </trkpt>
      <trkpt lat="47.15565" lon="5.56646">
        <ele>230</ele>
        <time>2010-05-21T14:50:57Z</time>
      </trkpt>
      <trkpt lat="47.15548" lon="5.56646">
        <ele>230</ele>
        <time>2010-05-21T14:50:59Z</time>
      </trkpt>
      <trkpt lat="47.1553" lon="5.56645">
        <ele>230</ele>
        <time>2010-05-21T14:51:01Z</time>
      </trkpt>
      <trkpt lat="47.15514" lon="5.56643">
        <ele>230</ele>
        <time>2010-05-21T14:51:03Z</time>
      </trkpt>
      <trkpt lat="47.15497" lon="5.56641">
        <ele>230</ele>
        <time>2010-05-21T14:51:05Z</time>
      </trkpt>
      <trkpt lat="47.15481" lon="5.56638">
        <ele>230</ele>
        <time>2010-05-21T14:51:07Z</time>
      </trkpt>
      <trkpt lat="47.15465" lon="5.56637">
        <ele>230</ele>
        <time>2010-05-21T14:51:09Z</time>
      </trkpt>
      <trkpt lat="47.15449" lon="5.56635">
        <ele>230</ele>
        <time>2010-05-21T14:51:11Z</time>
      </trkpt>
      <trkpt lat="47.15434" lon="5.56633">
        <ele>230</ele>
        <time>2010-05-21T14:51:13Z</time>
      </trkpt>
      <trkpt lat="47.15418" lon="5.56631">
        <ele>230</ele>
        <time>2010-05-21T14:51:15Z</time>
      </trkpt>
      <trkpt lat="47.15403" lon="5.56629">
        <ele>230</ele>
        <time>2010-05-21T14:51:17Z</time>
      </trkpt>
      <trkpt lat="47.15388" lon="5.56628">
        <ele>230</ele>
        <time>2010-05-21T14:51:19Z</time>
      </trkpt>
      <trkpt lat="47.15373" lon="5.56626">
        <ele>230</ele>
        <time>2010-05-21T14:51:21Z</time>
      </trkpt>
      <trkpt lat="47.15358" lon="5.56623">
        <ele>230</ele>
        <time>2010-05-21T14:51:23Z</time>
      </trkpt>
      <trkpt lat="47.15344" lon="5.56621">
        <ele>230</ele>
        <time>2010-05-21T14:51:25Z</time>
      </trkpt>
      <trkpt lat="47.15329" lon="5.5662">
        <ele>230</ele>
        <time>2010-05-21T14:51:27Z</time>
      </trkpt>
      <trkpt lat="47.15315" lon="5.56619">
        <ele>230</ele>
        <time>2010-05-21T14:51:29Z</time>
      </trkpt>
      <trkpt lat="47.15301" lon="5.56617">
        <ele>230</ele>
        <time>2010-05-21T14:51:31Z</time>
      </trkpt>
      <trkpt lat="47.15288" lon="5.56615">
        <ele>230</ele>
        <time>2010-05-21T14:51:33Z</time>
      </trkpt>
      <trkpt lat="47.15274" lon="5.56613">
        <ele>230</ele>
        <time>2010-05-21T14:51:35Z</time>
      </trkpt>
      <trkpt lat="47.15261" lon="5.56611">
        <ele>230</ele>
        <time>2010-05-21T14:51:37Z</time>
      </trkpt>
      <trkpt lat="47.15247" lon="5.56611">
        <ele>230</ele>
        <time>2010-05-21T14:51:39Z</time>
      </trkpt>
      <trkpt lat="47.15232" lon="5.56608">
        <ele>230</ele>
        <time>2010-05-21T14:51:41Z</time>
      </trkpt>
      <trkpt lat="47.15217" lon="5.56603">
        <ele>230</ele>
        <time>2010-05-21T14:51:43Z</time>
      </trkpt>
      <trkpt lat="47.15201" lon="5.566">
        <ele>230</ele>
        <time>2010-05-21T14:51:45Z</time>
      </trkpt>
      <trkpt lat="47.15185" lon="5.56595">
        <ele>230</ele>
        <time>2010-05-21T14:51:47Z</time>
      </trkpt>
      <trkpt lat="47.1517" lon="5.56591">
        <ele>230</ele>
        <time>2010-05-21T14:51:49Z</time>
      </trkpt>
      <trkpt lat="47.15155" lon="5.56586">
        <ele>230</ele>
        <time>2010-05-21T14:51:51Z</time>
      </trkpt>
      <trkpt lat="47.1514" lon="5.56582">
        <ele>230</ele>
        <time>2010-05-21T14:51:53Z</time>
      </trkpt>
      <trkpt lat="47.15124" lon="5.56578">
        <ele>230</ele>
        <time>2010-05-21T14:51:55Z</time>
      </trkpt>
      <trkpt lat="47.15107" lon="5.56574">
        <ele>230</ele>
        <time>2010-05-21T14:51:57Z</time>
      </trkpt>
      <trkpt lat="47.1509" lon="5.5657">
        <ele>230</ele>
        <time>2010-05-21T14:51:59Z</time>
      </trkpt>
      <trkpt lat="47.15074" lon="5.56567">
        <ele>230</ele>
        <time>2010-05-21T14:52:01Z</time>
      </trkpt>
      <trkpt lat="47.15057" lon="5.56565">
        <ele>230</ele>
        <time>2010-05-21T14:52:03Z</time>
      </trkpt>
      <trkpt lat="47.15041" lon="5.56563">
        <ele>230</ele>
        <time>2010-05-21T14:52:05Z</time>
      </trkpt>
      <trkpt lat="47.15025" lon="5.56562">
        <ele>230</ele>
        <time>2010-05-21T14:52:07Z</time>
      </trkpt>
      <trkpt lat="47.15009" lon="5.56562">
        <ele>230</ele>
        <time>2010-05-21T14:52:09Z</time>
      </trkpt>
      <trkpt lat="47.14993" lon="5.56563">
        <ele>230</ele>
        <time>2010-05-21T14:52:11Z</time>
      </trkpt>
      <trkpt lat="47.14976" lon="5.56566">
        <ele>230</ele>
        <time>2010-05-21T14:52:13Z</time>
      </trkpt>
      <trkpt lat="47.1496" lon="5.56567">
        <ele>230</ele>
        <time>2010-05-21T14:52:15Z</time>
      </trkpt>
      <trkpt lat="47.14943" lon="5.56568">
        <ele>230</ele>
        <time>2010-05-21T14:52:17Z</time>
      </trkpt>
      <trkpt lat="47.14926" lon="5.56568">
        <ele>230</ele>
        <time>2010-05-21T14:52:19Z</time>
      </trkpt>
      <trkpt lat="47.14908" lon="5.56567">
        <ele>230</ele>
        <time>2010-05-21T14:52:21Z</time>
      </trkpt>
      <trkpt lat="47.14889" lon="5.56565">
        <ele>230</ele>
        <time>2010-05-21T14:52:23Z</time>
      </trkpt>
      <trkpt lat="47.1488" lon="5.56563">
        <ele>230</ele>
        <time>2010-05-21T14:52:24Z</time>
      </trkpt>
      <trkpt lat="47.1487" lon="5.56561">
        <ele>230</ele>
        <time>2010-05-21T14:52:25Z</time>
      </trkpt>
      <trkpt lat="47.14861" lon="5.56558">
        <ele>230</ele>
        <time>2010-05-21T14:52:26Z</time>
      </trkpt>
      <trkpt lat="47.14851" lon="5.56556">
        <ele>230</ele>
        <time>2010-05-21T14:52:27Z</time>
      </trkpt>
      <trkpt lat="47.14841" lon="5.56552">
        <ele>230</ele>
        <time>2010-05-21T14:52:28Z</time>
      </trkpt>
      <trkpt lat="47.14831" lon="5.56549">
        <ele>230</ele>
        <time>2010-05-21T14:52:29Z</time>
      </trkpt>
      <trkpt lat="47.14821" lon="5.56545">
        <ele>230</ele>
        <time>2010-05-21T14:52:30Z</time>
      </trkpt>
      <trkpt lat="47.14812" lon="5.56541">
        <ele>230</ele>
        <time>2010-05-21T14:52:31Z</time>
      </trkpt>
      <trkpt lat="47.14802" lon="5.56537">
        <ele>230</ele>
        <time>2010-05-21T14:52:32Z</time>
      </trkpt>
      <trkpt lat="47.14792" lon="5.56533">
        <ele>230</ele>
        <time>2010-05-21T14:52:33Z</time>
      </trkpt>
      <trkpt lat="47.14782" lon="5.56531">
        <ele>230</ele>
        <time>2010-05-21T14:52:34Z</time>
      </trkpt>
      <trkpt lat="47.14772" lon="5.56527">
        <ele>230</ele>
        <time>2010-05-21T14:52:35Z</time>
      </trkpt>
      <trkpt lat="47.14762" lon="5.56524">
        <ele>230</ele>
        <time>2010-05-21T14:52:36Z</time>
      </trkpt>
      <trkpt lat="47.14752" lon="5.56522">
        <ele>230</ele>
        <time>2010-05-21T14:52:37Z</time>
      </trkpt>
      <trkpt lat="47.14741" lon="5.56519">
        <ele>230</ele>
        <time>2010-05-21T14:52:38Z</time>
      </trkpt>
      <trkpt lat="47.14731" lon="5.56517">
        <ele>230</ele>
        <time>2010-05-21T14:52:39Z</time>
      </trkpt>
      <trkpt lat="47.14721" lon="5.56514">
        <ele>230</ele>
        <time>2010-05-21T14:52:40Z</time>
      </trkpt>
      <trkpt lat="47.14711" lon="5.56513">
        <ele>230</ele>
        <time>2010-05-21T14:52:41Z</time>
      </trkpt>
      <trkpt lat="47.14701" lon="5.56511">
        <ele>230</ele>
        <time>2010-05-21T14:52:42Z</time>
      </trkpt>
      <trkpt lat="47.14691" lon="5.56509">
        <ele>230</ele>
        <time>2010-05-21T14:52:43Z</time>
      </trkpt>
      <trkpt lat="47.14682" lon="5.56508">
        <ele>230</ele>
        <time>2010-05-21T14:52:44Z</time>
      </trkpt>
      <trkpt lat="47.14673" lon="5.56506">
        <ele>230</ele>
        <time>2010-05-21T14:52:45Z</time>
      </trkpt>
      <trkpt lat="47.14664" lon="5.56505">
        <ele>230</ele>
        <time>2010-05-21T14:52:46Z</time>
      </trkpt>
      <trkpt lat="47.14646" lon="5.56503">
        <ele>230</ele>
        <time>2010-05-21T14:52:48Z</time>
      </trkpt>
      <trkpt lat="47.1463" lon="5.565">
        <ele>230</ele>
        <time>2010-05-21T14:52:50Z</time>
      </trkpt>
      <trkpt lat="47.14614" lon="5.56498">
        <ele>230</ele>
        <time>2010-05-21T14:52:52Z</time>
      </trkpt>
      <trkpt lat="47.14598" lon="5.56496">
        <ele>230</ele>
        <time>2010-05-21T14:52:54Z</time>
      </trkpt>
      <trkpt lat="47.14582" lon="5.56495">
        <ele>230</ele>
        <time>2010-05-21T14:52:56Z</time>
      </trkpt>
      <trkpt lat="47.14567" lon="5.56494">
        <ele>230</ele>
        <time>2010-05-21T14:52:58Z</time>
      </trkpt>
      <trkpt lat="47.14552" lon="5.56494">
        <ele>230</ele>
        <time>2010-05-21T14:53:00Z</time>
      </trkpt>
      <trkpt lat="47.14538" lon="5.56494">
        <ele>230</ele>
        <time>2010-05-21T14:53:02Z</time>
      </trkpt>
      <trkpt lat="47.14525" lon="5.56495">
        <ele>230</ele>
        <time>2010-05-21T14:53:04Z</time>
      </trkpt>
      <trkpt lat="47.14513" lon="5.56496">
        <ele>230</ele>
        <time>2010-05-21T14:53:06Z</time>
      </trkpt>
      <trkpt lat="47.145" lon="5.56496">
        <ele>230</ele>
        <time>2010-05-21T14:53:08Z</time>
      </trkpt>
      <trkpt lat="47.14491" lon="5.56496">
        <ele>230</ele>
        <time>2010-05-21T14:53:10Z</time>
      </trkpt>
      <trkpt lat="47.14481" lon="5.56497">
        <ele>230</ele>
        <time>2010-05-21T14:53:13Z</time>
      </trkpt>
      <trkpt lat="47.14471" lon="5.56492">
        <ele>230</ele>
        <time>2010-05-21T14:53:24Z</time>
      </trkpt>
      <trkpt lat="47.14468" lon="5.56477">
        <ele>230</ele>
        <time>2010-05-21T14:53:30Z</time>
      </trkpt>
      <trkpt lat="47.14467" lon="5.56462">
        <ele>230</ele>
        <time>2010-05-21T14:53:34Z</time>
      </trkpt>
      <trkpt lat="47.14467" lon="5.56448">
        <ele>230</ele>
        <time>2010-05-21T14:53:38Z</time>
      </trkpt>
      <trkpt lat="47.14467" lon="5.56433">
        <ele>230</ele>
        <time>2010-05-21T14:53:42Z</time>
      </trkpt>
      <trkpt lat="47.14466" lon="5.56416">
        <ele>230</ele>
        <time>2010-05-21T14:53:46Z</time>
      </trkpt>
      <trkpt lat="47.14465" lon="5.56397">
        <ele>230</ele>
        <time>2010-05-21T14:53:49Z</time>
      </trkpt>
      <trkpt lat="47.14465" lon="5.56382">
        <ele>230</ele>
        <time>2010-05-21T14:53:51Z</time>
      </trkpt>
      <trkpt lat="47.14467" lon="5.56365">
        <ele>230</ele>
        <time>2010-05-21T14:53:53Z</time>
      </trkpt>
      <trkpt lat="47.14469" lon="5.56348">
        <ele>230</ele>
        <time>2010-05-21T14:53:55Z</time>
      </trkpt>
      <trkpt lat="47.14473" lon="5.56332">
        <ele>230</ele>
        <time>2010-05-21T14:53:57Z</time>
      </trkpt>
      <trkpt lat="47.14478" lon="5.56314">
        <ele>230</ele>
        <time>2010-05-21T14:53:59Z</time>
      </trkpt>
      <trkpt lat="47.14486" lon="5.56295">
        <ele>230</ele>
        <time>2010-05-21T14:54:01Z</time>
      </trkpt>
      <trkpt lat="47.14494" lon="5.56275">
        <ele>225</ele>
        <time>2010-05-21T14:54:03Z</time>
      </trkpt>
      <trkpt lat="47.145" lon="5.56264">
        <ele>225</ele>
        <time>2010-05-21T14:54:04Z</time>
      </trkpt>
      <trkpt lat="47.14505" lon="5.56252">
        <ele>225</ele>
        <time>2010-05-21T14:54:05Z</time>
      </trkpt>
      <trkpt lat="47.14515" lon="5.56231">
        <ele>225</ele>
        <time>2010-05-21T14:54:07Z</time>
      </trkpt>
      <trkpt lat="47.14525" lon="5.56209">
        <ele>225</ele>
        <time>2010-05-21T14:54:09Z</time>
      </trkpt>
      <trkpt lat="47.14531" lon="5.56198">
        <ele>225</ele>
        <time>2010-05-21T14:54:10Z</time>
      </trkpt>
      <trkpt lat="47.14536" lon="5.56187">
        <ele>225</ele>
        <time>2010-05-21T14:54:11Z</time>
      </trkpt>
      <trkpt lat="47.14547" lon="5.56167">
        <ele>225</ele>
        <time>2010-05-21T14:54:13Z</time>
      </trkpt>
      <trkpt lat="47.14552" lon="5.56156">
        <ele>225</ele>
        <time>2010-05-21T14:54:14Z</time>
      </trkpt>
      <trkpt lat="47.14563" lon="5.56134">
        <ele>219</ele>
        <time>2010-05-21T14:54:16Z</time>
      </trkpt>
      <trkpt lat="47.14568" lon="5.56124">
        <ele>219</ele>
        <time>2010-05-21T14:54:17Z</time>
      </trkpt>
      <trkpt lat="47.14573" lon="5.56112">
        <ele>219</ele>
        <time>2010-05-21T14:54:18Z</time>
      </trkpt>
      <trkpt lat="47.14578" lon="5.561">
        <ele>219</ele>
        <time>2010-05-21T14:54:19Z</time>
      </trkpt>
      <trkpt lat="47.14584" lon="5.56089">
        <ele>219</ele>
        <time>2010-05-21T14:54:20Z</time>
      </trkpt>
      <trkpt lat="47.14589" lon="5.56077">
        <ele>219</ele>
        <time>2010-05-21T14:54:21Z</time>
      </trkpt>
      <trkpt lat="47.14598" lon="5.56055">
        <ele>219</ele>
        <time>2010-05-21T14:54:23Z</time>
      </trkpt>
      <trkpt lat="47.14608" lon="5.56034">
        <ele>219</ele>
        <time>2010-05-21T14:54:25Z</time>
      </trkpt>
      <trkpt lat="47.14617" lon="5.56012">
        <ele>219</ele>
        <time>2010-05-21T14:54:27Z</time>
      </trkpt>
      <trkpt lat="47.14625" lon="5.55991">
        <ele>219</ele>
        <time>2010-05-21T14:54:29Z</time>
      </trkpt>
      <trkpt lat="47.14631" lon="5.55969">
        <ele>219</ele>
        <time>2010-05-21T14:54:31Z</time>
      </trkpt>
      <trkpt lat="47.14638" lon="5.55948">
        <ele>219</ele>
        <time>2010-05-21T14:54:33Z</time>
      </trkpt>
      <trkpt lat="47.14644" lon="5.55925">
        <ele>219</ele>
        <time>2010-05-21T14:54:35Z</time>
      </trkpt>
      <trkpt lat="47.1465" lon="5.55903">
        <ele>219</ele>
        <time>2010-05-21T14:54:37Z</time>
      </trkpt>
      <trkpt lat="47.14657" lon="5.5588">
        <ele>219</ele>
        <time>2010-05-21T14:54:39Z</time>
      </trkpt>
      <trkpt lat="47.14663" lon="5.55858">
        <ele>219</ele>
        <time>2010-05-21T14:54:41Z</time>
      </trkpt>
      <trkpt lat="47.14669" lon="5.55836">
        <ele>219</ele>
        <time>2010-05-21T14:54:43Z</time>
      </trkpt>
      <trkpt lat="47.14675" lon="5.55815">
        <ele>219</ele>
        <time>2010-05-21T14:54:45Z</time>
      </trkpt>
      <trkpt lat="47.14682" lon="5.55794">
        <ele>219</ele>
        <time>2010-05-21T14:54:47Z</time>
      </trkpt>
      <trkpt lat="47.14688" lon="5.55774">
        <ele>219</ele>
        <time>2010-05-21T14:54:49Z</time>
      </trkpt>
      <trkpt lat="47.14695" lon="5.55755">
        <ele>219</ele>
        <time>2010-05-21T14:54:51Z</time>
      </trkpt>
      <trkpt lat="47.14701" lon="5.55738">
        <ele>219</ele>
        <time>2010-05-21T14:54:53Z</time>
      </trkpt>
      <trkpt lat="47.14707" lon="5.55721">
        <ele>219</ele>
        <time>2010-05-21T14:54:55Z</time>
      </trkpt>
      <trkpt lat="47.1471" lon="5.55705">
        <ele>219</ele>
        <time>2010-05-21T14:54:57Z</time>
      </trkpt>
      <trkpt lat="47.14713" lon="5.55688">
        <ele>219</ele>
        <time>2010-05-21T14:54:59Z</time>
      </trkpt>
      <trkpt lat="47.14712" lon="5.55671">
        <ele>219</ele>
        <time>2010-05-21T14:55:01Z</time>
      </trkpt>
      <trkpt lat="47.14707" lon="5.55654">
        <ele>219</ele>
        <time>2010-05-21T14:55:03Z</time>
      </trkpt>
      <trkpt lat="47.14701" lon="5.55639">
        <ele>219</ele>
        <time>2010-05-21T14:55:05Z</time>
      </trkpt>
      <trkpt lat="47.14695" lon="5.55622">
        <ele>219</ele>
        <time>2010-05-21T14:55:07Z</time>
      </trkpt>
      <trkpt lat="47.1469" lon="5.55604">
        <ele>219</ele>
        <time>2010-05-21T14:55:09Z</time>
      </trkpt>
      <trkpt lat="47.14687" lon="5.55584">
        <ele>219</ele>
        <time>2010-05-21T14:55:11Z</time>
      </trkpt>
      <trkpt lat="47.14687" lon="5.55562">
        <ele>219</ele>
        <time>2010-05-21T14:55:13Z</time>
      </trkpt>
      <trkpt lat="47.14688" lon="5.55542">
        <ele>219</ele>
        <time>2010-05-21T14:55:15Z</time>
      </trkpt>
      <trkpt lat="47.14691" lon="5.55524">
        <ele>219</ele>
        <time>2010-05-21T14:55:17Z</time>
      </trkpt>
      <trkpt lat="47.14691" lon="5.55505">
        <ele>219</ele>
        <time>2010-05-21T14:55:19Z</time>
      </trkpt>
      <trkpt lat="47.1469" lon="5.55487">
        <ele>219</ele>
        <time>2010-05-21T14:55:21Z</time>
      </trkpt>
      <trkpt lat="47.14686" lon="5.5547">
        <ele>219</ele>
        <time>2010-05-21T14:55:23Z</time>
      </trkpt>
      <trkpt lat="47.14682" lon="5.55452">
        <ele>219</ele>
        <time>2010-05-21T14:55:25Z</time>
      </trkpt>
      <trkpt lat="47.14679" lon="5.55434">
        <ele>219</ele>
        <time>2010-05-21T14:55:27Z</time>
      </trkpt>
      <trkpt lat="47.14677" lon="5.55416">
        <ele>219</ele>
        <time>2010-05-21T14:55:29Z</time>
      </trkpt>
      <trkpt lat="47.14679" lon="5.55395">
        <ele>219</ele>
        <time>2010-05-21T14:55:31Z</time>
      </trkpt>
      <trkpt lat="47.14682" lon="5.55375">
        <ele>219</ele>
        <time>2010-05-21T14:55:33Z</time>
      </trkpt>
      <trkpt lat="47.14684" lon="5.55356">
        <ele>219</ele>
        <time>2010-05-21T14:55:35Z</time>
      </trkpt>
      <trkpt lat="47.14687" lon="5.55337">
        <ele>219</ele>
        <time>2010-05-21T14:55:37Z</time>
      </trkpt>
      <trkpt lat="47.1469" lon="5.55319">
        <ele>219</ele>
        <time>2010-05-21T14:55:39Z</time>
      </trkpt>
      <trkpt lat="47.14694" lon="5.55303">
        <ele>219</ele>
        <time>2010-05-21T14:55:41Z</time>
      </trkpt>
      <trkpt lat="47.14696" lon="5.55289">
        <ele>214</ele>
        <time>2010-05-21T14:55:43Z</time>
      </trkpt>
      <trkpt lat="47.14698" lon="5.5527">
        <ele>214</ele>
        <time>2010-05-21T14:55:46Z</time>
      </trkpt>
      <trkpt lat="47.14699" lon="5.55256">
        <ele>214</ele>
        <time>2010-05-21T14:55:49Z</time>
      </trkpt>
      <trkpt lat="47.14696" lon="5.55243">
        <ele>214</ele>
        <time>2010-05-21T14:55:54Z</time>
      </trkpt>
      <trkpt lat="47.14687" lon="5.5524">
        <ele>214</ele>
        <time>2010-05-21T14:55:56Z</time>
      </trkpt>
      <trkpt lat="47.14677" lon="5.55236">
        <ele>214</ele>
        <time>2010-05-21T14:55:58Z</time>
      </trkpt>
      <trkpt lat="47.14666" lon="5.55231">
        <ele>214</ele>
        <time>2010-05-21T14:56:00Z</time>
      </trkpt>
      <trkpt lat="47.14656" lon="5.55224">
        <ele>214</ele>
        <time>2010-05-21T14:56:02Z</time>
      </trkpt>
      <trkpt lat="47.14646" lon="5.55217">
        <ele>214</ele>
        <time>2010-05-21T14:56:04Z</time>
      </trkpt>
      <trkpt lat="47.14636" lon="5.55207">
        <ele>214</ele>
        <time>2010-05-21T14:56:06Z</time>
      </trkpt>
      <trkpt lat="47.14627" lon="5.55198">
        <ele>214</ele>
        <time>2010-05-21T14:56:08Z</time>
      </trkpt>
      <trkpt lat="47.14617" lon="5.55188">
        <ele>214</ele>
        <time>2010-05-21T14:56:10Z</time>
      </trkpt>
      <trkpt lat="47.14608" lon="5.55176">
        <ele>214</ele>
        <time>2010-05-21T14:56:12Z</time>
      </trkpt>
      <trkpt lat="47.14599" lon="5.55164">
        <ele>214</ele>
        <time>2010-05-21T14:56:14Z</time>
      </trkpt>
      <trkpt lat="47.14591" lon="5.55152">
        <ele>214</ele>
        <time>2010-05-21T14:56:16Z</time>
      </trkpt>
      <trkpt lat="47.14582" lon="5.55141">
        <ele>214</ele>
        <time>2010-05-21T14:56:18Z</time>
      </trkpt>
      <trkpt lat="47.14574" lon="5.55128">
        <ele>214</ele>
        <time>2010-05-21T14:56:20Z</time>
      </trkpt>
      <trkpt lat="47.14566" lon="5.55118">
        <ele>214</ele>
        <time>2010-05-21T14:56:22Z</time>
      </trkpt>
      <trkpt lat="47.1456" lon="5.55108">
        <ele>214</ele>
        <time>2010-05-21T14:56:24Z</time>
      </trkpt>
      <trkpt lat="47.14551" lon="5.55094">
        <ele>214</ele>
        <time>2010-05-21T14:56:27Z</time>
      </trkpt>
      <trkpt lat="47.14543" lon="5.55082">
        <ele>219</ele>
        <time>2010-05-21T14:56:30Z</time>
      </trkpt>
      <trkpt lat="47.14535" lon="5.55067">
        <ele>219</ele>
        <time>2010-05-21T14:56:33Z</time>
      </trkpt>
      <trkpt lat="47.14527" lon="5.55053">
        <ele>219</ele>
        <time>2010-05-21T14:56:36Z</time>
      </trkpt>
      <trkpt lat="47.1452" lon="5.55038">
        <ele>219</ele>
        <time>2010-05-21T14:56:39Z</time>
      </trkpt>
      <trkpt lat="47.14517" lon="5.55021">
        <ele>219</ele>
        <time>2010-05-21T14:56:42Z</time>
      </trkpt>
      <trkpt lat="47.14514" lon="5.55005">
        <ele>219</ele>
        <time>2010-05-21T14:56:45Z</time>
      </trkpt>
      <trkpt lat="47.1451" lon="5.54992">
        <ele>225</ele>
        <time>2010-05-21T14:56:48Z</time>
      </trkpt>
      <trkpt lat="47.14506" lon="5.5498">
        <ele>225</ele>
        <time>2010-05-21T14:56:51Z</time>
      </trkpt>
      <trkpt lat="47.14498" lon="5.54969">
        <ele>225</ele>
        <time>2010-05-21T14:56:54Z</time>
      </trkpt>
      <trkpt lat="47.1449" lon="5.54959">
        <ele>225</ele>
        <time>2010-05-21T14:56:57Z</time>
      </trkpt>
      <trkpt lat="47.14481" lon="5.54951">
        <ele>225</ele>
        <time>2010-05-21T14:57:00Z</time>
      </trkpt>
      <trkpt lat="47.1447" lon="5.54944">
        <ele>225</ele>
        <time>2010-05-21T14:57:03Z</time>
      </trkpt>
      <trkpt lat="47.14459" lon="5.54937">
        <ele>225</ele>
        <time>2010-05-21T14:57:06Z</time>
      </trkpt>
      <trkpt lat="47.14449" lon="5.54929">
        <ele>225</ele>
        <time>2010-05-21T14:57:09Z</time>
      </trkpt>
      <trkpt lat="47.14437" lon="5.54921">
        <ele>225</ele>
        <time>2010-05-21T14:57:12Z</time>
      </trkpt>
      <trkpt lat="47.14426" lon="5.54911">
        <ele>225</ele>
        <time>2010-05-21T14:57:15Z</time>
      </trkpt>
      <trkpt lat="47.14414" lon="5.54902">
        <ele>225</ele>
        <time>2010-05-21T14:57:18Z</time>
      </trkpt>
      <trkpt lat="47.14406" lon="5.54896">
        <ele>225</ele>
        <time>2010-05-21T14:57:20Z</time>
      </trkpt>
      <trkpt lat="47.14398" lon="5.5489">
        <ele>225</ele>
        <time>2010-05-21T14:57:22Z</time>
      </trkpt>
      <trkpt lat="47.1439" lon="5.54883">
        <ele>225</ele>
        <time>2010-05-21T14:57:24Z</time>
      </trkpt>
      <trkpt lat="47.14381" lon="5.54877">
        <ele>225</ele>
        <time>2010-05-21T14:57:26Z</time>
      </trkpt>
      <trkpt lat="47.14372" lon="5.54871">
        <ele>225</ele>
        <time>2010-05-21T14:57:28Z</time>
      </trkpt>
      <trkpt lat="47.14364" lon="5.54865">
        <ele>225</ele>
        <time>2010-05-21T14:57:30Z</time>
      </trkpt>
      <trkpt lat="47.14356" lon="5.54859">
        <ele>225</ele>
        <time>2010-05-21T14:57:32Z</time>
      </trkpt>
      <trkpt lat="47.14347" lon="5.54851">
        <ele>225</ele>
        <time>2010-05-21T14:57:34Z</time>
      </trkpt>
      <trkpt lat="47.14338" lon="5.54844">
        <ele>225</ele>
        <time>2010-05-21T14:57:36Z</time>
      </trkpt>
      <trkpt lat="47.14331" lon="5.54836">
        <ele>225</ele>
        <time>2010-05-21T14:57:38Z</time>
      </trkpt>
      <trkpt lat="47.14323" lon="5.54827">
        <ele>225</ele>
        <time>2010-05-21T14:57:40Z</time>
      </trkpt>
      <trkpt lat="47.14316" lon="5.54815">
        <ele>225</ele>
        <time>2010-05-21T14:57:42Z</time>
      </trkpt>
      <trkpt lat="47.1431" lon="5.54802">
        <ele>230</ele>
        <time>2010-05-21T14:57:44Z</time>
      </trkpt>
      <trkpt lat="47.14304" lon="5.54789">
        <ele>230</ele>
        <time>2010-05-21T14:57:46Z</time>
      </trkpt>
      <trkpt lat="47.14297" lon="5.54775">
        <ele>230</ele>
        <time>2010-05-21T14:57:48Z</time>
      </trkpt>
      <trkpt lat="47.1429" lon="5.54761">
        <ele>230</ele>
        <time>2010-05-21T14:57:50Z</time>
      </trkpt>
      <trkpt lat="47.14283" lon="5.54747">
        <ele>230</ele>
        <time>2010-05-21T14:57:52Z</time>
      </trkpt>
      <trkpt lat="47.14277" lon="5.54732">
        <ele>230</ele>
        <time>2010-05-21T14:57:54Z</time>
      </trkpt>
      <trkpt lat="47.14269" lon="5.54717">
        <ele>230</ele>
        <time>2010-05-21T14:57:56Z</time>
      </trkpt>
      <trkpt lat="47.14261" lon="5.54701">
        <ele>230</ele>
        <time>2010-05-21T14:57:58Z</time>
      </trkpt>
      <trkpt lat="47.14254" lon="5.54685">
        <ele>230</ele>
        <time>2010-05-21T14:58:00Z</time>
      </trkpt>
      <trkpt lat="47.14247" lon="5.54668">
        <ele>230</ele>
        <time>2010-05-21T14:58:02Z</time>
      </trkpt>
      <trkpt lat="47.1424" lon="5.54653">
        <ele>230</ele>
        <time>2010-05-21T14:58:04Z</time>
      </trkpt>
      <trkpt lat="47.14232" lon="5.54637">
        <ele>230</ele>
        <time>2010-05-21T14:58:06Z</time>
      </trkpt>
      <trkpt lat="47.14225" lon="5.5462">
        <ele>230</ele>
        <time>2010-05-21T14:58:08Z</time>
      </trkpt>
      <trkpt lat="47.14217" lon="5.54603">
        <ele>230</ele>
        <time>2010-05-21T14:58:10Z</time>
      </trkpt>
      <trkpt lat="47.14209" lon="5.54586">
        <ele>230</ele>
        <time>2010-05-21T14:58:12Z</time>
      </trkpt>
      <trkpt lat="47.14201" lon="5.54569">
        <ele>230</ele>
        <time>2010-05-21T14:58:14Z</time>
      </trkpt>
      <trkpt lat="47.14193" lon="5.54551">
        <ele>230</ele>
        <time>2010-05-21T14:58:16Z</time>
      </trkpt>
      <trkpt lat="47.14185" lon="5.54533">
        <ele>230</ele>
        <time>2010-05-21T14:58:18Z</time>
      </trkpt>
      <trkpt lat="47.14177" lon="5.54516">
        <ele>230</ele>
        <time>2010-05-21T14:58:20Z</time>
      </trkpt>
      <trkpt lat="47.14169" lon="5.54499">
        <ele>230</ele>
        <time>2010-05-21T14:58:22Z</time>
      </trkpt>
      <trkpt lat="47.14161" lon="5.54481">
        <ele>230</ele>
        <time>2010-05-21T14:58:24Z</time>
      </trkpt>
      <trkpt lat="47.14153" lon="5.54464">
        <ele>230</ele>
        <time>2010-05-21T14:58:26Z</time>
      </trkpt>
      <trkpt lat="47.14145" lon="5.54447">
        <ele>230</ele>
        <time>2010-05-21T14:58:28Z</time>
      </trkpt>
      <trkpt lat="47.14137" lon="5.54432">
        <ele>230</ele>
        <time>2010-05-21T14:58:30Z</time>
      </trkpt>
      <trkpt lat="47.1413" lon="5.54418">
        <ele>230</ele>
        <time>2010-05-21T14:58:32Z</time>
      </trkpt>
      <trkpt lat="47.14124" lon="5.54403">
        <ele>230</ele>
        <time>2010-05-21T14:58:34Z</time>
      </trkpt>
      <trkpt lat="47.14117" lon="5.5439">
        <ele>230</ele>
        <time>2010-05-21T14:58:36Z</time>
      </trkpt>
      <trkpt lat="47.14111" lon="5.54376">
        <ele>230</ele>
        <time>2010-05-21T14:58:38Z</time>
      </trkpt>
      <trkpt lat="47.14105" lon="5.54363">
        <ele>230</ele>
        <time>2010-05-21T14:58:40Z</time>
      </trkpt>
      <trkpt lat="47.14099" lon="5.5435">
        <ele>230</ele>
        <time>2010-05-21T14:58:42Z</time>
      </trkpt>
      <trkpt lat="47.14093" lon="5.54337">
        <ele>230</ele>
        <time>2010-05-21T14:58:44Z</time>
      </trkpt>
      <trkpt lat="47.14088" lon="5.54324">
        <ele>230</ele>
        <time>2010-05-21T14:58:46Z</time>
      </trkpt>
      <trkpt lat="47.14083" lon="5.54312">
        <ele>230</ele>
        <time>2010-05-21T14:58:48Z</time>
      </trkpt>
      <trkpt lat="47.14077" lon="5.54299">
        <ele>230</ele>
        <time>2010-05-21T14:58:50Z</time>
      </trkpt>
      <trkpt lat="47.14071" lon="5.54287">
        <ele>230</ele>
        <time>2010-05-21T14:58:52Z</time>
      </trkpt>
      <trkpt lat="47.14064" lon="5.54274">
        <ele>230</ele>
        <time>2010-05-21T14:58:54Z</time>
      </trkpt>
      <trkpt lat="47.14057" lon="5.54263">
        <ele>230</ele>
        <time>2010-05-21T14:58:56Z</time>
      </trkpt>
      <trkpt lat="47.14048" lon="5.54253">
        <ele>230</ele>
        <time>2010-05-21T14:58:58Z</time>
      </trkpt>
      <trkpt lat="47.14038" lon="5.54245">
        <ele>230</ele>
        <time>2010-05-21T14:59:00Z</time>
      </trkpt>
      <trkpt lat="47.14028" lon="5.54236">
        <ele>230</ele>
        <time>2010-05-21T14:59:02Z</time>
      </trkpt>
      <trkpt lat="47.14017" lon="5.54229">
        <ele>230</ele>
        <time>2010-05-21T14:59:04Z</time>
      </trkpt>
      <trkpt lat="47.14006" lon="5.54222">
        <ele>230</ele>
        <time>2010-05-21T14:59:06Z</time>
      </trkpt>
      <trkpt lat="47.13995" lon="5.54216">
        <ele>230</ele>
        <time>2010-05-21T14:59:08Z</time>
      </trkpt>
      <trkpt lat="47.13984" lon="5.54208">
        <ele>230</ele>
        <time>2010-05-21T14:59:10Z</time>
      </trkpt>
      <trkpt lat="47.13973" lon="5.54203">
        <ele>230</ele>
        <time>2010-05-21T14:59:12Z</time>
      </trkpt>
      <trkpt lat="47.13962" lon="5.54197">
        <ele>230</ele>
        <time>2010-05-21T14:59:14Z</time>
      </trkpt>
      <trkpt lat="47.13952" lon="5.5419">
        <ele>230</ele>
        <time>2010-05-21T14:59:16Z</time>
      </trkpt>
      <trkpt lat="47.13941" lon="5.54183">
        <ele>230</ele>
        <time>2010-05-21T14:59:18Z</time>
      </trkpt>
      <trkpt lat="47.13931" lon="5.54178">
        <ele>230</ele>
        <time>2010-05-21T14:59:20Z</time>
      </trkpt>
      <trkpt lat="47.13921" lon="5.54171">
        <ele>230</ele>
        <time>2010-05-21T14:59:22Z</time>
      </trkpt>
      <trkpt lat="47.13911" lon="5.54164">
        <ele>230</ele>
        <time>2010-05-21T14:59:24Z</time>
      </trkpt>
      <trkpt lat="47.13901" lon="5.54156">
        <ele>230</ele>
        <time>2010-05-21T14:59:26Z</time>
      </trkpt>
      <trkpt lat="47.13892" lon="5.54148">
        <ele>230</ele>
        <time>2010-05-21T14:59:28Z</time>
      </trkpt>
      <trkpt lat="47.13883" lon="5.5414">
        <ele>230</ele>
        <time>2010-05-21T14:59:30Z</time>
      </trkpt>
      <trkpt lat="47.13874" lon="5.5413">
        <ele>230</ele>
        <time>2010-05-21T14:59:32Z</time>
      </trkpt>
      <trkpt lat="47.13866" lon="5.5412">
        <ele>230</ele>
        <time>2010-05-21T14:59:34Z</time>
      </trkpt>
      <trkpt lat="47.13859" lon="5.5411">
        <ele>230</ele>
        <time>2010-05-21T14:59:36Z</time>
      </trkpt>
      <trkpt lat="47.13851" lon="5.54098">
        <ele>230</ele>
        <time>2010-05-21T14:59:38Z</time>
      </trkpt>
      <trkpt lat="47.13843" lon="5.54086">
        <ele>230</ele>
        <time>2010-05-21T14:59:40Z</time>
      </trkpt>
      <trkpt lat="47.13836" lon="5.54074">
        <ele>230</ele>
        <time>2010-05-21T14:59:42Z</time>
      </trkpt>
      <trkpt lat="47.13828" lon="5.54061">
        <ele>230</ele>
        <time>2010-05-21T14:59:44Z</time>
      </trkpt>
      <trkpt lat="47.13821" lon="5.54049">
        <ele>230</ele>
        <time>2010-05-21T14:59:46Z</time>
      </trkpt>
      <trkpt lat="47.13814" lon="5.54036">
        <ele>230</ele>
        <time>2010-05-21T14:59:48Z</time>
      </trkpt>
      <trkpt lat="47.13808" lon="5.54023">
        <ele>230</ele>
        <time>2010-05-21T14:59:50Z</time>
      </trkpt>
      <trkpt lat="47.138" lon="5.54011">
        <ele>230</ele>
        <time>2010-05-21T14:59:52Z</time>
      </trkpt>
      <trkpt lat="47.13794" lon="5.53999">
        <ele>230</ele>
        <time>2010-05-21T14:59:54Z</time>
      </trkpt>
      <trkpt lat="47.13787" lon="5.53989">
        <ele>230</ele>
        <time>2010-05-21T14:59:56Z</time>
      </trkpt>
      <trkpt lat="47.1378" lon="5.5398">
        <ele>230</ele>
        <time>2010-05-21T14:59:58Z</time>
      </trkpt>
      <trkpt lat="47.1377" lon="5.5397">
        <ele>230</ele>
        <time>2010-05-21T15:00:01Z</time>
      </trkpt>
      <trkpt lat="47.13759" lon="5.53961">
        <ele>230</ele>
        <time>2010-05-21T15:00:04Z</time>
      </trkpt>
      <trkpt lat="47.13749" lon="5.53954">
        <ele>230</ele>
        <time>2010-05-21T15:00:07Z</time>
      </trkpt>
      <trkpt lat="47.13738" lon="5.53952">
        <ele>235</ele>
        <time>2010-05-21T15:00:10Z</time>
      </trkpt>
      <trkpt lat="47.13727" lon="5.53948">
        <ele>235</ele>
        <time>2010-05-21T15:00:13Z</time>
      </trkpt>
      <trkpt lat="47.13717" lon="5.53946">
        <ele>235</ele>
        <time>2010-05-21T15:00:16Z</time>
      </trkpt>
      <trkpt lat="47.13707" lon="5.53945">
        <ele>235</ele>
        <time>2010-05-21T15:00:19Z</time>
      </trkpt>
      <trkpt lat="47.13697" lon="5.53943">
        <ele>235</ele>
        <time>2010-05-21T15:00:22Z</time>
      </trkpt>
      <trkpt lat="47.13687" lon="5.53943">
        <ele>235</ele>
        <time>2010-05-21T15:00:25Z</time>
      </trkpt>
      <trkpt lat="47.13676" lon="5.53941">
        <ele>235</ele>
        <time>2010-05-21T15:00:28Z</time>
      </trkpt>
      <trkpt lat="47.13665" lon="5.53938">
        <ele>241</ele>
        <time>2010-05-21T15:00:31Z</time>
      </trkpt>
      <trkpt lat="47.13653" lon="5.53934">
        <ele>241</ele>
        <time>2010-05-21T15:00:34Z</time>
      </trkpt>
      <trkpt lat="47.13641" lon="5.53927">
        <ele>241</ele>
        <time>2010-05-21T15:00:37Z</time>
      </trkpt>
      <trkpt lat="47.13631" lon="5.53919">
        <ele>241</ele>
        <time>2010-05-21T15:00:40Z</time>
      </trkpt>
      <trkpt lat="47.13623" lon="5.53911">
        <ele>241</ele>
        <time>2010-05-21T15:00:43Z</time>
      </trkpt>
      <trkpt lat="47.13614" lon="5.53899">
        <ele>241</ele>
        <time>2010-05-21T15:00:46Z</time>
      </trkpt>
      <trkpt lat="47.13607" lon="5.53886">
        <ele>248</ele>
        <time>2010-05-21T15:00:49Z</time>
      </trkpt>
      <trkpt lat="47.13602" lon="5.53874">
        <ele>248</ele>
        <time>2010-05-21T15:00:51Z</time>
      </trkpt>
      <trkpt lat="47.13598" lon="5.5386">
        <ele>248</ele>
        <time>2010-05-21T15:00:53Z</time>
      </trkpt>
      <trkpt lat="47.13595" lon="5.53845">
        <ele>248</ele>
        <time>2010-05-21T15:00:55Z</time>
      </trkpt>
      <trkpt lat="47.13594" lon="5.53828">
        <ele>248</ele>
        <time>2010-05-21T15:00:57Z</time>
      </trkpt>
      <trkpt lat="47.13591" lon="5.53808">
        <ele>248</ele>
        <time>2010-05-21T15:00:59Z</time>
      </trkpt>
      <trkpt lat="47.13588" lon="5.53787">
        <ele>248</ele>
        <time>2010-05-21T15:01:01Z</time>
      </trkpt>
      <trkpt lat="47.13586" lon="5.53766">
        <ele>248</ele>
        <time>2010-05-21T15:01:03Z</time>
      </trkpt>
      <trkpt lat="47.13584" lon="5.53743">
        <ele>242</ele>
        <time>2010-05-21T15:01:05Z</time>
      </trkpt>
      <trkpt lat="47.13583" lon="5.53721">
        <ele>242</ele>
        <time>2010-05-21T15:01:07Z</time>
      </trkpt>
      <trkpt lat="47.13581" lon="5.53697">
        <ele>242</ele>
        <time>2010-05-21T15:01:09Z</time>
      </trkpt>
      <trkpt lat="47.1358" lon="5.53675">
        <ele>242</ele>
        <time>2010-05-21T15:01:11Z</time>
      </trkpt>
      <trkpt lat="47.13578" lon="5.53653">
        <ele>242</ele>
        <time>2010-05-21T15:01:13Z</time>
      </trkpt>
      <trkpt lat="47.13575" lon="5.53631">
        <ele>242</ele>
        <time>2010-05-21T15:01:15Z</time>
      </trkpt>
      <trkpt lat="47.13577" lon="5.53609">
        <ele>242</ele>
        <time>2010-05-21T15:01:17Z</time>
      </trkpt>
      <trkpt lat="47.13578" lon="5.53589">
        <ele>242</ele>
        <time>2010-05-21T15:01:19Z</time>
      </trkpt>
      <trkpt lat="47.13577" lon="5.53568">
        <ele>242</ele>
        <time>2010-05-21T15:01:21Z</time>
      </trkpt>
      <trkpt lat="47.13573" lon="5.53547">
        <ele>242</ele>
        <time>2010-05-21T15:01:23Z</time>
      </trkpt>
      <trkpt lat="47.1357" lon="5.53527">
        <ele>242</ele>
        <time>2010-05-21T15:01:25Z</time>
      </trkpt>
      <trkpt lat="47.13567" lon="5.53507">
        <ele>242</ele>
        <time>2010-05-21T15:01:27Z</time>
      </trkpt>
      <trkpt lat="47.13565" lon="5.53486">
        <ele>242</ele>
        <time>2010-05-21T15:01:29Z</time>
      </trkpt>
      <trkpt lat="47.13565" lon="5.53467">
        <ele>242</ele>
        <time>2010-05-21T15:01:31Z</time>
      </trkpt>
      <trkpt lat="47.13564" lon="5.53448">
        <ele>242</ele>
        <time>2010-05-21T15:01:33Z</time>
      </trkpt>
      <trkpt lat="47.13562" lon="5.5343">
        <ele>242</ele>
        <time>2010-05-21T15:01:35Z</time>
      </trkpt>
      <trkpt lat="47.13558" lon="5.53411">
        <ele>242</ele>
        <time>2010-05-21T15:01:37Z</time>
      </trkpt>
      <trkpt lat="47.13551" lon="5.53393">
        <ele>242</ele>
        <time>2010-05-21T15:01:39Z</time>
      </trkpt>
      <trkpt lat="47.13545" lon="5.53376">
        <ele>242</ele>
        <time>2010-05-21T15:01:41Z</time>
      </trkpt>
      <trkpt lat="47.1354" lon="5.5336">
        <ele>242</ele>
        <time>2010-05-21T15:01:43Z</time>
      </trkpt>
      <trkpt lat="47.13534" lon="5.53343">
        <ele>242</ele>
        <time>2010-05-21T15:01:45Z</time>
      </trkpt>
      <trkpt lat="47.13528" lon="5.53326">
        <ele>242</ele>
        <time>2010-05-21T15:01:47Z</time>
      </trkpt>
      <trkpt lat="47.13522" lon="5.5331">
        <ele>242</ele>
        <time>2010-05-21T15:01:49Z</time>
      </trkpt>
      <trkpt lat="47.13516" lon="5.53294">
        <ele>242</ele>
        <time>2010-05-21T15:01:51Z</time>
      </trkpt>
      <trkpt lat="47.1351" lon="5.53278">
        <ele>242</ele>
        <time>2010-05-21T15:01:53Z</time>
      </trkpt>
      <trkpt lat="47.13505" lon="5.53261">
        <ele>242</ele>
        <time>2010-05-21T15:01:55Z</time>
      </trkpt>
      <trkpt lat="47.13499" lon="5.53245">
        <ele>242</ele>
        <time>2010-05-21T15:01:57Z</time>
      </trkpt>
      <trkpt lat="47.13493" lon="5.53229">
        <ele>242</ele>
        <time>2010-05-21T15:01:59Z</time>
      </trkpt>
      <trkpt lat="47.13487" lon="5.53213">
        <ele>242</ele>
        <time>2010-05-21T15:02:01Z</time>
      </trkpt>
      <trkpt lat="47.13482" lon="5.53196">
        <ele>242</ele>
        <time>2010-05-21T15:02:03Z</time>
      </trkpt>
      <trkpt lat="47.13475" lon="5.53178">
        <ele>242</ele>
        <time>2010-05-21T15:02:05Z</time>
      </trkpt>
      <trkpt lat="47.13469" lon="5.5316">
        <ele>242</ele>
        <time>2010-05-21T15:02:07Z</time>
      </trkpt>
      <trkpt lat="47.13462" lon="5.5314">
        <ele>242</ele>
        <time>2010-05-21T15:02:09Z</time>
      </trkpt>
      <trkpt lat="47.13455" lon="5.5312">
        <ele>242</ele>
        <time>2010-05-21T15:02:11Z</time>
      </trkpt>
      <trkpt lat="47.13448" lon="5.531">
        <ele>242</ele>
        <time>2010-05-21T15:02:13Z</time>
      </trkpt>
      <trkpt lat="47.13441" lon="5.5308">
        <ele>242</ele>
        <time>2010-05-21T15:02:15Z</time>
      </trkpt>
      <trkpt lat="47.13434" lon="5.5306">
        <ele>242</ele>
        <time>2010-05-21T15:02:17Z</time>
      </trkpt>
      <trkpt lat="47.13427" lon="5.53042">
        <ele>242</ele>
        <time>2010-05-21T15:02:19Z</time>
      </trkpt>
      <trkpt lat="47.1342" lon="5.53022">
        <ele>242</ele>
        <time>2010-05-21T15:02:21Z</time>
      </trkpt>
      <trkpt lat="47.13413" lon="5.53003">
        <ele>242</ele>
        <time>2010-05-21T15:02:23Z</time>
      </trkpt>
      <trkpt lat="47.13407" lon="5.52985">
        <ele>242</ele>
        <time>2010-05-21T15:02:25Z</time>
      </trkpt>
      <trkpt lat="47.134" lon="5.52966">
        <ele>242</ele>
        <time>2010-05-21T15:02:27Z</time>
      </trkpt>
      <trkpt lat="47.13393" lon="5.52948">
        <ele>242</ele>
        <time>2010-05-21T15:02:29Z</time>
      </trkpt>
      <trkpt lat="47.13387" lon="5.52928">
        <ele>242</ele>
        <time>2010-05-21T15:02:31Z</time>
      </trkpt>
      <trkpt lat="47.1338" lon="5.52908">
        <ele>242</ele>
        <time>2010-05-21T15:02:33Z</time>
      </trkpt>
      <trkpt lat="47.13372" lon="5.52886">
        <ele>242</ele>
        <time>2010-05-21T15:02:35Z</time>
      </trkpt>
      <trkpt lat="47.13365" lon="5.52865">
        <ele>242</ele>
        <time>2010-05-21T15:02:37Z</time>
      </trkpt>
      <trkpt lat="47.13358" lon="5.52842">
        <ele>242</ele>
        <time>2010-05-21T15:02:39Z</time>
      </trkpt>
      <trkpt lat="47.1335" lon="5.5282">
        <ele>242</ele>
        <time>2010-05-21T15:02:41Z</time>
      </trkpt>
      <trkpt lat="47.13342" lon="5.52796">
        <ele>242</ele>
        <time>2010-05-21T15:02:43Z</time>
      </trkpt>
      <trkpt lat="47.13334" lon="5.52774">
        <ele>242</ele>
        <time>2010-05-21T15:02:45Z</time>
      </trkpt>
      <trkpt lat="47.13328" lon="5.52751">
        <ele>242</ele>
        <time>2010-05-21T15:02:47Z</time>
      </trkpt>
      <trkpt lat="47.1332" lon="5.5273">
        <ele>242</ele>
        <time>2010-05-21T15:02:49Z</time>
      </trkpt>
      <trkpt lat="47.13313" lon="5.52709">
        <ele>242</ele>
        <time>2010-05-21T15:02:51Z</time>
      </trkpt>
      <trkpt lat="47.13306" lon="5.52688">
        <ele>242</ele>
        <time>2010-05-21T15:02:53Z</time>
      </trkpt>
      <trkpt lat="47.13299" lon="5.52667">
        <ele>242</ele>
        <time>2010-05-21T15:02:55Z</time>
      </trkpt>
      <trkpt lat="47.13293" lon="5.52647">
        <ele>242</ele>
        <time>2010-05-21T15:02:57Z</time>
      </trkpt>
      <trkpt lat="47.13286" lon="5.52627">
        <ele>242</ele>
        <time>2010-05-21T15:02:59Z</time>
      </trkpt>
      <trkpt lat="47.13279" lon="5.52608">
        <ele>242</ele>
        <time>2010-05-21T15:03:01Z</time>
      </trkpt>
      <trkpt lat="47.13273" lon="5.52588">
        <ele>242</ele>
        <time>2010-05-21T15:03:03Z</time>
      </trkpt>
      <trkpt lat="47.13267" lon="5.52568">
        <ele>242</ele>
        <time>2010-05-21T15:03:05Z</time>
      </trkpt>
      <trkpt lat="47.13261" lon="5.52548">
        <ele>242</ele>
        <time>2010-05-21T15:03:07Z</time>
      </trkpt>
      <trkpt lat="47.13255" lon="5.5253">
        <ele>242</ele>
        <time>2010-05-21T15:03:09Z</time>
      </trkpt>
      <trkpt lat="47.13249" lon="5.5251">
        <ele>242</ele>
        <time>2010-05-21T15:03:11Z</time>
      </trkpt>
      <trkpt lat="47.13242" lon="5.5249">
        <ele>242</ele>
        <time>2010-05-21T15:03:13Z</time>
      </trkpt>
      <trkpt lat="47.13235" lon="5.52471">
        <ele>242</ele>
        <time>2010-05-21T15:03:15Z</time>
      </trkpt>
      <trkpt lat="47.13228" lon="5.52452">
        <ele>242</ele>
        <time>2010-05-21T15:03:17Z</time>
      </trkpt>
      <trkpt lat="47.13222" lon="5.52433">
        <ele>242</ele>
        <time>2010-05-21T15:03:19Z</time>
      </trkpt>
      <trkpt lat="47.13216" lon="5.52415">
        <ele>242</ele>
        <time>2010-05-21T15:03:21Z</time>
      </trkpt>
      <trkpt lat="47.13211" lon="5.52397">
        <ele>242</ele>
        <time>2010-05-21T15:03:23Z</time>
      </trkpt>
      <trkpt lat="47.13205" lon="5.5238">
        <ele>242</ele>
        <time>2010-05-21T15:03:25Z</time>
      </trkpt>
      <trkpt lat="47.13198" lon="5.52362">
        <ele>242</ele>
        <time>2010-05-21T15:03:27Z</time>
      </trkpt>
      <trkpt lat="47.13192" lon="5.52343">
        <ele>242</ele>
        <time>2010-05-21T15:03:29Z</time>
      </trkpt>
      <trkpt lat="47.13185" lon="5.52325">
        <ele>242</ele>
        <time>2010-05-21T15:03:31Z</time>
      </trkpt>
      <trkpt lat="47.13178" lon="5.52305">
        <ele>242</ele>
        <time>2010-05-21T15:03:33Z</time>
      </trkpt>
      <trkpt lat="47.13171" lon="5.52287">
        <ele>242</ele>
        <time>2010-05-21T15:03:35Z</time>
      </trkpt>
      <trkpt lat="47.13165" lon="5.52268">
        <ele>242</ele>
        <time>2010-05-21T15:03:37Z</time>
      </trkpt>
      <trkpt lat="47.13158" lon="5.52249">
        <ele>242</ele>
        <time>2010-05-21T15:03:39Z</time>
      </trkpt>
      <trkpt lat="47.13152" lon="5.5223">
        <ele>242</ele>
        <time>2010-05-21T15:03:41Z</time>
      </trkpt>
      <trkpt lat="47.13146" lon="5.52212">
        <ele>242</ele>
        <time>2010-05-21T15:03:43Z</time>
      </trkpt>
      <trkpt lat="47.13141" lon="5.52194">
        <ele>242</ele>
        <time>2010-05-21T15:03:45Z</time>
      </trkpt>
      <trkpt lat="47.13136" lon="5.52176">
        <ele>242</ele>
        <time>2010-05-21T15:03:47Z</time>
      </trkpt>
      <trkpt lat="47.13132" lon="5.52157">
        <ele>242</ele>
        <time>2010-05-21T15:03:49Z</time>
      </trkpt>
      <trkpt lat="47.13127" lon="5.52138">
        <ele>242</ele>
        <time>2010-05-21T15:03:51Z</time>
      </trkpt>
      <trkpt lat="47.13123" lon="5.52118">
        <ele>242</ele>
        <time>2010-05-21T15:03:53Z</time>
      </trkpt>
      <trkpt lat="47.13119" lon="5.52098">
        <ele>242</ele>
        <time>2010-05-21T15:03:55Z</time>
      </trkpt>
      <trkpt lat="47.13114" lon="5.52079">
        <ele>242</ele>
        <time>2010-05-21T15:03:57Z</time>
      </trkpt>
      <trkpt lat="47.13109" lon="5.52058">
        <ele>248</ele>
        <time>2010-05-21T15:03:59Z</time>
      </trkpt>
      <trkpt lat="47.13104" lon="5.52038">
        <ele>248</ele>
        <time>2010-05-21T15:04:01Z</time>
      </trkpt>
      <trkpt lat="47.13099" lon="5.52017">
        <ele>248</ele>
        <time>2010-05-21T15:04:03Z</time>
      </trkpt>
      <trkpt lat="47.13093" lon="5.51997">
        <ele>248</ele>
        <time>2010-05-21T15:04:05Z</time>
      </trkpt>
      <trkpt lat="47.13088" lon="5.51976">
        <ele>248</ele>
        <time>2010-05-21T15:04:07Z</time>
      </trkpt>
      <trkpt lat="47.13083" lon="5.51956">
        <ele>248</ele>
        <time>2010-05-21T15:04:09Z</time>
      </trkpt>
      <trkpt lat="47.13078" lon="5.51936">
        <ele>248</ele>
        <time>2010-05-21T15:04:11Z</time>
      </trkpt>
      <trkpt lat="47.13073" lon="5.51916">
        <ele>248</ele>
        <time>2010-05-21T15:04:13Z</time>
      </trkpt>
      <trkpt lat="47.13067" lon="5.51895">
        <ele>248</ele>
        <time>2010-05-21T15:04:15Z</time>
      </trkpt>
      <trkpt lat="47.13062" lon="5.51876">
        <ele>248</ele>
        <time>2010-05-21T15:04:17Z</time>
      </trkpt>
      <trkpt lat="47.13056" lon="5.51857">
        <ele>248</ele>
        <time>2010-05-21T15:04:19Z</time>
      </trkpt>
      <trkpt lat="47.13051" lon="5.51837">
        <ele>248</ele>
        <time>2010-05-21T15:04:21Z</time>
      </trkpt>
      <trkpt lat="47.13046" lon="5.51819">
        <ele>248</ele>
        <time>2010-05-21T15:04:23Z</time>
      </trkpt>
      <trkpt lat="47.13041" lon="5.51801">
        <ele>248</ele>
        <time>2010-05-21T15:04:25Z</time>
      </trkpt>
      <trkpt lat="47.13036" lon="5.51784">
        <ele>248</ele>
        <time>2010-05-21T15:04:27Z</time>
      </trkpt>
      <trkpt lat="47.13032" lon="5.51767">
        <ele>248</ele>
        <time>2010-05-21T15:04:29Z</time>
      </trkpt>
      <trkpt lat="47.13027" lon="5.51751">
        <ele>248</ele>
        <time>2010-05-21T15:04:31Z</time>
      </trkpt>
      <trkpt lat="47.13024" lon="5.51735">
        <ele>248</ele>
        <time>2010-05-21T15:04:33Z</time>
      </trkpt>
      <trkpt lat="47.1302" lon="5.51718">
        <ele>248</ele>
        <time>2010-05-21T15:04:35Z</time>
      </trkpt>
      <trkpt lat="47.13016" lon="5.51703">
        <ele>248</ele>
        <time>2010-05-21T15:04:37Z</time>
      </trkpt>
      <trkpt lat="47.13012" lon="5.51688">
        <ele>248</ele>
        <time>2010-05-21T15:04:39Z</time>
      </trkpt>
      <trkpt lat="47.13008" lon="5.51673">
        <ele>248</ele>
        <time>2010-05-21T15:04:41Z</time>
      </trkpt>
      <trkpt lat="47.13003" lon="5.51658">
        <ele>248</ele>
        <time>2010-05-21T15:04:43Z</time>
      </trkpt>
      <trkpt lat="47.12999" lon="5.51644">
        <ele>248</ele>
        <time>2010-05-21T15:04:45Z</time>
      </trkpt>
      <trkpt lat="47.12995" lon="5.51629">
        <ele>248</ele>
        <time>2010-05-21T15:04:47Z</time>
      </trkpt>
      <trkpt lat="47.12991" lon="5.51614">
        <ele>248</ele>
        <time>2010-05-21T15:04:49Z</time>
      </trkpt>
      <trkpt lat="47.12987" lon="5.51599">
        <ele>248</ele>
        <time>2010-05-21T15:04:51Z</time>
      </trkpt>
      <trkpt lat="47.12983" lon="5.51584">
        <ele>248</ele>
        <time>2010-05-21T15:04:53Z</time>
      </trkpt>
      <trkpt lat="47.12978" lon="5.51568">
        <ele>248</ele>
        <time>2010-05-21T15:04:55Z</time>
      </trkpt>
      <trkpt lat="47.12972" lon="5.51554">
        <ele>248</ele>
        <time>2010-05-21T15:04:57Z</time>
      </trkpt>
      <trkpt lat="47.12965" lon="5.5154">
        <ele>248</ele>
        <time>2010-05-21T15:04:59Z</time>
      </trkpt>
      <trkpt lat="47.12958" lon="5.51527">
        <ele>248</ele>
        <time>2010-05-21T15:05:01Z</time>
      </trkpt>
      <trkpt lat="47.12951" lon="5.51514">
        <ele>248</ele>
        <time>2010-05-21T15:05:03Z</time>
      </trkpt>
      <trkpt lat="47.12942" lon="5.51502">
        <ele>248</ele>
        <time>2010-05-21T15:05:05Z</time>
      </trkpt>
      <trkpt lat="47.12933" lon="5.51489">
        <ele>248</ele>
        <time>2010-05-21T15:05:07Z</time>
      </trkpt>
      <trkpt lat="47.12926" lon="5.51477">
        <ele>248</ele>
        <time>2010-05-21T15:05:09Z</time>
      </trkpt>
      <trkpt lat="47.12918" lon="5.51463">
        <ele>248</ele>
        <time>2010-05-21T15:05:11Z</time>
      </trkpt>
      <trkpt lat="47.1291" lon="5.51449">
        <ele>248</ele>
        <time>2010-05-21T15:05:13Z</time>
      </trkpt>
      <trkpt lat="47.12902" lon="5.51434">
        <ele>248</ele>
        <time>2010-05-21T15:05:15Z</time>
      </trkpt>
      <trkpt lat="47.12894" lon="5.51417">
        <ele>248</ele>
        <time>2010-05-21T15:05:17Z</time>
      </trkpt>
      <trkpt lat="47.12886" lon="5.51399">
        <ele>248</ele>
        <time>2010-05-21T15:05:19Z</time>
      </trkpt>
      <trkpt lat="47.12876" lon="5.5138">
        <ele>248</ele>
        <time>2010-05-21T15:05:21Z</time>
      </trkpt>
      <trkpt lat="47.12867" lon="5.5136">
        <ele>248</ele>
        <time>2010-05-21T15:05:23Z</time>
      </trkpt>
      <trkpt lat="47.12858" lon="5.51339">
        <ele>248</ele>
        <time>2010-05-21T15:05:25Z</time>
      </trkpt>
      <trkpt lat="47.12848" lon="5.51318">
        <ele>248</ele>
        <time>2010-05-21T15:05:27Z</time>
      </trkpt>
      <trkpt lat="47.12838" lon="5.51296">
        <ele>248</ele>
        <time>2010-05-21T15:05:29Z</time>
      </trkpt>
      <trkpt lat="47.12833" lon="5.51284">
        <ele>248</ele>
        <time>2010-05-21T15:05:30Z</time>
      </trkpt>
      <trkpt lat="47.12828" lon="5.51273">
        <ele>248</ele>
        <time>2010-05-21T15:05:31Z</time>
      </trkpt>
      <trkpt lat="47.12823" lon="5.51261">
        <ele>248</ele>
        <time>2010-05-21T15:05:32Z</time>
      </trkpt>
      <trkpt lat="47.12817" lon="5.51249">
        <ele>248</ele>
        <time>2010-05-21T15:05:33Z</time>
      </trkpt>
      <trkpt lat="47.12811" lon="5.51237">
        <ele>248</ele>
        <time>2010-05-21T15:05:34Z</time>
      </trkpt>
      <trkpt lat="47.12806" lon="5.51225">
        <ele>248</ele>
        <time>2010-05-21T15:05:35Z</time>
      </trkpt>
      <trkpt lat="47.12801" lon="5.51213">
        <ele>248</ele>
        <time>2010-05-21T15:05:36Z</time>
      </trkpt>
      <trkpt lat="47.12796" lon="5.51201">
        <ele>248</ele>
        <time>2010-05-21T15:05:37Z</time>
      </trkpt>
      <trkpt lat="47.1279" lon="5.51189">
        <ele>248</ele>
        <time>2010-05-21T15:05:38Z</time>
      </trkpt>
      <trkpt lat="47.12785" lon="5.51178">
        <ele>248</ele>
        <time>2010-05-21T15:05:39Z</time>
      </trkpt>
      <trkpt lat="47.12779" lon="5.51166">
        <ele>248</ele>
        <time>2010-05-21T15:05:40Z</time>
      </trkpt>
      <trkpt lat="47.12773" lon="5.51154">
        <ele>248</ele>
        <time>2010-05-21T15:05:41Z</time>
      </trkpt>
      <trkpt lat="47.12768" lon="5.51143">
        <ele>248</ele>
        <time>2010-05-21T15:05:42Z</time>
      </trkpt>
      <trkpt lat="47.12762" lon="5.51131">
        <ele>248</ele>
        <time>2010-05-21T15:05:43Z</time>
      </trkpt>
      <trkpt lat="47.12757" lon="5.51119">
        <ele>248</ele>
        <time>2010-05-21T15:05:44Z</time>
      </trkpt>
      <trkpt lat="47.12752" lon="5.51107">
        <ele>248</ele>
        <time>2010-05-21T15:05:45Z</time>
      </trkpt>
      <trkpt lat="47.12747" lon="5.51096">
        <ele>248</ele>
        <time>2010-05-21T15:05:46Z</time>
      </trkpt>
      <trkpt lat="47.12742" lon="5.51084">
        <ele>248</ele>
        <time>2010-05-21T15:05:47Z</time>
      </trkpt>
      <trkpt lat="47.12737" lon="5.51072">
        <ele>248</ele>
        <time>2010-05-21T15:05:48Z</time>
      </trkpt>
      <trkpt lat="47.12731" lon="5.51062">
        <ele>248</ele>
        <time>2010-05-21T15:05:49Z</time>
      </trkpt>
      <trkpt lat="47.12726" lon="5.5105">
        <ele>248</ele>
        <time>2010-05-21T15:05:50Z</time>
      </trkpt>
      <trkpt lat="47.12721" lon="5.51038">
        <ele>248</ele>
        <time>2010-05-21T15:05:51Z</time>
      </trkpt>
      <trkpt lat="47.12716" lon="5.51027">
        <ele>243</ele>
        <time>2010-05-21T15:05:52Z</time>
      </trkpt>
      <trkpt lat="47.1271" lon="5.51015">
        <ele>243</ele>
        <time>2010-05-21T15:05:53Z</time>
      </trkpt>
      <trkpt lat="47.12705" lon="5.51003">
        <ele>243</ele>
        <time>2010-05-21T15:05:54Z</time>
      </trkpt>
      <trkpt lat="47.12695" lon="5.50981">
        <ele>243</ele>
        <time>2010-05-21T15:05:56Z</time>
      </trkpt>
      <trkpt lat="47.12689" lon="5.50969">
        <ele>243</ele>
        <time>2010-05-21T15:05:57Z</time>
      </trkpt>
      <trkpt lat="47.12685" lon="5.50957">
        <ele>243</ele>
        <time>2010-05-21T15:05:58Z</time>
      </trkpt>
      <trkpt lat="47.12679" lon="5.50946">
        <ele>243</ele>
        <time>2010-05-21T15:05:59Z</time>
      </trkpt>
      <trkpt lat="47.12669" lon="5.50923">
        <ele>243</ele>
        <time>2010-05-21T15:06:01Z</time>
      </trkpt>
      <trkpt lat="47.12659" lon="5.50903">
        <ele>243</ele>
        <time>2010-05-21T15:06:03Z</time>
      </trkpt>
      <trkpt lat="47.12651" lon="5.50882">
        <ele>243</ele>
        <time>2010-05-21T15:06:05Z</time>
      </trkpt>
      <trkpt lat="47.12642" lon="5.50861">
        <ele>243</ele>
        <time>2010-05-21T15:06:07Z</time>
      </trkpt>
      <trkpt lat="47.12633" lon="5.50842">
        <ele>243</ele>
        <time>2010-05-21T15:06:09Z</time>
      </trkpt>
      <trkpt lat="47.12625" lon="5.50825">
        <ele>243</ele>
        <time>2010-05-21T15:06:11Z</time>
      </trkpt>
      <trkpt lat="47.12617" lon="5.50807">
        <ele>243</ele>
        <time>2010-05-21T15:06:13Z</time>
      </trkpt>
      <trkpt lat="47.1261" lon="5.50791">
        <ele>243</ele>
        <time>2010-05-21T15:06:15Z</time>
      </trkpt>
      <trkpt lat="47.12603" lon="5.50775">
        <ele>243</ele>
        <time>2010-05-21T15:06:17Z</time>
      </trkpt>
      <trkpt lat="47.12596" lon="5.5076">
        <ele>243</ele>
        <time>2010-05-21T15:06:19Z</time>
      </trkpt>
      <trkpt lat="47.1259" lon="5.50745">
        <ele>243</ele>
        <time>2010-05-21T15:06:21Z</time>
      </trkpt>
      <trkpt lat="47.12582" lon="5.50729">
        <ele>243</ele>
        <time>2010-05-21T15:06:23Z</time>
      </trkpt>
      <trkpt lat="47.12575" lon="5.50715">
        <ele>243</ele>
        <time>2010-05-21T15:06:25Z</time>
      </trkpt>
      <trkpt lat="47.12568" lon="5.507">
        <ele>243</ele>
        <time>2010-05-21T15:06:27Z</time>
      </trkpt>
      <trkpt lat="47.12561" lon="5.50684">
        <ele>248</ele>
        <time>2010-05-21T15:06:29Z</time>
      </trkpt>
      <trkpt lat="47.12555" lon="5.50671">
        <ele>248</ele>
        <time>2010-05-21T15:06:31Z</time>
      </trkpt>
      <trkpt lat="47.12548" lon="5.50657">
        <ele>248</ele>
        <time>2010-05-21T15:06:33Z</time>
      </trkpt>
      <trkpt lat="47.12543" lon="5.50643">
        <ele>248</ele>
        <time>2010-05-21T15:06:35Z</time>
      </trkpt>
      <trkpt lat="47.12537" lon="5.5063">
        <ele>248</ele>
        <time>2010-05-21T15:06:37Z</time>
      </trkpt>
      <trkpt lat="47.12531" lon="5.50617">
        <ele>248</ele>
        <time>2010-05-21T15:06:39Z</time>
      </trkpt>
      <trkpt lat="47.12526" lon="5.50604">
        <ele>248</ele>
        <time>2010-05-21T15:06:41Z</time>
      </trkpt>
      <trkpt lat="47.1252" lon="5.50589">
        <ele>248</ele>
        <time>2010-05-21T15:06:44Z</time>
      </trkpt>
      <trkpt lat="47.12517" lon="5.50577">
        <ele>248</ele>
        <time>2010-05-21T15:06:47Z</time>
      </trkpt>
      <trkpt lat="47.12509" lon="5.50568">
        <ele>248</ele>
        <time>2010-05-21T15:07:21Z</time>
      </trkpt>
      <trkpt lat="47.12502" lon="5.5056">
        <ele>248</ele>
        <time>2010-05-21T15:07:27Z</time>
      </trkpt>
      <trkpt lat="47.12493" lon="5.5055">
        <ele>248</ele>
        <time>2010-05-21T15:07:34Z</time>
      </trkpt>
      <trkpt lat="47.12485" lon="5.50539">
        <ele>248</ele>
        <time>2010-05-21T15:07:40Z</time>
      </trkpt>
      <trkpt lat="47.12477" lon="5.50528">
        <ele>248</ele>
        <time>2010-05-21T15:07:44Z</time>
      </trkpt>
      <trkpt lat="47.12469" lon="5.50519">
        <ele>248</ele>
        <time>2010-05-21T15:07:47Z</time>
      </trkpt>
      <trkpt lat="47.12463" lon="5.50509">
        <ele>248</ele>
        <time>2010-05-21T15:07:50Z</time>
      </trkpt>
      <trkpt lat="47.12455" lon="5.505">
        <ele>248</ele>
        <time>2010-05-21T15:07:53Z</time>
      </trkpt>
      <trkpt lat="47.12448" lon="5.50489">
        <ele>248</ele>
        <time>2010-05-21T15:07:56Z</time>
      </trkpt>
      <trkpt lat="47.1244" lon="5.5048">
        <ele>248</ele>
        <time>2010-05-21T15:07:59Z</time>
      </trkpt>
      <trkpt lat="47.12432" lon="5.50469">
        <ele>248</ele>
        <time>2010-05-21T15:08:02Z</time>
      </trkpt>
      <trkpt lat="47.12423" lon="5.50459">
        <ele>253</ele>
        <time>2010-05-21T15:08:05Z</time>
      </trkpt>
      <trkpt lat="47.12413" lon="5.50447">
        <ele>253</ele>
        <time>2010-05-21T15:08:08Z</time>
      </trkpt>
      <trkpt lat="47.12406" lon="5.50438">
        <ele>253</ele>
        <time>2010-05-21T15:08:10Z</time>
      </trkpt>
      <trkpt lat="47.12399" lon="5.50429">
        <ele>253</ele>
        <time>2010-05-21T15:08:12Z</time>
      </trkpt>
      <trkpt lat="47.1239" lon="5.50417">
        <ele>253</ele>
        <time>2010-05-21T15:08:15Z</time>
      </trkpt>
      <trkpt lat="47.1238" lon="5.50405">
        <ele>253</ele>
        <time>2010-05-21T15:08:18Z</time>
      </trkpt>
      <trkpt lat="47.12371" lon="5.50392">
        <ele>253</ele>
        <time>2010-05-21T15:08:21Z</time>
      </trkpt>
      <trkpt lat="47.12361" lon="5.50381">
        <ele>253</ele>
        <time>2010-05-21T15:08:24Z</time>
      </trkpt>
      <trkpt lat="47.12356" lon="5.5037">
        <ele>253</ele>
        <time>2010-05-21T15:08:27Z</time>
      </trkpt>
      <trkpt lat="47.12348" lon="5.50364">
        <ele>253</ele>
        <time>2010-05-21T15:08:32Z</time>
      </trkpt>
      <trkpt lat="47.12346" lon="5.50377">
        <ele>253</ele>
        <time>2010-05-21T15:08:39Z</time>
      </trkpt>
      <trkpt lat="47.12339" lon="5.50389">
        <ele>248</ele>
        <time>2010-05-21T15:08:45Z</time>
      </trkpt>
      <trkpt lat="47.12332" lon="5.50402">
        <ele>248</ele>
        <time>2010-05-21T15:08:50Z</time>
      </trkpt>
      <trkpt lat="47.12326" lon="5.50414">
        <ele>248</ele>
        <time>2010-05-21T15:08:53Z</time>
      </trkpt>
      <trkpt lat="47.12318" lon="5.50427">
        <ele>248</ele>
        <time>2010-05-21T15:08:56Z</time>
      </trkpt>
      <trkpt lat="47.12311" lon="5.5044">
        <ele>248</ele>
        <time>2010-05-21T15:08:59Z</time>
      </trkpt>
      <trkpt lat="47.12304" lon="5.50453">
        <ele>248</ele>
        <time>2010-05-21T15:09:02Z</time>
      </trkpt>
      <trkpt lat="47.12296" lon="5.50465">
        <ele>248</ele>
        <time>2010-05-21T15:09:05Z</time>
      </trkpt>
      <trkpt lat="47.12286" lon="5.50468">
        <ele>248</ele>
        <time>2010-05-21T15:09:08Z</time>
      </trkpt>
      <trkpt lat="47.12276" lon="5.50458">
        <ele>248</ele>
        <time>2010-05-21T15:09:11Z</time>
      </trkpt>
      <trkpt lat="47.12268" lon="5.50449">
        <ele>248</ele>
        <time>2010-05-21T15:09:14Z</time>
      </trkpt>
      <trkpt lat="47.12259" lon="5.5044">
        <ele>248</ele>
        <time>2010-05-21T15:09:17Z</time>
      </trkpt>
      <trkpt lat="47.12251" lon="5.50431">
        <ele>248</ele>
        <time>2010-05-21T15:09:20Z</time>
      </trkpt>
      <trkpt lat="47.12243" lon="5.50421">
        <ele>248</ele>
        <time>2010-05-21T15:09:23Z</time>
      </trkpt>
      <trkpt lat="47.12233" lon="5.5041">
        <ele>248</ele>
        <time>2010-05-21T15:09:26Z</time>
      </trkpt>
      <trkpt lat="47.12224" lon="5.504">
        <ele>248</ele>
        <time>2010-05-21T15:09:29Z</time>
      </trkpt>
      <trkpt lat="47.12214" lon="5.50389">
        <ele>248</ele>
        <time>2010-05-21T15:09:32Z</time>
      </trkpt>
      <trkpt lat="47.12204" lon="5.50379">
        <ele>248</ele>
        <time>2010-05-21T15:09:35Z</time>
      </trkpt>
      <trkpt lat="47.12197" lon="5.50372">
        <ele>248</ele>
        <time>2010-05-21T15:09:38Z</time>
      </trkpt>
      <trkpt lat="47.12188" lon="5.50362">
        <ele>248</ele>
        <time>2010-05-21T15:09:42Z</time>
      </trkpt>
      <trkpt lat="47.1218" lon="5.50353">
        <ele>248</ele>
        <time>2010-05-21T15:09:47Z</time>
      </trkpt>
      <trkpt lat="47.12171" lon="5.50347">
        <ele>248</ele>
        <time>2010-05-21T15:10:07Z</time>
      </trkpt>
      <trkpt lat="47.12163" lon="5.50354">
        <ele>248</ele>
        <time>2010-05-21T15:10:10Z</time>
      </trkpt>
      <trkpt lat="47.12157" lon="5.50365">
        <ele>248</ele>
        <time>2010-05-21T15:10:13Z</time>
      </trkpt>
      <trkpt lat="47.12148" lon="5.50378">
        <ele>248</ele>
        <time>2010-05-21T15:10:16Z</time>
      </trkpt>
      <trkpt lat="47.12138" lon="5.50391">
        <ele>248</ele>
        <time>2010-05-21T15:10:19Z</time>
      </trkpt>
      <trkpt lat="47.12131" lon="5.504">
        <ele>248</ele>
        <time>2010-05-21T15:10:21Z</time>
      </trkpt>
      <trkpt lat="47.12124" lon="5.50409">
        <ele>248</ele>
        <time>2010-05-21T15:10:23Z</time>
      </trkpt>
      <trkpt lat="47.12116" lon="5.50419">
        <ele>248</ele>
        <time>2010-05-21T15:10:25Z</time>
      </trkpt>
      <trkpt lat="47.12108" lon="5.50431">
        <ele>248</ele>
        <time>2010-05-21T15:10:27Z</time>
      </trkpt>
      <trkpt lat="47.121" lon="5.50443">
        <ele>248</ele>
        <time>2010-05-21T15:10:29Z</time>
      </trkpt>
      <trkpt lat="47.1209" lon="5.50455">
        <ele>248</ele>
        <time>2010-05-21T15:10:31Z</time>
      </trkpt>
      <trkpt lat="47.12081" lon="5.50467">
        <ele>248</ele>
        <time>2010-05-21T15:10:33Z</time>
      </trkpt>
      <trkpt lat="47.12071" lon="5.5048">
        <ele>248</ele>
        <time>2010-05-21T15:10:35Z</time>
      </trkpt>
      <trkpt lat="47.12061" lon="5.5049">
        <ele>248</ele>
        <time>2010-05-21T15:10:37Z</time>
      </trkpt>
      <trkpt lat="47.1205" lon="5.505">
        <ele>248</ele>
        <time>2010-05-21T15:10:39Z</time>
      </trkpt>
      <trkpt lat="47.12038" lon="5.50509">
        <ele>248</ele>
        <time>2010-05-21T15:10:41Z</time>
      </trkpt>
      <trkpt lat="47.12027" lon="5.50517">
        <ele>248</ele>
        <time>2010-05-21T15:10:43Z</time>
      </trkpt>
      <trkpt lat="47.12016" lon="5.50524">
        <ele>243</ele>
        <time>2010-05-21T15:10:45Z</time>
      </trkpt>
      <trkpt lat="47.12004" lon="5.50532">
        <ele>243</ele>
        <time>2010-05-21T15:10:47Z</time>
      </trkpt>
      <trkpt lat="47.11992" lon="5.50538">
        <ele>243</ele>
        <time>2010-05-21T15:10:49Z</time>
      </trkpt>
      <trkpt lat="47.1198" lon="5.50544">
        <ele>243</ele>
        <time>2010-05-21T15:10:51Z</time>
      </trkpt>
      <trkpt lat="47.11968" lon="5.50551">
        <ele>243</ele>
        <time>2010-05-21T15:10:53Z</time>
      </trkpt>
      <trkpt lat="47.11956" lon="5.50558">
        <ele>243</ele>
        <time>2010-05-21T15:10:55Z</time>
      </trkpt>
      <trkpt lat="47.11943" lon="5.50564">
        <ele>243</ele>
        <time>2010-05-21T15:10:57Z</time>
      </trkpt>
      <trkpt lat="47.1193" lon="5.50571">
        <ele>243</ele>
        <time>2010-05-21T15:10:59Z</time>
      </trkpt>
      <trkpt lat="47.11918" lon="5.50578">
        <ele>243</ele>
        <time>2010-05-21T15:11:01Z</time>
      </trkpt>
      <trkpt lat="47.11906" lon="5.50586">
        <ele>243</ele>
        <time>2010-05-21T15:11:03Z</time>
      </trkpt>
      <trkpt lat="47.11893" lon="5.50593">
        <ele>243</ele>
        <time>2010-05-21T15:11:05Z</time>
      </trkpt>
      <trkpt lat="47.1188" lon="5.506">
        <ele>243</ele>
        <time>2010-05-21T15:11:07Z</time>
      </trkpt>
      <trkpt lat="47.11867" lon="5.50607">
        <ele>243</ele>
        <time>2010-05-21T15:11:09Z</time>
      </trkpt>
      <trkpt lat="47.11854" lon="5.50614">
        <ele>238</ele>
        <time>2010-05-21T15:11:11Z</time>
      </trkpt>
      <trkpt lat="47.11841" lon="5.50622">
        <ele>238</ele>
        <time>2010-05-21T15:11:13Z</time>
      </trkpt>
      <trkpt lat="47.11828" lon="5.50629">
        <ele>238</ele>
        <time>2010-05-21T15:11:15Z</time>
      </trkpt>
      <trkpt lat="47.11815" lon="5.50636">
        <ele>238</ele>
        <time>2010-05-21T15:11:17Z</time>
      </trkpt>
      <trkpt lat="47.11802" lon="5.50643">
        <ele>238</ele>
        <time>2010-05-21T15:11:19Z</time>
      </trkpt>
      <trkpt lat="47.1179" lon="5.5065">
        <ele>238</ele>
        <time>2010-05-21T15:11:21Z</time>
      </trkpt>
      <trkpt lat="47.11777" lon="5.50657">
        <ele>238</ele>
        <time>2010-05-21T15:11:23Z</time>
      </trkpt>
      <trkpt lat="47.11765" lon="5.50664">
        <ele>238</ele>
        <time>2010-05-21T15:11:25Z</time>
      </trkpt>
      <trkpt lat="47.11753" lon="5.50671">
        <ele>238</ele>
        <time>2010-05-21T15:11:27Z</time>
      </trkpt>
      <trkpt lat="47.1174" lon="5.50677">
        <ele>238</ele>
        <time>2010-05-21T15:11:29Z</time>
      </trkpt>
      <trkpt lat="47.11728" lon="5.50684">
        <ele>238</ele>
        <time>2010-05-21T15:11:31Z</time>
      </trkpt>
      <trkpt lat="47.11716" lon="5.50692">
        <ele>238</ele>
        <time>2010-05-21T15:11:33Z</time>
      </trkpt>
      <trkpt lat="47.11704" lon="5.50699">
        <ele>238</ele>
        <time>2010-05-21T15:11:35Z</time>
      </trkpt>
      <trkpt lat="47.11691" lon="5.50706">
        <ele>238</ele>
        <time>2010-05-21T15:11:37Z</time>
      </trkpt>
      <trkpt lat="47.11679" lon="5.50713">
        <ele>238</ele>
        <time>2010-05-21T15:11:39Z</time>
      </trkpt>
      <trkpt lat="47.11667" lon="5.5072">
        <ele>238</ele>
        <time>2010-05-21T15:11:41Z</time>
      </trkpt>
      <trkpt lat="47.11654" lon="5.50728">
        <ele>238</ele>
        <time>2010-05-21T15:11:43Z</time>
      </trkpt>
      <trkpt lat="47.11643" lon="5.50734">
        <ele>238</ele>
        <time>2010-05-21T15:11:45Z</time>
      </trkpt>
      <trkpt lat="47.11631" lon="5.50741">
        <ele>238</ele>
        <time>2010-05-21T15:11:47Z</time>
      </trkpt>
      <trkpt lat="47.1162" lon="5.50749">
        <ele>238</ele>
        <time>2010-05-21T15:11:49Z</time>
      </trkpt>
      <trkpt lat="47.11609" lon="5.50757">
        <ele>238</ele>
        <time>2010-05-21T15:11:51Z</time>
      </trkpt>
      <trkpt lat="47.11599" lon="5.50766">
        <ele>238</ele>
        <time>2010-05-21T15:11:53Z</time>
      </trkpt>
      <trkpt lat="47.11591" lon="5.50776">
        <ele>238</ele>
        <time>2010-05-21T15:11:55Z</time>
      </trkpt>
      <trkpt lat="47.11581" lon="5.50787">
        <ele>238</ele>
        <time>2010-05-21T15:11:57Z</time>
      </trkpt>
      <trkpt lat="47.11572" lon="5.50797">
        <ele>238</ele>
        <time>2010-05-21T15:11:59Z</time>
      </trkpt>
      <trkpt lat="47.11562" lon="5.50807">
        <ele>238</ele>
        <time>2010-05-21T15:12:01Z</time>
      </trkpt>
      <trkpt lat="47.11551" lon="5.5082">
        <ele>238</ele>
        <time>2010-05-21T15:12:03Z</time>
      </trkpt>
      <trkpt lat="47.1154" lon="5.50833">
        <ele>238</ele>
        <time>2010-05-21T15:12:05Z</time>
      </trkpt>
      <trkpt lat="47.11528" lon="5.50844">
        <ele>238</ele>
        <time>2010-05-21T15:12:07Z</time>
      </trkpt>
      <trkpt lat="47.11516" lon="5.50857">
        <ele>238</ele>
        <time>2010-05-21T15:12:09Z</time>
      </trkpt>
      <trkpt lat="47.11504" lon="5.5087">
        <ele>238</ele>
        <time>2010-05-21T15:12:11Z</time>
      </trkpt>
      <trkpt lat="47.11491" lon="5.50884">
        <ele>238</ele>
        <time>2010-05-21T15:12:13Z</time>
      </trkpt>
      <trkpt lat="47.11479" lon="5.50896">
        <ele>238</ele>
        <time>2010-05-21T15:12:15Z</time>
      </trkpt>
      <trkpt lat="47.11469" lon="5.50908">
        <ele>238</ele>
        <time>2010-05-21T15:12:17Z</time>
      </trkpt>
      <trkpt lat="47.11458" lon="5.50919">
        <ele>238</ele>
        <time>2010-05-21T15:12:19Z</time>
      </trkpt>
      <trkpt lat="47.11447" lon="5.50931">
        <ele>238</ele>
        <time>2010-05-21T15:12:21Z</time>
      </trkpt>
      <trkpt lat="47.11437" lon="5.50945">
        <ele>238</ele>
        <time>2010-05-21T15:12:23Z</time>
      </trkpt>
      <trkpt lat="47.11426" lon="5.50961">
        <ele>238</ele>
        <time>2010-05-21T15:12:25Z</time>
      </trkpt>
      <trkpt lat="47.11416" lon="5.50978">
        <ele>238</ele>
        <time>2010-05-21T15:12:27Z</time>
      </trkpt>
      <trkpt lat="47.11407" lon="5.50995">
        <ele>238</ele>
        <time>2010-05-21T15:12:29Z</time>
      </trkpt>
      <trkpt lat="47.11398" lon="5.51012">
        <ele>238</ele>
        <time>2010-05-21T15:12:31Z</time>
      </trkpt>
      <trkpt lat="47.11389" lon="5.51028">
        <ele>238</ele>
        <time>2010-05-21T15:12:33Z</time>
      </trkpt>
      <trkpt lat="47.1138" lon="5.51045">
        <ele>232</ele>
        <time>2010-05-21T15:12:35Z</time>
      </trkpt>
      <trkpt lat="47.11369" lon="5.51059">
        <ele>232</ele>
        <time>2010-05-21T15:12:37Z</time>
      </trkpt>
      <trkpt lat="47.11358" lon="5.51072">
        <ele>232</ele>
        <time>2010-05-21T15:12:39Z</time>
      </trkpt>
      <trkpt lat="47.11347" lon="5.51084">
        <ele>232</ele>
        <time>2010-05-21T15:12:41Z</time>
      </trkpt>
      <trkpt lat="47.11334" lon="5.51094">
        <ele>232</ele>
        <time>2010-05-21T15:12:43Z</time>
      </trkpt>
      <trkpt lat="47.11321" lon="5.51102">
        <ele>232</ele>
        <time>2010-05-21T15:12:45Z</time>
      </trkpt>
      <trkpt lat="47.11308" lon="5.51111">
        <ele>232</ele>
        <time>2010-05-21T15:12:47Z</time>
      </trkpt>
      <trkpt lat="47.11295" lon="5.5112">
        <ele>232</ele>
        <time>2010-05-21T15:12:49Z</time>
      </trkpt>
      <trkpt lat="47.1128" lon="5.51129">
        <ele>232</ele>
        <time>2010-05-21T15:12:51Z</time>
      </trkpt>
      <trkpt lat="47.11267" lon="5.51138">
        <ele>232</ele>
        <time>2010-05-21T15:12:53Z</time>
      </trkpt>
      <trkpt lat="47.11253" lon="5.51146">
        <ele>232</ele>
        <time>2010-05-21T15:12:55Z</time>
      </trkpt>
      <trkpt lat="47.11241" lon="5.51156">
        <ele>232</ele>
        <time>2010-05-21T15:12:57Z</time>
      </trkpt>
      <trkpt lat="47.11227" lon="5.51165">
        <ele>232</ele>
        <time>2010-05-21T15:12:59Z</time>
      </trkpt>
      <trkpt lat="47.11214" lon="5.51174">
        <ele>232</ele>
        <time>2010-05-21T15:13:01Z</time>
      </trkpt>
      <trkpt lat="47.112" lon="5.51183">
        <ele>232</ele>
        <time>2010-05-21T15:13:03Z</time>
      </trkpt>
      <trkpt lat="47.11187" lon="5.51192">
        <ele>232</ele>
        <time>2010-05-21T15:13:05Z</time>
      </trkpt>
      <trkpt lat="47.11172" lon="5.512">
        <ele>232</ele>
        <time>2010-05-21T15:13:07Z</time>
      </trkpt>
      <trkpt lat="47.11158" lon="5.51207">
        <ele>232</ele>
        <time>2010-05-21T15:13:09Z</time>
      </trkpt>
      <trkpt lat="47.11144" lon="5.51215">
        <ele>232</ele>
        <time>2010-05-21T15:13:11Z</time>
      </trkpt>
      <trkpt lat="47.11131" lon="5.51222">
        <ele>232</ele>
        <time>2010-05-21T15:13:13Z</time>
      </trkpt>
      <trkpt lat="47.11119" lon="5.51226">
        <ele>232</ele>
        <time>2010-05-21T15:13:15Z</time>
      </trkpt>
      <trkpt lat="47.11109" lon="5.51231">
        <ele>232</ele>
        <time>2010-05-21T15:13:17Z</time>
      </trkpt>
      <trkpt lat="47.11098" lon="5.51236">
        <ele>232</ele>
        <time>2010-05-21T15:13:19Z</time>
      </trkpt>
      <trkpt lat="47.11089" lon="5.5124">
        <ele>232</ele>
        <time>2010-05-21T15:13:21Z</time>
      </trkpt>
      <trkpt lat="47.11079" lon="5.51237">
        <ele>232</ele>
        <time>2010-05-21T15:13:24Z</time>
      </trkpt>
      <trkpt lat="47.1107" lon="5.51224">
        <ele>232</ele>
        <time>2010-05-21T15:13:28Z</time>
      </trkpt>
      <trkpt lat="47.11065" lon="5.51213">
        <ele>232</ele>
        <time>2010-05-21T15:13:30Z</time>
      </trkpt>
      <trkpt lat="47.11058" lon="5.51204">
        <ele>232</ele>
        <time>2010-05-21T15:13:32Z</time>
      </trkpt>
      <trkpt lat="47.11051" lon="5.51193">
        <ele>232</ele>
        <time>2010-05-21T15:13:34Z</time>
      </trkpt>
      <trkpt lat="47.11043" lon="5.51181">
        <ele>232</ele>
        <time>2010-05-21T15:13:36Z</time>
      </trkpt>
      <trkpt lat="47.11036" lon="5.51169">
        <ele>232</ele>
        <time>2010-05-21T15:13:38Z</time>
      </trkpt>
      <trkpt lat="47.11031" lon="5.51154">
        <ele>232</ele>
        <time>2010-05-21T15:13:40Z</time>
      </trkpt>
      <trkpt lat="47.11026" lon="5.51139">
        <ele>232</ele>
        <time>2010-05-21T15:13:42Z</time>
      </trkpt>
      <trkpt lat="47.11023" lon="5.51125">
        <ele>232</ele>
        <time>2010-05-21T15:13:44Z</time>
      </trkpt>
      <trkpt lat="47.11022" lon="5.51108">
        <ele>232</ele>
        <time>2010-05-21T15:13:46Z</time>
      </trkpt>
      <trkpt lat="47.1102" lon="5.51092">
        <ele>232</ele>
        <time>2010-05-21T15:13:48Z</time>
      </trkpt>
      <trkpt lat="47.11021" lon="5.51074">
        <ele>232</ele>
        <time>2010-05-21T15:13:50Z</time>
      </trkpt>
      <trkpt lat="47.11022" lon="5.51055">
        <ele>232</ele>
        <time>2010-05-21T15:13:52Z</time>
      </trkpt>
      <trkpt lat="47.11022" lon="5.51037">
        <ele>232</ele>
        <time>2010-05-21T15:13:54Z</time>
      </trkpt>
      <trkpt lat="47.11022" lon="5.51019">
        <ele>232</ele>
        <time>2010-05-21T15:13:56Z</time>
      </trkpt>
      <trkpt lat="47.11023" lon="5.51001">
        <ele>232</ele>
        <time>2010-05-21T15:13:58Z</time>
      </trkpt>
      <trkpt lat="47.11024" lon="5.50983">
        <ele>232</ele>
        <time>2010-05-21T15:14:00Z</time>
      </trkpt>
      <trkpt lat="47.11025" lon="5.50964">
        <ele>232</ele>
        <time>2010-05-21T15:14:02Z</time>
      </trkpt>
      <trkpt lat="47.11026" lon="5.50945">
        <ele>232</ele>
        <time>2010-05-21T15:14:04Z</time>
      </trkpt>
      <trkpt lat="47.11026" lon="5.50927">
        <ele>232</ele>
        <time>2010-05-21T15:14:06Z</time>
      </trkpt>
      <trkpt lat="47.11026" lon="5.5091">
        <ele>232</ele>
        <time>2010-05-21T15:14:08Z</time>
      </trkpt>
      <trkpt lat="47.11026" lon="5.50893">
        <ele>232</ele>
        <time>2010-05-21T15:14:10Z</time>
      </trkpt>
      <trkpt lat="47.11027" lon="5.50878">
        <ele>232</ele>
        <time>2010-05-21T15:14:12Z</time>
      </trkpt>
      <trkpt lat="47.11028" lon="5.50862">
        <ele>232</ele>
        <time>2010-05-21T15:14:14Z</time>
      </trkpt>
      <trkpt lat="47.11028" lon="5.50848">
        <ele>232</ele>
        <time>2010-05-21T15:14:16Z</time>
      </trkpt>
      <trkpt lat="47.11032" lon="5.50829">
        <ele>232</ele>
        <time>2010-05-21T15:14:19Z</time>
      </trkpt>
      <trkpt lat="47.11039" lon="5.50819">
        <ele>232</ele>
        <time>2010-05-21T15:14:21Z</time>
      </trkpt>
      <trkpt lat="47.11047" lon="5.50809">
        <ele>232</ele>
        <time>2010-05-21T15:14:23Z</time>
      </trkpt>
      <trkpt lat="47.11053" lon="5.50797">
        <ele>232</ele>
        <time>2010-05-21T15:14:25Z</time>
      </trkpt>
      <trkpt lat="47.11056" lon="5.50781">
        <ele>232</ele>
        <time>2010-05-21T15:14:27Z</time>
      </trkpt>
      <trkpt lat="47.11055" lon="5.50765">
        <ele>232</ele>
        <time>2010-05-21T15:14:29Z</time>
      </trkpt>
      <trkpt lat="47.11046" lon="5.50753">
        <ele>232</ele>
        <time>2010-05-21T15:14:31Z</time>
      </trkpt>
      <trkpt lat="47.11035" lon="5.50746">
        <ele>232</ele>
        <time>2010-05-21T15:14:33Z</time>
      </trkpt>
      <trkpt lat="47.11022" lon="5.50748">
        <ele>232</ele>
        <time>2010-05-21T15:14:35Z</time>
      </trkpt>
      <trkpt lat="47.11009" lon="5.50756">
        <ele>232</ele>
        <time>2010-05-21T15:14:37Z</time>
      </trkpt>
      <trkpt lat="47.10995" lon="5.50759">
        <ele>232</ele>
        <time>2010-05-21T15:14:39Z</time>
      </trkpt>
      <trkpt lat="47.1098" lon="5.50751">
        <ele>232</ele>
        <time>2010-05-21T15:14:41Z</time>
      </trkpt>
      <trkpt lat="47.10966" lon="5.50741">
        <ele>232</ele>
        <time>2010-05-21T15:14:43Z</time>
      </trkpt>
      <trkpt lat="47.10951" lon="5.5073">
        <ele>232</ele>
        <time>2010-05-21T15:14:45Z</time>
      </trkpt>
      <trkpt lat="47.10937" lon="5.50719">
        <ele>232</ele>
        <time>2010-05-21T15:14:47Z</time>
      </trkpt>
      <trkpt lat="47.10923" lon="5.50709">
        <ele>232</ele>
        <time>2010-05-21T15:14:49Z</time>
      </trkpt>
      <trkpt lat="47.10909" lon="5.507">
        <ele>232</ele>
        <time>2010-05-21T15:14:51Z</time>
      </trkpt>
      <trkpt lat="47.10895" lon="5.50691">
        <ele>232</ele>
        <time>2010-05-21T15:14:53Z</time>
      </trkpt>
    </trkseg>
  </trk>
</gpx>